# Wetter Temperatur Luftdruck Luftfeuchtigkeit Sichtweite Windgeschwindigkeit Windrichtung Zeit
1 Clouds 10 1011 30 10000 3.6 340 20:19 02.04.2020
2 Clouds 11 1011 30 10000 3.1 340 19:44 02.04.2020
3 Clouds 12 1011 30 10000 3.1 340 19:21 02.04.2020
4 Clouds 12 1010 28 10000 1 0 18:58 02.04.2020
5 Clouds 12 1010 30 10000 1.5 0 18:39 02.04.2020
6 Clear 13 1010 30 10000 1.5 0 18:20 02.04.2020
7 Clear 13 1010 28 10000 1.5 0 17:56 02.04.2020
8 Clear 13 1011 28 10000 1.5 80 17:38 02.04.2020
9 Clear 13 1011 30 10000 1.5 70 17:18 02.04.2020
10 Clear 13 1011 28 10000 2.1 0 16:55 02.04.2020
11 Clear 13 1011 30 10000 2.1 350 16:37 02.04.2020
12 Clear 13 1011 30 10000 2.1 50 16:18 02.04.2020
13 Clear 13 1012 30 10000 2.1 0 15:44 02.04.2020
14 Clear 13 1012 33 10000 1.5 0 15:21 02.04.2020
15 Clear 13 1012 30 10000 1.5 0 14:59 02.04.2020
16 Clear 13 1013 32 10000 1 0 14:40 02.04.2020
17 Clear 12 1012 32 10000 1.5 0 14:20 02.04.2020
18 Clear 12 1013 32 10000 1 0 13:57 02.04.2020
19 Clear 12 1013 40 10000 1.5 0 13:38 02.04.2020
20 Clear 12 1013 40 10000 1.5 0 13:38 02.04.2020
21 Clear 12 1013 37 10000 1.5 30 13:20 02.04.2020
22 Clear 12 1013 37 10000 1 0 12:56 02.04.2020
23 Clear 12 1013 37 10000 1 0 12:56 02.04.2020
24 Clear 11 1014 39 10000 1.5 0 12:37 02.04.2020
25 Clear 10 1014 37 10000 1 0 12:19 02.04.2020
26 Clear 10 1014 39 10000 1 0 11:57 02.04.2020
27 Clear 9 1014 45 10000 1.5 0 11:38 02.04.2020
28 Clear 9 1014 45 10000 1 0 11:19 02.04.2020
29 Clear 9 1014 45 10000 1 0 11:19 02.04.2020
30 Clear 8 1014 48 10000 1 0 10:55 02.04.2020
31 Clear 7 1014 48 10000 1.5 260 10:37 02.04.2020
32 Clear 5 1014 56 10000 1.44 266 10:18 02.04.2020
33 Clear 4 1015 69 10000 1 0 09:43 02.04.2020
34 Clear 3 1015 69 10000 1 0 09:25 02.04.2020
35 Clear 2 1015 86 10000 0.83 176 08:59 02.04.2020
36 Clear 1 1014 67 10000 0.83 176 08:40 02.04.2020
37 Clear 0 1014 67 10000 0.83 176 08:22 02.04.2020
38 Clear -1 1014 67 10000 2.6 240 07:45 02.04.2020
39 Clear -1 1014 69 10000 2.1 220 07:20 02.04.2020
40 Clear -1 1014 69 10000 2.1 220 06:58 02.04.2020
41 Clear -1 1014 73 10000 2.6 230 06:21 02.04.2020
42 Clear -1 1014 73 10000 2.1 190 05:45 02.04.2020
43 Clear 0 1014 86 10000 1.01 150 04:35 02.04.2020
44 Clear 0 1015 80 10000 0.5 230 01:51 02.04.2020
45 Clear 1 1016 55 10000 5.1 270 00:48 02.04.2020
46 Clear 2 1016 55 10000 5.1 270 00:27 02.04.2020
47 Clear 2 1016 55 10000 4.1 270 23:57 01.04.2020
48 Clear 2 1016 52 10000 4.6 270 23:37 01.04.2020
49 Clear 2 1016 52 10000 4.6 270 23:18 01.04.2020
50 Clear 3 1016 52 10000 3.6 270 22:41 01.04.2020
51 Clear 4 1016 52 10000 3.6 270 22:22 01.04.2020
52 Clear 4 1016 52 10000 3.6 270 21:57 01.04.2020
53 Clear 4 1016 52 10000 2.1 300 21:39 01.04.2020
54 Clear 5 1016 52 10000 2.1 300 21:18 01.04.2020
55 Clear 6 1016 45 10000 2.1 340 20:55 01.04.2020
56 Clear 5 1016 45 10000 2.1 340 20:55 01.04.2020
57 Clear 7 1015 37 10000 1.5 10 20:37 01.04.2020
58 Clear 7 1015 37 10000 1.5 10 20:18 01.04.2020
59 Clear 7 1015 37 10000 1.5 10 20:18 01.04.2020
60 Clear 9 1016 32 10000 2.1 20 19:43 01.04.2020
61 Clear 10 1016 32 10000 2.1 20 19:22 01.04.2020
62 Clear 10 1016 30 10000 1 0 18:59 01.04.2020
63 Clear 10 1016 27 10000 1.5 0 18:41 01.04.2020
64 Clear 11 1016 27 10000 1.5 0 18:21 01.04.2020
65 Clear 11 1016 27 10000 1 0 17:56 01.04.2020
66 Clear 12 1016 27 10000 1 0 17:37 01.04.2020
67 Clear 12 1016 27 10000 1 0 17:18 01.04.2020
68 Clear 12 1017 34 10000 4.1 20 16:55 01.04.2020
69 Clear 12 1017 34 10000 3.6 20 16:36 01.04.2020
70 Clear 12 1017 27 10000 1.5 0 16:18 01.04.2020
71 Clear 11 1018 34 10000 3.6 340 15:42 01.04.2020
72 Clear 11 1018 34 10000 3.6 340 15:22 01.04.2020
73 Clear 11 1018 37 10000 3.6 330 14:59 01.04.2020
74 Clear 11 1018 43 10000 3.6 340 14:39 01.04.2020
75 Clear 10 1019 36 10000 1.5 90 14:21 01.04.2020
76 Clear 10 1019 43 10000 4.1 350 13:59 01.04.2020
77 Clear 10 1020 39 10000 3.6 10 13:39 01.04.2020
78 Clear 9 1020 39 10000 2.1 70 13:20 01.04.2020
79 Clear 9 1020 45 10000 3.1 350 12:57 01.04.2020
80 Clear 9 1020 45 10000 2.1 360 12:37 01.04.2020
81 Clear 7 1021 45 10000 3.6 360 12:18 01.04.2020
82 Clear 6 1021 45 10000 3.6 360 11:56 01.04.2020
83 Clear 6 1021 48 10000 3.1 350 11:37 01.04.2020
84 Clear 6 1021 48 10000 3.1 350 11:37 01.04.2020
85 Clear 6 1021 48 10000 3.1 350 11:37 01.04.2020
86 Clear 6 1021 60 10000 2.6 340 11:18 01.04.2020
87 Clear 5 1022 60 10000 2.6 10 10:38 01.04.2020
88 Clear 4 1021 55 10000 3.1 360 10:20 01.04.2020
89 Clear 3 1022 64 10000 3.1 10 09:58 01.04.2020
90 Clear 2 1022 69 10000 2.1 10 09:40 01.04.2020
91 Clear 0 1022 59 10000 2.6 10 09:19 01.04.2020
92 Clear -1 1022 68 10000 1.5 0 08:44 01.04.2020
93 Clear -2 1022 68 10000 1.5 0 08:19 01.04.2020
94 Clear -2 1022 79 10000 1.5 0 07:58 01.04.2020
95 Clear -2 1022 74 10000 1.5 310 07:40 01.04.2020
96 Clear -2 1022 74 10000 1.5 310 07:19 01.04.2020
97 Clear -2 1022 68 10000 1.5 300 06:41 01.04.2020
98 Clear -2 1022 87 10000 2.6 310 06:20 01.04.2020
99 Clear -2 1022 74 10000 1.5 310 05:28 01.04.2020
100 Clear -1 1022 87 10000 2.1 350 03:40 01.04.2020
101 Clear -1 1023 84 10000 2.6 340 02:59 01.04.2020
102 Clear -1 1023 51 10000 2.6 320 02:36 01.04.2020
103 Clear 0 1023 59 10000 3.1 350 01:50 01.04.2020
104 Clear 0 1023 59 10000 3.1 360 01:25 01.04.2020
105 Clear 1 1024 55 10000 3.6 360 00:47 01.04.2020
106 Clear 1 1024 55 10000 3.6 360 00:22 01.04.2020
107 Clear 1 1024 55 10000 4.1 10 23:57 31.03.2020
108 Clear 1 1024 55 10000 4.1 10 23:57 31.03.2020
109 Clear 1 1024 55 10000 4.6 10 23:38 31.03.2020
110 Clear 2 1024 55 10000 4.6 10 23:19 31.03.2020
111 Clear 2 1024 51 10000 4.1 360 22:41 31.03.2020
112 Clear 2 1024 51 10000 4.1 360 22:21 31.03.2020
113 Clear 3 1024 48 10000 5.1 360 21:58 31.03.2020
114 Clear 3 1024 44 10000 4.6 360 21:40 31.03.2020
115 Clear 4 1024 44 10000 4.6 360 21:21 31.03.2020
116 Clear 5 1024 41 10000 4.6 10 20:57 31.03.2020
117 Clear 5 1024 41 10000 4.6 10 20:37 31.03.2020
118 Clear 6 1024 36 10000 6.7 20 20:19 31.03.2020
119 Clear 7 1024 36 10000 6.7 20 19:57 31.03.2020
120 Clear 7 1023 34 10000 6.2 20 19:38 31.03.2020
121 Clear 8 1023 34 10000 7.7 10 19:19 31.03.2020
122 Clear 9 1023 34 10000 6.2 20 18:44 31.03.2020
123 Clear 9 1023 34 10000 6.2 20 18:21 31.03.2020
124 Clear 9 1023 34 10000 6.2 10 17:58 31.03.2020
125 Clear 9 1024 34 10000 5.7 20 17:39 31.03.2020
126 Clear 10 1024 34 10000 5.7 20 17:21 31.03.2020
127 Clear 10 1024 37 10000 6.2 10 16:57 31.03.2020
128 Clear 10 1024 37 10000 8.7 10 16:37 31.03.2020
129 Clear 10 1024 37 10000 6.7 20 16:18 31.03.2020
130 Clear 10 1024 37 10000 6.7 20 15:56 31.03.2020
131 Clear 10 1024 34 10000 5.7 30 15:37 31.03.2020
132 Clear 10 1024 34 10000 5.7 30 15:37 31.03.2020
133 Clear 10 1024 37 10000 5.7 30 15:18 31.03.2020
134 Clear 10 1024 29 10000 4.1 40 14:56 31.03.2020
135 Clear 10 1025 37 10000 5.7 360 14:37 31.03.2020
136 Clear 10 1025 37 10000 5.7 10 14:18 31.03.2020
137 Clear 9 1025 39 10000 4.6 30 13:41 31.03.2020
138 Clear 9 1025 33 10000 5.1 50 13:19 31.03.2020
139 Clear 8 1025 33 10000 5.7 30 12:55 31.03.2020
140 Clear 8 1025 42 10000 5.1 10 12:37 31.03.2020
141 Clear 7 1025 33 10000 5.1 40 12:18 31.03.2020
142 Clear 6 1026 39 10000 3.6 360 11:38 31.03.2020
143 Clear 5 1026 36 10000 4.1 30 11:19 31.03.2020
144 Clear 5 1026 44 10000 3.6 10 10:58 31.03.2020
145 Clear 5 1026 51 10000 3.6 360 10:39 31.03.2020
146 Clear 3 1025 48 10000 5.7 360 10:21 31.03.2020
147 Clear 2 1026 64 10000 3.1 10 09:56 31.03.2020
148 Clear 1 1026 53 10000 1.5 0 09:37 31.03.2020
149 Clear 1 1026 53 10000 1.5 0 09:37 31.03.2020
150 Clear 0 1025 59 10000 6.2 360 09:19 31.03.2020
151 Clear 0 1025 69 10000 5.1 360 08:56 31.03.2020
152 Clear -1 1025 77 10000 4.6 350 08:37 31.03.2020
153 Clear -2 1024 77 10000 2.6 340 08:18 31.03.2020
154 Clear -3 1024 77 10000 3.6 360 07:54 31.03.2020
155 Clear -2 1024 77 10000 3.6 360 07:36 31.03.2020
156 Clear -3 1024 77 10000 3.1 10 07:18 31.03.2020
157 Clear -2 1024 68 10000 3.6 360 06:42 31.03.2020
158 Clear -2 1024 58 10000 2.1 340 05:53 31.03.2020
159 Clear -2 1024 63 10000 2.1 350 05:26 31.03.2020
160 Clear -2 1024 63 7000 2.1 320 03:27 31.03.2020
161 Clear -1 1024 58 10000 2.1 340 01:52 31.03.2020
162 Clear -1 1024 81 10000 3.1 350 01:33 31.03.2020
163 Clear -1 1025 47 10000 2.6 10 00:46 31.03.2020
164 Clear -1 1025 47 10000 2.6 10 00:24 31.03.2020
165 Clear 0 1025 50 10000 4.1 10 23:41 30.03.2020
166 Clear 0 1025 50 10000 4.1 10 23:20 30.03.2020
167 Clear 0 1025 50 10000 4.1 10 23:20 30.03.2020
168 Clear 1 1025 43 10000 3.6 10 22:58 30.03.2020
169 Clear 1 1025 43 10000 3.6 10 22:58 30.03.2020
170 Clear 1 1024 40 10000 4.1 10 22:39 30.03.2020
171 Clear 1 1024 43 10000 3.6 10 22:20 30.03.2020
172 Clear 1 1024 43 10000 3.6 10 21:58 30.03.2020
173 Clear 2 1024 40 10000 3.1 10 21:39 30.03.2020
174 Clear 1 1024 40 10000 3.1 10 21:39 30.03.2020
175 Clear 3 1024 40 10000 4.1 360 21:20 30.03.2020
176 Clear 3 1024 40 10000 4.1 360 20:59 30.03.2020
177 Clear 3 1024 38 10000 4.1 10 20:39 30.03.2020
178 Clear 3 1024 38 10000 4.1 10 20:39 30.03.2020
179 Clear 4 1024 38 10000 4.1 10 20:20 30.03.2020
180 Clear 4 1024 38 10000 4.1 10 20:20 30.03.2020
181 Clear 5 1023 30 10000 5.1 20 19:56 30.03.2020
182 Clear 5 1023 28 10000 6.7 20 19:38 30.03.2020
183 Clear 5 1023 28 10000 6.7 20 19:38 30.03.2020
184 Clear 6 1023 28 10000 5.7 20 19:20 30.03.2020
185 Clear 6 1023 30 10000 7.2 20 18:43 30.03.2020
186 Clear 7 1023 36 10000 6.2 10 18:25 30.03.2020
187 Clear 6 1023 36 10000 6.2 10 17:58 30.03.2020
188 Clear 6 1023 36 10000 6.7 20 17:39 30.03.2020
189 Clear 7 1023 36 10000 6.7 20 17:21 30.03.2020
190 Clear 7 1023 33 10000 7.2 10 16:59 30.03.2020
191 Clear 7 1024 39 10000 7.2 20 16:40 30.03.2020
192 Clear 6 1024 39 10000 7.2 20 16:21 30.03.2020
193 Clear 6 1024 42 10000 7.2 20 15:56 30.03.2020
194 Clear 6 1024 42 10000 7.2 20 15:56 30.03.2020
195 Clear 6 1024 45 10000 6.7 20 15:38 30.03.2020
196 Clouds 6 1024 45 10000 6.7 20 15:20 30.03.2020
197 Clouds 6 1024 48 10000 6.7 360 14:56 30.03.2020
198 Clouds 6 1024 48 10000 6.2 20 14:37 30.03.2020
199 Clouds 5 1024 48 10000 6.2 20 14:18 30.03.2020
200 Clouds 5 1025 56 10000 6.7 20 13:56 30.03.2020
201 Clouds 5 1025 56 10000 6.7 10 13:37 30.03.2020
202 Clouds 4 1025 55 10000 7.2 10 13:19 30.03.2020
203 Clouds 4 1026 55 10000 6.7 20 12:44 30.03.2020
204 Clouds 3 1026 55 10000 6.7 20 12:21 30.03.2020
205 Clouds 3 1026 59 10000 7.7 10 11:58 30.03.2020
206 Clouds 3 1026 64 10000 9.3 10 11:40 30.03.2020
207 Clouds 3 1026 64 10000 9.3 10 11:21 30.03.2020
208 Clouds 2 1026 69 10000 9.3 360 10:55 30.03.2020
209 Clouds 2 1026 69 10000 9.8 360 10:37 30.03.2020
210 Clouds 2 1025 69 10000 8.7 10 10:18 30.03.2020
211 Clouds 2 1025 74 10000 7.7 10 09:40 30.03.2020
212 Clouds 1 1025 69 10000 8.7 10 09:19 30.03.2020
213 Clouds 1 1025 69 10000 8.7 10 08:56 30.03.2020
214 Clouds 1 1025 64 10000 8.2 10 08:36 30.03.2020
215 Clouds 1 1025 64 10000 8.7 10 08:18 30.03.2020
216 Clouds 1 1024 69 10000 7.7 10 07:42 30.03.2020
217 Clouds 1 1024 69 10000 8.2 10 07:21 30.03.2020
218 Clouds 1 1024 69 10000 7.7 20 06:43 30.03.2020
219 Clouds 1 1024 69 10000 7.7 20 06:25 30.03.2020
220 Clouds 1 1024 74 10000 7.2 20 05:44 30.03.2020
221 Clouds 2 1024 80 10000 6.7 10 04:31 30.03.2020
222 Rain 2 1025 82 10000 7.7 10 03:57 30.03.2020
223 Drizzle 2 1025 86 10000 7.7 10 02:45 30.03.2020
224 Drizzle 2 1024 86 8000 7.7 10 01:57 30.03.2020
225 Rain 2 1024 93 7000 7.2 10 01:18 30.03.2020
226 Drizzle 2 1024 86 9000 7.7 10 00:29 30.03.2020
227 Rain 2 1024 93 10000 6.2 10 23:56 29.03.2020
228 Rain 2 1024 93 9000 5.7 360 23:37 29.03.2020
229 Rain 2 1024 93 7000 6.7 10 23:19 29.03.2020
230 Rain 2 1024 93 6000 7.2 10 22:41 29.03.2020
231 Rain 2 1024 93 6000 7.2 10 22:20 29.03.2020
232 Rain 2 1023 93 7000 6.7 10 21:59 29.03.2020
233 Rain 2 1023 93 6000 7.7 10 21:38 29.03.2020
234 Rain 2 1023 93 9000 5.7 10 21:20 29.03.2020
235 Rain 2 1023 93 9000 5.7 10 20:56 29.03.2020
236 Rain 3 1023 93 7000 6.2 10 20:37 29.03.2020
237 Rain 3 1023 93 7000 6.2 10 20:37 29.03.2020
238 Rain 3 1023 93 7000 6.2 10 20:37 29.03.2020
239 Rain 3 1022 86 7000 7.2 20 20:19 29.03.2020
240 Rain 3 1022 86 7000 7.2 20 20:19 29.03.2020
241 Rain 3 1022 86 9000 6.2 10 19:57 29.03.2020
242 Rain 3 1022 86 9000 6.2 10 19:39 29.03.2020
243 Rain 3 1022 86 10000 6.7 10 19:21 29.03.2020
244 Rain 3 1022 86 10000 6.7 10 18:57 29.03.2020
245 Rain 3 1022 86 10000 5.1 20 18:38 29.03.2020
246 Rain 3 1021 86 10000 4.6 10 18:19 29.03.2020
247 Rain 3 1021 86 10000 4.6 10 18:19 29.03.2020
248 Rain 3 1021 86 10000 4.6 10 17:56 29.03.2020
249 Rain 3 1022 86 10000 3.6 10 17:38 29.03.2020
250 Rain 3 1022 86 10000 3.6 10 17:19 29.03.2020
251 Rain 3 1022 86 10000 5.1 10 16:56 29.03.2020
252 Rain 3 1022 86 10000 4.6 20 16:38 29.03.2020
253 Rain 3 1022 86 10000 4.6 20 16:38 29.03.2020
254 Rain 3 1022 86 10000 6.2 30 16:19 29.03.2020
255 Rain 3 1022 80 10000 5.7 40 15:42 29.03.2020
256 Rain 3 1022 80 10000 5.7 40 15:42 29.03.2020
257 Rain 3 1022 86 10000 7.2 20 15:24 29.03.2020
258 Rain 3 1022 86 10000 7.2 20 14:59 29.03.2020
259 Rain 3 1021 80 10000 7.2 10 14:40 29.03.2020
260 Rain 3 1021 80 10000 7.2 10 14:40 29.03.2020
261 Rain 3 1021 80 10000 7.2 10 14:20 29.03.2020
262 Rain 4 1021 80 10000 7.2 10 13:58 29.03.2020
263 Rain 4 1021 80 10000 7.2 20 13:40 29.03.2020
264 Clouds 4 1021 77 10000 7.7 30 13:21 29.03.2020
265 Clouds 4 1021 77 10000 7.7 30 12:57 29.03.2020
266 Clouds 5 1021 77 10000 7.2 20 12:38 29.03.2020
267 Clouds 5 1021 73 10000 8.7 10 12:19 29.03.2020
268 Clouds 5 1021 73 10000 8.7 10 11:55 29.03.2020
269 Clouds 5 1021 73 10000 7.2 20 11:37 29.03.2020
270 Clouds 6 1021 73 10000 7.2 20 11:19 29.03.2020
271 Clouds 6 1020 65 10000 6.7 10 10:38 29.03.2020
272 Clouds 6 1020 65 10000 6.7 10 10:19 29.03.2020
273 Clouds 6 1020 70 10000 8.2 10 09:54 29.03.2020
274 Clouds 5 1020 70 10000 7.7 10 09:36 29.03.2020
275 Clouds 6 1020 70 10000 7.2 20 09:18 29.03.2020
276 Clouds 5 1019 75 10000 6.2 10 08:41 29.03.2020
277 Clouds 5 1019 75 10000 6.2 10 08:22 29.03.2020
278 Clouds 5 1019 73 10000 6.2 360 07:45 29.03.2020
279 Clouds 6 1019 73 10000 5.1 360 07:22 29.03.2020
280 Clouds 6 1019 70 10000 5.1 10 05:59 29.03.2020
281 Clouds 7 1018 70 10000 5.7 10 04:56 29.03.2020
282 Clouds 7 1018 70 10000 6.2 10 03:41 29.03.2020
283 Clouds 8 1018 46 10000 6.2 10 03:20 29.03.2020
284 Clouds 8 1018 43 10000 5.7 10 01:40 29.03.2020
285 Clear 8 1018 43 10000 5.7 10 01:21 29.03.2020
286 Clear 8 1018 70 10000 6.2 10 00:40 29.03.2020
287 Clear 8 1017 46 10000 5.7 10 00:19 29.03.2020
288 Clear 8 1017 53 10000 2.6 350 23:41 28.03.2020
289 Clear 9 1017 57 10000 2.6 340 23:22 28.03.2020
290 Clear 9 1017 57 10000 2.1 330 22:44 28.03.2020
291 Clear 9 1017 57 10000 2.1 330 22:23 28.03.2020
292 Clear 9 1017 57 10000 2.1 290 21:59 28.03.2020
293 Clear 9 1017 53 10000 2.6 290 21:40 28.03.2020
294 Clear 10 1017 50 10000 3.6 280 21:21 28.03.2020
295 Clear 10 1017 50 10000 3.6 280 20:57 28.03.2020
296 Clear 10 1016 50 10000 1.5 0 20:38 28.03.2020
297 Rain 11 1016 50 10000 1.5 0 20:20 28.03.2020
298 Clouds 11 1016 43 10000 2.1 320 19:55 28.03.2020
299 Clouds 11 1016 47 10000 3.1 360 19:36 28.03.2020
300 Clouds 11 1016 47 10000 3.1 360 19:36 28.03.2020
301 Clouds 12 1016 41 10000 4.1 360 19:18 28.03.2020
302 Clouds 14 1015 36 10000 4.6 10 18:42 28.03.2020
303 Clouds 15 1015 36 10000 4.6 10 18:21 28.03.2020
304 Clouds 15 1015 36 10000 5.7 360 17:56 28.03.2020
305 Clouds 15 1015 33 10000 4.6 20 17:36 28.03.2020
306 Rain 16 1015 39 10000 4.6 10 17:18 28.03.2020
307 Rain 16 1015 36 10000 4.1 360 16:42 28.03.2020
308 Rain 16 1015 36 10000 4.1 360 16:20 28.03.2020
309 Rain 16 1016 39 10000 4.1 20 15:55 28.03.2020
310 Rain 16 1016 39 10000 4.1 10 15:37 28.03.2020
311 Rain 16 1016 39 10000 4.6 30 15:18 28.03.2020
312 Rain 16 1016 44 10000 4.6 20 14:42 28.03.2020
313 Rain 16 1016 44 10000 4.6 20 14:22 28.03.2020
314 Clouds 15 1016 44 10000 5.1 20 13:56 28.03.2020
315 Clouds 16 1017 47 10000 4.1 30 13:37 28.03.2020
316 Clouds 15 1017 47 10000 4.1 30 13:18 28.03.2020
317 Clouds 15 1017 47 10000 3.6 20 13:18 28.03.2020
318 Clouds 15 1017 50 10000 3.6 30 12:38 28.03.2020
319 Clouds 14 1017 54 10000 3.1 360 12:19 28.03.2020
320 Clouds 13 1018 58 10000 1.5 360 11:42 28.03.2020
321 Clouds 13 1018 58 10000 1.5 360 11:42 28.03.2020
322 Clouds 12 1018 62 10000 1.5 10 11:21 28.03.2020
323 Clouds 11 1018 62 10000 1.5 10 10:55 28.03.2020
324 Clouds 11 1018 66 10000 1.5 0 10:36 28.03.2020
325 Clouds 10 1018 66 10000 1 0 10:18 28.03.2020
326 Clouds 9 1018 65 10000 0.5 0 09:40 28.03.2020
327 Clouds 8 1018 65 10000 0.5 0 09:22 28.03.2020
328 Clouds 6 1017 80 10000 1 0 08:45 28.03.2020
329 Clouds 6 1017 80 10000 1 0 08:25 28.03.2020
330 Clouds 4 1017 86 10000 1 120 07:58 28.03.2020
331 Clouds 3 1017 86 10000 0.66 173 07:40 28.03.2020
332 Clouds 2 1017 75 10000 1 0 06:54 28.03.2020
333 Clouds 2 1017 75 8000 0.66 173 06:29 28.03.2020
334 Clouds 2 1016 93 10000 1 0 05:38 28.03.2020
335 Clouds 2 1016 76 10000 0.5 0 05:19 28.03.2020
336 Clouds 3 1016 86 10000 1 0 04:39 28.03.2020
337 Clouds 3 1016 75 10000 4.6 210 02:55 28.03.2020
338 Clouds 4 1016 75 9000 0.5 150 01:48 28.03.2020
339 Clouds 4 1016 75 9000 0.5 150 01:24 28.03.2020
340 Clouds 4 1016 74 9000 1.5 210 00:54 28.03.2020
341 Clouds 4 1016 73 9000 1 230 00:33 28.03.2020
342 Clouds 4 1016 74 10000 1 190 23:45 27.03.2020
343 Clouds 4 1016 74 10000 1 190 23:26 27.03.2020
344 Clouds 4 1016 74 10000 1 190 23:26 27.03.2020
345 Clouds 5 1016 71 10000 0.5 260 22:58 27.03.2020
346 Clouds 5 1016 80 10000 1 0 22:39 27.03.2020
347 Clouds 5 1016 61 10000 3.1 260 22:21 27.03.2020
348 Clouds 5 1016 71 10000 1 250 21:59 27.03.2020
349 Clouds 6 1016 57 10000 3.6 260 21:41 27.03.2020
350 Clouds 6 1016 57 10000 3.6 260 21:23 27.03.2020
351 Clouds 7 1016 57 10000 3.6 270 20:57 27.03.2020
352 Clouds 7 1016 57 10000 4.1 280 20:39 27.03.2020
353 Clouds 8 1016 57 10000 4.1 280 20:19 27.03.2020
354 Clouds 8 1016 57 10000 4.1 280 20:19 27.03.2020
355 Clouds 8 1016 61 10000 3.1 270 19:56 27.03.2020
356 Clouds 8 1015 50 10000 1.5 330 19:38 27.03.2020
357 Clouds 9 1015 50 10000 2.1 10 19:19 27.03.2020
358 Clouds 10 1015 46 10000 3.6 10 18:43 27.03.2020
359 Clouds 11 1015 46 10000 3.6 10 18:23 27.03.2020
360 Clouds 12 1015 47 10000 2.6 10 17:55 27.03.2020
361 Clouds 12 1014 43 10000 3.1 20 17:37 27.03.2020
362 Clouds 12 1014 53 10000 3.6 10 17:19 27.03.2020
363 Clouds 13 1014 43 10000 3.6 20 16:44 27.03.2020
364 Clouds 13 1014 43 10000 3.6 20 16:25 27.03.2020
365 Clouds 13 1014 43 10000 3.6 20 16:25 27.03.2020
366 Clouds 13 1014 43 10000 3.6 20 16:25 27.03.2020
367 Clouds 13 1015 53 10000 2.1 20 15:45 27.03.2020
368 Clouds 12 1010 51 0 0.45 355 15:27 27.03.2020
369 Clouds 12 1013 54 0 1.79 265 14:59 27.03.2020
370 Clouds 11 1013 54 0 2.68 261 14:40 27.03.2020
371 Clouds 11 1013 51 0 3.58 245 14:22 27.03.2020
372 Clear 11 1013 53 0 0.45 228 13:54 27.03.2020
373 Clear 11 1013 55 0 1.79 267 13:36 27.03.2020
374 Clear 10 1013 56 0 3.58 263 13:18 27.03.2020
375 Clear 10 1013 46 0 0.45 315 12:42 27.03.2020
376 Clear 10 1013 50 0 2.21 339 12:19 27.03.2020
377 Clear 10 1014 47 0 2.21 339 11:55 27.03.2020
378 Clear 9 1014 48 0 2.21 339 11:36 27.03.2020
379 Clear 7 1013 59 0 2.68 274 11:18 27.03.2020
380 Clear 7 1014 55 0 0.45 225 10:42 27.03.2020
381 Clear 7 1014 57 0 0.93 329 10:22 27.03.2020
382 Clear 7 1014 57 0 0.93 329 10:22 27.03.2020
383 Clear 6 1014 60 0 0.93 329 09:59 27.03.2020
384 Clear 5 1014 61 0 0.93 329 09:41 27.03.2020
385 Clear 5 1015 65 0 0.93 329 09:22 27.03.2020
386 Clear 4 1014 67 0 0.93 329 08:59 27.03.2020
387 Clear 3 1014 69 0 0.93 329 08:40 27.03.2020
388 Clouds 1 1014 77 0 0.97 94 08:22 27.03.2020
389 Clouds 1 1014 78 0 0.54 104 07:59 27.03.2020
390 Clouds 1 1014 81 0 0.54 104 07:41 27.03.2020
391 Clouds 0 1014 82 0 0.54 104 07:21 27.03.2020
392 Clouds -1 1014 81 0 0.54 104 06:40 27.03.2020
393 Clouds 0 1014 80 0 0.54 104 05:51 27.03.2020
394 Clouds 1 1013 76 0 0.98 94 03:34 27.03.2020
395 Clouds 1 1012 74 0 1.25 91 01:56 27.03.2020
396 Clouds 1 1012 74 0 1.24 87 01:19 27.03.2020
397 Clouds 0 1012 72 0 1.24 87 00:43 27.03.2020
398 Clouds 1 1013 69 0 1.24 87 00:19 27.03.2020
399 Clouds 0 1010 59 0 0.45 111 23:42 26.03.2020
400 Clouds 1 1010 59 0 0.89 111 23:19 26.03.2020
401 Clouds 1 1010 59 0 0.89 111 22:57 26.03.2020
402 Clouds 0 1010 59 0 1.65 68 22:36 26.03.2020
403 Clouds 1 1010 58 0 0.89 111 22:18 26.03.2020
404 Clouds 1 1010 57 0 0.45 111 21:40 26.03.2020
405 Clouds 1 1010 57 0 0.89 92 21:22 26.03.2020
406 Clouds 1 1010 57 0 0.89 92 20:59 26.03.2020
407 Clouds 2 1011 54 0 0.89 111 20:39 26.03.2020
408 Clouds 4 1014 53 0 0.45 0 20:21 26.03.2020
409 Clouds 2 1010 52 0 2.46 38 19:58 26.03.2020
410 Clouds 2 1010 52 0 2.46 38 19:40 26.03.2020
411 Clouds 6 1014 47 0 1.34 17 19:21 26.03.2020
412 Clouds 6 1014 45 0 1.34 335 18:58 26.03.2020
413 Clouds 7 1014 43 0 2.68 49 18:40 26.03.2020
414 Clouds 8 1014 40 0 1.79 342 18:22 26.03.2020
415 Clouds 8 1014 38 0 0.89 20 17:45 26.03.2020
416 Clouds 8 1013 35 0 3.13 24 17:20 26.03.2020
417 Clouds 8 1013 38 0 3.58 11 16:59 26.03.2020
418 Clouds 8 1013 45 0 3.58 351 16:38 26.03.2020
419 Clouds 8 1013 44 0 2.68 338 16:20 26.03.2020
420 Clouds 9 1013 37 0 2.68 2 15:56 26.03.2020
421 Clouds 9 1013 37 0 2.24 357 15:38 26.03.2020
422 Clouds 9 1013 38 0 3.13 14 15:19 26.03.2020
423 Clouds 9 1014 44 0 1.79 40 14:43 26.03.2020
424 Clouds 8 1014 45 0 3.13 326 14:25 26.03.2020
425 Clear 8 1014 45 0 3.13 335 13:56 26.03.2020
426 Clear 8 1014 45 0 4.02 321 13:38 26.03.2020
427 Clear 8 1015 43 0 0.89 347 13:20 26.03.2020
428 Clear 8 1015 42 0 0.89 35 12:39 26.03.2020
429 Clear 8 1015 41 0 2.24 325 12:21 26.03.2020
430 Clear 8 1015 41 0 0.89 311 11:56 26.03.2020
431 Clear 7 1014 42 0 0.89 315 11:56 26.03.2020
432 Clear 7 1015 44 0 2.24 317 11:37 26.03.2020
433 Clear 3 1011 55 0 0.89 36 11:19 26.03.2020
434 Clear 2 1012 55 0 1.34 341 10:42 26.03.2020
435 Clear 4 1015 47 0 0.45 67 10:20 26.03.2020
436 Clear 1 1010 57 0 0.89 18 09:55 26.03.2020
437 Clear 1 1010 57 0 0.89 18 09:55 26.03.2020
438 Clear 3 1014 49 0 1.79 33 09:37 26.03.2020
439 Clear 2 1014 51 0 0.45 112 09:19 26.03.2020
440 Clear 2 1015 54 0 0.89 64 08:42 26.03.2020
441 Clear -2 1011 57 0 0.89 352 08:24 26.03.2020
442 Clear -2 1011 57 0 0.89 352 07:57 26.03.2020
443 Clear -3 1010 58 0 1.34 24 07:38 26.03.2020
444 Clear -4 1010 59 0 0.45 99 07:19 26.03.2020
445 Clear -4 1010 58 0 0.45 31 06:33 26.03.2020
446 Clear -4 1009 57 0 0.89 350 05:51 26.03.2020
447 Clear -2 1009 53 0 0.89 356 03:47 26.03.2020
448 Clear -2 1009 52 0 1.34 74 03:18 26.03.2020
449 Clear -2 1017 89 0 2.13 65 02:50 26.03.2020
450 Clear -1 1011 49 0 0.89 349 01:19 26.03.2020
451 Clear -1 1011 49 0 0.89 326 00:33 26.03.2020
452 Clear -1 1011 47 0 2.62 64 23:44 25.03.2020
453 Clear -1 1011 47 0 2.62 64 23:26 25.03.2020
454 Clear 0 1011 47 0 0.89 333 22:56 25.03.2020
455 Clear -1 1014 58 0 1.34 5 22:37 25.03.2020
456 Clear 0 1011 46 0 1.34 23 22:19 25.03.2020
457 Clear 0 1013 45 0 0.89 65 21:54 25.03.2020
458 Clear 0 1013 45 0 0.89 65 21:36 25.03.2020
459 Clear 1 1012 45 0 1.34 4 21:18 25.03.2020
460 Clear 1 1013 45 0 1.34 61 20:39 25.03.2020
461 Clear 1 1012 45 0 2.24 343 20:19 25.03.2020
462 Clear 1 1012 45 0 2.24 343 19:56 25.03.2020
463 Clear 1 1013 45 0 1.79 342 19:38 25.03.2020
464 Clear 5 1016 37 0 1.79 25 19:19 25.03.2020
465 Clear 5 1016 37 0 1.34 2 18:54 25.03.2020
466 Clear 5 1015 36 0 3.13 67 18:36 25.03.2020
467 Clear 7 1016 34 0 3.58 31 18:18 25.03.2020
468 Clear 6 1015 33 0 2.24 67 17:41 25.03.2020
469 Clear 6 1015 33 0 2.68 67 17:22 25.03.2020
470 Clear 7 1015 31 0 3.58 45 16:58 25.03.2020
471 Clear 7 1015 29 0 3.58 67 16:39 25.03.2020
472 Clear 7 1015 28 0 2.24 45 16:21 25.03.2020
473 Clear 9 1015 28 0 3.13 45 15:43 25.03.2020
474 Clear 9 1015 26 0 3.13 45 15:21 25.03.2020
475 Clear 10 1016 28 0 2.68 22 14:59 25.03.2020
476 Clear 10 1016 29 0 2.68 45 14:40 25.03.2020
477 Clear 10 1016 29 0 3.13 22 14:20 25.03.2020
478 Clear 10 1016 29 0 2.24 45 13:45 25.03.2020
479 Clear 10 1016 28 0 3.58 337 13:25 25.03.2020
480 Clear 9 1017 29 0 2.68 22 12:54 25.03.2020
481 Clear 6 1016 35 0 0.89 182 12:36 25.03.2020
482 Clear 6 1016 37 0 2.24 190 12:18 25.03.2020
483 Clear 5 1017 36 0 2.68 147 11:41 25.03.2020
484 Clear 5 1017 39 0 2.68 161 11:21 25.03.2020
485 Clear 4 1018 39 0 2.24 178 10:59 25.03.2020
486 Clear 4 1018 39 0 2.24 178 10:59 25.03.2020
487 Clear 6 1020 38 0 3.13 336 10:40 25.03.2020
488 Clear 1 1016 56 0 1.79 19 10:19 25.03.2020
489 Clear 1 1016 56 0 1.79 19 09:59 25.03.2020
490 Clear 1 1017 56 0 1.34 4 09:40 25.03.2020
491 Clear 3 1021 51 0 1.34 19 09:21 25.03.2020
492 Clear 2 1021 56 0 0.89 357 08:43 25.03.2020
493 Clear 1 1021 57 0 0.89 22 08:25 25.03.2020
494 Clear 0 1022 61 0 2.24 333 07:59 25.03.2020
495 Clear 0 1022 60 0 2.68 350 07:39 25.03.2020
496 Clear -1 1022 58 0 1.34 350 07:19 25.03.2020
497 Clear -1 1022 59 0 1.79 345 06:45 25.03.2020
498 Clear -1 1022 58 0 0.45 329 06:25 25.03.2020
499 Clear -1 1022 59 0 2.19 69 05:48 25.03.2020
500 Clear -1 1022 58 0 2.05 64 04:59 25.03.2020
501 Clear -1 1022 58 0 2.05 64 04:36 25.03.2020
502 Clear 0 1023 55 0 2.05 64 03:34 25.03.2020
503 Clear -1 1019 56 0 0.89 64 01:55 25.03.2020
504 Clear -1 1019 56 0 0.89 48 01:20 25.03.2020
505 Clear -1 1019 56 0 1.34 338 00:43 25.03.2020
506 Clear -1 1019 56 0 1.34 4 00:19 25.03.2020
507 Clear -1 1019 56 0 0.89 347 23:42 24.03.2020
508 Clear -1 1019 56 0 1.34 335 23:22 24.03.2020
509 Clear -1 1019 56 0 1.34 1 22:55 24.03.2020
510 Clear -1 1019 56 0 1.34 1 22:37 24.03.2020
511 Clear -1 1019 56 0 1.34 1 22:37 24.03.2020
512 Clear -1 1019 56 0 1.34 1 22:37 24.03.2020
513 Clear -1 1019 56 0 1.34 346 22:19 24.03.2020
514 Clear -1 1019 56 0 1.34 346 21:55 24.03.2020
515 Clear -1 1019 56 0 1.34 351 21:36 24.03.2020
516 Clear 0 1019 56 0 1.34 336 21:18 24.03.2020
517 Clear 0 1019 56 0 1.34 345 20:42 24.03.2020
518 Clear 0 1019 56 0 1.34 345 20:23 24.03.2020
519 Clear 0 1019 56 0 1.34 15 19:57 24.03.2020
520 Clear 0 1019 56 0 1.34 15 19:39 24.03.2020
521 Clear 5 1023 33 0 2.24 36 19:18 24.03.2020
522 Clear 0 1019 56 0 2.24 14 18:55 24.03.2020
523 Clear 0 1019 56 0 2.24 14 18:36 24.03.2020
524 Clear 6 1023 28 0 1.79 13 18:18 24.03.2020
525 Clear 5 1022 25 0 2.24 67 17:42 24.03.2020
526 Clear 9 1022 24 0 1.79 45 17:22 24.03.2020
527 Clear 9 1024 21 10000 7.2 40 16:58 24.03.2020
528 Clear 9 1024 23 10000 7.7 30 16:39 24.03.2020
529 Clear 10 1024 23 10000 7.7 30 16:21 24.03.2020
530 Clear 10 1024 21 10000 7.2 30 15:58 24.03.2020
531 Clear 9 1025 23 10000 7.2 30 15:37 24.03.2020
532 Clear 10 1025 23 10000 7.2 30 15:19 24.03.2020
533 Clear 10 1026 25 10000 7.7 30 14:43 24.03.2020
534 Clear 8 1023 25 0 1.34 167 14:19 24.03.2020
535 Clear 7 1023 24 0 1.79 179 13:44 24.03.2020
536 Clear 8 1023 26 0 0.89 204 13:24 24.03.2020
537 Clear 7 1023 28 0 0.89 219 12:58 24.03.2020
538 Clear 6 1023 26 0 2.24 255 12:38 24.03.2020
539 Clear 7 1024 28 0 0.45 234 12:20 24.03.2020
540 Clear 8 1025 26 0 0.89 292 11:40 24.03.2020
541 Clear 5 1028 44 10000 6.2 360 11:20 24.03.2020
542 Clear 5 1028 44 10000 6.2 360 10:54 24.03.2020
543 Clear 5 1028 38 10000 5.1 20 10:36 24.03.2020
544 Clear 4 1028 38 10000 5.1 20 10:18 24.03.2020
545 Clear 3 1029 44 10000 5.1 20 09:42 24.03.2020
546 Clear 2 1029 44 10000 5.1 20 09:24 24.03.2020
547 Clear 1 1029 50 10000 4.1 360 08:40 24.03.2020
548 Clear -1 1029 50 10000 4.1 360 08:21 24.03.2020
549 Clear -2 1029 48 10000 4.1 360 07:51 24.03.2020
550 Clear -2 1029 54 10000 4.6 360 07:25 24.03.2020
551 Clear -2 1029 50 10000 4.6 350 06:59 24.03.2020
552 Clear -3 1029 54 10000 4.1 350 06:33 24.03.2020
553 Clear -3 1028 58 10000 4.6 360 05:30 24.03.2020
554 Clear -3 1029 54 10000 4.1 360 04:49 24.03.2020
555 Clear -1 1029 54 10000 3.6 350 03:19 24.03.2020
556 Clear -1 1029 54 10000 3.1 360 02:25 24.03.2020
557 Clear 0 1029 58 10000 3.1 350 00:53 24.03.2020
558 Clear 0 1029 47 10000 3.1 350 00:26 24.03.2020
559 Clear 0 1029 47 10000 2.6 340 23:55 23.03.2020
560 Clouds 0 1029 37 10000 4.6 110 23:36 23.03.2020
561 Clear 1 1030 43 10000 3.6 360 23:18 23.03.2020
562 Clear 1 1029 43 10000 3.6 10 22:42 23.03.2020
563 Clear 1 1029 35 10000 5.1 20 22:22 23.03.2020
564 Clear 1 1029 43 10000 3.6 10 22:22 23.03.2020
565 Clear 1 1029 35 10000 5.1 20 21:55 23.03.2020
566 Clear 2 1029 38 10000 4.1 10 21:37 23.03.2020
567 Clear 2 1029 35 10000 4.6 20 21:18 23.03.2020
568 Clear 2 1028 28 10000 5.1 30 20:42 23.03.2020
569 Clear 3 1028 28 10000 5.1 30 20:24 23.03.2020
570 Clear 4 1028 28 10000 4.6 30 19:56 23.03.2020
571 Clear 4 1027 26 10000 5.1 30 19:37 23.03.2020
572 Clear 5 1027 24 10000 5.7 30 19:19 23.03.2020
573 Clear 6 1026 22 10000 7.2 110 18:44 23.03.2020
574 Clear 6 1027 19 10000 6.2 40 18:25 23.03.2020
575 Clear 7 1027 19 10000 6.2 40 17:59 23.03.2020
576 Clear 8 1027 19 10000 6.2 40 17:41 23.03.2020
577 Clear 9 1026 18 10000 6.2 30 17:19 23.03.2020
578 Clear 9 1027 20 10000 6.7 30 16:44 23.03.2020
579 Clear 10 1027 20 10000 6.7 30 16:25 23.03.2020
580 Clear 10 1027 21 10000 6.2 30 15:59 23.03.2020
581 Clear 10 1027 21 10000 5.7 20 15:39 23.03.2020
582 Clear 10 1027 25 10000 6.2 10 15:18 23.03.2020
583 Clear 10 1027 25 10000 6.7 10 14:37 23.03.2020
584 Clear 9 1027 25 10000 6.7 10 14:19 23.03.2020
585 Clear 9 1028 26 10000 6.2 10 13:57 23.03.2020
586 Clear 9 1028 36 10000 6.2 20 13:38 23.03.2020
587 Clear 8 1028 33 10000 5.7 10 13:20 23.03.2020
588 Clear 8 1029 33 10000 5.1 30 12:43 23.03.2020
589 Clear 8 1029 33 10000 5.1 30 12:43 23.03.2020
590 Clear 7 1029 38 10000 5.1 30 12:23 23.03.2020
591 Clear 7 1029 38 10000 5.1 30 11:56 23.03.2020
592 Clear 6 1029 35 10000 6.2 10 11:37 23.03.2020
593 Clear 4 1028 44 10000 3.6 0 11:19 23.03.2020
594 Clear 4 1028 44 10000 3.6 0 10:56 23.03.2020
595 Clear 4 1029 40 10000 5.7 10 10:36 23.03.2020
596 Clear 4 1029 44 10000 5.1 30 10:18 23.03.2020
597 Clear 3 1029 51 10000 4.6 10 09:42 23.03.2020
598 Clear 2 1029 51 10000 4.6 10 09:20 23.03.2020
599 Clear 1 1029 55 10000 4.6 360 08:40 23.03.2020
600 Clear -1 1029 52 10000 4.6 360 08:20 23.03.2020
601 Clear -1 1029 55 10000 4.6 360 08:20 23.03.2020
602 Clear -1 1029 52 10000 4.6 360 07:59 23.03.2020
603 Clear -2 1029 63 10000 4.1 360 07:40 23.03.2020
604 Clear -2 1029 63 10000 4.1 350 07:19 23.03.2020
605 Clear -2 1029 68 10000 3.6 340 06:48 23.03.2020
606 Clear -2 1028 63 10000 4.1 360 05:50 23.03.2020
607 Clear -2 1028 63 10000 5.1 360 04:57 23.03.2020
608 Clear -1 1028 57 10000 4.6 360 03:26 23.03.2020
609 Clear 0 1028 55 10000 5.1 20 01:50 23.03.2020
610 Clear 0 1027 55 10000 4.6 20 00:58 23.03.2020
611 Clear 0 1027 55 10000 5.1 20 00:36 23.03.2020
612 Clear 1 1027 51 10000 4.6 20 23:47 22.03.2020
613 Clear 1 1027 51 10000 4.6 20 23:26 22.03.2020
614 Clear 2 1027 51 10000 5.7 20 22:45 22.03.2020
615 Clear 2 1027 51 10000 5.7 20 22:24 22.03.2020
616 Clear 2 1027 48 10000 5.1 20 21:56 22.03.2020
617 Clear 2 1027 48 10000 5.7 10 21:37 22.03.2020
618 Clear 3 1026 48 10000 6.2 20 21:19 22.03.2020
619 Clear 4 1026 45 10000 5.7 30 20:46 22.03.2020
620 Clear 4 1026 45 10000 5.7 30 20:25 22.03.2020
621 Clear 5 1026 45 10000 5.7 30 19:58 22.03.2020
622 Clear 5 1025 45 10000 6.2 30 19:40 22.03.2020
623 Clear 6 1025 45 10000 6.2 30 19:20 22.03.2020
624 Clear 6 1025 45 10000 6.2 30 19:20 22.03.2020
625 Clear 6 1024 45 10000 5.1 40 18:59 22.03.2020
626 Clear 7 1025 39 10000 6.2 70 18:41 22.03.2020
627 Clear 7 1025 39 10000 6.2 70 18:41 22.03.2020
628 Clear 8 1024 39 10000 7.7 30 18:22 22.03.2020
629 Clear 8 1023 37 10000 8.7 30 17:59 22.03.2020
630 Clear 8 1024 39 10000 6.2 70 17:39 22.03.2020
631 Clear 8 1024 39 10000 6.2 70 17:39 22.03.2020
632 Clear 9 1024 37 10000 5.7 50 17:21 22.03.2020
633 Clear 9 1023 34 10000 7.2 30 16:59 22.03.2020
634 Clear 10 1023 37 10000 6.7 20 16:41 22.03.2020
635 Clear 10 1023 39 10000 8.2 20 16:21 22.03.2020
636 Clear 10 1023 39 10000 8.2 20 15:57 22.03.2020
637 Clear 10 1023 39 10000 7.7 30 15:39 22.03.2020
638 Clear 10 1023 39 10000 7.2 20 14:47 22.03.2020
639 Clouds 9 1023 45 10000 6.7 30 14:19 22.03.2020
640 Clouds 8 1023 45 10000 6.7 30 13:57 22.03.2020
641 Clouds 8 1023 45 10000 6.7 20 13:39 22.03.2020
642 Clouds 8 1024 52 10000 7.2 30 13:19 22.03.2020
643 Clouds 8 1024 42 10000 7.2 40 12:44 22.03.2020
644 Clouds 7 1024 42 10000 7.2 40 12:21 22.03.2020
645 Clouds 7 1024 42 10000 6.7 30 11:57 22.03.2020
646 Clouds 6 1024 42 10000 7.2 30 11:39 22.03.2020
647 Clouds 6 1024 78 10000 7.2 30 11:20 22.03.2020
648 Clouds 5 1023 75 10000 6.7 10 10:43 22.03.2020
649 Clouds 5 1023 75 10000 6.7 10 10:24 22.03.2020
650 Clouds 5 1023 78 10000 6.7 10 09:55 22.03.2020
651 Clouds 4 1023 78 10000 6.7 20 09:36 22.03.2020
652 Rain 4 1023 78 10000 6.7 20 09:18 22.03.2020
653 Rain 4 1022 86 10000 5.7 10 08:41 22.03.2020
654 Clouds 3 1022 86 10000 5.7 10 08:21 22.03.2020
655 Clouds 3 1022 88 10000 6.7 10 07:50 22.03.2020
656 Clouds 3 1022 86 10000 5.7 10 07:19 22.03.2020
657 Rain 3 1021 93 6000 5.1 360 05:57 22.03.2020
658 Rain 4 1021 93 6000 5.1 360 05:21 22.03.2020
659 Rain 4 1021 93 6000 5.7 360 02:58 22.03.2020
660 Rain 4 1020 86 10000 6.7 360 01:26 22.03.2020
661 Clouds 4 1020 93 10000 6.7 360 00:41 22.03.2020
662 Clouds 4 1020 93 10000 6.7 360 00:23 22.03.2020
663 Drizzle 5 1020 93 10000 6.2 10 23:42 21.03.2020
664 Drizzle 5 1020 93 10000 5.7 360 23:19 21.03.2020
665 Drizzle 5 1020 93 10000 5.7 360 22:55 21.03.2020
666 Rain 5 1020 93 10000 6.2 10 22:36 21.03.2020
667 Rain 5 1020 86 9000 6.7 10 22:18 21.03.2020
668 Rain 5 1020 86 10000 6.7 10 21:41 21.03.2020
669 Rain 5 1020 86 10000 6.7 10 21:22 21.03.2020
670 Rain 5 1020 86 8000 6.2 10 20:56 21.03.2020
671 Clouds 5 1020 86 10000 6.2 10 20:38 21.03.2020
672 Clouds 5 1020 86 10000 7.7 10 20:19 21.03.2020
673 Clouds 5 1020 86 10000 7.2 360 19:43 21.03.2020
674 Clouds 5 1020 86 10000 7.2 360 19:25 21.03.2020
675 Clouds 5 1020 86 10000 7.2 360 19:25 21.03.2020
676 Clouds 5 1019 93 10000 7.7 360 18:57 21.03.2020
677 Clouds 5 1019 93 10000 7.7 360 18:38 21.03.2020
678 Clouds 5 1019 93 10000 8.2 360 18:20 21.03.2020
679 Clouds 5 1019 93 10000 8.2 360 18:20 21.03.2020
680 Clouds 5 1019 93 10000 8.2 360 17:55 21.03.2020
681 Clouds 5 1018 93 6000 5.7 350 17:37 21.03.2020
682 Clouds 5 1019 93 10000 8.2 360 17:18 21.03.2020
683 Clouds 5 1019 93 10000 8.2 360 17:18 21.03.2020
684 Clouds 5 1019 93 10000 8.7 360 16:41 21.03.2020
685 Clouds 5 1019 93 10000 8.2 360 16:20 21.03.2020
686 Clouds 5 1019 93 10000 8.7 360 16:20 21.03.2020
687 Clouds 5 1019 93 10000 8.2 360 15:56 21.03.2020
688 Clouds 5 1019 86 10000 8.7 10 15:37 21.03.2020
689 Clouds 5 1019 86 10000 8.7 10 15:19 21.03.2020
690 Clouds 5 1019 86 10000 8.2 10 14:54 21.03.2020
691 Clouds 5 1019 93 10000 7.7 10 14:36 21.03.2020
692 Rain 6 1019 86 10000 7.2 360 14:18 21.03.2020
693 Rain 6 1019 86 10000 7.2 360 13:57 21.03.2020
694 Rain 6 1019 86 10000 7.7 10 13:38 21.03.2020
695 Rain 6 1019 86 10000 7.7 10 13:19 21.03.2020
696 Clouds 6 1018 81 10000 6.2 350 12:40 21.03.2020
697 Drizzle 6 1019 93 8000 8.7 360 12:20 21.03.2020
698 Drizzle 7 1019 93 8000 8.7 360 11:59 21.03.2020
699 Clouds 7 1019 93 10000 6.7 10 11:39 21.03.2020
700 Clouds 7 1019 93 10000 6.7 10 11:39 21.03.2020
701 Rain 7 1019 93 10000 7.2 10 11:19 21.03.2020
702 Rain 7 1019 93 10000 7.2 10 10:58 21.03.2020
703 Clouds 7 1019 81 10000 8.2 10 10:39 21.03.2020
704 Clouds 7 1019 81 10000 8.2 10 10:21 21.03.2020
705 Clouds 7 1019 81 10000 6.7 10 09:58 21.03.2020
706 Clouds 7 1019 81 10000 4.1 10 09:39 21.03.2020
707 Clouds 7 1019 75 10000 6.7 10 09:20 21.03.2020
708 Clouds 7 1019 70 10000 7.2 20 08:55 21.03.2020
709 Clouds 7 1019 75 10000 3.1 350 08:37 21.03.2020
710 Clouds 7 1019 75 10000 6.7 20 08:18 21.03.2020
711 Clouds 7 1019 75 10000 7.2 10 07:37 21.03.2020
712 Clouds 7 1019 75 10000 7.7 10 07:19 21.03.2020
713 Clouds 7 1018 75 10000 6.7 20 06:44 21.03.2020
714 Clouds 7 1018 75 10000 6.7 20 06:24 21.03.2020
715 Clouds 7 1018 81 10000 5.7 20 05:40 21.03.2020
716 Clouds 8 1019 81 10000 4.6 10 03:49 21.03.2020
717 Clouds 8 1019 81 9000 5.7 20 02:37 21.03.2020
718 Clouds 8 1019 81 8000 5.1 10 01:45 21.03.2020
719 Clouds 9 1019 81 8000 5.1 10 01:25 21.03.2020
720 Clouds 9 1020 76 9000 5.1 10 00:39 21.03.2020
721 Clouds 9 1020 76 9000 5.1 10 00:21 21.03.2020
722 Clouds 9 1020 71 8000 5.7 10 23:43 20.03.2020
723 Rain 10 1020 71 9000 4.6 10 23:22 20.03.2020
724 Rain 10 1019 62 10000 5.1 360 22:44 20.03.2020
725 Rain 10 1019 62 10000 5.1 360 22:25 20.03.2020
726 Rain 11 1019 62 10000 3.6 350 21:59 20.03.2020
727 Rain 11 1019 66 9000 2.6 350 21:40 20.03.2020
728 Rain 11 1019 66 9000 3.1 350 21:20 20.03.2020
729 Rain 11 1019 66 9000 3.1 350 20:59 20.03.2020
730 Rain 12 1019 71 10000 3.1 350 20:41 20.03.2020
731 Rain 12 1019 71 10000 3.1 350 20:20 20.03.2020
732 Rain 13 1019 67 9000 2.6 350 19:49 20.03.2020
733 Rain 13 1018 58 10000 1.5 320 19:22 20.03.2020
734 Rain 14 1018 62 10000 2.1 320 18:59 20.03.2020
735 Rain 14 1018 59 10000 1.5 0 18:39 20.03.2020
736 Rain 15 1018 51 10000 3.6 20 18:20 20.03.2020
737 Rain 16 1018 51 10000 3.6 20 17:56 20.03.2020
738 Rain 16 1018 52 10000 3.1 20 17:38 20.03.2020
739 Rain 17 1018 52 10000 3.1 20 17:19 20.03.2020
740 Rain 17 1018 52 10000 3.1 20 17:19 20.03.2020
741 Rain 17 1018 48 10000 2.6 30 16:43 20.03.2020
742 Rain 18 1018 48 10000 2.6 30 16:21 20.03.2020
743 Rain 18 1018 52 10000 2.1 0 15:59 20.03.2020
744 Clouds 17 1019 48 10000 2.1 60 15:41 20.03.2020
745 Clouds 17 1019 48 10000 2.1 60 15:20 20.03.2020
746 Rain 18 1019 55 10000 3.1 10 14:42 20.03.2020
747 Rain 17 1019 55 10000 3.1 10 14:21 20.03.2020
748 Rain 18 1020 52 10000 2.6 50 13:55 20.03.2020
749 Rain 17 1020 59 10000 2.1 360 13:36 20.03.2020
750 Rain 17 1020 55 10000 2.1 360 13:18 20.03.2020
751 Rain 17 1020 59 10000 2.1 30 12:39 20.03.2020
752 Rain 16 1021 59 10000 1.5 0 12:20 20.03.2020
753 Rain 16 1021 59 10000 1.5 0 12:20 20.03.2020
754 Rain 16 1021 59 10000 1.5 0 11:54 20.03.2020
755 Rain 15 1021 62 10000 1.5 70 11:36 20.03.2020
756 Rain 15 1021 67 10000 2.6 30 11:18 20.03.2020
757 Rain 14 1021 67 10000 1.5 60 10:41 20.03.2020
758 Rain 14 1021 67 10000 1.5 60 10:21 20.03.2020
759 Rain 12 1021 76 10000 1 0 09:55 20.03.2020
760 Rain 12 1021 76 10000 1 0 09:55 20.03.2020
761 Rain 12 1021 76 10000 1 0 09:37 20.03.2020
762 Rain 11 1021 76 10000 1 10 09:18 20.03.2020
763 Rain 9 1021 81 10000 1.47 312 08:41 20.03.2020
764 Clear 9 1021 81 10000 1.6 311 08:22 20.03.2020
765 Clear 7 1021 87 10000 0.5 0 07:48 20.03.2020
766 Clear 7 1021 93 10000 0.5 0 07:30 20.03.2020
767 Clear 7 1021 87 10000 0.5 0 06:58 20.03.2020
768 Clear 7 1021 93 10000 1 0 06:40 20.03.2020
769 Clear 8 1021 81 10000 1 0 04:51 20.03.2020
770 Clear 8 1021 93 6000 1.13 152 03:21 20.03.2020
771 Clear 9 1021 76 10000 4.6 270 01:58 20.03.2020
772 Clouds 9 1021 81 9000 5.1 270 00:59 20.03.2020
773 Clouds 9 1021 81 10000 5.1 270 00:30 20.03.2020
774 Clouds 10 1022 76 9000 4.6 270 23:47 19.03.2020
775 Clouds 10 1022 76 9000 4.6 270 23:28 19.03.2020
776 Clear 11 1022 76 9000 4.6 270 22:57 19.03.2020
777 Clear 11 1022 76 10000 3.6 270 22:38 19.03.2020
778 Clear 11 1022 76 10000 3.6 270 22:19 19.03.2020
779 Clear 11 1022 76 10000 3.6 270 21:42 19.03.2020
780 Clear 12 1022 76 10000 3.6 270 21:20 19.03.2020
781 Clear 12 1021 76 10000 3.1 280 20:59 19.03.2020
782 Clear 12 1021 71 10000 3.1 290 20:41 19.03.2020
783 Clear 13 1021 71 10000 3.1 290 20:23 19.03.2020
784 Rain 13 1021 67 10000 1 70 19:56 19.03.2020
785 Rain 14 1021 67 10000 1.5 350 19:38 19.03.2020
786 Rain 15 1021 59 10000 2.1 350 19:19 19.03.2020
787 Rain 15 1021 63 10000 2.6 350 18:56 19.03.2020
788 Rain 16 1021 63 10000 2.6 360 18:38 19.03.2020
789 Rain 17 1021 52 10000 2.1 310 18:19 19.03.2020
790 Clouds 17 1021 52 10000 2.1 290 17:41 19.03.2020
791 Rain 18 1021 45 10000 2.6 270 17:19 19.03.2020
792 Rain 19 1021 52 10000 2.6 350 16:45 19.03.2020
793 Rain 19 1021 52 10000 1 0 16:25 19.03.2020
794 Rain 19 1022 52 10000 1 0 15:55 19.03.2020
795 Rain 18 1022 59 10000 2.6 20 15:36 19.03.2020
796 Rain 18 1022 59 10000 2.1 360 15:18 19.03.2020
797 Rain 18 1023 55 10000 2.1 350 14:43 19.03.2020
798 Clouds 18 1023 59 10000 2.6 350 14:21 19.03.2020
799 Clouds 18 1023 59 10000 2.6 350 13:41 19.03.2020
800 Rain 18 1023 59 10000 2.1 70 13:21 19.03.2020
801 Rain 17 1024 59 10000 1.5 70 12:58 19.03.2020
802 Rain 17 1024 63 10000 2.1 320 12:40 19.03.2020
803 Rain 17 1024 55 10000 1.5 0 12:21 19.03.2020
804 Rain 16 1025 62 10000 1.5 0 11:43 19.03.2020
805 Clear 15 1025 58 10000 1 0 11:24 19.03.2020
806 Clear 14 1025 58 10000 1 0 10:58 19.03.2020
807 Clear 14 1025 71 10000 1 0 10:38 19.03.2020
808 Clear 13 1025 81 10000 1.5 0 10:19 19.03.2020
809 Clear 13 1025 81 10000 1.5 0 09:57 19.03.2020
810 Clear 11 1025 87 10000 1 0 09:37 19.03.2020
811 Clear 10 1025 87 10000 1 0 09:18 19.03.2020
812 Clear 8 1025 87 10000 1 0 08:42 19.03.2020
813 Clear 7 1025 81 10000 1 190 08:21 19.03.2020
814 Clear 6 1025 81 10000 1.5 310 07:46 19.03.2020
815 Clear 6 1024 87 10000 3.6 260 07:28 19.03.2020
816 Clear 6 1025 100 9000 1 139 06:43 19.03.2020
817 Clear 6 1025 81 10000 3.6 270 05:48 19.03.2020
818 Clear 7 1025 81 10000 3.1 270 04:57 19.03.2020
819 Clear 7 1025 81 10000 1.5 0 04:39 19.03.2020
820 Clear 7 1025 76 10000 4.6 270 02:50 19.03.2020
821 Clear 8 1025 81 10000 4.1 270 01:21 19.03.2020
822 Clear 9 1025 76 10000 3.6 270 00:32 19.03.2020
823 Clear 9 1025 76 10000 3.6 270 23:57 18.03.2020
824 Clear 9 1025 76 10000 4.1 270 23:30 18.03.2020
825 Clear 9 1025 76 10000 4.1 270 23:30 18.03.2020
826 Clear 9 1025 76 10000 4.1 270 23:30 18.03.2020
827 Clear 10 1026 71 10000 3.6 270 22:58 18.03.2020
828 Clear 10 1026 76 10000 4.1 270 22:39 18.03.2020
829 Clear 10 1026 76 10000 4.1 270 22:21 18.03.2020
830 Clear 11 1026 76 10000 0.5 0 21:42 18.03.2020
831 Clear 11 1026 76 10000 0.5 0 21:22 18.03.2020
832 Clear 11 1026 76 10000 1 320 20:59 18.03.2020
833 Clear 12 1025 71 10000 1.5 350 20:41 18.03.2020
834 Rain 12 1025 67 10000 1 0 20:21 18.03.2020
835 Clouds 13 1025 67 10000 1 0 19:58 18.03.2020
836 Clouds 13 1025 58 10000 2.1 340 19:40 18.03.2020
837 Clouds 14 1025 58 10000 2.6 330 19:21 18.03.2020
838 Clouds 15 1025 59 10000 2.6 360 18:42 18.03.2020
839 Clouds 16 1024 51 10000 2.6 360 18:21 18.03.2020
840 Clouds 16 1024 51 10000 2.6 360 17:59 18.03.2020
841 Clouds 16 1024 51 10000 2.6 360 17:59 18.03.2020
842 Clouds 17 1025 52 10000 3.1 350 17:41 18.03.2020
843 Rain 17 1025 52 10000 3.1 10 17:22 18.03.2020
844 Rain 18 1025 48 10000 2.6 20 16:59 18.03.2020
845 Rain 18 1025 45 10000 3.1 20 16:40 18.03.2020
846 Rain 18 1025 52 10000 2.6 10 16:20 18.03.2020
847 Rain 18 1026 48 10000 2.6 20 15:56 18.03.2020
848 Rain 19 1026 52 10000 2.6 340 15:37 18.03.2020
849 Rain 18 1026 48 10000 1.5 0 15:18 18.03.2020
850 Rain 18 1027 52 10000 2.1 340 14:42 18.03.2020
851 Clouds 18 1027 55 10000 1.5 10 14:21 18.03.2020
852 Clouds 18 1027 63 10000 2.1 360 13:40 18.03.2020
853 Clouds 17 1028 59 10000 1.5 10 13:19 18.03.2020
854 Clouds 17 1028 55 10000 2.6 340 12:43 18.03.2020
855 Clouds 16 1028 59 10000 1.5 10 12:21 18.03.2020
856 Clouds 16 1029 62 10000 1 0 11:59 18.03.2020
857 Clouds 15 1029 71 10000 1.5 0 11:37 18.03.2020
858 Clear 15 1029 58 10000 1.5 0 11:18 18.03.2020
859 Clear 14 1029 71 10000 1 0 10:56 18.03.2020
860 Clear 14 1029 71 10000 1 0 10:36 18.03.2020
861 Clear 13 1029 76 10000 1 0 10:18 18.03.2020
862 Clear 11 1030 81 10000 0.5 0 09:42 18.03.2020
863 Clear 11 1030 81 10000 0.5 0 09:23 18.03.2020
864 Clear 9 1029 81 10000 2.1 190 08:54 18.03.2020
865 Clear 8 1030 93 10000 0.4 331 08:36 18.03.2020
866 Clouds 7 1030 93 10000 1.1 119 08:18 18.03.2020
867 Clouds 6 1029 87 10000 2.6 230 07:39 18.03.2020
868 Clouds 6 1029 93 10000 1 0 07:21 18.03.2020
869 Clouds 5 1029 93 10000 1.1 119 06:42 18.03.2020
870 Clouds 6 1029 93 10000 1.1 119 05:43 18.03.2020
871 Clear 6 1029 93 10000 1 150 05:18 18.03.2020
872 Clear 6 1029 93 10000 1.37 143 03:21 18.03.2020
873 Clear 7 1030 93 10000 2.1 220 02:37 18.03.2020
874 Clear 7 1030 93 10000 2.1 220 02:37 18.03.2020
875 Clear 7 1030 93 10000 1.5 220 01:46 18.03.2020
876 Clouds 8 1030 93 10000 2.11 129 01:20 18.03.2020
877 Clear 8 1030 93 10000 1.98 132 00:23 18.03.2020
878 Clear 8 1030 76 10000 4.1 270 23:43 17.03.2020
879 Clouds 9 1030 76 10000 4.1 270 23:23 17.03.2020
880 Clear 9 1030 76 10000 3.6 270 22:47 17.03.2020
881 Clear 9 1030 76 10000 3.6 270 22:28 17.03.2020
882 Clouds 10 1030 76 10000 3.1 280 21:59 17.03.2020
883 Clear 10 1030 71 10000 2.6 280 21:37 17.03.2020
884 Clear 10 1030 76 10000 1.5 0 21:19 17.03.2020
885 Clouds 11 1030 71 10000 2.1 340 20:38 17.03.2020
886 Clouds 11 1030 71 10000 2.1 340 20:20 17.03.2020
887 Clouds 12 1030 71 10000 2.1 100 19:54 17.03.2020
888 Clouds 12 1030 67 10000 1.5 100 19:36 17.03.2020
889 Clouds 13 1029 66 10000 2.1 350 19:18 17.03.2020
890 Clouds 13 1029 67 10000 2.6 350 18:54 17.03.2020
891 Clouds 13 1029 55 10000 0.5 340 18:36 17.03.2020
892 Clouds 15 1029 55 10000 0.5 340 18:18 17.03.2020
893 Clouds 15 1029 55 10000 0.5 340 18:18 17.03.2020
894 Clouds 16 1029 55 10000 0.87 79 17:40 17.03.2020
895 Clouds 16 1029 55 10000 2.1 340 17:20 17.03.2020
896 Clouds 16 1029 55 10000 1 0 16:44 17.03.2020
897 Clouds 17 1030 51 10000 1.5 360 16:20 17.03.2020
898 Clouds 17 1029 51 10000 1 0 15:56 17.03.2020
899 Clouds 17 1029 51 10000 1 0 15:56 17.03.2020
900 Clouds 17 1030 51 10000 1.5 0 15:38 17.03.2020
901 Clouds 17 1029 48 10000 1 0 15:18 17.03.2020
902 Clouds 17 1030 55 10000 1.5 0 14:41 17.03.2020
903 Clouds 17 1030 55 10000 2.1 260 14:21 17.03.2020
904 Clouds 16 1030 55 10000 2.1 250 13:43 17.03.2020
905 Clouds 16 1030 51 10000 1 0 13:25 17.03.2020
906 Clouds 16 1031 55 10000 2.6 220 12:58 17.03.2020
907 Clouds 15 1031 58 10000 2.6 210 12:39 17.03.2020
908 Clouds 15 1031 54 10000 2.1 210 12:21 17.03.2020
909 Clouds 14 1031 54 10000 2.6 200 11:45 17.03.2020
910 Clouds 13 1031 54 10000 1 0 11:27 17.03.2020
911 Clouds 12 1031 71 10000 1 0 10:57 17.03.2020
912 Clouds 12 1031 66 10000 2.6 210 10:57 17.03.2020
913 Clouds 12 1031 66 10000 2.6 210 10:37 17.03.2020
914 Clouds 12 1031 76 10000 1 0 10:19 17.03.2020
915 Clouds 11 1030 66 10000 1.43 294 09:55 17.03.2020
916 Clouds 11 1030 66 10000 1.43 294 09:36 17.03.2020
917 Clouds 10 1030 81 10000 1.36 290 09:18 17.03.2020
918 Clouds 9 1030 76 10000 0.5 140 08:42 17.03.2020
919 Clouds 9 1029 76 10000 0.5 130 08:21 17.03.2020
920 Clouds 8 1029 81 10000 1.56 156 07:49 17.03.2020
921 Clouds 8 1029 87 10000 1 0 07:24 17.03.2020
922 Clouds 8 1029 87 10000 1 0 06:56 17.03.2020
923 Rain 8 1029 81 10000 2.1 170 06:33 17.03.2020
924 Clouds 8 1028 75 10000 1.5 120 05:41 17.03.2020
925 Clouds 8 1027 71 9000 2.1 180 03:36 17.03.2020
926 Clouds 8 1026 76 10000 1.27 176 02:45 17.03.2020
927 Clouds 9 1026 62 10000 0.5 0 01:41 17.03.2020
928 Clouds 9 1026 58 10000 0.5 0 01:19 17.03.2020
929 Clouds 9 1026 66 10000 1 0 00:19 17.03.2020
930 Clouds 9 1026 54 10000 2.1 150 23:45 16.03.2020
931 Clouds 9 1025 58 10000 1 0 23:23 16.03.2020
932 Clouds 10 1025 54 10000 2.1 220 22:40 16.03.2020
933 Clouds 10 1025 62 10000 1.5 170 22:22 16.03.2020
934 Clouds 10 1025 62 10000 1.5 170 21:57 16.03.2020
935 Clouds 10 1025 62 10000 1.5 170 21:57 16.03.2020
936 Clouds 11 1024 47 10000 3.1 230 21:38 16.03.2020
937 Clouds 11 1024 47 10000 3.1 230 21:20 16.03.2020
938 Clouds 11 1024 44 10000 1.5 250 20:55 16.03.2020
939 Clouds 12 1023 44 10000 3.1 250 20:37 16.03.2020
940 Clouds 12 1023 44 10000 3.1 250 20:18 16.03.2020
941 Clouds 13 1023 47 10000 1 210 19:40 16.03.2020
942 Clouds 13 1023 44 10000 3.1 250 19:20 16.03.2020
943 Clouds 14 1022 39 10000 1.38 159 18:43 16.03.2020
944 Clouds 16 1021 42 10000 2.6 320 18:21 16.03.2020
945 Clouds 16 1021 39 10000 3.6 240 17:55 16.03.2020
946 Clouds 16 1021 42 10000 3.6 290 17:37 16.03.2020
947 Clouds 16 1021 34 10000 2.6 260 17:18 16.03.2020
948 Clouds 17 1021 37 10000 1 0 16:44 16.03.2020
949 Clouds 17 1021 34 10000 2.6 260 16:24 16.03.2020
950 Clouds 17 1020 39 10000 2.6 190 15:45 16.03.2020
951 Clouds 18 1020 39 10000 2.6 190 15:27 16.03.2020
952 Clouds 17 1020 34 10000 3.1 210 14:49 16.03.2020
953 Clouds 17 1020 39 10000 3.6 220 14:28 16.03.2020
954 Clouds 17 1020 39 10000 3.6 220 13:59 16.03.2020
955 Clouds 17 1020 39 10000 4.6 210 13:41 16.03.2020
956 Clouds 17 1020 42 10000 2.1 110 13:22 16.03.2020
957 Clouds 16 1020 36 10000 5.1 190 12:45 16.03.2020
958 Clouds 16 1020 51 10000 2.6 150 12:24 16.03.2020
959 Clouds 16 1020 54 10000 3.1 140 11:56 16.03.2020
960 Clouds 15 1020 48 10000 2.6 180 11:37 16.03.2020
961 Clouds 13 1020 58 10000 1.28 346 11:18 16.03.2020
962 Clouds 13 1020 62 10000 1 0 10:40 16.03.2020
963 Clouds 12 1020 58 10000 4.1 190 10:19 16.03.2020
964 Clouds 10 1020 70 10000 2.1 200 09:42 16.03.2020
965 Clouds 9 1020 71 10000 2.1 160 09:24 16.03.2020
966 Clouds 7 1019 75 10000 1 0 08:53 16.03.2020
967 Clear 6 1019 86 10000 3.6 240 08:25 16.03.2020
968 Clear 5 1018 93 10000 1 0 07:49 16.03.2020
969 Clear 4 1018 93 10000 1 0 07:27 16.03.2020
970 Clear 4 1018 93 10000 0.5 0 06:54 16.03.2020
971 Clear 4 1017 93 10000 1 0 06:25 16.03.2020
972 Clear 4 1017 93 10000 1 0 05:42 16.03.2020
973 Clear 5 1016 75 10000 1.5 240 02:45 16.03.2020
974 Clouds 5 1015 81 10000 1.97 152 01:20 16.03.2020
975 Clouds 6 1015 75 10000 2.6 250 00:40 16.03.2020
976 Clouds 6 1015 75 10000 1 0 23:49 15.03.2020
977 Clouds 7 1015 66 10000 2.6 260 23:21 15.03.2020
978 Clouds 6 1015 66 10000 3.6 270 22:56 15.03.2020
979 Clouds 6 1015 66 10000 3.1 270 22:37 15.03.2020
980 Clouds 6 1015 75 10000 1 0 22:19 15.03.2020
981 Clouds 7 1014 61 10000 3.1 260 21:39 15.03.2020
982 Clouds 7 1014 61 10000 3.1 260 21:19 15.03.2020
983 Clouds 8 1014 57 10000 3.1 270 20:43 15.03.2020
984 Clouds 8 1014 57 10000 3.1 270 20:22 15.03.2020
985 Clouds 9 1014 62 10000 3.1 280 19:59 15.03.2020
986 Clouds 9 1014 50 10000 2.1 260 19:40 15.03.2020
987 Clouds 10 1014 47 10000 2.1 270 19:22 15.03.2020
988 Clouds 11 1014 47 10000 2.1 270 18:57 15.03.2020
989 Clouds 11 1014 44 10000 2.1 180 18:38 15.03.2020
990 Clouds 12 1014 44 10000 2.1 180 18:20 15.03.2020
991 Clouds 13 1014 44 10000 3.6 180 17:54 15.03.2020
992 Clouds 13 1014 41 10000 3.1 180 17:36 15.03.2020
993 Clouds 14 1015 36 10000 3.1 180 17:18 15.03.2020
994 Clouds 15 1015 36 10000 2.1 160 16:42 15.03.2020
995 Clouds 15 1015 36 10000 2.1 160 16:23 15.03.2020
996 Clouds 15 1015 36 10000 2.1 0 15:57 15.03.2020
997 Clouds 15 1015 53 10000 3.1 180 15:38 15.03.2020
998 Clouds 15 1015 53 10000 3.1 180 15:19 15.03.2020
999 Clouds 15 1016 53 10000 3.6 170 14:46 15.03.2020
1000 Clouds 15 1016 49 10000 3.6 170 14:24 15.03.2020
1001 Clouds 14 1016 41 10000 4.1 180 13:57 15.03.2020
1002 Clouds 14 1017 41 10000 3.6 160 13:38 15.03.2020
1003 Clouds 14 1017 41 10000 3.6 160 13:38 15.03.2020
1004 Clouds 14 1017 47 10000 1.5 160 13:19 15.03.2020
1005 Clouds 14 1018 46 10000 2.6 180 12:43 15.03.2020
1006 Clouds 13 1018 46 10000 2.6 180 12:25 15.03.2020
1007 Clouds 12 1018 57 10000 0.5 0 11:54 15.03.2020
1008 Clouds 12 1018 57 10000 0.5 0 11:36 15.03.2020
1009 Clouds 9 1019 57 10000 1.5 0 11:18 15.03.2020
1010 Clouds 9 1019 57 10000 1.5 0 10:55 15.03.2020
1011 Clouds 9 1019 65 10000 2.6 190 10:36 15.03.2020
1012 Clouds 9 1019 65 10000 2.6 190 10:18 15.03.2020
1013 Clouds 7 1020 70 10000 0.5 0 09:39 15.03.2020
1014 Clouds 6 1019 80 10000 1.5 150 09:20 15.03.2020
1015 Clouds 6 1020 70 10000 0.5 0 09:20 15.03.2020
1016 Clouds 4 1019 58 10000 0.5 0 08:42 15.03.2020
1017 Clouds 3 1019 83 10000 0.5 0 08:20 15.03.2020
1018 Clouds 2 1019 80 10000 1 170 07:51 15.03.2020
1019 Clouds 1 1020 86 10000 1.5 180 07:29 15.03.2020
1020 Clouds 1 1020 86 10000 1.5 200 06:49 15.03.2020
1021 Clouds 1 1020 80 10000 2.1 200 05:50 15.03.2020
1022 Clear 1 1020 80 10000 1.5 210 05:18 15.03.2020
1023 Clear 1 1020 80 10000 1.5 220 04:43 15.03.2020
1024 Clear 1 1020 80 10000 1.5 220 04:24 15.03.2020
1025 Clear 2 1021 80 10000 2.1 220 03:48 15.03.2020
1026 Clear 2 1021 85 10000 2.6 230 02:38 15.03.2020
1027 Clear 2 1022 81 10000 2.1 240 01:35 15.03.2020
1028 Clear 3 1022 81 10000 3.6 270 00:46 15.03.2020
1029 Clear 3 1022 81 10000 3.6 270 00:27 15.03.2020
1030 Clear 3 1022 81 10000 4.1 260 23:55 14.03.2020
1031 Clear 3 1022 70 10000 3.6 280 23:37 14.03.2020
1032 Clouds 4 1022 70 10000 3.1 280 23:18 14.03.2020
1033 Clouds 4 1022 70 10000 3.1 280 22:44 14.03.2020
1034 Clouds 4 1022 70 10000 3.1 280 22:26 14.03.2020
1035 Clouds 4 1022 65 10000 3.6 270 21:57 14.03.2020
1036 Clouds 5 1022 70 10000 3.6 280 21:36 14.03.2020
1037 Clouds 5 1022 65 10000 3.6 270 21:18 14.03.2020
1038 Clouds 5 1022 65 10000 3.6 270 20:59 14.03.2020
1039 Clouds 5 1022 70 10000 3.6 270 20:40 14.03.2020
1040 Rain 6 1022 70 10000 2.6 290 20:19 14.03.2020
1041 Rain 6 1022 70 10000 3.6 270 20:19 14.03.2020
1042 Rain 7 1022 70 10000 2.6 290 19:56 14.03.2020
1043 Rain 7 1022 61 10000 2.1 290 19:38 14.03.2020
1044 Rain 8 1022 61 10000 2.1 290 19:19 14.03.2020
1045 Rain 9 1021 43 10000 0.5 0 18:37 14.03.2020
1046 Rain 10 1021 53 10000 1.5 240 18:19 14.03.2020
1047 Rain 10 1021 43 10000 1 0 17:39 14.03.2020
1048 Rain 11 1021 57 10000 1.5 350 17:21 14.03.2020
1049 Rain 11 1021 60 10000 1.5 340 16:41 14.03.2020
1050 Rain 11 1021 60 10000 1.5 340 16:23 14.03.2020
1051 Rain 11 1021 50 10000 1.5 0 15:59 14.03.2020
1052 Rain 11 1021 60 10000 1 0 15:27 14.03.2020
1053 Rain 11 1021 60 10000 1.5 0 14:59 14.03.2020
1054 Rain 11 1021 60 10000 1.5 0 14:37 14.03.2020
1055 Clouds 11 1021 50 10000 1.5 70 14:19 14.03.2020
1056 Clouds 11 1021 50 10000 1.5 70 13:56 14.03.2020
1057 Clouds 11 1021 55 10000 1.5 40 13:38 14.03.2020
1058 Rain 11 1022 57 10000 2.1 30 13:18 14.03.2020
1059 Clouds 10 1021 53 10000 2.1 360 12:43 14.03.2020
1060 Rain 9 1022 57 10000 2.1 70 12:24 14.03.2020
1061 Clouds 9 1021 57 10000 2.1 350 11:43 14.03.2020
1062 Clouds 9 1021 57 10000 2.1 350 11:43 14.03.2020
1063 Clouds 9 1022 57 10000 1.5 310 11:25 14.03.2020
1064 Clouds 8 1022 65 10000 1.5 0 10:47 14.03.2020
1065 Clouds 8 1022 65 10000 1.5 0 10:47 14.03.2020
1066 Clouds 7 1022 65 10000 1.5 0 10:28 14.03.2020
1067 Clouds 6 1022 70 10000 1.5 200 09:59 14.03.2020
1068 Clouds 5 1022 75 10000 1 0 09:40 14.03.2020
1069 Clouds 5 1021 80 10000 0.5 0 09:21 14.03.2020
1070 Clouds 4 1021 86 10000 1 330 08:46 14.03.2020
1071 Clouds 4 1021 86 10000 1 330 08:46 14.03.2020
1072 Snow 3 1021 86 10000 1 330 08:27 14.03.2020
1073 Clouds 2 1021 80 10000 2.6 220 07:41 14.03.2020
1074 Clouds 2 1021 80 10000 2.6 220 07:22 14.03.2020
1075 Clouds 2 1021 80 10000 2.1 200 06:55 14.03.2020
1076 Clouds 2 1021 69 10000 3.1 260 06:36 14.03.2020
1077 Clouds 2 1021 69 10000 3.1 270 04:56 14.03.2020
1078 Clouds 2 1021 69 10000 4.1 270 03:40 14.03.2020
1079 Clouds 2 1021 65 10000 3.6 270 02:53 14.03.2020
1080 Clouds 2 1022 69 10000 3.1 280 01:50 14.03.2020
1081 Clouds 3 1022 69 10000 1 0 00:36 14.03.2020
1082 Clouds 3 1022 60 10000 2.6 260 23:44 13.03.2020
1083 Clouds 3 1022 60 10000 2.6 260 23:25 13.03.2020
1084 Clouds 4 1022 65 10000 0.5 0 22:46 13.03.2020
1085 Clouds 4 1022 60 10000 3.6 270 22:25 13.03.2020
1086 Clouds 5 1022 56 10000 3.1 270 21:42 13.03.2020
1087 Clouds 5 1022 56 10000 3.1 270 21:21 13.03.2020
1088 Clouds 5 1022 56 10000 2.1 280 20:57 13.03.2020
1089 Clouds 5 1022 49 10000 3.6 300 20:38 13.03.2020
1090 Clouds 6 1022 56 10000 0.46 35 20:19 13.03.2020
1091 Clouds 6 1022 49 10000 0.5 340 19:42 13.03.2020
1092 Clouds 7 1021 45 10000 3.1 310 19:23 13.03.2020
1093 Clouds 8 1021 45 10000 3.1 310 19:23 13.03.2020
1094 Clouds 8 1021 46 10000 2.6 290 18:44 13.03.2020
1095 Clouds 9 1021 43 10000 4.6 300 18:25 13.03.2020
1096 Clouds 10 1021 43 10000 5.1 300 17:57 13.03.2020
1097 Clouds 10 1021 43 10000 3.1 320 17:37 13.03.2020
1098 Clear 11 1021 40 10000 3.6 330 17:18 13.03.2020
1099 Clear 11 1022 48 10000 2.1 320 16:41 13.03.2020
1100 Clear 11 1021 37 10000 3.6 320 16:23 13.03.2020
1101 Clear 10 1022 43 10000 4.1 260 15:56 13.03.2020
1102 Clear 11 1022 43 10000 4.1 260 15:37 13.03.2020
1103 Clear 11 1022 40 10000 3.6 260 15:19 13.03.2020
1104 Clear 11 1022 40 10000 4.1 250 14:41 13.03.2020
1105 Clear 11 1022 40 10000 1.5 240 14:22 13.03.2020
1106 Clouds 11 1022 49 10000 6.2 250 13:56 13.03.2020
1107 Clouds 11 1023 49 10000 4.6 270 13:38 13.03.2020
1108 Clear 11 1023 43 10000 5.7 280 13:19 13.03.2020
1109 Clear 10 1023 51 10000 5.7 230 12:40 13.03.2020
1110 Clear 10 1023 51 10000 5.1 240 12:22 13.03.2020
1111 Clear 10 1023 40 10000 5.1 280 11:59 13.03.2020
1112 Clear 10 1023 46 10000 6.7 250 11:41 13.03.2020
1113 Clear 10 1023 46 10000 6.7 250 11:41 13.03.2020
1114 Clear 9 1023 51 10000 6.2 260 11:22 13.03.2020
1115 Clear 8 1023 72 10000 7.2 260 10:48 13.03.2020
1116 Clear 8 1023 72 10000 7.2 260 10:28 13.03.2020
1117 Clear 8 1023 72 10000 7.2 260 10:28 13.03.2020
1118 Clear 8 1023 52 10000 6.7 240 09:59 13.03.2020
1119 Clear 8 1023 72 10000 5.7 230 09:41 13.03.2020
1120 Clear 8 1023 49 10000 3.6 240 09:22 13.03.2020
1121 Clear 7 1023 72 10000 5.7 250 08:46 13.03.2020
1122 Snow 6 1023 56 10000 1.5 190 08:23 13.03.2020
1123 Snow 6 1022 56 10000 2.6 210 07:52 13.03.2020
1124 Snow 6 1022 56 10000 2.1 0 07:28 13.03.2020
1125 Snow 6 1021 52 10000 5.1 250 06:53 13.03.2020
1126 Snow 6 1021 52 10000 3.1 260 06:32 13.03.2020
1127 Snow 7 1020 45 10000 6.2 260 05:55 13.03.2020
1128 Rain 7 1020 75 10000 4.6 260 05:24 13.03.2020
1129 Clouds 7 1019 65 10000 3.1 240 04:38 13.03.2020
1130 Clouds 8 1019 61 10000 3.6 220 03:43 13.03.2020
1131 Clouds 8 1018 65 10000 1 0 01:47 13.03.2020
1132 Clouds 8 1018 65 10000 1 0 01:19 13.03.2020
1133 Clouds 8 1018 65 10000 1.5 190 00:54 13.03.2020
1134 Clouds 8 1018 65 10000 1.5 190 00:28 13.03.2020
1135 Clouds 9 1018 57 10000 3.1 0 23:59 12.03.2020
1136 Rain 8 1019 81 10000 3.6 240 23:28 12.03.2020
1137 Rain 9 1018 53 10000 5.1 260 22:57 12.03.2020
1138 Rain 9 1017 61 10000 3.1 210 22:39 12.03.2020
1139 Rain 9 1017 71 10000 3.6 190 22:21 12.03.2020
1140 Rain 10 1017 62 10000 7.7 270 21:46 12.03.2020
1141 Rain 10 1017 62 10000 7.7 270 21:28 12.03.2020
1142 Rain 10 1017 66 10000 4.1 270 20:57 12.03.2020
1143 Rain 11 1017 71 10000 6.7 300 20:38 12.03.2020
1144 Rain 11 1017 71 10000 6.7 300 20:19 12.03.2020
1145 Rain 11 1016 76 10000 4.1 230 19:42 12.03.2020
1146 Rain 12 1016 87 10000 1 0 19:20 12.03.2020
1147 Rain 12 1015 81 10000 2.1 180 18:45 12.03.2020
1148 Rain 12 1015 81 10000 2.1 180 18:45 12.03.2020
1149 Rain 12 1015 62 10000 4.1 220 18:25 12.03.2020
1150 Clouds 13 1015 93 10000 1.5 100 17:57 12.03.2020
1151 Clouds 13 1015 93 10000 1.5 100 17:39 12.03.2020
1152 Clouds 13 1015 93 10000 1.5 70 17:20 12.03.2020
1153 Clouds 13 1015 62 10000 4.1 230 16:58 12.03.2020
1154 Rain 13 1015 93 7000 0.5 0 16:38 12.03.2020
1155 Clouds 14 1015 93 10000 2.1 70 16:19 12.03.2020
1156 Drizzle 14 1015 93 9000 4.6 340 15:45 12.03.2020
1157 Drizzle 14 1015 93 9000 4.6 340 15:27 12.03.2020
1158 Drizzle 14 1015 67 10000 6.7 200 14:43 12.03.2020
1159 Drizzle 15 1015 67 10000 6.7 200 14:24 12.03.2020
1160 Rain 15 1015 67 10000 5.7 200 13:57 12.03.2020
1161 Rain 15 1016 71 10000 6.7 210 13:37 12.03.2020
1162 Clouds 14 1016 71 10000 7.7 200 13:19 12.03.2020
1163 Clouds 14 1016 71 10000 8.7 200 12:43 12.03.2020
1164 Rain 14 1016 62 10000 6.7 200 12:23 12.03.2020
1165 Clouds 14 1016 67 10000 8.7 200 11:59 12.03.2020
1166 Clouds 14 1016 67 10000 9.8 190 11:39 12.03.2020
1167 Clouds 13 1016 67 10000 8.2 200 11:21 12.03.2020
1168 Clouds 13 1016 67 10000 8.2 200 11:21 12.03.2020
1169 Clouds 13 1017 62 10000 6.2 200 10:59 12.03.2020
1170 Clouds 13 1016 71 10000 7.7 190 10:41 12.03.2020
1171 Clouds 13 1016 62 10000 6.2 190 10:22 12.03.2020
1172 Clouds 13 1016 71 10000 6.7 180 09:49 12.03.2020
1173 Clouds 13 1016 71 10000 6.7 180 09:29 12.03.2020
1174 Clouds 12 1016 76 10000 5.7 170 08:55 12.03.2020
1175 Clouds 12 1016 76 10000 4.1 190 08:37 12.03.2020
1176 Clouds 11 1016 76 10000 2.1 210 08:18 12.03.2020
1177 Clouds 11 1016 67 10000 4.1 220 07:47 12.03.2020
1178 Clouds 11 1016 67 10000 4.1 220 07:21 12.03.2020
1179 Clouds 11 1015 76 10000 4.6 170 06:20 12.03.2020
1180 Clouds 11 1017 76 10000 2.1 210 05:34 12.03.2020
1181 Clouds 10 1016 76 10000 6.7 170 03:44 12.03.2020
1182 Clouds 9 1016 76 10000 4.1 160 01:58 12.03.2020
1183 Clouds 9 1017 81 10000 1.5 110 01:23 12.03.2020
1184 Clouds 9 1017 82 10000 3.1 170 00:42 12.03.2020
1185 Clouds 9 1018 82 10000 2.6 170 23:58 11.03.2020
1186 Clouds 9 1018 81 10000 2.1 170 23:37 11.03.2020
1187 Clouds 9 1019 93 10000 1 0 23:18 11.03.2020
1188 Clouds 9 1018 81 10000 2.1 200 22:41 11.03.2020
1189 Clouds 10 1018 81 10000 2.1 200 22:23 11.03.2020
1190 Clouds 10 1019 76 10000 4.1 170 21:58 11.03.2020
1191 Clouds 10 1019 82 10000 4.6 180 21:40 11.03.2020
1192 Clouds 11 1019 82 10000 4.1 180 21:22 11.03.2020
1193 Clouds 11 1019 82 10000 4.1 180 20:57 11.03.2020
1194 Clouds 11 1019 82 10000 4.1 180 20:57 11.03.2020
1195 Clouds 11 1019 82 10000 4.6 190 20:37 11.03.2020
1196 Clouds 12 1019 76 10000 3.6 190 20:19 11.03.2020
1197 Clouds 13 1019 76 10000 3.6 200 19:42 11.03.2020
1198 Clouds 13 1019 76 10000 4.1 180 19:24 11.03.2020
1199 Clouds 14 1019 76 10000 4.1 200 18:57 11.03.2020
1200 Clouds 14 1019 72 10000 4.6 200 18:38 11.03.2020
1201 Clouds 14 1019 72 10000 4.1 200 18:19 11.03.2020
1202 Clouds 14 1019 77 10000 4.1 180 17:55 11.03.2020
1203 Clouds 14 1019 72 10000 2.6 230 17:37 11.03.2020
1204 Clouds 15 1019 72 10000 3.6 230 17:19 11.03.2020
1205 Clouds 15 1019 72 10000 5.1 230 16:44 11.03.2020
1206 Clouds 15 1019 72 10000 4.6 180 16:20 11.03.2020
1207 Clouds 15 1019 67 10000 6.7 230 15:44 11.03.2020
1208 Clouds 15 1019 77 10000 4.1 190 15:23 11.03.2020
1209 Clouds 15 1019 67 10000 6.2 220 14:57 11.03.2020
1210 Clouds 15 1019 67 10000 6.2 220 14:39 11.03.2020
1211 Clouds 14 1020 72 10000 4.6 180 14:21 11.03.2020
1212 Clouds 14 1020 72 10000 5.7 220 13:44 11.03.2020
1213 Clouds 14 1020 82 10000 5.1 180 13:26 11.03.2020
1214 Clouds 14 1020 72 10000 5.7 230 12:58 11.03.2020
1215 Clouds 14 1020 76 10000 6.2 210 12:39 11.03.2020
1216 Clouds 14 1020 76 10000 6.7 210 12:19 11.03.2020
1217 Clouds 14 1020 76 10000 6.2 210 11:42 11.03.2020
1218 Clouds 13 1020 87 10000 7.2 190 11:24 11.03.2020
1219 Clouds 12 1020 82 10000 5.7 210 10:59 11.03.2020
1220 Clouds 12 1020 87 10000 6.2 200 10:41 11.03.2020
1221 Clouds 12 1020 87 10000 5.1 200 10:18 11.03.2020
1222 Drizzle 11 1020 93 4100 5.1 230 09:43 11.03.2020
1223 Drizzle 11 1020 93 4100 5.1 230 09:43 11.03.2020
1224 Drizzle 11 1020 93 4100 5.1 230 09:24 11.03.2020
1225 Clouds 11 1019 87 10000 4.6 190 08:45 11.03.2020
1226 Clouds 11 1019 87 10000 4.6 190 08:27 11.03.2020
1227 Clouds 10 1019 93 10000 7.7 180 07:59 11.03.2020
1228 Clouds 10 1019 87 10000 7.2 180 07:38 11.03.2020
1229 Rain 10 1019 87 9000 8.2 180 07:18 11.03.2020
1230 Clouds 10 1019 87 10000 6.7 190 06:37 11.03.2020
1231 Clouds 10 1018 87 10000 8.2 180 05:35 11.03.2020
1232 Clouds 10 1018 87 10000 8.7 180 04:29 11.03.2020
1233 Clouds 10 1017 81 10000 7.2 180 02:20 11.03.2020
1234 Clouds 10 1018 71 10000 4.1 200 01:27 11.03.2020
1235 Clouds 10 1018 71 10000 3.6 190 00:46 11.03.2020
1236 Clouds 10 1017 76 10000 3.6 200 23:58 10.03.2020
1237 Clouds 10 1017 76 10000 3.6 200 23:40 10.03.2020
1238 Clouds 9 1017 66 10000 5.7 220 23:21 10.03.2020
1239 Rain 9 1017 71 10000 5.1 210 22:39 10.03.2020
1240 Rain 9 1017 71 10000 5.1 210 22:20 10.03.2020
1241 Clouds 9 1017 71 10000 6.7 200 21:57 10.03.2020
1242 Clouds 9 1017 71 10000 6.2 200 21:39 10.03.2020
1243 Clouds 9 1017 71 10000 6.2 200 21:39 10.03.2020
1244 Clouds 9 1017 71 10000 5.1 190 21:20 10.03.2020
1245 Clouds 9 1017 71 10000 5.1 190 20:59 10.03.2020
1246 Clouds 9 1017 71 10000 4.6 200 20:41 10.03.2020
1247 Clouds 8 1016 81 10000 7.2 190 20:19 10.03.2020
1248 Clouds 8 1016 81 10000 7.2 190 19:57 10.03.2020
1249 Clouds 8 1016 81 10000 7.2 190 19:39 10.03.2020
1250 Clouds 8 1015 81 10000 7.2 190 19:21 10.03.2020
1251 Clouds 8 1015 81 10000 7.7 190 18:45 10.03.2020
1252 Clouds 8 1015 81 10000 7.7 190 18:45 10.03.2020
1253 Clouds 8 1017 93 10000 3.1 110 18:27 10.03.2020
1254 Clouds 8 1017 93 10000 1.5 0 17:58 10.03.2020
1255 Clouds 8 1015 87 10000 6.7 190 17:40 10.03.2020
1256 Clouds 8 1015 87 10000 7.2 190 17:22 10.03.2020
1257 Clouds 8 1015 87 10000 7.7 190 16:40 10.03.2020
1258 Rain 7 1014 87 10000 8.2 190 16:20 10.03.2020
1259 Rain 7 1014 87 10000 8.2 190 15:58 10.03.2020
1260 Rain 7 1014 93 10000 8.2 190 15:40 10.03.2020
1261 Rain 7 1015 93 5000 8.2 190 15:19 10.03.2020
1262 Rain 7 1015 93 5000 8.2 190 14:57 10.03.2020
1263 Rain 7 1014 87 10000 8.2 190 14:39 10.03.2020
1264 Rain 7 1015 87 9000 8.7 180 14:18 10.03.2020
1265 Rain 7 1015 87 7000 8.7 190 13:43 10.03.2020
1266 Rain 7 1015 87 7000 8.7 190 13:25 10.03.2020
1267 Rain 7 1015 81 9000 8.2 190 12:42 10.03.2020
1268 Rain 7 1015 71 10000 7.2 200 12:21 10.03.2020
1269 Rain 6 1015 70 10000 6.7 190 11:59 10.03.2020
1270 Rain 6 1015 81 10000 9.3 190 11:41 10.03.2020
1271 Rain 6 1015 81 10000 6.7 170 11:23 10.03.2020
1272 Rain 5 1015 81 10000 8.2 180 10:54 10.03.2020
1273 Rain 5 1016 87 10000 9.8 200 10:36 10.03.2020
1274 Rain 5 1015 81 10000 8.7 180 10:18 10.03.2020
1275 Rain 5 1016 87 8000 10.3 190 09:44 10.03.2020
1276 Rain 5 1016 87 9000 10.8 200 09:20 10.03.2020
1277 Rain 5 1016 81 9000 10.3 200 08:56 10.03.2020
1278 Rain 5 1016 81 9000 10.3 200 08:36 10.03.2020
1279 Rain 5 1016 81 10000 8.2 180 08:18 10.03.2020
1280 Rain 5 1016 81 10000 7.2 190 07:40 10.03.2020
1281 Rain 5 1016 81 10000 7.2 190 07:21 10.03.2020
1282 Rain 5 1016 81 10000 7.2 190 07:21 10.03.2020
1283 Rain 5 1017 81 10000 5.7 180 06:38 10.03.2020
1284 Rain 4 1017 81 10000 4.1 170 05:55 10.03.2020
1285 Rain 4 1017 81 10000 4.1 170 05:35 10.03.2020
1286 Clouds 4 1017 81 10000 4.6 190 04:30 10.03.2020
1287 Clouds 3 1019 86 10000 4.6 170 02:58 10.03.2020
1288 Clouds 4 1020 93 10000 3.1 210 01:33 10.03.2020
1289 Clouds 4 1020 93 10000 3.6 210 00:51 10.03.2020
1290 Clouds 4 1020 93 10000 3.6 210 00:29 10.03.2020
1291 Clouds 4 1021 86 10000 2.6 220 23:43 09.03.2020
1292 Clouds 4 1021 80 10000 2.6 230 23:22 09.03.2020
1293 Clouds 4 1021 80 10000 2.6 230 22:58 09.03.2020
1294 Clouds 4 1020 81 10000 1.5 180 22:38 09.03.2020
1295 Clouds 4 1020 81 10000 1.5 180 22:20 09.03.2020
1296 Clouds 4 1020 81 10000 2.6 240 21:45 09.03.2020
1297 Clouds 4 1020 81 10000 2.6 240 21:22 09.03.2020
1298 Clouds 4 1020 81 10000 2.1 180 20:59 09.03.2020
1299 Clouds 5 1020 80 10000 1.5 210 20:41 09.03.2020
1300 Clouds 5 1020 80 10000 1.5 210 20:23 09.03.2020
1301 Snow 5 1020 75 10000 3.1 190 19:59 09.03.2020
1302 Snow 5 1020 70 10000 3.1 200 19:41 09.03.2020
1303 Snow 6 1019 65 10000 3.1 200 19:20 09.03.2020
1304 Snow 6 1019 65 10000 3.1 200 18:57 09.03.2020
1305 Snow 7 1019 65 10000 4.6 210 18:38 09.03.2020
1306 Clouds 7 1018 70 10000 4.1 210 18:18 09.03.2020
1307 Snow 7 1018 61 10000 4.1 220 17:55 09.03.2020
1308 Clouds 8 1018 61 10000 4.1 240 17:37 09.03.2020
1309 Clouds 8 1018 61 10000 4.1 240 17:19 09.03.2020
1310 Rain 8 1018 61 10000 2.6 260 16:56 09.03.2020
1311 Clouds 8 1017 66 10000 5.7 240 16:38 09.03.2020
1312 Clouds 8 1018 61 10000 5.1 290 16:20 09.03.2020
1313 Rain 8 1017 53 10000 4.6 280 15:56 09.03.2020
1314 Rain 9 1017 57 10000 1.5 0 15:38 09.03.2020
1315 Rain 8 1017 57 10000 1.5 0 15:18 09.03.2020
1316 Rain 8 1017 57 10000 3.6 270 14:39 09.03.2020
1317 Rain 7 1017 61 10000 3.1 300 14:21 09.03.2020
1318 Rain 7 1017 61 10000 3.1 300 13:59 09.03.2020
1319 Snow 7 1017 61 10000 3.1 300 13:39 09.03.2020
1320 Clouds 8 1017 65 10000 2.6 310 13:21 09.03.2020
1321 Rain 8 1017 70 10000 5.7 300 12:59 09.03.2020
1322 Rain 8 1017 70 10000 5.7 300 12:40 09.03.2020
1323 Clouds 8 1016 61 10000 2.6 0 12:19 09.03.2020
1324 Rain 8 1016 57 10000 3.01 284 11:40 09.03.2020
1325 Rain 8 1016 57 10000 3.01 284 11:40 09.03.2020
1326 Clouds 8 1016 66 10000 3.1 220 11:20 09.03.2020
1327 Clouds 7 1016 70 10000 4.6 240 10:58 09.03.2020
1328 Clouds 8 1016 70 10000 4.6 240 10:40 09.03.2020
1329 Clouds 8 1016 70 10000 4.6 240 10:40 09.03.2020
1330 Clouds 7 1016 66 10000 2.1 230 10:19 09.03.2020
1331 Clouds 7 1016 66 10000 2.1 230 10:19 09.03.2020
1332 Clouds 7 1016 70 10000 2.1 190 09:43 09.03.2020
1333 Snow 7 1016 75 10000 1 0 09:24 09.03.2020
1334 Clouds 6 1015 75 10000 1.5 0 08:59 09.03.2020
1335 Snow 6 1015 87 10000 1.5 210 08:39 09.03.2020
1336 Rain 5 1015 87 10000 1.5 210 08:21 09.03.2020
1337 Clouds 5 1015 93 10000 2.1 190 07:39 09.03.2020
1338 Rain 5 1015 87 10000 3.1 200 07:21 09.03.2020
1339 Rain 5 1014 87 10000 2.6 200 06:43 09.03.2020
1340 Rain 5 1014 87 10000 2.6 210 06:23 09.03.2020
1341 Rain 5 1014 87 10000 1 0 05:46 09.03.2020
1342 Rain 5 1013 86 10000 2.1 210 05:18 09.03.2020
1343 Rain 6 1013 81 10000 1 0 04:40 09.03.2020
1344 Rain 6 1013 81 10000 1.5 50 04:21 09.03.2020
1345 Rain 7 1012 93 10000 5.1 180 02:58 09.03.2020
1346 Clouds 7 1013 87 10000 6.7 180 01:18 09.03.2020
1347 Rain 7 1013 81 10000 6.2 180 00:37 09.03.2020
1348 Rain 7 1013 76 10000 5.1 180 00:19 09.03.2020
1349 Rain 7 1013 76 10000 5.1 190 23:42 08.03.2020
1350 Rain 7 1013 71 10000 3.1 190 23:21 08.03.2020
1351 Rain 7 1014 66 10000 2.6 200 22:56 08.03.2020
1352 Rain 7 1014 66 10000 2.6 200 22:38 08.03.2020
1353 Rain 7 1014 66 10000 4.1 230 22:18 08.03.2020
1354 Rain 7 1014 66 10000 6.7 210 21:42 08.03.2020
1355 Rain 6 1014 57 10000 4.1 240 21:23 08.03.2020
1356 Rain 7 1014 57 10000 4.1 240 21:23 08.03.2020
1357 Clouds 7 1014 62 10000 3.6 240 20:59 08.03.2020
1358 Clouds 7 1014 62 10000 3.6 240 20:39 08.03.2020
1359 Rain 8 1014 66 10000 1 0 20:21 08.03.2020
1360 Clouds 8 1014 66 10000 1 0 19:54 08.03.2020
1361 Clouds 8 1014 66 10000 1 0 19:36 08.03.2020
1362 Clouds 8 1015 53 10000 2.6 120 19:18 08.03.2020
1363 Clouds 8 1014 62 10000 2.1 250 18:40 08.03.2020
1364 Clouds 10 1014 66 10000 2.6 180 18:22 08.03.2020
1365 Clouds 11 1015 62 10000 3.6 200 17:56 08.03.2020
1366 Clouds 11 1015 62 10000 3.6 200 17:37 08.03.2020
1367 Clouds 11 1015 58 10000 7.2 180 17:18 08.03.2020
1368 Clouds 12 1015 58 10000 7.2 180 16:45 08.03.2020
1369 Clouds 12 1015 54 10000 7.7 190 16:27 08.03.2020
1370 Clouds 11 1016 54 10000 6.2 180 15:56 08.03.2020
1371 Clouds 12 1016 54 10000 6.2 180 15:56 08.03.2020
1372 Clouds 11 1016 58 10000 6.7 180 15:38 08.03.2020
1373 Clouds 11 1016 58 10000 6.7 180 15:19 08.03.2020
1374 Clouds 11 1017 54 10000 6.2 190 14:40 08.03.2020
1375 Clouds 11 1017 54 10000 6.2 190 14:21 08.03.2020
1376 Clouds 11 1018 54 10000 5.7 180 13:57 08.03.2020
1377 Clouds 10 1018 53 10000 6.2 170 13:38 08.03.2020
1378 Clouds 10 1018 53 10000 6.2 170 13:19 08.03.2020
1379 Clouds 10 1019 53 10000 3.6 160 12:41 08.03.2020
1380 Clouds 10 1020 57 10000 2.1 170 12:21 08.03.2020
1381 Clouds 9 1020 57 10000 2.1 190 11:55 08.03.2020
1382 Clouds 8 1020 57 10000 2.1 190 11:37 08.03.2020
1383 Clouds 7 1021 61 10000 3.1 180 11:19 08.03.2020
1384 Clouds 6 1021 76 10000 3.6 190 10:41 08.03.2020
1385 Clouds 6 1021 76 10000 3.6 190 10:23 08.03.2020
1386 Clouds 4 1021 76 10000 3.6 190 09:43 08.03.2020
1387 Clouds 4 1021 76 10000 3.1 210 09:25 08.03.2020
1388 Clouds 3 1021 76 10000 3.6 180 08:57 08.03.2020
1389 Clouds 2 1022 76 10000 3.1 140 08:39 08.03.2020
1390 Clouds 1 1021 86 10000 3.6 180 08:19 08.03.2020
1391 Clouds 1 1021 86 10000 3.6 180 07:42 08.03.2020
1392 Clouds 0 1022 86 10000 3.6 190 07:23 08.03.2020
1393 Clouds 0 1021 86 10000 3.6 200 06:42 08.03.2020
1394 Clouds 0 1022 86 10000 4.1 180 06:22 08.03.2020
1395 Clouds 0 1022 86 10000 1.5 230 05:35 08.03.2020
1396 Clouds 1 1022 86 10000 3.6 190 03:52 08.03.2020
1397 Clouds 1 1023 86 10000 3.1 180 02:30 08.03.2020
1398 Clouds 1 1023 80 10000 2.1 180 01:34 08.03.2020
1399 Clouds 1 1024 80 10000 2.1 180 00:52 08.03.2020
1400 Clouds 1 1024 90 10000 1.5 170 00:27 08.03.2020
1401 Clouds 1 1024 90 10000 1 0 23:46 07.03.2020
1402 Clouds 1 1024 90 10000 2.6 230 23:24 07.03.2020
1403 Clouds 1 1024 88 10000 2.1 200 22:55 07.03.2020
1404 Clouds 2 1024 69 10000 1.5 250 22:36 07.03.2020
1405 Clouds 2 1024 69 10000 1.5 250 22:18 07.03.2020
1406 Clouds 2 1024 88 10000 2.6 240 21:43 07.03.2020
1407 Clouds 2 1024 88 10000 4.6 270 21:19 07.03.2020
1408 Clouds 3 1023 88 10000 3.1 270 20:40 07.03.2020
1409 Clouds 4 1024 60 10000 2.6 240 20:20 07.03.2020
1410 Clouds 4 1023 60 10000 2.6 240 19:41 07.03.2020
1411 Clouds 5 1023 60 10000 2.1 210 19:22 07.03.2020
1412 Clouds 5 1023 56 10000 2.1 250 18:59 07.03.2020
1413 Clouds 6 1022 52 10000 3.1 220 18:39 07.03.2020
1414 Clouds 7 1022 52 10000 3.1 220 18:20 07.03.2020
1415 Clouds 7 1022 52 10000 2.1 240 17:42 07.03.2020
1416 Snow 8 1022 49 10000 1.5 260 17:20 07.03.2020
1417 Snow 8 1022 52 10000 2.6 300 16:56 07.03.2020
1418 Snow 8 1022 52 10000 2.6 300 16:38 07.03.2020
1419 Snow 8 1021 52 10000 3.6 310 16:20 07.03.2020
1420 Snow 8 1021 49 10000 3.1 280 15:55 07.03.2020
1421 Snow 8 1021 79 10000 1 0 15:36 07.03.2020
1422 Snow 8 1021 79 10000 1 0 15:18 07.03.2020
1423 Clouds 8 1021 79 10000 1.5 360 14:42 07.03.2020
1424 Clouds 8 1021 61 10000 1.5 0 14:23 07.03.2020
1425 Snow 8 1021 61 10000 1.5 0 13:55 07.03.2020
1426 Clouds 7 1021 65 10000 1.5 70 13:37 07.03.2020
1427 Clouds 7 1021 65 10000 1.5 70 13:18 07.03.2020
1428 Clouds 8 1021 61 10000 1.5 60 12:39 07.03.2020
1429 Clouds 7 1020 61 10000 2.1 50 12:19 07.03.2020
1430 Clouds 7 1020 84 10000 2.1 40 11:56 07.03.2020
1431 Clouds 7 1020 84 10000 2.1 40 11:37 07.03.2020
1432 Snow 7 1020 96 10000 1 0 11:19 07.03.2020
1433 Snow 6 1019 56 10000 3.1 120 10:39 07.03.2020
1434 Snow 5 1019 56 10000 3.1 120 10:20 07.03.2020
1435 Snow 5 1019 56 10000 3.1 120 09:42 07.03.2020
1436 Snow 4 1018 96 10000 1 0 09:20 07.03.2020
1437 Snow 4 1018 96 10000 1 0 09:20 07.03.2020
1438 Snow 4 1018 70 10000 1.5 0 08:59 07.03.2020
1439 Snow 4 1018 70 10000 1.5 0 08:41 07.03.2020
1440 Snow 3 1018 69 10000 1.5 210 08:20 07.03.2020
1441 Snow 3 1018 69 10000 1.5 210 08:20 07.03.2020
1442 Snow 2 1017 69 10000 1 0 07:48 07.03.2020
1443 Snow 2 1017 64 10000 1.5 250 07:22 07.03.2020
1444 Snow 2 1016 69 10000 2.6 270 06:54 07.03.2020
1445 Snow 3 1016 69 10000 2.6 270 06:29 07.03.2020
1446 Snow 3 1016 69 10000 2.6 270 05:50 07.03.2020
1447 Snow 3 1015 98 10000 1 0 04:40 07.03.2020
1448 Clouds 4 1013 75 10000 1.5 300 02:46 07.03.2020
1449 Clouds 4 1013 75 10000 1.5 0 02:24 07.03.2020
1450 Rain 4 1012 81 10000 1 310 01:26 07.03.2020
1451 Clouds 5 1012 75 10000 2.6 280 00:38 07.03.2020
1452 Clouds 5 1011 75 10000 3.1 270 00:20 07.03.2020
1453 Clouds 5 1011 81 10000 1 0 23:44 06.03.2020
1454 Rain 5 1011 86 10000 2.1 230 23:25 06.03.2020
1455 Rain 5 1011 93 10000 2.1 240 22:48 06.03.2020
1456 Drizzle 5 1010 86 7000 3.1 330 22:21 06.03.2020
1457 Drizzle 5 1010 93 10000 2.1 340 21:56 06.03.2020
1458 Drizzle 5 1010 93 10000 2.1 340 21:38 06.03.2020
1459 Rain 5 1009 87 7000 3.1 350 21:18 06.03.2020
1460 Rain 5 1009 87 7000 3.1 350 21:18 06.03.2020
1461 Rain 5 1008 75 9000 1.5 0 20:38 06.03.2020
1462 Rain 5 1008 75 9000 1.5 0 20:20 06.03.2020
1463 Rain 5 1007 75 9000 2.6 270 19:47 06.03.2020
1464 Rain 5 1007 75 10000 3.1 280 19:28 06.03.2020
1465 Rain 5 1006 75 10000 2.6 290 18:57 06.03.2020
1466 Rain 5 1006 81 10000 5.7 230 18:38 06.03.2020
1467 Rain 5 1005 75 10000 5.7 230 18:19 06.03.2020
1468 Rain 6 1005 70 10000 3.6 210 17:42 06.03.2020
1469 Rain 6 1005 75 10000 6.7 240 17:24 06.03.2020
1470 Rain 6 1005 75 10000 6.7 240 16:59 06.03.2020
1471 Rain 6 1003 65 10000 4.1 210 16:41 06.03.2020
1472 Rain 6 1003 65 10000 4.1 210 16:20 06.03.2020
1473 Clouds 6 1002 65 10000 5.1 220 15:45 06.03.2020
1474 Clouds 6 1002 65 10000 5.1 210 15:25 06.03.2020
1475 Clouds 6 1002 65 10000 6.2 210 14:55 06.03.2020
1476 Clouds 6 1001 65 10000 6.2 210 14:37 06.03.2020
1477 Clouds 6 1001 65 10000 6.2 210 14:19 06.03.2020
1478 Clouds 6 1001 65 10000 6.2 230 13:43 06.03.2020
1479 Clouds 6 1001 65 10000 5.1 210 13:22 06.03.2020
1480 Clouds 6 1000 70 10000 7.2 200 12:57 06.03.2020
1481 Clouds 6 1000 70 10000 7.2 200 12:38 06.03.2020
1482 Clouds 6 1000 65 10000 6.7 200 12:19 06.03.2020
1483 Clouds 6 1000 65 10000 6.7 200 12:19 06.03.2020
1484 Clouds 6 999 70 10000 7.2 200 11:57 06.03.2020
1485 Clouds 6 999 70 10000 7.2 200 11:38 06.03.2020
1486 Clouds 6 999 70 10000 7.7 210 11:19 06.03.2020
1487 Clouds 6 998 70 10000 8.7 200 10:39 06.03.2020
1488 Clouds 6 998 70 10000 7.2 200 10:21 06.03.2020
1489 Clouds 5 998 81 10000 5.1 210 09:55 06.03.2020
1490 Rain 5 997 81 10000 6.2 200 09:37 06.03.2020
1491 Rain 5 997 81 10000 6.2 200 09:19 06.03.2020
1492 Rain 5 997 86 10000 6.7 180 08:43 06.03.2020
1493 Rain 5 997 81 10000 7.7 180 08:25 06.03.2020
1494 Rain 4 996 81 10000 7.7 190 07:57 06.03.2020
1495 Rain 5 996 81 10000 7.7 190 07:38 06.03.2020
1496 Rain 5 995 75 10000 6.7 180 06:59 06.03.2020
1497 Rain 5 995 75 10000 6.7 180 06:40 06.03.2020
1498 Rain 5 994 75 10000 8.2 180 05:46 06.03.2020
1499 Clouds 6 993 75 10000 6.7 180 05:27 06.03.2020
1500 Rain 6 993 75 10000 6.7 190 04:57 06.03.2020
1501 Rain 7 991 75 10000 6.2 180 02:37 06.03.2020
1502 Rain 7 991 75 10000 5.1 170 01:40 06.03.2020
1503 Rain 7 991 66 10000 5.1 210 01:22 06.03.2020
1504 Clouds 7 991 66 10000 6.7 230 00:37 06.03.2020
1505 Clouds 8 991 70 10000 7.7 230 00:18 06.03.2020
1506 Clouds 8 990 87 10000 1 0 23:42 05.03.2020
1507 Rain 8 990 81 10000 5.7 190 23:19 05.03.2020
1508 Rain 7 990 87 10000 6.2 180 22:40 05.03.2020
1509 Rain 7 990 87 9000 5.1 170 22:22 05.03.2020
1510 Rain 7 990 87 9000 5.1 170 22:22 05.03.2020
1511 Rain 7 991 87 10000 4.6 170 21:58 05.03.2020
1512 Rain 7 991 87 10000 4.6 170 21:39 05.03.2020
1513 Rain 8 991 87 10000 5.1 170 21:21 05.03.2020
1514 Clouds 8 991 87 10000 5.1 170 20:59 05.03.2020
1515 Clouds 8 991 87 10000 5.1 170 20:41 05.03.2020
1516 Rain 8 992 81 10000 7.2 180 20:20 05.03.2020
1517 Clouds 8 992 87 10000 2.6 160 19:58 05.03.2020
1518 Rain 8 992 87 10000 2.6 160 19:39 05.03.2020
1519 Rain 8 992 81 10000 3.6 170 19:19 05.03.2020
1520 Rain 8 992 81 8000 3.1 180 18:58 05.03.2020
1521 Rain 8 992 81 8000 3.1 180 18:37 05.03.2020
1522 Rain 8 991 81 10000 4.6 170 18:18 05.03.2020
1523 Rain 8 990 93 10000 2.1 330 17:55 05.03.2020
1524 Rain 8 990 93 9000 3.6 200 17:36 05.03.2020
1525 Rain 8 990 93 9000 3.6 200 17:36 05.03.2020
1526 Rain 8 990 93 9000 3.6 200 17:18 05.03.2020
1527 Rain 8 990 93 10000 3.1 190 16:41 05.03.2020
1528 Rain 7 990 100 10000 3.6 200 16:22 05.03.2020
1529 Rain 7 991 100 10000 4.6 190 15:54 05.03.2020
1530 Rain 7 992 93 10000 4.6 190 15:36 05.03.2020
1531 Rain 7 992 93 10000 4.6 190 15:18 05.03.2020
1532 Rain 7 992 93 10000 4.6 190 14:41 05.03.2020
1533 Rain 7 993 93 10000 4.6 200 14:22 05.03.2020
1534 Rain 7 994 93 10000 3.6 200 13:57 05.03.2020
1535 Rain 7 994 93 10000 3.6 200 13:39 05.03.2020
1536 Rain 7 995 93 10000 2.6 200 13:20 05.03.2020
1537 Rain 7 996 100 10000 1.5 200 12:55 05.03.2020
1538 Rain 7 996 100 10000 1.5 200 12:36 05.03.2020
1539 Rain 6 996 93 9000 0.5 0 12:18 05.03.2020
1540 Rain 7 997 93 6000 1 0 11:55 05.03.2020
1541 Rain 7 998 100 10000 1 40 11:36 05.03.2020
1542 Rain 7 998 100 10000 1 40 11:18 05.03.2020
1543 Rain 7 999 93 10000 1 0 10:55 05.03.2020
1544 Rain 6 999 93 10000 1 0 10:37 05.03.2020
1545 Rain 6 999 93 10000 1.5 0 10:19 05.03.2020
1546 Rain 6 1000 93 10000 3.86 154 09:41 05.03.2020
1547 Rain 6 1001 93 10000 1.5 0 09:22 05.03.2020
1548 Rain 6 1001 93 10000 1.5 210 08:43 05.03.2020
1549 Rain 5 1002 100 8000 2.1 200 08:25 05.03.2020
1550 Rain 5 1002 100 6000 1.5 190 07:46 05.03.2020
1551 Rain 5 1003 93 10000 2.6 190 07:22 05.03.2020
1552 Rain 5 1003 93 10000 5.7 190 06:48 05.03.2020
1553 Clouds 5 1004 93 10000 6.2 190 06:21 05.03.2020
1554 Clouds 5 1004 93 10000 5.1 180 05:39 05.03.2020
1555 Clouds 5 1005 93 10000 6.7 180 04:45 05.03.2020
1556 Clouds 5 1005 87 10000 7.2 190 04:22 05.03.2020
1557 Clouds 5 1006 87 10000 6.7 180 03:19 05.03.2020
1558 Clouds 4 1008 75 10000 1.5 0 01:55 05.03.2020
1559 Clouds 4 1008 75 10000 1 0 01:20 05.03.2020
1560 Clouds 4 1009 75 10000 2.1 210 00:26 05.03.2020
1561 Clouds 4 1009 75 10000 1 0 23:42 04.03.2020
1562 Clouds 4 1010 88 10000 2.1 260 23:23 04.03.2020
1563 Clouds 4 1010 83 10000 2.6 270 22:58 04.03.2020
1564 Clouds 4 1010 83 10000 2.6 270 22:39 04.03.2020
1565 Clouds 4 1010 83 10000 2.6 270 22:19 04.03.2020
1566 Clouds 4 1010 83 10000 3.1 270 21:58 04.03.2020
1567 Clouds 4 1010 83 10000 3.1 270 21:40 04.03.2020
1568 Clouds 4 1011 83 10000 3.1 250 21:20 04.03.2020
1569 Clouds 4 1011 83 10000 3.1 260 20:56 04.03.2020
1570 Clouds 4 1011 83 10000 3.1 260 20:36 04.03.2020
1571 Clouds 5 1011 84 10000 2.6 270 20:18 04.03.2020
1572 Clouds 5 1011 70 10000 2.1 260 19:42 04.03.2020
1573 Clouds 5 1012 84 10000 2.6 290 19:23 04.03.2020
1574 Clouds 5 1012 52 10000 2.6 300 18:56 04.03.2020
1575 Clouds 6 1012 52 10000 2.1 300 18:36 04.03.2020
1576 Clouds 7 1012 52 10000 2.1 300 18:18 04.03.2020
1577 Clouds 7 1012 52 10000 2.1 300 17:55 04.03.2020
1578 Clouds 7 1012 45 10000 3.1 260 17:37 04.03.2020
1579 Clouds 9 1012 45 10000 3.1 260 17:18 04.03.2020
1580 Clouds 9 1012 45 10000 3.1 250 16:42 04.03.2020
1581 Clouds 9 1012 49 10000 4.1 280 16:24 04.03.2020
1582 Clouds 9 1013 43 10000 4.6 240 15:57 04.03.2020
1583 Clouds 9 1013 43 10000 3.6 210 15:39 04.03.2020
1584 Clouds 9 1013 43 10000 3.6 210 15:21 04.03.2020
1585 Clouds 10 1013 43 10000 4.1 0 14:55 04.03.2020
1586 Clouds 9 1013 46 10000 3.1 310 14:36 04.03.2020
1587 Clouds 9 1013 46 10000 3.1 310 14:18 04.03.2020
1588 Clouds 9 1014 46 10000 2.1 0 13:55 04.03.2020
1589 Clouds 9 1014 46 10000 2.1 0 13:36 04.03.2020
1590 Clouds 9 1014 43 10000 4.1 200 13:18 04.03.2020
1591 Clouds 9 1014 67 10000 4.1 210 12:43 04.03.2020
1592 Clouds 8 1015 67 10000 2.1 180 12:24 04.03.2020
1593 Clouds 8 1015 61 10000 2.37 248 11:56 04.03.2020
1594 Clouds 7 1015 61 10000 2.37 248 11:37 04.03.2020
1595 Clouds 7 1015 61 10000 2.37 248 11:37 04.03.2020
1596 Clouds 6 1015 65 10000 2.1 160 11:19 04.03.2020
1597 Clouds 6 1015 75 10000 3.6 180 10:47 04.03.2020
1598 Clouds 6 1015 80 10000 3.1 180 10:26 04.03.2020
1599 Clouds 5 1015 86 10000 3.1 180 09:58 04.03.2020
1600 Clouds 5 1015 86 10000 3.1 180 09:40 04.03.2020
1601 Clouds 4 1015 86 10000 0.5 0 09:20 04.03.2020
1602 Clouds 3 1015 78 10000 0.5 0 08:44 04.03.2020
1603 Clouds 3 1015 78 10000 2.3 234 08:25 04.03.2020
1604 Clouds 2 1015 92 10000 1.92 203 07:52 04.03.2020
1605 Clouds 2 1015 92 10000 1 0 07:33 04.03.2020
1606 Clouds 1 1014 97 10000 0.5 0 06:58 04.03.2020
1607 Clouds 2 1014 97 10000 0.5 0 06:40 04.03.2020
1608 Clouds 2 1014 97 10000 1 140 06:20 04.03.2020
1609 Clouds 2 1014 97 10000 1.5 170 05:45 04.03.2020
1610 Clouds 1 1013 80 10000 1.5 170 04:19 04.03.2020
1611 Clouds 1 1013 96 10000 1.5 230 03:38 04.03.2020
1612 Clouds 1 1013 86 10000 1.5 230 02:59 04.03.2020
1613 Clouds 2 1013 86 10000 1.5 230 02:37 04.03.2020
1614 Clouds 2 1013 80 10000 1.5 250 02:18 04.03.2020
1615 Clouds 1 1012 86 10000 1.5 260 01:50 04.03.2020
1616 Clouds 1 1012 90 10000 1 0 00:44 04.03.2020
1617 Clouds 2 1012 90 10000 1.5 230 00:24 04.03.2020
1618 Clouds 2 1011 90 10000 2.6 240 23:45 03.03.2020
1619 Clouds 2 1011 90 10000 1.5 280 23:27 03.03.2020
1620 Clouds 2 1011 90 10000 1.5 280 23:27 03.03.2020
1621 Snow 2 1011 80 10000 0.5 0 22:57 03.03.2020
1622 Snow 2 1010 88 10000 1 0 22:39 03.03.2020
1623 Snow 3 1010 88 10000 1 0 22:19 03.03.2020
1624 Clouds 3 1010 88 10000 0.5 0 21:56 03.03.2020
1625 Clouds 3 1010 88 10000 0.5 0 21:38 03.03.2020
1626 Clouds 3 1009 88 10000 1.5 310 21:18 03.03.2020
1627 Snow 3 1009 88 10000 1 0 20:41 03.03.2020
1628 Clouds 4 1008 60 10000 3.1 290 20:21 03.03.2020
1629 Clouds 4 1008 85 10000 4.1 300 19:59 03.03.2020
1630 Snow 4 1008 87 10000 4.1 300 19:37 03.03.2020
1631 Snow 4 1007 87 10000 3.6 290 19:19 03.03.2020
1632 Clouds 5 1007 56 10000 2.1 250 18:59 03.03.2020
1633 Snow 5 1007 56 10000 2.1 250 18:41 03.03.2020
1634 Clouds 5 1006 56 10000 1 0 18:21 03.03.2020
1635 Clouds 6 1006 56 10000 2.1 230 17:59 03.03.2020
1636 Clouds 6 1006 56 10000 2.1 230 17:39 03.03.2020
1637 Clouds 6 1006 56 10000 2.1 230 17:39 03.03.2020
1638 Snow 7 1005 49 10000 2.1 280 17:21 03.03.2020
1639 Clouds 7 1005 49 10000 3.6 230 16:57 03.03.2020
1640 Clouds 7 1005 49 10000 3.6 230 16:38 03.03.2020
1641 Rain 7 1005 70 10000 5.1 240 16:19 03.03.2020
1642 Rain 7 1005 70 10000 5.1 240 16:19 03.03.2020
1643 Rain 7 1005 74 10000 2.1 240 15:45 03.03.2020
1644 Clouds 7 1005 52 10000 3.1 230 15:23 03.03.2020
1645 Clouds 7 1004 70 10000 4.1 210 14:58 03.03.2020
1646 Clouds 7 1004 74 10000 4.1 210 14:58 03.03.2020
1647 Clouds 8 1004 70 10000 4.1 210 14:40 03.03.2020
1648 Snow 7 1004 45 10000 2.1 190 14:19 03.03.2020
1649 Snow 7 1004 45 10000 2.1 190 14:19 03.03.2020
1650 Snow 7 1005 52 10000 2.1 270 13:57 03.03.2020
1651 Snow 7 1005 52 10000 2.1 270 13:39 03.03.2020
1652 Clouds 7 1005 52 10000 4.1 230 13:19 03.03.2020
1653 Clouds 7 1005 56 10000 4.6 240 12:47 03.03.2020
1654 Clouds 7 1005 72 10000 3.1 180 12:26 03.03.2020
1655 Clouds 7 1005 72 10000 3.1 190 11:57 03.03.2020
1656 Clouds 6 1005 56 10000 4.1 220 11:37 03.03.2020
1657 Clouds 7 1005 72 10000 3.1 190 11:37 03.03.2020
1658 Clouds 6 1005 56 10000 4.1 220 11:18 03.03.2020
1659 Clouds 6 1005 56 10000 4.1 220 11:18 03.03.2020
1660 Clouds 6 1006 87 10000 4.1 210 10:56 03.03.2020
1661 Clouds 6 1006 87 10000 3.6 170 10:37 03.03.2020
1662 Clouds 6 1006 87 10000 3.6 170 10:18 03.03.2020
1663 Clouds 5 1006 87 10000 4.1 210 09:44 03.03.2020
1664 Clouds 5 1006 80 10000 4.1 200 09:22 03.03.2020
1665 Clouds 4 1006 86 10000 2.6 190 08:57 03.03.2020
1666 Clouds 4 1006 93 10000 4.1 190 08:39 03.03.2020
1667 Clouds 3 1006 93 10000 4.1 190 08:20 03.03.2020
1668 Clouds 3 1005 86 10000 1.5 190 07:43 03.03.2020
1669 Clouds 3 1005 86 10000 1 0 07:20 03.03.2020
1670 Clouds 3 1005 80 10000 1.5 240 06:49 03.03.2020
1671 Clouds 3 1005 80 10000 1.5 240 06:49 03.03.2020
1672 Clouds 3 1005 86 10000 2.6 150 06:23 03.03.2020
1673 Clouds 4 1004 93 10000 2.6 220 05:47 03.03.2020
1674 Clouds 4 1004 80 10000 1.5 180 05:19 03.03.2020
1675 Clouds 4 1003 80 10000 5.1 240 04:30 03.03.2020
1676 Rain 5 999 81 10000 4.6 280 01:40 03.03.2020
1677 Drizzle 5 998 75 10000 3.1 270 00:49 03.03.2020
1678 Rain 5 996 81 10000 2.6 230 00:27 03.03.2020
1679 Rain 5 996 87 10000 2.1 200 23:59 02.03.2020
1680 Rain 5 996 87 10000 2.1 200 23:41 02.03.2020
1681 Rain 5 995 87 8000 1.5 0 23:22 02.03.2020
1682 Rain 5 995 87 9000 1 0 22:55 02.03.2020
1683 Rain 5 995 87 9000 1 0 22:37 02.03.2020
1684 Rain 5 994 87 10000 1.5 270 22:19 02.03.2020
1685 Rain 5 994 93 10000 1 0 21:42 02.03.2020
1686 Drizzle 5 993 100 10000 1 0 21:24 02.03.2020
1687 Drizzle 5 993 100 10000 1 0 21:24 02.03.2020
1688 Rain 6 992 100 10000 2.1 190 20:59 02.03.2020
1689 Rain 6 992 100 10000 2.1 190 20:41 02.03.2020
1690 Rain 6 992 100 10000 2.1 170 20:21 02.03.2020
1691 Rain 6 992 100 10000 2.6 180 19:57 02.03.2020
1692 Rain 6 992 100 10000 2.6 180 19:39 02.03.2020
1693 Rain 6 991 93 9000 1.5 170 19:20 02.03.2020
1694 Rain 6 990 100 6000 1 130 18:55 02.03.2020
1695 Rain 6 990 100 7000 1 200 18:37 02.03.2020
1696 Rain 6 990 100 7000 1 200 18:18 02.03.2020
1697 Rain 6 989 93 9000 2.31 226 17:55 02.03.2020
1698 Rain 6 989 93 9000 2.31 226 17:37 02.03.2020
1699 Rain 6 989 100 10000 1.35 259 17:19 02.03.2020
1700 Rain 6 988 93 10000 1.5 340 16:41 02.03.2020
1701 Rain 7 988 93 10000 1.5 340 16:23 02.03.2020
1702 Rain 7 988 93 10000 2.1 350 15:45 02.03.2020
1703 Rain 7 988 93 10000 2.1 350 15:45 02.03.2020
1704 Rain 7 988 93 10000 2.1 20 15:22 02.03.2020
1705 Rain 7 988 87 10000 1 0 14:58 02.03.2020
1706 Rain 7 988 87 10000 1 0 14:37 02.03.2020
1707 Rain 7 988 93 10000 1 0 14:19 02.03.2020
1708 Rain 7 988 93 10000 1 0 14:19 02.03.2020
1709 Rain 7 988 87 10000 1.5 340 13:44 02.03.2020
1710 Rain 7 987 87 10000 5.1 350 13:20 02.03.2020
1711 Clouds 7 988 81 10000 3.6 360 12:59 02.03.2020
1712 Clouds 7 988 81 10000 3.6 360 12:41 02.03.2020
1713 Rain 7 990 93 10000 2.6 10 12:19 02.03.2020
1714 Rain 7 989 65 10000 3.1 120 11:39 02.03.2020
1715 Rain 7 991 81 10000 1.5 0 11:20 02.03.2020
1716 Rain 7 991 87 10000 1.5 0 10:57 02.03.2020
1717 Clouds 6 992 86 10000 1.5 10 10:38 02.03.2020
1718 Clouds 6 992 86 10000 1.5 10 10:19 02.03.2020
1719 Clouds 6 992 81 10000 2.1 10 09:51 02.03.2020
1720 Clouds 5 992 80 10000 1 0 09:31 02.03.2020
1721 Clouds 5 993 86 10000 0.5 0 08:49 02.03.2020
1722 Clouds 4 993 86 10000 1.5 260 08:24 02.03.2020
1723 Clouds 3 994 93 10000 2.1 280 07:52 02.03.2020
1724 Clouds 3 994 93 10000 0.5 0 07:33 02.03.2020
1725 Clouds 2 994 80 10000 1 260 06:56 02.03.2020
1726 Clouds 2 995 86 10000 3.72 147 06:28 02.03.2020
1727 Clouds 3 996 80 10000 1 0 05:27 02.03.2020
1728 Clouds 4 998 93 10000 2.1 20 03:59 02.03.2020
1729 Clouds 4 998 80 10000 2.1 140 03:19 02.03.2020
1730 Clouds 5 1000 75 10000 4.1 170 02:36 02.03.2020
1731 Clouds 5 1000 70 10000 3.6 170 01:41 02.03.2020
1732 Clouds 5 1000 90 10000 4.1 180 01:22 02.03.2020
1733 Clouds 5 1001 56 10000 6.2 200 00:23 02.03.2020
1734 Clouds 5 1001 56 10000 6.7 210 23:56 01.03.2020
1735 Clouds 5 1001 56 10000 6.7 210 23:38 01.03.2020
1736 Clouds 6 1001 56 10000 5.7 220 23:19 01.03.2020
1737 Clouds 6 1000 84 10000 7.7 230 22:42 01.03.2020
1738 Rain 6 1000 65 7000 7.7 220 22:19 01.03.2020
1739 Rain 6 999 84 10000 9.8 240 21:55 01.03.2020
1740 Rain 6 999 84 10000 9.8 240 21:37 01.03.2020
1741 Rain 7 998 61 10000 9.3 240 21:18 01.03.2020
1742 Rain 7 996 66 8000 6.2 220 20:43 01.03.2020
1743 Clouds 9 995 61 10000 9.8 190 20:24 01.03.2020
1744 Rain 8 995 70 10000 8.7 180 19:54 01.03.2020
1745 Rain 8 995 76 10000 7.7 180 19:36 01.03.2020
1746 Rain 9 995 76 10000 7.7 180 19:18 01.03.2020
1747 Rain 10 995 62 10000 6.2 180 18:40 01.03.2020
1748 Clouds 11 994 58 10000 7.2 190 18:20 01.03.2020
1749 Rain 11 995 50 10000 8.7 220 17:57 01.03.2020
1750 Rain 11 995 50 10000 8.7 220 17:39 01.03.2020
1751 Rain 12 994 41 10000 8.7 200 17:20 01.03.2020
1752 Rain 13 995 44 10000 6.7 180 16:57 01.03.2020
1753 Rain 13 995 44 10000 6.7 180 16:38 01.03.2020
1754 Rain 13 995 47 10000 6.2 190 16:18 01.03.2020
1755 Rain 13 996 47 10000 5.1 180 15:57 01.03.2020
1756 Rain 14 996 47 10000 5.1 180 15:38 01.03.2020
1757 Rain 14 997 47 10000 6.2 180 15:20 01.03.2020
1758 Rain 13 997 50 10000 6.7 190 14:57 01.03.2020
1759 Rain 13 998 47 10000 5.1 210 14:38 01.03.2020
1760 Rain 13 998 47 10000 5.1 210 14:20 01.03.2020
1761 Clouds 13 999 47 10000 6.7 200 13:56 01.03.2020
1762 Clouds 13 999 47 10000 6.7 200 13:37 01.03.2020
1763 Clouds 13 999 47 10000 6.7 200 13:37 01.03.2020
1764 Rain 12 1000 47 10000 5.1 220 13:18 01.03.2020
1765 Clouds 12 1001 53 10000 5.7 250 12:42 01.03.2020
1766 Clouds 12 1001 50 10000 6.7 220 12:21 01.03.2020
1767 Clouds 12 1001 50 10000 6.7 200 11:58 01.03.2020
1768 Clouds 12 1001 50 10000 6.7 200 11:39 01.03.2020
1769 Clouds 10 1001 53 10000 5.7 230 11:18 01.03.2020
1770 Clouds 10 1001 53 10000 5.7 250 10:55 01.03.2020
1771 Clouds 10 1001 57 10000 2.1 230 10:36 01.03.2020
1772 Clouds 9 1001 57 10000 2.1 230 10:18 01.03.2020
1773 Clouds 8 1002 71 10000 3.1 210 09:41 01.03.2020
1774 Clouds 8 1002 70 10000 5.1 190 09:22 01.03.2020
1775 Clouds 7 1002 70 10000 4.6 200 08:45 01.03.2020
1776 Clouds 7 1002 81 10000 1 0 08:26 01.03.2020
1777 Clouds 6 1002 81 10000 1.5 120 07:45 01.03.2020
1778 Clouds 6 1002 75 10000 1.5 120 07:27 01.03.2020
1779 Clouds 6 1003 75 10000 2.6 200 06:58 01.03.2020
1780 Clouds 6 1003 75 10000 2.6 200 06:40 01.03.2020
1781 Clouds 7 1003 70 10000 6.2 190 04:40 01.03.2020
1782 Clouds 7 1003 70 10000 4.6 200 02:58 01.03.2020
1783 Rain 7 1003 70 10000 5.1 190 02:18 01.03.2020
1784 Clouds 7 1003 66 10000 5.1 210 01:36 01.03.2020
1785 Clouds 7 1003 75 10000 2.1 200 00:48 01.03.2020
1786 Rain 7 1003 70 10000 2.1 210 00:25 01.03.2020
1787 Rain 7 1003 70 10000 3.1 240 23:58 29.02.2020
1788 Rain 7 1003 70 10000 3.1 240 23:40 29.02.2020
1789 Clouds 8 1003 70 10000 4.1 210 23:21 29.02.2020
1790 Clouds 7 1003 75 10000 2.1 200 22:37 29.02.2020
1791 Clouds 8 1003 70 10000 3.1 170 22:19 29.02.2020
1792 Clouds 8 1003 70 10000 5.1 210 21:39 29.02.2020
1793 Clouds 8 1002 70 10000 2.1 260 21:19 29.02.2020
1794 Rain 8 1003 70 10000 6.2 250 20:41 29.02.2020
1795 Rain 9 1002 75 8000 7.2 300 20:20 29.02.2020
1796 Rain 9 1001 62 10000 5.1 190 19:55 29.02.2020
1797 Rain 9 1001 62 10000 5.1 190 19:36 29.02.2020
1798 Rain 9 1000 71 10000 4.1 200 19:18 29.02.2020
1799 Rain 9 1000 71 10000 4.6 220 18:42 29.02.2020
1800 Rain 9 999 71 6000 10.3 260 18:22 29.02.2020
1801 Rain 11 996 58 10000 7.2 210 17:56 29.02.2020
1802 Rain 11 997 66 10000 5.7 200 17:37 29.02.2020
1803 Rain 12 997 66 10000 5.7 200 17:19 29.02.2020
1804 Rain 14 997 71 9000 6.7 210 16:44 29.02.2020
1805 Rain 14 996 62 10000 7.2 190 16:20 29.02.2020
1806 Rain 14 997 62 10000 8.2 200 15:57 29.02.2020
1807 Rain 14 997 51 10000 8.2 200 15:37 29.02.2020
1808 Rain 15 997 51 10000 8.2 200 15:19 29.02.2020
1809 Clouds 14 997 42 10000 11.3 200 14:40 29.02.2020
1810 Clouds 15 997 42 10000 10.8 200 14:22 29.02.2020
1811 Clouds 15 997 45 10000 8.7 190 13:46 29.02.2020
1812 Clouds 15 998 48 10000 9.3 180 13:27 29.02.2020
1813 Clouds 15 998 45 10000 7.7 190 12:58 29.02.2020
1814 Clouds 14 998 45 10000 7.7 180 12:38 29.02.2020
1815 Clouds 14 998 45 10000 7.7 180 12:20 29.02.2020
1816 Clouds 13 999 58 10000 5.1 130 11:45 29.02.2020
1817 Clouds 12 999 58 10000 5.1 130 11:27 29.02.2020
1818 Clouds 10 1000 58 10000 4.6 150 10:55 29.02.2020
1819 Clouds 10 1000 58 10000 4.6 150 10:36 29.02.2020
1820 Clouds 9 1000 66 10000 5.7 180 10:18 29.02.2020
1821 Clouds 9 1001 66 10000 5.7 170 09:46 29.02.2020
1822 Clouds 8 1001 61 10000 7.2 170 09:18 29.02.2020
1823 Clouds 7 1002 66 10000 8.2 170 08:40 29.02.2020
1824 Rain 6 1002 66 10000 8.7 180 08:21 29.02.2020
1825 Rain 6 1002 70 10000 7.2 170 07:53 29.02.2020
1826 Rain 6 1003 65 10000 8.2 170 07:33 29.02.2020
1827 Rain 6 1004 70 10000 4.6 180 06:57 29.02.2020
1828 Rain 6 1005 66 10000 5.7 170 06:30 29.02.2020
1829 Rain 6 1006 70 10000 4.1 170 05:54 29.02.2020
1830 Rain 6 1006 65 10000 1.5 150 05:33 29.02.2020
1831 Rain 6 1007 61 10000 1.5 170 04:25 29.02.2020
1832 Rain 6 1009 70 10000 4.1 160 03:37 29.02.2020
1833 Rain 7 1008 61 10000 5.1 220 03:18 29.02.2020
1834 Clouds 6 1011 60 10000 3.6 160 02:32 29.02.2020
1835 Clouds 6 1010 49 10000 3.1 130 00:58 29.02.2020
1836 Clouds 6 1011 49 10000 2.6 130 00:36 29.02.2020
1837 Clouds 7 1011 49 10000 1 0 23:43 28.02.2020
1838 Clouds 6 1012 45 10000 1 0 23:24 28.02.2020
1839 Clouds 6 1012 39 10000 2.1 180 22:54 28.02.2020
1840 Clouds 6 1012 45 10000 3.1 220 22:36 28.02.2020
1841 Clouds 6 1012 45 10000 3.1 220 22:18 28.02.2020
1842 Clouds 7 1013 39 10000 5.7 190 21:41 28.02.2020
1843 Clouds 7 1013 45 10000 5.1 190 21:20 28.02.2020
1844 Clouds 7 1013 45 10000 5.1 190 21:20 28.02.2020
1845 Clouds 7 1013 49 10000 3.1 210 20:40 28.02.2020
1846 Clouds 6 1014 42 10000 5.1 180 20:22 28.02.2020
1847 Clouds 6 1015 42 10000 3.6 160 19:59 28.02.2020
1848 Clouds 6 1015 42 10000 3.6 160 19:39 28.02.2020
1849 Clouds 6 1015 42 10000 2.1 160 19:21 28.02.2020
1850 Clouds 6 1015 49 10000 3.1 190 18:57 28.02.2020
1851 Clouds 6 1015 42 10000 4.6 180 18:38 28.02.2020
1852 Clouds 6 1015 42 10000 4.6 180 18:20 28.02.2020
1853 Clouds 7 1016 36 10000 6.2 180 17:41 28.02.2020
1854 Clouds 9 1016 36 10000 6.2 180 17:22 28.02.2020
1855 Clouds 9 1017 37 10000 5.1 180 16:47 28.02.2020
1856 Clouds 9 1017 36 10000 5.7 170 16:21 28.02.2020
1857 Clouds 8 1017 39 10000 5.1 180 15:59 28.02.2020
1858 Clouds 9 1017 39 10000 5.1 180 15:41 28.02.2020
1859 Clouds 9 1018 46 10000 4.1 180 15:20 28.02.2020
1860 Clouds 9 1018 45 10000 5.1 170 14:58 28.02.2020
1861 Clouds 9 1018 45 10000 5.1 170 14:39 28.02.2020
1862 Clouds 8 1019 49 10000 5.1 190 14:19 28.02.2020
1863 Clouds 8 1020 52 10000 4.6 170 13:57 28.02.2020
1864 Clouds 8 1020 52 10000 5.1 200 13:39 28.02.2020
1865 Clouds 8 1020 52 10000 5.1 200 13:19 28.02.2020
1866 Clouds 8 1021 52 10000 5.7 170 12:41 28.02.2020
1867 Clouds 8 1021 75 10000 6.2 180 12:23 28.02.2020
1868 Clouds 7 1021 49 10000 4.1 180 11:43 28.02.2020
1869 Clouds 7 1021 56 10000 4.6 190 11:24 28.02.2020
1870 Snow 5 1021 56 10000 5.1 180 10:59 28.02.2020
1871 Snow 5 1021 56 10000 5.1 180 10:41 28.02.2020
1872 Snow 5 1022 60 10000 4.1 170 10:22 28.02.2020
1873 Snow 4 1022 60 10000 3.6 200 09:47 28.02.2020
1874 Snow 3 1022 85 10000 3.6 200 09:21 28.02.2020
1875 Clouds 2 1022 85 10000 1.5 190 08:57 28.02.2020
1876 Clouds 2 1022 85 10000 1.5 190 08:39 28.02.2020
1877 Clouds 1 1021 86 10000 1.5 210 08:19 28.02.2020
1878 Clouds 1 1021 80 10000 2.1 200 07:41 28.02.2020
1879 Snow 1 1021 69 10000 2.6 180 07:22 28.02.2020
1880 Snow 1 1020 80 10000 2.6 190 06:45 28.02.2020
1881 Clouds 1 1020 74 10000 3.6 230 06:24 28.02.2020
1882 Clouds 2 1019 60 10000 3.1 270 04:47 28.02.2020
1883 Snow 2 1019 96 10000 6.7 250 04:19 28.02.2020
1884 Clouds 2 1017 60 10000 3.1 250 02:46 28.02.2020
1885 Clouds 2 1017 60 10000 3.1 270 02:28 28.02.2020
1886 Clouds 3 1015 97 10000 3.1 160 01:26 28.02.2020
1887 Rain 3 1014 97 10000 3.6 270 00:30 28.02.2020
1888 Clouds 3 1013 97 10000 3.1 270 23:42 27.02.2020
1889 Rain 3 1011 96 10000 5.1 280 23:21 27.02.2020
1890 Clouds 4 1010 60 10000 9.3 300 22:55 27.02.2020
1891 Clouds 4 1009 65 10000 9.3 290 22:37 27.02.2020
1892 Clouds 3 1009 65 10000 9.3 290 22:19 27.02.2020
1893 Rain 3 1008 96 10000 10.8 280 21:41 27.02.2020
1894 Rain 4 1006 96 10000 12.3 280 21:19 27.02.2020
1895 Rain 4 1005 96 10000 11.8 280 20:58 27.02.2020
1896 Rain 4 1005 96 10000 11.8 280 20:39 27.02.2020
1897 Rain 4 1004 92 10000 12.3 280 20:21 27.02.2020
1898 Rain 5 1002 92 10000 13.4 280 19:56 27.02.2020
1899 Rain 5 1002 92 10000 13.4 280 19:38 27.02.2020
1900 Rain 5 1000 65 10000 13.9 290 19:19 27.02.2020
1901 Rain 5 997 70 10000 16.5 280 18:42 27.02.2020
1902 Rain 7 994 65 10000 13.9 270 18:24 27.02.2020
1903 Rain 7 992 76 10000 9.3 230 17:58 27.02.2020
1904 Rain 7 992 76 10000 9.3 230 17:40 27.02.2020
1905 Rain 7 991 70 10000 7.7 210 17:19 27.02.2020
1906 Rain 6 991 87 10000 7.7 180 16:58 27.02.2020
1907 Clouds 6 991 87 10000 7.7 180 16:39 27.02.2020
1908 Rain 5 992 87 10000 6.2 180 16:19 27.02.2020
1909 Clouds 4 994 87 10000 3.6 150 15:57 27.02.2020
1910 Rain 5 994 87 10000 3.6 150 15:37 27.02.2020
1911 Rain 4 993 93 10000 5.1 170 15:18 27.02.2020
1912 Rain 3 994 93 10000 6.2 190 14:56 27.02.2020
1913 Rain 3 994 93 10000 6.2 190 14:37 27.02.2020
1914 Rain 3 995 93 10000 5.7 190 14:18 27.02.2020
1915 Rain 2 996 100 6000 5.1 170 13:42 27.02.2020
1916 Rain 2 998 93 10000 5.1 180 13:42 27.02.2020
1917 Rain 2 998 93 10000 5.1 180 13:21 27.02.2020
1918 Rain 2 998 93 10000 5.1 180 13:21 27.02.2020
1919 Rain 2 999 93 8000 5.1 180 12:55 27.02.2020
1920 Rain 3 1000 86 10000 7.7 190 12:37 27.02.2020
1921 Rain 4 1000 86 10000 7.7 190 12:18 27.02.2020
1922 Snow 5 1002 65 10000 6.7 180 11:41 27.02.2020
1923 Clouds 5 1003 78 10000 5.7 180 11:21 27.02.2020
1924 Clouds 5 1003 78 10000 5.7 180 11:21 27.02.2020
1925 Clouds 5 1004 78 10000 4.6 170 10:44 27.02.2020
1926 Clouds 4 1005 78 10000 5.1 170 10:24 27.02.2020
1927 Clouds 4 1006 80 10000 6.2 160 09:49 27.02.2020
1928 Clouds 4 1007 86 10000 3.6 160 09:30 27.02.2020
1929 Clouds 3 1007 86 10000 4.1 180 08:58 27.02.2020
1930 Clouds 3 1007 86 10000 4.1 180 08:40 27.02.2020
1931 Snow 2 1008 95 10000 2.1 210 08:22 27.02.2020
1932 Clouds 2 1009 95 10000 3.6 200 07:44 27.02.2020
1933 Clouds 2 1009 95 10000 3.6 190 07:25 27.02.2020
1934 Snow 2 1010 95 10000 4.6 190 06:48 27.02.2020
1935 Rain 2 1010 93 10000 4.6 180 05:48 27.02.2020
1936 Rain 2 1011 93 10000 2.1 180 04:21 27.02.2020
1937 Rain 1 1012 93 10000 5.1 190 02:33 27.02.2020
1938 Rain 1 1012 97 10000 2.1 200 00:47 27.02.2020
1939 Rain 1 1012 97 10000 1.5 0 00:28 27.02.2020
1940 Rain 2 1011 97 10000 1.5 0 23:40 26.02.2020
1941 Rain 2 1011 95 10000 1.5 160 23:20 26.02.2020
1942 Rain 2 1012 95 10000 0.5 0 22:58 26.02.2020
1943 Rain 2 1012 95 10000 0.5 0 22:58 26.02.2020
1944 Rain 2 1012 95 10000 0.5 0 22:39 26.02.2020
1945 Rain 2 1011 93 10000 2.6 0 22:21 26.02.2020
1946 Rain 2 1011 95 10000 3.1 130 21:57 26.02.2020
1947 Rain 2 1011 95 10000 3.1 130 21:38 26.02.2020
1948 Clouds 2 1011 93 10000 3.6 160 21:19 26.02.2020
1949 Rain 1 1010 95 10000 3.1 180 20:55 26.02.2020
1950 Rain 2 1010 95 10000 4.1 180 20:37 26.02.2020
1951 Rain 2 1010 93 10000 4.1 180 20:18 26.02.2020
1952 Rain 2 1010 93 10000 4.6 210 19:47 26.02.2020
1953 Rain 2 1010 93 7000 7.2 250 19:21 26.02.2020
1954 Rain 2 1009 60 10000 3.6 200 18:59 26.02.2020
1955 Rain 2 1009 60 10000 3.6 200 18:41 26.02.2020
1956 Rain 2 1008 60 10000 5.1 210 18:22 26.02.2020
1957 Rain 2 1008 60 10000 3.6 210 17:58 26.02.2020
1958 Rain 3 1008 60 10000 3.6 210 17:39 26.02.2020
1959 Rain 3 1008 60 10000 1.5 0 17:18 26.02.2020
1960 Rain 3 1007 60 10000 3.1 0 16:56 26.02.2020
1961 Rain 3 1007 60 10000 3.6 0 16:37 26.02.2020
1962 Rain 4 1007 60 10000 3.6 0 16:18 26.02.2020
1963 Rain 3 1006 60 10000 4.6 290 15:42 26.02.2020
1964 Rain 2 1006 69 10000 2.1 290 15:23 26.02.2020
1965 Snow 3 1005 69 10000 5.1 230 14:43 26.02.2020
1966 Clouds 3 1005 86 10000 6.7 210 14:23 26.02.2020
1967 Snow 4 1005 93 10000 4.1 200 13:44 26.02.2020
1968 Snow 4 1005 93 10000 4.1 200 13:44 26.02.2020
1969 Rain 4 1005 93 5000 6.2 280 13:23 26.02.2020
1970 Clouds 4 1004 93 10000 6.2 280 12:58 26.02.2020
1971 Clouds 4 1004 56 10000 7.2 270 12:38 26.02.2020
1972 Clouds 3 1006 75 10000 7.2 270 12:18 26.02.2020
1973 Rain 3 1005 93 10000 9.8 260 11:43 26.02.2020
1974 Rain 3 1003 65 10000 9.8 290 11:23 26.02.2020
1975 Rain 3 1003 65 10000 9.8 290 11:23 26.02.2020
1976 Rain 2 1004 91 10000 11.8 260 10:59 26.02.2020
1977 Rain 2 1004 91 10000 11.8 260 10:39 26.02.2020
1978 Rain 2 1003 91 10000 11.3 260 10:21 26.02.2020
1979 Rain 2 1002 80 10000 3.1 200 09:44 26.02.2020
1980 Drizzle 2 1001 80 10000 3.1 210 09:24 26.02.2020
1981 Clouds 3 1001 91 10000 3.6 200 08:58 26.02.2020
1982 Clouds 3 1001 91 10000 3.6 200 08:37 26.02.2020
1983 Clouds 3 1001 92 10000 4.6 180 08:18 26.02.2020
1984 Rain 3 1001 60 10000 3.6 230 07:43 26.02.2020
1985 Rain 3 1001 60 10000 3.6 230 07:25 26.02.2020
1986 Rain 3 1001 60 10000 6.2 250 06:52 26.02.2020
1987 Clouds 3 1002 64 10000 3.6 250 06:34 26.02.2020
1988 Clouds 3 1002 69 10000 5.1 230 05:53 26.02.2020
1989 Clouds 3 1002 69 10000 5.1 230 05:53 26.02.2020
1990 Rain 3 1002 69 10000 5.7 240 05:24 26.02.2020
1991 Clouds 3 1002 69 10000 4.6 230 04:23 26.02.2020
1992 Rain 4 1002 75 10000 4.1 240 02:28 26.02.2020
1993 Snow 5 1002 86 6000 11.3 260 01:45 26.02.2020
1994 Rain 5 1000 81 9000 2.1 200 00:50 26.02.2020
1995 Rain 6 1001 80 9000 0.5 0 00:25 26.02.2020
1996 Rain 6 1002 75 8000 5.7 280 23:56 25.02.2020
1997 Rain 6 1002 75 8000 5.7 280 23:37 25.02.2020
1998 Rain 7 1001 61 10000 5.7 210 23:19 25.02.2020
1999 Rain 7 1001 61 10000 4.1 190 22:42 25.02.2020
2000 Clouds 7 1002 57 10000 4.1 190 22:19 25.02.2020
2001 Clouds 7 1002 57 10000 4.6 190 21:58 25.02.2020
2002 Clouds 7 1002 57 10000 4.6 190 21:37 25.02.2020
2003 Clouds 7 1002 91 10000 3.6 190 21:18 25.02.2020
2004 Rain 7 1002 91 10000 4.6 220 20:55 25.02.2020
2005 Rain 7 1003 91 10000 5.7 220 20:36 25.02.2020
2006 Rain 7 1003 92 10000 5.7 220 20:18 25.02.2020
2007 Clouds 8 1003 57 10000 4.6 220 19:42 25.02.2020
2008 Clouds 8 1004 57 10000 6.7 220 19:20 25.02.2020
2009 Clouds 8 1004 66 10000 1.5 250 18:58 25.02.2020
2010 Clouds 8 1004 66 10000 1.5 250 18:38 25.02.2020
2011 Clouds 8 1004 57 10000 3.6 280 18:19 25.02.2020
2012 Clouds 9 1004 71 10000 5.1 250 17:54 25.02.2020
2013 Clouds 9 1004 71 10000 5.1 250 17:36 25.02.2020
2014 Rain 9 1003 81 10000 6.7 200 17:18 25.02.2020
2015 Rain 9 1003 71 10000 6.2 190 16:42 25.02.2020
2016 Clouds 9 1004 76 10000 6.2 190 16:22 25.02.2020
2017 Clouds 9 1004 71 10000 5.7 190 15:59 25.02.2020
2018 Clouds 9 1004 71 10000 5.7 190 15:41 25.02.2020
2019 Clouds 9 1004 71 10000 5.7 190 15:20 25.02.2020
2020 Clouds 9 1005 71 10000 6.2 190 14:58 25.02.2020
2021 Rain 9 1005 71 10000 6.2 190 14:38 25.02.2020
2022 Rain 9 1005 71 10000 6.2 200 14:18 25.02.2020
2023 Rain 9 1006 66 10000 5.7 220 13:58 25.02.2020
2024 Rain 9 1006 71 10000 5.7 190 13:39 25.02.2020
2025 Rain 9 1006 71 10000 5.7 190 13:20 25.02.2020
2026 Rain 9 1007 76 10000 4.6 190 12:55 25.02.2020
2027 Rain 9 1007 81 10000 6.2 180 12:37 25.02.2020
2028 Rain 9 1007 81 10000 6.2 180 12:18 25.02.2020
2029 Rain 9 1007 81 10000 6.2 190 11:55 25.02.2020
2030 Rain 8 1007 81 10000 6.7 180 11:37 25.02.2020
2031 Rain 8 1007 81 10000 6.7 180 11:18 25.02.2020
2032 Rain 8 1008 81 10000 5.7 180 10:41 25.02.2020
2033 Rain 8 1008 81 10000 5.7 180 10:41 25.02.2020
2034 Rain 8 1008 87 10000 5.7 180 10:23 25.02.2020
2035 Drizzle 8 1008 87 10000 7.2 180 09:42 25.02.2020
2036 Drizzle 8 1008 87 10000 7.2 180 09:23 25.02.2020
2037 Drizzle 8 1008 81 10000 7.2 180 08:58 25.02.2020
2038 Drizzle 8 1008 81 10000 7.2 180 08:39 25.02.2020
2039 Clouds 8 1008 76 10000 4.6 180 08:21 25.02.2020
2040 Clouds 8 1009 70 10000 3.6 200 07:48 25.02.2020
2041 Clouds 8 1009 70 10000 5.7 230 07:21 25.02.2020
2042 Clouds 8 1009 70 10000 6.2 230 06:51 25.02.2020
2043 Clouds 8 1009 70 10000 6.2 230 06:51 25.02.2020
2044 Clouds 8 1009 61 10000 5.7 220 05:43 25.02.2020
2045 Clouds 9 1010 57 10000 5.1 240 03:54 25.02.2020
2046 Clouds 10 1012 66 10000 3.1 260 02:32 25.02.2020
2047 Clear 11 1011 58 10000 3.6 230 00:57 25.02.2020
2048 Clouds 10 1011 71 10000 8.2 260 00:31 25.02.2020
2049 Clear 10 1012 58 10000 6.2 220 23:47 24.02.2020
2050 Clear 11 1012 58 10000 5.1 220 23:28 24.02.2020
2051 Clear 12 1013 54 10000 5.1 230 22:56 24.02.2020
2052 Clear 12 1013 54 10000 6.2 220 22:37 24.02.2020
2053 Clear 12 1013 54 10000 6.2 220 22:18 24.02.2020
2054 Clear 12 1013 54 10000 5.1 210 21:54 24.02.2020
2055 Clear 12 1013 54 10000 6.2 220 21:36 24.02.2020
2056 Clear 12 1013 54 10000 6.2 220 21:18 24.02.2020
2057 Clear 12 1013 54 10000 6.2 210 20:41 24.02.2020
2058 Clouds 13 1013 58 10000 3.6 210 20:20 24.02.2020
2059 Clouds 13 1014 62 10000 5.1 200 19:59 24.02.2020
2060 Clouds 13 1014 66 10000 5.1 190 19:41 24.02.2020
2061 Clouds 13 1014 66 10000 5.1 190 19:22 24.02.2020
2062 Clouds 13 1014 62 10000 5.1 190 18:58 24.02.2020
2063 Clouds 13 1014 62 10000 5.1 190 18:40 24.02.2020
2064 Clouds 13 1014 54 10000 4.1 220 18:21 24.02.2020
2065 Clouds 14 1014 54 10000 5.7 210 17:54 24.02.2020
2066 Clouds 14 1015 55 10000 6.7 210 17:36 24.02.2020
2067 Rain 15 1015 55 10000 6.7 210 17:18 24.02.2020
2068 Rain 15 1016 58 10000 9.3 220 16:54 24.02.2020
2069 Rain 15 1016 58 10000 9.3 220 16:36 24.02.2020
2070 Rain 16 1016 59 10000 9.8 220 16:18 24.02.2020
2071 Rain 15 1017 55 10000 8.2 220 15:54 24.02.2020
2072 Rain 15 1017 55 10000 8.2 220 15:36 24.02.2020
2073 Rain 16 1017 59 10000 9.3 230 15:18 24.02.2020
2074 Rain 15 1018 55 10000 8.7 220 14:40 24.02.2020
2075 Rain 15 1018 59 10000 8.2 210 14:21 24.02.2020
2076 Clouds 14 1018 59 10000 8.2 210 14:21 24.02.2020
2077 Clouds 15 1019 59 10000 8.7 220 13:58 24.02.2020
2078 Clouds 14 1019 59 10000 8.7 220 13:39 24.02.2020
2079 Clouds 14 1020 59 10000 8.7 220 13:39 24.02.2020
2080 Clouds 14 1020 59 10000 8.7 220 13:20 24.02.2020
2081 Clouds 14 1020 67 10000 6.2 180 12:57 24.02.2020
2082 Clouds 14 1020 67 10000 6.2 180 12:38 24.02.2020
2083 Clouds 13 1021 67 10000 3.1 180 12:20 24.02.2020
2084 Clouds 12 1021 71 10000 1.5 190 11:46 24.02.2020
2085 Clouds 11 1022 81 10000 1.5 0 11:28 24.02.2020
2086 Clouds 11 1023 93 10000 1 0 10:47 24.02.2020
2087 Clouds 10 1023 100 10000 1.5 0 10:29 24.02.2020
2088 Clouds 10 1024 93 10000 1.5 20 09:55 24.02.2020
2089 Clouds 10 1024 93 10000 1.5 20 09:37 24.02.2020
2090 Clouds 10 1024 93 10000 2.6 340 09:18 24.02.2020
2091 Clouds 10 1024 100 10000 2.6 340 08:47 24.02.2020
2092 Clouds 10 1024 100 10000 2.6 340 08:47 24.02.2020
2093 Clouds 10 1024 93 10000 3.1 30 08:28 24.02.2020
2094 Clouds 10 1024 93 10000 2.6 10 07:48 24.02.2020
2095 Clouds 10 1024 87 10000 1.5 0 07:28 24.02.2020
2096 Clouds 10 1024 87 10000 1.5 210 06:45 24.02.2020
2097 Clouds 10 1025 87 10000 1 0 06:21 24.02.2020
2098 Clouds 10 1025 81 10000 3.6 210 05:30 24.02.2020
2099 Clouds 10 1025 81 10000 4.1 200 04:48 24.02.2020
2100 Clouds 11 1025 76 10000 4.6 210 02:56 24.02.2020
2101 Rain 13 1026 71 10000 6.2 220 01:50 24.02.2020
2102 Clouds 13 1025 67 10000 6.2 210 01:28 24.02.2020
2103 Clouds 13 1025 67 10000 6.2 210 01:28 24.02.2020
2104 Clouds 13 1025 67 10000 6.7 210 00:37 24.02.2020
2105 Clouds 13 1024 62 10000 7.2 200 00:19 24.02.2020
2106 Clouds 13 1025 62 10000 7.2 210 23:42 23.02.2020
2107 Clouds 14 1024 62 10000 6.7 190 23:22 23.02.2020
2108 Clouds 14 1024 62 10000 7.7 200 22:58 23.02.2020
2109 Clouds 14 1024 67 10000 6.7 200 22:40 23.02.2020
2110 Clouds 14 1024 67 10000 6.7 200 22:21 23.02.2020
2111 Clouds 14 1024 67 10000 6.7 200 21:46 23.02.2020
2112 Clouds 14 1024 59 10000 7.7 200 21:21 23.02.2020
2113 Clouds 14 1023 62 10000 7.7 200 20:58 23.02.2020
2114 Clouds 14 1024 59 10000 6.7 190 20:40 23.02.2020
2115 Clouds 14 1024 59 10000 6.7 190 20:22 23.02.2020
2116 Clouds 14 1024 55 10000 8.2 200 19:59 23.02.2020
2117 Clouds 14 1024 55 10000 8.2 200 19:40 23.02.2020
2118 Clouds 14 1023 55 10000 8.2 210 19:19 23.02.2020
2119 Clouds 14 1023 55 10000 8.7 190 18:59 23.02.2020
2120 Clouds 14 1023 55 10000 7.7 190 18:38 23.02.2020
2121 Clouds 14 1023 55 10000 7.7 190 18:19 23.02.2020
2122 Clouds 14 1023 55 10000 7.7 200 17:58 23.02.2020
2123 Clouds 14 1023 55 10000 7.7 200 17:39 23.02.2020
2124 Clouds 14 1022 55 10000 7.2 190 17:21 23.02.2020
2125 Clouds 15 1022 51 10000 8.7 200 16:56 23.02.2020
2126 Clouds 15 1022 51 10000 9.3 200 16:36 23.02.2020
2127 Clouds 15 1022 51 10000 9.3 200 16:18 23.02.2020
2128 Clouds 16 1022 51 10000 7.7 190 15:40 23.02.2020
2129 Clouds 15 1022 51 10000 9.3 190 15:21 23.02.2020
2130 Clouds 16 1022 55 10000 8.2 200 14:59 23.02.2020
2131 Clouds 15 1022 55 10000 8.2 200 14:41 23.02.2020
2132 Clouds 14 1022 51 10000 7.7 180 14:23 23.02.2020
2133 Clouds 14 1023 51 10000 7.2 180 13:58 23.02.2020
2134 Clouds 14 1023 51 10000 7.2 180 13:39 23.02.2020
2135 Clouds 13 1023 48 10000 7.2 170 13:21 23.02.2020
2136 Clouds 13 1024 54 10000 5.7 200 12:44 23.02.2020
2137 Clouds 13 1024 54 10000 7.2 180 12:24 23.02.2020
2138 Clouds 12 1025 54 10000 8.2 190 11:59 23.02.2020
2139 Clouds 12 1025 54 10000 7.2 190 11:38 23.02.2020
2140 Clouds 12 1025 54 10000 7.2 190 11:20 23.02.2020
2141 Clouds 11 1025 54 10000 9.8 200 10:56 23.02.2020
2142 Clouds 11 1025 62 10000 8.7 200 10:38 23.02.2020
2143 Clouds 11 1025 62 10000 8.7 200 10:20 23.02.2020
2144 Clouds 11 1026 62 10000 7.7 210 09:56 23.02.2020
2145 Clouds 10 1026 71 10000 6.2 200 09:37 23.02.2020
2146 Clouds 10 1026 71 10000 6.2 200 09:18 23.02.2020
2147 Clouds 9 1026 76 10000 5.7 190 08:43 23.02.2020
2148 Clouds 9 1027 71 10000 5.1 200 08:24 23.02.2020
2149 Rain 9 1025 81 10000 7.2 190 07:43 23.02.2020
2150 Rain 9 1026 81 10000 6.7 180 07:25 23.02.2020
2151 Rain 9 1026 81 10000 6.7 190 06:20 23.02.2020
2152 Rain 9 1028 81 8000 4.6 190 04:59 23.02.2020
2153 Rain 9 1028 81 10000 4.1 210 03:53 23.02.2020
2154 Rain 9 1029 76 10000 5.7 220 02:44 23.02.2020
2155 Clouds 9 1029 66 10000 4.1 230 01:39 23.02.2020
2156 Clouds 9 1029 66 10000 4.1 230 01:20 23.02.2020
2157 Rain 9 1029 57 10000 5.1 230 00:43 23.02.2020
2158 Clouds 9 1029 53 10000 3.1 250 00:20 23.02.2020
2159 Clouds 9 1030 50 10000 4.6 280 23:43 22.02.2020
2160 Clouds 9 1030 43 10000 2.6 240 23:22 22.02.2020
2161 Clouds 10 1029 75 10000 4.6 200 22:45 22.02.2020
2162 Clouds 9 1030 61 10000 1 250 22:20 22.02.2020
2163 Clouds 10 1030 43 10000 0.5 0 21:43 22.02.2020
2164 Clouds 10 1029 37 10000 6.2 200 21:25 22.02.2020
2165 Clouds 10 1030 37 10000 1 0 20:58 22.02.2020
2166 Clouds 10 1030 37 10000 1 0 20:40 22.02.2020
2167 Clouds 10 1028 37 10000 7.2 210 20:21 22.02.2020
2168 Clouds 10 1030 40 10000 1.5 0 19:43 22.02.2020
2169 Clouds 10 1029 40 10000 1.5 0 19:24 22.02.2020
2170 Clouds 11 1027 33 10000 6.2 210 18:57 22.02.2020
2171 Clouds 11 1027 33 10000 6.2 210 18:37 22.02.2020
2172 Clouds 11 1027 35 10000 6.2 200 18:19 22.02.2020
2173 Clouds 12 1027 35 10000 5.1 190 17:44 22.02.2020
2174 Clouds 13 1027 28 10000 3.6 170 17:26 22.02.2020
2175 Clouds 13 1026 26 10000 4.1 170 17:00 22.02.2020
2176 Clouds 13 1026 26 10000 4.1 170 16:40 22.02.2020
2177 Clouds 13 1026 35 10000 6.2 190 16:20 22.02.2020
2178 Clouds 13 1026 49 10000 4.6 190 15:57 22.02.2020
2179 Clouds 13 1027 33 10000 4.1 180 15:39 22.02.2020
2180 Clouds 13 1027 33 10000 4.1 180 15:21 22.02.2020
2181 Clouds 13 1027 33 10000 4.1 180 14:42 22.02.2020
2182 Clouds 13 1027 47 10000 1.5 0 14:22 22.02.2020
2183 Clouds 13 1027 47 10000 2.6 210 13:55 22.02.2020
2184 Clouds 12 1027 46 10000 5.1 170 13:36 22.02.2020
2185 Clouds 13 1027 46 10000 5.1 170 13:18 22.02.2020
2186 Clouds 12 1029 50 10000 2.6 150 12:41 22.02.2020
2187 Clouds 11 1030 53 10000 2.1 160 12:22 22.02.2020
2188 Clouds 10 1030 35 10000 1 0 11:44 22.02.2020
2189 Clouds 9 1030 35 10000 1.5 160 11:26 22.02.2020
2190 Clouds 7 1030 43 10000 1.5 0 10:56 22.02.2020
2191 Clouds 6 1030 43 10000 2.6 200 10:38 22.02.2020
2192 Clouds 5 1030 43 10000 2.6 200 10:19 22.02.2020
2193 Clouds 4 1030 74 10000 2.1 170 09:56 22.02.2020
2194 Clouds 5 1029 80 10000 1.5 200 09:38 22.02.2020
2195 Clouds 3 1029 80 10000 1.5 200 09:19 22.02.2020
2196 Clouds 3 1029 43 10000 2.6 200 08:44 22.02.2020
2197 Clouds 1 1029 92 10000 3.1 210 08:26 22.02.2020
2198 Clouds 0 1030 80 10000 1.5 230 07:43 22.02.2020
2199 Clouds 0 1029 80 10000 1 0 07:19 22.02.2020
2200 Clouds 0 1030 46 10000 1.5 220 06:46 22.02.2020
2201 Clouds 0 1029 80 10000 2.6 200 05:54 22.02.2020
2202 Clouds 0 1029 55 10000 1.5 230 04:29 22.02.2020
2203 Clouds 2 1030 55 10000 2.6 190 02:44 22.02.2020
2204 Clouds 1 1030 80 10000 2.1 200 02:21 22.02.2020
2205 Clouds 1 1030 80 10000 3.1 210 01:41 22.02.2020
2206 Clouds 2 1030 74 10000 2.6 220 01:22 22.02.2020
2207 Clouds 2 1031 74 10000 1.5 220 00:40 22.02.2020
2208 Clouds 2 1031 74 10000 1.5 220 00:20 22.02.2020
2209 Clouds 2 1031 69 10000 1 0 23:42 21.02.2020
2210 Clouds 2 1031 69 10000 0.5 0 23:21 21.02.2020
2211 Clouds 3 1031 74 10000 2.6 230 22:43 21.02.2020
2212 Clouds 3 1031 65 10000 2.6 250 22:25 21.02.2020
2213 Clouds 3 1031 60 10000 3.1 260 21:58 21.02.2020
2214 Clouds 3 1031 60 10000 3.1 260 21:40 21.02.2020
2215 Clouds 4 1030 60 10000 2.1 280 21:21 21.02.2020
2216 Clouds 4 1030 60 10000 2.1 270 20:48 21.02.2020
2217 Clouds 4 1030 56 10000 2.6 290 20:28 21.02.2020
2218 Clouds 5 1030 52 10000 1 0 19:41 21.02.2020
2219 Clouds 5 1030 52 10000 1 0 19:23 21.02.2020
2220 Clouds 6 1030 52 10000 1.5 270 18:55 21.02.2020
2221 Clouds 6 1030 72 10000 3.1 200 18:37 21.02.2020
2222 Clouds 6 1030 72 10000 3.1 200 18:19 21.02.2020
2223 Clouds 7 1030 72 10000 3.6 180 17:40 21.02.2020
2224 Clouds 9 1030 55 10000 4.1 190 17:21 21.02.2020
2225 Clouds 9 1030 46 10000 3.6 150 16:57 21.02.2020
2226 Clouds 9 1030 46 10000 4.1 160 16:39 21.02.2020
2227 Clouds 9 1030 46 10000 4.1 160 16:20 21.02.2020
2228 Clouds 9 1030 55 10000 3.1 180 15:46 21.02.2020
2229 Clouds 9 1030 40 10000 2.1 220 15:19 21.02.2020
2230 Clouds 9 1030 40 10000 2.1 220 15:19 21.02.2020
2231 Clouds 9 1030 40 10000 2.1 220 15:19 21.02.2020
2232 Clouds 10 1030 43 10000 1.5 0 14:59 21.02.2020
2233 Clouds 9 1030 43 10000 1.5 0 14:41 21.02.2020
2234 Clouds 9 1031 43 10000 1.5 220 14:19 21.02.2020
2235 Clouds 9 1031 43 10000 2.1 0 13:42 21.02.2020
2236 Clouds 9 1031 43 10000 2.1 0 13:24 21.02.2020
2237 Clouds 8 1031 45 10000 2.6 150 12:54 21.02.2020
2238 Clouds 9 1031 45 10000 2.6 160 12:36 21.02.2020
2239 Clouds 8 1031 45 10000 2.6 160 12:18 21.02.2020
2240 Clouds 8 1032 49 10000 3.1 170 11:40 21.02.2020
2241 Clouds 7 1031 49 10000 3.6 160 11:21 21.02.2020
2242 Clouds 6 1031 71 10000 3.1 170 10:56 21.02.2020
2243 Clouds 6 1031 71 10000 3.1 170 10:56 21.02.2020
2244 Clouds 6 1031 52 10000 3.1 200 10:38 21.02.2020
2245 Clouds 6 1031 52 10000 3.1 200 10:19 21.02.2020
2246 Clouds 6 1031 52 10000 3.1 200 10:19 21.02.2020
2247 Clouds 5 1032 56 10000 2.6 190 09:57 21.02.2020
2248 Clouds 5 1032 60 10000 3.1 200 09:37 21.02.2020
2249 Clouds 4 1032 60 10000 3.1 200 09:19 21.02.2020
2250 Clouds 3 1031 69 10000 2.6 220 08:42 21.02.2020
2251 Clouds 2 1030 64 10000 1.5 0 08:22 21.02.2020
2252 Clouds 2 1030 64 10000 2.6 150 07:59 21.02.2020
2253 Clouds 2 1030 64 10000 2.6 150 07:40 21.02.2020
2254 Clouds 3 1030 64 10000 1.5 150 07:19 21.02.2020
2255 Clouds 3 1029 64 10000 2.6 250 06:52 21.02.2020
2256 Clouds 3 1029 64 10000 2.6 210 06:30 21.02.2020
2257 Clouds 4 1028 60 10000 2.6 270 05:47 21.02.2020
2258 Clouds 4 1027 56 10000 4.1 270 04:38 21.02.2020
2259 Clouds 5 1027 56 10000 3.1 270 04:19 21.02.2020
2260 Clouds 4 1027 56 10000 1.5 230 03:42 21.02.2020
2261 Rain 5 1025 56 10000 5.1 290 02:43 21.02.2020
2262 Rain 7 1024 97 10000 4.1 280 01:24 21.02.2020
2263 Rain 8 1023 61 10000 6.2 260 00:46 21.02.2020
2264 Rain 9 1021 71 10000 6.2 200 00:23 21.02.2020
2265 Rain 9 1021 76 10000 6.7 210 23:46 20.02.2020
2266 Rain 9 1020 66 10000 7.2 220 23:26 20.02.2020
2267 Clouds 9 1020 61 10000 6.2 220 22:59 20.02.2020
2268 Clouds 9 1020 57 10000 5.7 220 22:39 20.02.2020
2269 Clouds 9 1020 57 10000 5.7 220 22:20 20.02.2020
2270 Clouds 9 1019 57 10000 3.6 220 21:56 20.02.2020
2271 Clouds 9 1019 54 10000 5.7 220 21:37 20.02.2020
2272 Clouds 9 1019 54 10000 5.7 220 21:37 20.02.2020
2273 Clouds 8 1019 54 10000 5.7 220 21:19 20.02.2020
2274 Clouds 8 1019 54 10000 5.7 220 21:19 20.02.2020
2275 Clouds 8 1019 57 10000 4.6 200 20:55 20.02.2020
2276 Clouds 8 1019 57 10000 4.6 200 20:37 20.02.2020
2277 Clouds 8 1019 61 10000 3.1 220 20:19 20.02.2020
2278 Clouds 7 1019 66 10000 1 0 19:58 20.02.2020
2279 Clouds 8 1019 66 10000 1 0 19:40 20.02.2020
2280 Clouds 8 1018 61 10000 3.1 230 19:21 20.02.2020
2281 Clouds 8 1018 57 10000 3.1 240 18:40 20.02.2020
2282 Clouds 9 1019 57 10000 3.6 260 18:20 20.02.2020
2283 Clouds 9 1019 54 10000 3.6 250 17:56 20.02.2020
2284 Clouds 9 1019 50 10000 3.6 250 17:38 20.02.2020
2285 Clouds 11 1019 50 10000 3.6 250 17:18 20.02.2020
2286 Clouds 11 1019 50 10000 4.6 250 16:55 20.02.2020
2287 Clouds 11 1019 50 10000 4.1 250 16:37 20.02.2020
2288 Clouds 12 1019 50 10000 4.1 250 16:18 20.02.2020
2289 Clouds 12 1020 50 10000 5.7 240 15:42 20.02.2020
2290 Clouds 12 1020 50 10000 4.6 250 15:21 20.02.2020
2291 Clouds 12 1020 50 10000 5.7 240 14:57 20.02.2020
2292 Clouds 11 1020 50 10000 5.7 240 14:39 20.02.2020
2293 Clouds 11 1020 47 10000 5.1 250 14:20 20.02.2020
2294 Clouds 11 1021 54 10000 5.1 250 13:46 20.02.2020
2295 Clouds 11 1021 50 10000 4.1 240 13:21 20.02.2020
2296 Clouds 11 1021 53 10000 4.1 230 12:59 20.02.2020
2297 Clouds 11 1022 57 10000 3.1 250 12:40 20.02.2020
2298 Clouds 10 1022 57 10000 3.1 250 12:20 20.02.2020
2299 Clouds 10 1022 66 10000 1.5 180 11:57 20.02.2020
2300 Clouds 10 1022 66 10000 1.5 180 11:39 20.02.2020
2301 Clouds 10 1022 66 10000 1.5 180 11:39 20.02.2020
2302 Clouds 9 1023 66 10000 3.1 170 11:20 20.02.2020
2303 Clouds 8 1023 70 10000 3.1 180 10:55 20.02.2020
2304 Clouds 8 1023 70 10000 3.1 180 10:37 20.02.2020
2305 Clouds 7 1023 70 10000 3.1 180 10:19 20.02.2020
2306 Clouds 7 1023 70 10000 3.1 180 09:38 20.02.2020
2307 Clouds 6 1023 81 10000 3.6 180 09:19 20.02.2020
2308 Clouds 5 1023 87 10000 4.1 190 08:42 20.02.2020
2309 Clouds 5 1023 86 10000 1.5 180 08:24 20.02.2020
2310 Clouds 4 1023 86 10000 2.6 170 07:48 20.02.2020
2311 Clouds 5 1023 81 10000 3.6 170 07:27 20.02.2020
2312 Clouds 4 1023 86 10000 3.1 170 06:57 20.02.2020
2313 Clouds 4 1023 86 10000 3.6 160 06:38 20.02.2020
2314 Clouds 4 1023 86 10000 1.5 250 05:47 20.02.2020
2315 Clouds 4 1023 86 10000 3.1 180 05:25 20.02.2020
2316 Clouds 4 1024 80 10000 1.5 0 04:48 20.02.2020
2317 Clouds 4 1024 80 10000 3.1 190 03:46 20.02.2020
2318 Clouds 4 1024 80 10000 4.1 170 02:47 20.02.2020
2319 Clouds 4 1026 70 10000 2.1 250 01:25 20.02.2020
2320 Clouds 5 1025 70 10000 3.6 180 00:47 20.02.2020
2321 Clouds 4 1026 80 10000 3.1 210 00:25 20.02.2020
2322 Clouds 5 1026 75 10000 3.1 210 23:48 19.02.2020
2323 Snow 4 1026 86 10000 2.1 220 23:19 19.02.2020
2324 Snow 4 1026 92 10000 2.6 230 22:43 19.02.2020
2325 Clouds 4 1026 80 10000 3.1 200 22:25 19.02.2020
2326 Clouds 4 1026 74 10000 2.6 190 21:59 19.02.2020
2327 Clouds 4 1026 74 10000 2.6 190 21:40 19.02.2020
2328 Clouds 4 1027 69 10000 2.6 200 21:19 19.02.2020
2329 Snow 4 1027 92 10000 3.1 190 20:58 19.02.2020
2330 Snow 4 1027 92 10000 3.1 190 20:39 19.02.2020
2331 Snow 4 1026 90 10000 3.1 210 20:20 19.02.2020
2332 Snow 4 1026 90 10000 3.1 210 20:20 19.02.2020
2333 Snow 5 1026 65 10000 3.6 190 19:58 19.02.2020
2334 Snow 5 1026 65 10000 3.6 190 19:38 19.02.2020
2335 Snow 5 1026 60 10000 3.1 210 19:19 19.02.2020
2336 Snow 5 1026 60 10000 2.6 200 18:58 19.02.2020
2337 Snow 5 1026 60 10000 2.6 200 18:40 19.02.2020
2338 Snow 6 1026 56 10000 2.1 270 18:21 19.02.2020
2339 Snow 6 1025 49 10000 3.1 210 17:56 19.02.2020
2340 Snow 6 1025 49 10000 3.1 210 17:38 19.02.2020
2341 Clouds 7 1025 45 10000 2.6 250 17:18 19.02.2020
2342 Clouds 8 1025 49 10000 4.6 270 16:42 19.02.2020
2343 Snow 8 1025 52 10000 2.1 280 16:18 19.02.2020
2344 Snow 8 1025 52 10000 2.1 280 16:18 19.02.2020
2345 Clouds 8 1025 49 10000 3.6 260 15:56 19.02.2020
2346 Clouds 8 1025 77 10000 4.1 290 15:37 19.02.2020
2347 Clouds 7 1025 77 10000 4.1 290 15:19 19.02.2020
2348 Rain 7 1025 77 10000 3.6 270 14:41 19.02.2020
2349 Rain 8 1025 70 10000 5.1 270 14:22 19.02.2020
2350 Rain 8 1025 80 10000 5.7 270 13:55 19.02.2020
2351 Rain 7 1025 80 10000 5.7 270 13:36 19.02.2020
2352 Clouds 8 1024 61 10000 5.1 300 13:18 19.02.2020
2353 Clouds 7 1024 61 10000 5.7 240 12:38 19.02.2020
2354 Rain 7 1024 61 10000 5.1 240 12:19 19.02.2020
2355 Rain 7 1024 61 10000 5.1 240 12:19 19.02.2020
2356 Drizzle 7 1024 65 10000 3.6 270 11:54 19.02.2020
2357 Clouds 7 1024 56 10000 6.2 270 11:36 19.02.2020
2358 Rain 6 1024 56 10000 6.2 270 11:18 19.02.2020
2359 Rain 6 1023 56 10000 8.7 260 10:54 19.02.2020
2360 Rain 6 1023 56 10000 8.7 260 10:36 19.02.2020
2361 Rain 6 1023 97 10000 6.2 270 10:18 19.02.2020
2362 Clouds 6 1022 75 10000 2.1 280 09:41 19.02.2020
2363 Clouds 6 1022 70 10000 4.6 260 09:20 19.02.2020
2364 Rain 5 1021 75 10000 3.6 230 08:55 19.02.2020
2365 Rain 5 1021 75 10000 3.6 230 08:37 19.02.2020
2366 Rain 5 1021 86 10000 4.1 210 08:18 19.02.2020
2367 Rain 5 1021 81 10000 5.1 190 07:40 19.02.2020
2368 Rain 6 1020 87 10000 4.6 190 07:20 19.02.2020
2369 Rain 6 1020 81 10000 5.7 190 06:46 19.02.2020
2370 Rain 6 1021 75 10000 5.1 190 05:35 19.02.2020
2371 Drizzle 6 1022 81 10000 6.2 180 03:56 19.02.2020
2372 Clouds 6 1023 81 10000 3.1 190 02:45 19.02.2020
2373 Rain 6 1024 81 10000 4.6 180 01:54 19.02.2020
2374 Rain 6 1024 75 10000 6.2 190 01:23 19.02.2020
2375 Clouds 6 1024 70 10000 6.7 180 00:43 19.02.2020
2376 Clouds 6 1025 70 10000 5.1 190 00:23 19.02.2020
2377 Clouds 6 1026 70 10000 6.2 190 23:41 18.02.2020
2378 Clouds 6 1026 70 10000 6.2 190 23:20 18.02.2020
2379 Clouds 6 1026 75 10000 5.1 180 22:56 18.02.2020
2380 Clouds 6 1026 75 10000 5.1 180 22:37 18.02.2020
2381 Rain 5 1027 75 10000 3.6 200 22:19 18.02.2020
2382 Clouds 5 1027 70 10000 2.1 190 21:55 18.02.2020
2383 Clouds 5 1027 70 10000 2.1 190 21:37 18.02.2020
2384 Clouds 5 1027 70 10000 2.1 190 21:37 18.02.2020
2385 Clouds 5 1027 70 10000 2.1 170 21:18 18.02.2020
2386 Clouds 6 1027 70 10000 1.5 190 20:56 18.02.2020
2387 Clouds 6 1028 70 10000 2.1 210 20:37 18.02.2020
2388 Clouds 6 1028 70 10000 2.1 210 20:19 18.02.2020
2389 Clouds 6 1027 65 10000 4.1 190 19:42 18.02.2020
2390 Clouds 6 1028 61 10000 4.6 190 19:20 18.02.2020
2391 Clouds 7 1028 61 10000 3.1 210 18:59 18.02.2020
2392 Clouds 7 1028 61 10000 3.1 210 18:59 18.02.2020
2393 Clouds 7 1028 61 10000 3.1 210 18:40 18.02.2020
2394 Clouds 7 1028 89 10000 3.6 200 18:20 18.02.2020
2395 Snow 7 1027 89 10000 4.1 210 17:55 18.02.2020
2396 Snow 7 1027 89 10000 4.1 210 17:36 18.02.2020
2397 Clouds 8 1027 73 10000 5.1 210 17:18 18.02.2020
2398 Clouds 9 1028 49 10000 5.1 210 16:39 18.02.2020
2399 Clouds 8 1028 49 10000 5.1 210 16:19 18.02.2020
2400 Clouds 9 1028 73 10000 4.6 220 15:40 18.02.2020
2401 Clouds 9 1028 46 10000 5.1 230 15:20 18.02.2020
2402 Clouds 9 1028 73 10000 6.7 220 14:57 18.02.2020
2403 Clouds 9 1028 73 10000 6.7 220 14:57 18.02.2020
2404 Clouds 9 1028 73 10000 6.7 220 14:39 18.02.2020
2405 Clouds 8 1028 76 10000 6.7 210 14:20 18.02.2020
2406 Clouds 9 1029 76 10000 5.7 220 13:42 18.02.2020
2407 Clouds 9 1029 53 10000 6.2 200 13:23 18.02.2020
2408 Clouds 8 1029 57 10000 5.7 210 12:59 18.02.2020
2409 Clouds 8 1029 57 10000 5.7 210 12:41 18.02.2020
2410 Clouds 8 1030 57 10000 4.6 210 12:22 18.02.2020
2411 Clouds 8 1030 74 10000 5.1 210 11:55 18.02.2020
2412 Clouds 8 1030 65 10000 4.6 210 11:37 18.02.2020
2413 Clouds 8 1030 65 10000 4.6 210 11:37 18.02.2020
2414 Clouds 7 1030 65 10000 4.6 210 11:18 18.02.2020
2415 Clouds 7 1030 65 10000 6.2 210 10:41 18.02.2020
2416 Clouds 7 1029 70 10000 6.2 210 10:18 18.02.2020
2417 Clouds 7 1029 75 10000 5.7 200 09:56 18.02.2020
2418 Clouds 7 1029 75 10000 5.7 200 09:38 18.02.2020
2419 Clouds 6 1029 81 10000 6.7 190 09:19 18.02.2020
2420 Clouds 5 1029 87 10000 3.6 200 08:54 18.02.2020
2421 Clouds 5 1029 81 10000 4.6 180 08:36 18.02.2020
2422 Clouds 5 1029 81 10000 4.6 180 08:18 18.02.2020
2423 Clouds 5 1028 81 10000 4.1 180 07:42 18.02.2020
2424 Clouds 5 1028 81 10000 5.1 180 07:23 18.02.2020
2425 Clouds 5 1028 75 10000 3.1 170 06:48 18.02.2020
2426 Clouds 5 1028 75 10000 3.6 170 06:27 18.02.2020
2427 Clouds 5 1028 86 10000 3.1 190 05:47 18.02.2020
2428 Clouds 5 1028 86 10000 2.6 230 04:52 18.02.2020
2429 Clouds 5 1027 86 10000 3.1 190 03:38 18.02.2020
2430 Clouds 6 1027 87 10000 2.6 170 02:58 18.02.2020
2431 Clouds 6 1026 81 10000 3.6 170 01:25 18.02.2020
2432 Rain 6 1026 70 10000 4.1 190 00:22 18.02.2020
2433 Clouds 6 1025 65 10000 4.6 200 23:59 17.02.2020
2434 Clouds 6 1025 70 10000 4.6 190 23:39 17.02.2020
2435 Clouds 6 1025 70 10000 4.6 190 23:19 17.02.2020
2436 Rain 6 1024 70 10000 4.6 190 22:57 17.02.2020
2437 Rain 6 1024 70 10000 4.6 190 22:38 17.02.2020
2438 Rain 7 1024 70 10000 4.1 220 22:18 17.02.2020
2439 Rain 8 1024 87 10000 5.7 190 21:39 17.02.2020
2440 Rain 8 1022 81 10000 6.2 180 21:19 17.02.2020
2441 Clouds 8 1022 76 10000 4.1 180 20:55 17.02.2020
2442 Clouds 8 1022 76 10000 4.1 180 20:37 17.02.2020
2443 Clouds 8 1022 76 10000 5.7 190 20:18 17.02.2020
2444 Clouds 8 1022 76 10000 5.7 190 20:18 17.02.2020
2445 Clouds 8 1022 66 10000 3.1 170 19:42 17.02.2020
2446 Clouds 8 1022 70 10000 4.1 190 19:21 17.02.2020
2447 Clouds 8 1022 70 10000 3.6 220 18:56 17.02.2020
2448 Rain 8 1021 81 10000 4.6 190 18:36 17.02.2020
2449 Rain 8 1021 81 10000 4.6 190 18:36 17.02.2020
2450 Rain 8 1022 70 10000 3.6 220 18:36 17.02.2020
2451 Rain 8 1021 81 10000 4.6 190 18:36 17.02.2020
2452 Rain 8 1021 81 10000 4.6 190 18:18 17.02.2020
2453 Rain 8 1020 76 10000 5.1 190 17:38 17.02.2020
2454 Rain 8 1020 76 10000 5.1 190 17:38 17.02.2020
2455 Rain 9 1020 81 10000 3.6 200 17:20 17.02.2020
2456 Rain 9 1020 81 10000 4.1 200 16:59 17.02.2020
2457 Rain 9 1020 81 10000 4.1 200 16:59 17.02.2020
2458 Rain 9 1020 81 10000 4.1 200 16:40 17.02.2020
2459 Rain 9 1020 81 10000 3.6 200 16:22 17.02.2020
2460 Rain 9 1019 81 10000 4.1 190 15:46 17.02.2020
2461 Rain 9 1019 81 10000 4.1 190 15:46 17.02.2020
2462 Rain 9 1019 71 10000 4.1 220 15:28 17.02.2020
2463 Rain 9 1019 81 10000 5.7 200 14:59 17.02.2020
2464 Rain 9 1019 81 10000 5.7 200 14:41 17.02.2020
2465 Rain 9 1019 76 10000 4.6 200 14:22 17.02.2020
2466 Rain 9 1019 87 10000 2.1 140 13:57 17.02.2020
2467 Rain 9 1019 81 10000 2.6 170 13:38 17.02.2020
2468 Rain 10 1019 81 10000 2.6 170 13:19 17.02.2020
2469 Rain 10 1019 76 10000 2.6 220 12:43 17.02.2020
2470 Rain 10 1019 71 10000 2.6 240 12:25 17.02.2020
2471 Rain 10 1019 76 10000 2.1 260 11:58 17.02.2020
2472 Rain 10 1019 76 10000 2.1 260 11:39 17.02.2020
2473 Rain 11 1019 93 7000 1.5 0 11:20 17.02.2020
2474 Rain 11 1018 93 10000 2.1 10 10:55 17.02.2020
2475 Rain 10 1018 93 10000 2.1 20 10:37 17.02.2020
2476 -273 0 0 0 0 0 10:18 17.02.2020
2477 Rain 11 1018 93 10000 2.1 20 10:18 17.02.2020
2478 Rain 11 1018 87 8000 1.5 60 09:41 17.02.2020
2479 Rain 11 1018 81 10000 1.5 0 09:23 17.02.2020
2480 Clouds 11 1017 66 10000 5.1 210 08:59 17.02.2020
2481 Clouds 11 1017 66 10000 5.1 210 08:40 17.02.2020
2482 Clouds 11 1017 66 10000 3.6 220 08:21 17.02.2020
2483 Clouds 11 1017 66 10000 3.1 240 07:54 17.02.2020
2484 Clouds 11 1018 71 10000 4.1 300 07:25 17.02.2020
2485 Clouds 12 1017 62 10000 7.2 220 06:53 17.02.2020
2486 Clouds 11 1017 62 10000 2.1 230 06:33 17.02.2020
2487 Clouds 12 1017 54 10000 5.1 240 05:59 17.02.2020
2488 Clouds 12 1017 54 10000 3.1 230 05:38 17.02.2020
2489 Clouds 14 1016 48 10000 4.6 180 03:24 17.02.2020
2490 Clouds 13 1015 48 10000 2.1 0 01:59 17.02.2020
2491 Clouds 13 1015 44 10000 3.6 0 00:51 17.02.2020
2492 Clouds 13 1015 44 10000 2.6 210 00:23 17.02.2020
2493 Clouds 13 1015 44 10000 3.6 220 23:54 16.02.2020
2494 Clouds 13 1015 44 10000 3.6 220 23:54 16.02.2020
2495 Clouds 13 1015 42 10000 4.1 210 23:33 16.02.2020
2496 Clouds 12 1014 54 10000 3.6 220 22:58 16.02.2020
2497 Clouds 12 1014 54 10000 3.6 220 22:39 16.02.2020
2498 Clouds 11 1014 47 10000 5.1 220 22:21 16.02.2020
2499 Clouds 12 1014 47 10000 6.2 220 21:59 16.02.2020
2500 Clouds 12 1014 47 10000 6.2 220 21:41 16.02.2020
2501 Clouds 12 1014 44 10000 6.2 210 21:23 16.02.2020
2502 Clouds 12 1013 41 10000 6.7 210 20:58 16.02.2020
2503 Clouds 12 1013 41 10000 6.7 210 20:40 16.02.2020
2504 Clouds 12 1013 41 10000 6.7 210 20:40 16.02.2020
2505 Clouds 12 1013 44 10000 6.2 210 20:22 16.02.2020
2506 Clouds 13 1013 41 10000 5.7 210 19:58 16.02.2020
2507 Clouds 13 1013 41 10000 5.7 210 19:40 16.02.2020
2508 Clouds 13 1013 41 10000 4.1 240 19:19 16.02.2020
2509 Clouds 13 1013 41 10000 4.1 240 19:19 16.02.2020
2510 Clouds 12 1013 39 10000 5.1 210 18:58 16.02.2020
2511 Clouds 13 1013 39 10000 5.1 210 18:40 16.02.2020
2512 Clouds 14 1013 41 10000 5.1 200 18:21 16.02.2020
2513 Clouds 14 1013 39 10000 5.1 190 17:43 16.02.2020
2514 Clouds 16 1013 39 10000 5.1 190 17:20 16.02.2020
2515 Clouds 16 1013 39 10000 5.1 190 17:20 16.02.2020
2516 Clouds 17 1013 32 10000 4.6 200 16:56 16.02.2020
2517 Clouds 17 1013 30 10000 4.6 230 16:38 16.02.2020
2518 Clouds 17 1013 30 10000 4.6 230 16:38 16.02.2020
2519 Clouds 18 1013 30 10000 4.6 230 16:20 16.02.2020
2520 Clouds 18 1013 26 10000 7.2 230 15:56 16.02.2020
2521 Clouds 18 1013 26 10000 7.2 230 15:37 16.02.2020
2522 Clouds 18 1014 28 10000 6.7 230 15:18 16.02.2020
2523 Clouds 18 1014 32 10000 7.7 240 14:38 16.02.2020
2524 Clouds 17 1014 36 10000 4.1 0 14:19 16.02.2020
2525 Clouds 16 1015 39 10000 4.1 150 13:45 16.02.2020
2526 Clouds 15 1015 41 10000 3.6 140 13:24 16.02.2020
2527 Clouds 14 1015 41 10000 1.5 0 12:54 16.02.2020
2528 Clouds 14 1016 44 10000 3.1 170 12:36 16.02.2020
2529 Clouds 14 1016 44 10000 3.1 170 12:18 16.02.2020
2530 Clouds 12 1017 62 10000 4.1 190 11:38 16.02.2020
2531 Clouds 11 1017 62 10000 4.1 190 11:18 16.02.2020
2532 Clouds 10 1017 66 10000 2.6 200 10:56 16.02.2020
2533 Clouds 10 1017 66 10000 2.6 200 10:38 16.02.2020
2534 Clouds 10 1017 66 10000 3.1 210 10:19 16.02.2020
2535 Clouds 9 1017 70 10000 2.6 190 09:55 16.02.2020
2536 Clouds 9 1018 75 10000 1 270 09:36 16.02.2020
2537 Clouds 9 1018 75 10000 1 270 09:18 16.02.2020
2538 Clouds 8 1018 70 10000 0.5 0 08:45 16.02.2020
2539 Clouds 6 1018 65 10000 1 0 08:21 16.02.2020
2540 Clouds 6 1018 61 10000 1 0 07:54 16.02.2020
2541 Clouds 6 1018 61 10000 1 0 07:34 16.02.2020
2542 Clouds 7 1018 57 10000 4.1 180 06:33 16.02.2020
2543 Clouds 6 1018 61 10000 4.6 200 04:45 16.02.2020
2544 Clouds 6 1019 66 10000 2.6 170 03:33 16.02.2020
2545 Clouds 7 1019 66 10000 0.5 0 02:32 16.02.2020
2546 Clouds 7 1019 61 10000 3.1 150 01:44 16.02.2020
2547 Clouds 7 1019 61 10000 3.1 150 01:44 16.02.2020
2548 Clouds 7 1019 61 10000 3.1 150 01:44 16.02.2020
2549 Clouds 7 1022 75 10000 1.5 180 01:26 16.02.2020
2550 Clouds 8 1020 66 10000 2.1 210 00:59 16.02.2020
2551 Clouds 8 1019 66 10000 3.1 190 00:39 16.02.2020
2552 Clouds 8 1019 66 10000 3.1 190 00:19 16.02.2020
2553 Clouds 8 1019 62 10000 6.2 170 23:42 15.02.2020
2554 Clouds 8 1020 66 10000 6.2 180 23:23 15.02.2020
2555 Clouds 7 1020 66 10000 5.1 180 22:56 15.02.2020
2556 Clouds 7 1020 66 10000 5.1 180 22:38 15.02.2020
2557 Clouds 7 1020 71 10000 5.7 190 22:18 15.02.2020
2558 Clouds 8 1020 66 10000 2.6 170 21:43 15.02.2020
2559 Clouds 7 1020 66 10000 2.1 160 21:23 15.02.2020
2560 Clouds 7 1020 70 10000 2.1 200 20:56 15.02.2020
2561 Clouds 7 1020 70 10000 2.1 190 20:37 15.02.2020
2562 Clouds 7 1020 70 10000 2.1 190 20:19 15.02.2020
2563 Clouds 7 1020 66 10000 2.6 180 19:41 15.02.2020
2564 Clouds 7 1020 75 10000 1 220 19:22 15.02.2020
2565 Clouds 8 1021 76 10000 2.6 270 18:41 15.02.2020
2566 Clouds 8 1020 61 10000 2.6 210 18:21 15.02.2020
2567 Clouds 9 1021 58 10000 2.6 170 17:55 15.02.2020
2568 Clouds 9 1021 54 10000 2.1 160 17:37 15.02.2020
2569 Clouds 11 1021 54 10000 2.1 160 17:18 15.02.2020
2570 Clouds 12 1021 54 10000 4.1 170 16:41 15.02.2020
2571 Clouds 12 1020 50 10000 3.1 190 16:23 15.02.2020
2572 Clouds 12 1021 54 10000 4.1 180 15:54 15.02.2020
2573 Clouds 12 1021 58 10000 4.1 180 15:36 15.02.2020
2574 Clouds 13 1021 58 10000 4.1 180 15:18 15.02.2020
2575 Clouds 12 1021 58 10000 3.1 170 14:39 15.02.2020
2576 Clouds 12 1022 62 10000 3.1 180 14:18 15.02.2020
2577 Clouds 11 1023 62 10000 1.5 190 13:42 15.02.2020
2578 Clouds 11 1023 62 10000 1.5 190 13:23 15.02.2020
2579 Clouds 10 1024 70 10000 3.6 180 12:59 15.02.2020
2580 Clouds 10 1024 70 10000 3.6 180 12:40 15.02.2020
2581 Clouds 9 1025 66 10000 2.6 180 12:21 15.02.2020
2582 Clouds 8 1024 75 10000 3.6 180 11:47 15.02.2020
2583 Clouds 8 1025 75 10000 1.5 0 11:27 15.02.2020
2584 Clouds 6 1025 81 10000 1 0 10:49 15.02.2020
2585 Clouds 6 1025 86 10000 2.6 160 10:30 15.02.2020
2586 Clouds 5 1025 86 10000 2.6 200 09:58 15.02.2020
2587 Clouds 4 1025 86 10000 2.6 200 09:39 15.02.2020
2588 -273 0 0 0 0 0 09:21 15.02.2020
2589 Clouds 2 1025 78 10000 1.5 180 08:43 15.02.2020
2590 Clouds 1 1025 85 10000 1 0 08:24 15.02.2020
2591 Clouds 0 1025 100 10000 1.5 180 07:51 15.02.2020
2592 Clouds 1 1025 85 10000 1.5 220 07:31 15.02.2020
2593 Clouds 1 1025 100 10000 1.5 180 06:51 15.02.2020
2594 Clouds 1 1025 100 10000 2.1 190 06:31 15.02.2020
2595 Clouds 1 1025 85 10000 2.6 200 05:41 15.02.2020
2596 Clouds 1 1025 83 10000 1.5 230 04:46 15.02.2020
2597 Clouds 2 1025 93 10000 2.6 190 03:43 15.02.2020
2598 Clouds 2 1026 80 10000 2.1 250 02:51 15.02.2020
2599 Clouds 2 1026 86 10000 1.5 250 02:23 15.02.2020
2600 Clouds 2 1026 86 10000 1.5 0 01:40 15.02.2020
2601 Clouds 2 1026 86 10000 2.6 250 00:43 15.02.2020
2602 Clouds 3 1027 86 10000 2.6 210 00:21 15.02.2020
2603 Clouds 3 1027 86 10000 1.5 0 23:42 14.02.2020
2604 Clouds 3 1027 80 10000 3.1 270 23:20 14.02.2020
2605 Clouds 3 1027 80 10000 2.6 260 22:45 14.02.2020
2606 Clouds 3 1027 80 10000 2.6 220 22:24 14.02.2020
2607 Clouds 3 1027 80 10000 2.1 240 21:58 14.02.2020
2608 Clouds 4 1027 80 10000 2.1 240 21:40 14.02.2020
2609 Clouds 4 1027 81 10000 1.5 230 21:20 14.02.2020
2610 Clouds 5 1027 75 10000 1.5 230 20:43 14.02.2020
2611 Clouds 6 1027 75 10000 1 0 20:19 14.02.2020
2612 Clouds 6 1026 70 10000 2.1 290 19:56 14.02.2020
2613 Clouds 6 1026 70 10000 2.1 290 19:56 14.02.2020
2614 Clouds 6 1026 70 10000 2.1 290 19:56 14.02.2020
2615 Clouds 6 1026 70 10000 2.1 290 19:38 14.02.2020
2616 Clouds 7 1026 61 10000 3.6 240 19:18 14.02.2020
2617 Clouds 8 1026 70 10000 3.6 240 18:56 14.02.2020
2618 Clouds 8 1025 61 10000 2.6 260 18:38 14.02.2020
2619 Clouds 8 1025 61 10000 2.6 260 18:18 14.02.2020
2620 Clouds 9 1025 61 10000 1 240 17:42 14.02.2020
2621 Clouds 9 1025 57 10000 1.5 0 17:20 14.02.2020
2622 Clouds 10 1025 57 10000 3.1 230 16:57 14.02.2020
2623 Clouds 10 1024 58 10000 2.6 190 16:39 14.02.2020
2624 Clouds 10 1024 58 10000 2.6 190 16:20 14.02.2020
2625 Clouds 10 1024 57 10000 2.6 240 15:56 14.02.2020
2626 Clouds 10 1024 57 10000 2.6 240 15:37 14.02.2020
2627 Clouds 10 1024 54 10000 3.1 240 15:37 14.02.2020
2628 Clouds 10 1024 54 10000 3.1 240 15:19 14.02.2020
2629 Clouds 10 1024 54 10000 3.1 240 15:19 14.02.2020
2630 Clouds 10 1024 54 10000 4.6 240 14:56 14.02.2020
2631 Clouds 10 1024 54 10000 4.6 240 14:38 14.02.2020
2632 Clouds 9 1024 57 10000 4.6 220 14:19 14.02.2020
2633 Clouds 10 1024 57 10000 4.1 210 13:40 14.02.2020
2634 Clouds 10 1024 62 10000 3.1 200 13:40 14.02.2020
2635 Clouds 10 1024 62 10000 3.1 200 13:21 14.02.2020
2636 Clouds 10 1025 66 10000 4.1 210 12:58 14.02.2020
2637 Clouds 9 1025 66 10000 4.1 210 12:40 14.02.2020
2638 Clouds 9 1024 61 10000 4.1 220 12:21 14.02.2020
2639 Clouds 9 1024 76 10000 2.1 170 11:58 14.02.2020
2640 Clouds 8 1024 76 10000 2.1 170 11:40 14.02.2020
2641 Clouds 7 1024 75 10000 1 0 11:20 14.02.2020
2642 Clouds 7 1024 75 10000 1 0 11:20 14.02.2020
2643 Clouds 7 1023 75 10000 1 0 10:55 14.02.2020
2644 Clouds 7 1023 75 10000 1 0 10:37 14.02.2020
2645 Rain 7 1023 75 10000 1 0 10:19 14.02.2020
2646 Rain 7 1022 81 10000 1 0 09:40 14.02.2020
2647 Rain 6 1022 75 10000 2.1 90 09:21 14.02.2020
2648 Clouds 6 1021 75 10000 1.5 0 08:44 14.02.2020
2649 Clouds 6 1021 70 10000 3.6 190 08:25 14.02.2020
2650 Clouds 6 1020 70 10000 3.1 270 07:57 14.02.2020
2651 Clouds 6 1019 61 10000 2.1 290 07:38 14.02.2020
2652 Clouds 6 1019 61 10000 2.1 290 07:19 14.02.2020
2653 Clouds 6 1018 70 10000 1.5 0 06:30 14.02.2020
2654 Clouds 6 1017 75 10000 1.5 0 05:48 14.02.2020
2655 Rain 6 1016 75 10000 4.6 280 04:47 14.02.2020
2656 Rain 7 1015 87 9000 4.6 280 03:30 14.02.2020
2657 Rain 7 1015 81 7000 5.1 260 02:42 14.02.2020
2658 Rain 6 1014 81 10000 6.2 230 01:50 14.02.2020
2659 Rain 6 1012 81 10000 4.6 240 00:44 14.02.2020
2660 Rain 6 1012 81 10000 4.6 240 00:44 14.02.2020
2661 Rain 6 1011 75 10000 5.1 240 00:24 14.02.2020
2662 Rain 6 1010 81 9000 4.6 230 23:51 13.02.2020
2663 Rain 6 1010 70 10000 5.7 250 23:23 13.02.2020
2664 Clouds 6 1009 70 10000 6.7 260 22:56 13.02.2020
2665 Rain 5 1008 75 10000 5.7 230 22:38 13.02.2020
2666 Rain 5 1008 75 10000 5.7 230 22:18 13.02.2020
2667 Rain 6 1008 75 10000 5.7 210 21:41 13.02.2020
2668 Rain 7 1007 66 10000 10.8 240 21:23 13.02.2020
2669 Rain 7 1006 75 10000 6.7 210 20:58 13.02.2020
2670 Rain 7 1006 75 10000 6.7 210 20:40 13.02.2020
2671 Rain 7 1006 70 9000 5.1 230 20:22 13.02.2020
2672 Rain 7 1006 81 10000 5.1 140 19:56 13.02.2020
2673 Rain 6 1006 81 10000 5.1 140 19:37 13.02.2020
2674 Clouds 6 1005 75 10000 6.2 190 19:37 13.02.2020
2675 Clouds 6 1005 75 10000 6.2 190 19:19 13.02.2020
2676 Rain 6 1005 75 10000 6.7 190 18:45 13.02.2020
2677 Rain 6 1004 75 10000 6.2 220 18:25 13.02.2020
2678 Rain 6 1005 81 10000 8.7 220 17:59 13.02.2020
2679 Rain 6 1005 81 10000 8.7 220 17:40 13.02.2020
2680 Rain 8 1005 81 10000 7.2 270 17:22 13.02.2020
2681 Thunderstorm 9 1005 75 7000 6.7 290 16:59 13.02.2020
2682 Thunderstorm 9 1005 75 7000 6.7 290 16:40 13.02.2020
2683 Rain 10 1003 76 10000 6.2 220 16:20 13.02.2020
2684 Rain 11 1003 76 10000 5.1 180 15:56 13.02.2020
2685 Rain 11 1003 76 10000 5.1 180 15:38 13.02.2020
2686 Rain 10 1004 81 10000 6.2 160 15:19 13.02.2020
2687 Rain 10 1005 76 10000 6.7 170 14:58 13.02.2020
2688 Rain 10 1005 76 10000 6.7 170 14:39 13.02.2020
2689 Clouds 10 1005 66 10000 9.8 180 14:21 13.02.2020
2690 Clouds 10 1005 66 10000 9.8 180 14:21 13.02.2020
2691 Clouds 10 1006 70 10000 10.3 190 13:48 13.02.2020
2692 Clouds 9 1006 70 10000 10.3 190 13:48 13.02.2020
2693 Rain 9 1007 65 10000 9.8 190 13:19 13.02.2020
2694 Rain 10 1008 46 10000 6.7 180 12:57 13.02.2020
2695 Rain 10 1008 46 10000 6.7 180 12:38 13.02.2020
2696 Rain 9 1009 49 10000 6.2 180 12:20 13.02.2020
2697 Rain 8 1010 75 10000 6.2 180 11:47 13.02.2020
2698 Clouds 6 1011 70 10000 5.7 180 11:21 13.02.2020
2699 Clouds 5 1011 70 10000 7.7 180 10:57 13.02.2020
2700 Clouds 5 1011 70 10000 7.7 180 10:39 13.02.2020
2701 Clouds 4 1012 69 10000 6.7 170 10:20 13.02.2020
2702 Clouds 3 1014 70 10000 3.6 170 09:42 13.02.2020
2703 Clouds 3 1014 70 10000 3.6 170 09:23 13.02.2020
2704 Clouds 2 1015 70 10000 3.6 190 08:46 13.02.2020
2705 Clouds 1 1015 84 10000 3.6 190 08:19 13.02.2020
2706 Clouds 1 1015 84 10000 3.6 190 08:19 13.02.2020
2707 Clouds 1 1015 84 10000 3.6 190 08:19 13.02.2020
2708 Clouds 1 1015 84 10000 2.1 200 07:43 13.02.2020
2709 Clouds 1 1015 84 10000 1.5 0 07:23 13.02.2020
2710 Clouds 1 1016 84 10000 1.5 230 06:54 13.02.2020
2711 Clouds 1 1016 84 10000 1.5 230 06:36 13.02.2020
2712 Clouds 1 1017 84 10000 1 0 05:52 13.02.2020
2713 Clouds 1 1018 91 10000 2.6 230 04:48 13.02.2020
2714 Clouds 2 1018 91 10000 2.6 260 04:23 13.02.2020
2715 Clouds 2 1019 91 10000 2.1 220 03:41 13.02.2020
2716 Clouds 3 1020 86 10000 2.6 160 02:59 13.02.2020
2717 Clouds 3 1020 93 10000 2.1 200 02:20 13.02.2020
2718 Clouds 3 1021 93 10000 2.1 220 01:54 13.02.2020
2719 Clouds 3 1021 93 10000 1 0 01:25 13.02.2020
2720 Clouds 3 1022 93 10000 3.1 200 00:32 13.02.2020
2721 Clouds 4 1022 93 10000 1.5 0 23:57 12.02.2020
2722 Clouds 4 1022 93 10000 1.5 0 23:37 12.02.2020
2723 Snow 4 1022 86 10000 1.5 300 23:18 12.02.2020
2724 Snow 4 1022 86 10000 1.5 250 22:43 12.02.2020
2725 Snow 4 1022 86 10000 1.5 250 22:43 12.02.2020
2726 Clouds 4 1022 80 10000 1.5 80 22:24 12.02.2020
2727 Clouds 5 1022 86 10000 3.1 210 21:56 12.02.2020
2728 Clouds 5 1022 80 10000 4.1 210 21:37 12.02.2020
2729 Clouds 5 1022 80 10000 4.1 210 21:37 12.02.2020
2730 Clouds 4 1022 86 10000 3.1 210 21:37 12.02.2020
2731 Clouds 5 1022 80 10000 4.1 210 21:18 12.02.2020
2732 Clouds 4 1022 80 10000 2.1 200 20:55 12.02.2020
2733 Clouds 4 1022 80 10000 2.1 200 20:36 12.02.2020
2734 Clouds 5 1022 75 10000 3.6 150 20:18 12.02.2020
2735 Rain 5 1022 80 10000 2.1 200 19:43 12.02.2020
2736 Rain 5 1022 70 10000 4.1 190 19:23 12.02.2020
2737 Clouds 5 1021 70 10000 5.1 180 18:54 12.02.2020
2738 Clouds 5 1021 70 10000 5.1 190 18:36 12.02.2020
2739 Clouds 5 1021 70 10000 5.1 190 18:18 12.02.2020
2740 Clouds 5 1020 70 10000 5.7 180 17:41 12.02.2020
2741 Clouds 7 1020 65 10000 5.7 170 17:19 12.02.2020
2742 Clouds 7 1021 70 10000 6.2 190 16:57 12.02.2020
2743 Clouds 7 1021 65 10000 6.2 220 16:37 12.02.2020
2744 Clouds 7 1021 65 10000 6.2 220 16:18 12.02.2020
2745 Clouds 8 1021 61 10000 5.7 230 15:40 12.02.2020
2746 Clouds 8 1021 61 10000 5.7 230 15:20 12.02.2020
2747 Clouds 7 1021 61 10000 6.7 230 14:54 12.02.2020
2748 Clouds 7 1021 65 10000 7.7 240 14:36 12.02.2020
2749 Clouds 7 1021 65 10000 7.7 240 14:18 12.02.2020
2750 Clouds 7 1020 61 10000 8.7 230 13:55 12.02.2020
2751 Clouds 7 1020 97 10000 7.7 250 13:37 12.02.2020
2752 Clouds 7 1020 97 10000 7.7 250 13:18 12.02.2020
2753 Clouds 7 1021 61 10000 6.7 230 12:55 12.02.2020
2754 Clouds 7 1021 65 10000 7.7 220 12:36 12.02.2020
2755 Clouds 7 1021 65 10000 7.7 220 12:18 12.02.2020
2756 Clouds 6 1021 97 10000 6.7 230 11:42 12.02.2020
2757 Clouds 5 1021 65 10000 5.7 210 11:21 12.02.2020
2758 Clouds 5 1021 65 10000 4.6 210 10:59 12.02.2020
2759 Clouds 5 1021 65 10000 4.6 210 10:41 12.02.2020
2760 Clouds 5 1021 70 10000 4.6 190 10:21 12.02.2020
2761 Clouds 4 1021 75 10000 5.1 180 09:58 12.02.2020
2762 Rain 4 1021 93 10000 5.1 170 09:40 12.02.2020
2763 Rain 4 1021 93 10000 5.1 170 09:19 12.02.2020
2764 Rain 4 1021 80 10000 4.1 200 08:57 12.02.2020
2765 Rain 3 1021 80 10000 4.1 200 08:37 12.02.2020
2766 Clouds 3 1020 65 10000 3.6 170 08:19 12.02.2020
2767 Clouds 3 1020 94 10000 2.6 200 07:43 12.02.2020
2768 Clouds 3 1020 94 10000 2.6 200 07:23 12.02.2020
2769 Clouds 3 1020 69 10000 6.2 200 06:52 12.02.2020
2770 Clouds 4 1020 60 10000 3.1 190 06:20 12.02.2020
2771 Snow 3 1020 60 10000 4.6 220 05:36 12.02.2020
2772 Snow 3 1019 60 10000 3.1 190 04:57 12.02.2020
2773 Snow 4 1019 60 10000 3.1 190 04:39 12.02.2020
2774 Snow 4 1019 69 10000 1.5 180 03:32 12.02.2020
2775 Snow 3 1019 69 10000 1.5 140 02:58 12.02.2020
2776 Snow 3 1019 60 10000 5.1 230 02:28 12.02.2020
2777 Snow 3 1019 60 10000 5.1 230 02:28 12.02.2020
2778 Snow 3 1019 56 10000 5.1 250 01:49 12.02.2020
2779 Snow 3 1019 56 10000 5.7 260 00:45 12.02.2020
2780 Snow 4 1019 56 10000 6.2 260 00:26 12.02.2020
2781 Snow 4 1018 56 10000 6.2 260 23:56 11.02.2020
2782 Snow 4 1018 56 10000 6.2 260 23:38 11.02.2020
2783 Snow 4 1018 56 10000 6.7 260 23:20 11.02.2020
2784 Snow 4 1018 56 10000 7.7 260 22:55 11.02.2020
2785 Rain 4 1018 60 10000 7.7 260 22:37 11.02.2020
2786 Rain 4 1018 60 10000 7.7 260 22:18 11.02.2020
2787 Rain 3 1018 80 10000 5.1 230 21:55 11.02.2020
2788 Rain 4 1018 75 8000 4.6 270 21:37 11.02.2020
2789 Rain 4 1018 75 8000 4.6 270 21:18 11.02.2020
2790 Rain 4 1018 75 8000 4.6 270 21:18 11.02.2020
2791 Clouds 4 1017 56 10000 5.1 260 20:54 11.02.2020
2792 Snow 4 1017 56 10000 7.7 270 20:36 11.02.2020
2793 Snow 4 1017 56 10000 7.7 270 20:18 11.02.2020
2794 Rain 4 1017 70 10000 8.7 260 19:42 11.02.2020
2795 Snow 4 1016 93 10000 5.1 200 19:23 11.02.2020
2796 Snow 4 1015 93 10000 4.6 220 18:56 11.02.2020
2797 Snow 4 1015 93 10000 4.6 220 18:37 11.02.2020
2798 Snow 4 1015 93 10000 4.6 230 18:19 11.02.2020
2799 Snow 5 1015 56 10000 7.7 260 17:55 11.02.2020
2800 Snow 5 1015 49 10000 8.2 260 17:36 11.02.2020
2801 Snow 6 1015 49 10000 8.2 260 17:18 11.02.2020
2802 Snow 6 1015 52 10000 7.7 260 16:56 11.02.2020
2803 Snow 6 1015 52 10000 7.7 260 16:37 11.02.2020
2804 Snow 6 1015 88 10000 7.7 260 16:19 11.02.2020
2805 Clouds 6 1015 81 10000 3.1 300 15:44 11.02.2020
2806 Rain 5 1015 80 9000 7.2 290 15:26 11.02.2020
2807 Rain 6 1014 70 10000 7.2 220 14:57 11.02.2020
2808 Clouds 6 1014 61 10000 4.6 240 14:38 11.02.2020
2809 Clouds 6 1014 61 10000 4.6 240 14:18 11.02.2020
2810 Clouds 6 1014 70 10000 5.7 240 13:42 11.02.2020
2811 Clouds 6 1014 70 10000 5.7 240 13:21 11.02.2020
2812 Rain 6 1014 70 10000 5.1 230 12:58 11.02.2020
2813 Rain 6 1014 70 10000 5.1 230 12:40 11.02.2020
2814 Rain 6 1014 81 10000 5.7 200 12:20 11.02.2020
2815 Rain 6 1014 93 10000 5.1 180 11:55 11.02.2020
2816 Rain 5 1014 93 10000 5.1 180 11:36 11.02.2020
2817 Rain 5 1014 86 10000 4.1 220 11:18 11.02.2020
2818 Rain 5 1014 86 10000 3.1 170 10:39 11.02.2020
2819 Rain 5 1015 80 10000 1.5 230 10:20 11.02.2020
2820 Rain 5 1015 80 10000 5.7 250 09:57 11.02.2020
2821 Rain 5 1015 80 10000 5.7 250 09:38 11.02.2020
2822 Rain 5 1015 75 10000 7.2 220 09:20 11.02.2020
2823 Clouds 5 1014 94 10000 6.7 230 08:48 11.02.2020
2824 Clouds 5 1014 56 10000 7.7 250 08:24 11.02.2020
2825 Rain 5 1014 86 9000 5.1 300 07:49 11.02.2020
2826 Clouds 5 1012 65 10000 8.2 240 07:28 11.02.2020
2827 Rain 5 1013 70 9000 4.1 240 06:55 11.02.2020
2828 Rain 5 1013 70 9000 4.1 240 06:37 11.02.2020
2829 Drizzle 5 1012 70 10000 5.1 250 06:19 11.02.2020
2830 Rain 5 1012 97 10000 6.2 240 05:26 11.02.2020
2831 Rain 6 1012 96 10000 6.7 260 04:54 11.02.2020
2832 Rain 6 1011 65 10000 9.8 270 03:26 11.02.2020
2833 Rain 6 1009 75 7000 10.3 260 02:33 11.02.2020
2834 Rain 7 1009 65 10000 8.7 250 01:39 11.02.2020
2835 Rain 8 1007 76 9000 6.7 230 00:58 11.02.2020
2836 Rain 8 1006 66 10000 11.3 220 00:23 11.02.2020
2837 Rain 9 1006 76 10000 7.7 230 23:40 10.02.2020
2838 Rain 9 1006 76 10000 7.7 230 23:21 10.02.2020
2839 Rain 9 1007 76 9000 7.2 220 22:57 10.02.2020
2840 Rain 9 1007 81 7000 6.7 230 22:36 10.02.2020
2841 Rain 10 1007 81 7000 6.7 230 22:18 10.02.2020
2842 Rain 10 1007 71 7000 10.8 240 21:40 10.02.2020
2843 Rain 10 1007 58 10000 12.9 240 21:22 10.02.2020
2844 Rain 10 1006 62 9000 8.7 230 20:56 10.02.2020
2845 Rain 10 1006 62 9000 8.7 230 20:37 10.02.2020
2846 Clouds 10 1006 50 10000 11.8 230 20:19 10.02.2020
2847 Clouds 10 1007 58 10000 9.3 230 19:57 10.02.2020
2848 Rain 10 1008 54 10000 9.8 230 19:37 10.02.2020
2849 Rain 10 1008 54 10000 9.8 230 19:18 10.02.2020
2850 Rain 10 1008 54 10000 9.8 230 19:18 10.02.2020
2851 Clouds 10 1008 50 10000 9.3 210 18:56 10.02.2020
2852 Clouds 10 1008 50 10000 9.3 210 18:38 10.02.2020
2853 Rain 10 1008 92 10000 7.7 210 18:20 10.02.2020
2854 Rain 10 1009 43 10000 7.7 210 17:54 10.02.2020
2855 Rain 10 1009 43 10000 7.7 210 17:54 10.02.2020
2856 Rain 10 1010 37 10000 6.7 210 17:36 10.02.2020
2857 Rain 10 1010 37 10000 6.7 210 17:18 10.02.2020
2858 Rain 9 1011 64 10000 7.7 220 16:56 10.02.2020
2859 Rain 10 1012 50 10000 7.2 230 16:37 10.02.2020
2860 Rain 10 1012 50 10000 7.2 230 16:18 10.02.2020
2861 Rain 10 1012 64 10000 9.3 230 15:41 10.02.2020
2862 Rain 10 1012 46 10000 8.7 230 15:22 10.02.2020
2863 Rain 10 1013 50 10000 7.2 230 14:59 10.02.2020
2864 Rain 10 1013 50 10000 7.2 230 14:41 10.02.2020
2865 Clouds 10 1013 77 10000 10.3 230 14:19 10.02.2020
2866 Rain 10 1013 46 10000 8.2 230 13:56 10.02.2020
2867 Rain 10 1013 46 10000 9.8 260 13:38 10.02.2020
2868 Rain 10 1013 46 10000 9.8 260 13:18 10.02.2020
2869 Rain 10 1013 46 10000 9.8 260 13:18 10.02.2020
2870 Rain 9 1013 50 10000 8.7 250 12:44 10.02.2020
2871 Rain 9 1013 53 10000 10.3 260 12:25 10.02.2020
2872 Rain 9 1012 61 10000 9.8 250 11:55 10.02.2020
2873 Rain 8 1012 61 10000 9.8 250 11:37 10.02.2020
2874 Rain 9 1011 53 10000 11.8 260 11:19 10.02.2020
2875 Rain 10 1011 57 10000 10.8 250 10:46 10.02.2020
2876 Rain 10 1011 70 10000 9.8 290 10:26 10.02.2020
2877 Rain 10 1009 62 10000 7.2 280 09:45 10.02.2020
2878 Rain 10 1008 54 10000 13.9 250 09:26 10.02.2020
2879 Rain 10 1007 58 10000 11.8 250 08:56 10.02.2020
2880 Rain 10 1007 58 10000 11.8 250 08:37 10.02.2020
2881 Rain 12 1007 62 10000 10.8 260 08:18 10.02.2020
2882 Rain 12 1005 81 7000 4.6 220 07:47 10.02.2020
2883 Rain 12 1004 81 7000 7.2 210 07:26 10.02.2020
2884 Rain 13 1005 81 7000 6.7 260 06:19 10.02.2020
2885 Clouds 14 1003 67 10000 9.8 230 04:27 10.02.2020
2886 Rain 14 1004 67 8000 11.8 220 03:34 10.02.2020
2887 Clouds 14 1004 62 10000 8.7 230 02:54 10.02.2020
2888 Clouds 14 1004 62 10000 8.2 220 01:55 10.02.2020
2889 Drizzle 14 1005 58 10000 15.9 210 00:49 10.02.2020
2890 Rain 14 1005 54 10000 12.3 210 00:31 10.02.2020
2891 Clouds 14 1006 54 10000 12.3 200 23:57 09.02.2020
2892 Clouds 13 1006 54 10000 12.3 200 23:39 09.02.2020
2893 Clouds 12 1006 58 10000 10.3 190 23:19 09.02.2020
2894 Clouds 12 1008 51 10000 9.3 210 22:40 09.02.2020
2895 Clouds 13 1008 47 10000 10.8 190 22:21 09.02.2020
2896 Clouds 13 1009 47 10000 8.2 190 21:44 09.02.2020
2897 Clouds 13 1009 50 10000 10.3 180 21:25 09.02.2020
2898 Clouds 13 1010 47 10000 8.7 190 20:58 09.02.2020
2899 Clouds 13 1011 47 10000 7.7 190 20:40 09.02.2020
2900 Clouds 12 1011 47 10000 7.7 190 20:18 09.02.2020
2901 Clouds 12 1012 47 10000 7.7 170 19:40 09.02.2020
2902 Clouds 12 1012 47 10000 7.7 170 19:40 09.02.2020
2903 -273 0 0 0 0 0 19:21 09.02.2020
2904 Clouds 11 1012 47 10000 10.8 180 18:59 09.02.2020
2905 Clouds 11 1012 47 10000 10.8 180 18:40 09.02.2020
2906 Clouds 11 1012 50 10000 9.8 190 18:22 09.02.2020
2907 Clouds 11 1013 50 10000 8.2 180 17:43 09.02.2020
2908 Clouds 11 1013 50 10000 8.2 180 17:43 09.02.2020
2909 Clouds 12 1013 47 10000 8.7 200 17:23 09.02.2020
2910 Clouds 12 1014 47 10000 6.7 190 16:57 09.02.2020
2911 Clouds 12 1015 47 10000 6.2 190 16:38 09.02.2020
2912 Clouds 13 1015 47 10000 6.2 190 16:20 09.02.2020
2913 Clouds 13 1015 50 10000 4.6 190 15:56 09.02.2020
2914 Clouds 13 1015 50 10000 4.6 190 15:38 09.02.2020
2915 Clouds 13 1015 50 10000 5.7 200 15:20 09.02.2020
2916 Clouds 13 1016 50 10000 4.1 210 14:42 09.02.2020
2917 Clouds 13 1017 51 10000 5.7 190 14:23 09.02.2020
2918 Clouds 13 1017 47 10000 6.7 200 13:55 09.02.2020
2919 Clouds 13 1017 47 10000 6.7 200 13:37 09.02.2020
2920 Clouds 12 1019 54 10000 5.1 170 13:18 09.02.2020
2921 Clouds 12 1019 54 10000 5.1 170 12:42 09.02.2020
2922 Clouds 12 1019 54 10000 5.1 170 12:42 09.02.2020
2923 Clouds 11 1020 54 10000 6.7 180 12:20 09.02.2020
2924 Clouds 11 1021 57 10000 6.2 170 11:58 09.02.2020
2925 Clouds 10 1021 57 10000 6.2 170 11:39 09.02.2020
2926 Clouds 8 1021 61 10000 7.2 170 11:19 09.02.2020
2927 Clouds 7 1021 66 10000 8.2 170 10:43 09.02.2020
2928 Clouds 5 1021 70 10000 5.7 180 10:23 09.02.2020
2929 Clouds 6 1022 75 10000 5.1 180 09:57 09.02.2020
2930 Clouds 6 1022 75 10000 5.1 180 09:38 09.02.2020
2931 Clouds 5 1022 70 10000 5.1 170 09:19 09.02.2020
2932 Clouds 4 1023 75 10000 4.6 180 08:40 09.02.2020
2933 Clouds 2 1023 75 10000 5.1 180 08:22 09.02.2020
2934 Clouds 2 1023 80 10000 4.6 200 07:51 09.02.2020
2935 Clouds 2 1023 80 10000 3.1 220 07:26 09.02.2020
2936 Clouds 2 1023 80 10000 5.1 180 06:37 09.02.2020
2937 Clouds 2 1023 80 10000 5.1 180 05:55 09.02.2020
2938 Clouds 2 1023 75 10000 4.1 180 05:33 09.02.2020
2939 Clouds 2 1023 75 10000 4.1 180 04:49 09.02.2020
2940 Clouds 2 1023 87 10000 3.6 200 02:58 09.02.2020
2941 Clouds 2 1024 87 10000 2.6 210 02:38 09.02.2020
2942 Clouds 2 1024 79 10000 2.6 200 01:40 09.02.2020
2943 Clouds 3 1024 80 10000 2.1 220 01:19 09.02.2020
2944 Clouds 2 1024 78 10000 2.1 220 00:32 09.02.2020
2945 Clouds 2 1024 78 10000 2.1 220 23:55 08.02.2020
2946 Clouds 2 1024 86 10000 1.5 0 23:37 08.02.2020
2947 Clouds 2 1024 86 10000 1.5 0 23:18 08.02.2020
2948 Clouds 2 1024 63 10000 1.5 220 22:40 08.02.2020
2949 Clouds 3 1025 86 10000 0.5 0 22:21 08.02.2020
2950 Clouds 2 1024 63 10000 1 0 21:54 08.02.2020
2951 Clouds 3 1024 80 10000 1 0 21:36 08.02.2020
2952 Clouds 3 1024 80 10000 1 0 21:18 08.02.2020
2953 Clouds 3 1024 80 10000 1 0 20:54 08.02.2020
2954 Clouds 3 1024 75 10000 1.5 220 20:36 08.02.2020
2955 Clouds 4 1024 75 10000 1.5 220 20:18 08.02.2020
2956 Clouds 4 1024 70 10000 3.6 250 19:40 08.02.2020
2957 Clouds 4 1024 75 10000 2.6 260 19:20 08.02.2020
2958 Clouds 5 1023 70 10000 3.1 260 18:58 08.02.2020
2959 Clouds 5 1023 70 10000 3.1 260 18:39 08.02.2020
2960 Clouds 6 1023 70 10000 0.5 0 18:21 08.02.2020
2961 Clouds 6 1023 61 10000 1.5 270 17:42 08.02.2020
2962 Clouds 6 1023 61 10000 1.5 270 17:42 08.02.2020
2963 Clouds 8 1022 61 10000 1.5 330 17:21 08.02.2020
2964 Clouds 9 1022 53 10000 1 360 16:56 08.02.2020
2965 Clouds 9 1022 53 10000 1 0 16:37 08.02.2020
2966 Clouds 9 1022 53 10000 1 0 16:18 08.02.2020
2967 Clouds 10 1023 53 10000 1 0 15:40 08.02.2020
2968 Clouds 10 1023 53 10000 1 0 15:19 08.02.2020
2969 Clouds 10 1023 57 10000 1 0 14:55 08.02.2020
2970 Clouds 10 1023 57 10000 1.5 0 14:36 08.02.2020
2971 Clouds 10 1023 57 10000 1.5 0 14:18 08.02.2020
2972 Clouds 9 1024 61 10000 1.5 0 13:41 08.02.2020
2973 Clouds 8 1024 61 10000 1.5 0 13:23 08.02.2020
2974 Clouds 7 1024 63 10000 3.1 190 12:50 08.02.2020
2975 Clouds 7 1024 70 10000 0.5 0 12:25 08.02.2020
2976 Clouds 6 1024 75 10000 1 60 11:59 08.02.2020
2977 Clouds 6 1024 75 10000 1 60 11:40 08.02.2020
2978 Clouds 4 1024 80 10000 1 0 11:21 08.02.2020
2979 Clouds 3 1024 86 10000 0.5 0 10:43 08.02.2020
2980 Clouds 2 1024 65 10000 1.22 190 10:24 08.02.2020
2981 Clouds 1 1024 100 8000 1.22 190 09:55 08.02.2020
2982 Clouds 1 1024 92 10000 1 220 09:30 08.02.2020
2983 Mist 0 1024 92 5000 1 0 08:59 08.02.2020
2984 Clouds 0 1024 92 7000 1.22 190 08:39 08.02.2020
2985 Clouds -1 1024 92 7000 1.69 169 08:21 08.02.2020
2986 Clouds -1 1024 92 9000 1 0 07:50 08.02.2020
2987 Clouds -1 1024 100 9000 1 170 07:31 08.02.2020
2988 Clouds -1 1024 100 9000 0.5 0 06:33 08.02.2020
2989 Clouds -1 1024 100 6000 1.69 169 05:57 08.02.2020
2990 Clouds -1 1024 92 6000 1 0 05:32 08.02.2020
2991 Clouds -2 1024 100 7000 1 0 04:53 08.02.2020
2992 Clouds -2 1024 100 6000 1.77 176 04:18 08.02.2020
2993 Clouds -1 1024 100 9000 1.77 176 03:20 08.02.2020
2994 Mist -1 1024 92 5000 1 350 02:28 08.02.2020
2995 Mist -1 1024 100 5000 0.5 0 01:29 08.02.2020
2996 Clear -1 1024 92 6000 1.95 159 00:46 08.02.2020
2997 Mist -1 1024 100 5000 1.95 159 00:25 08.02.2020
2998 Mist -1 1024 100 5000 1 360 23:57 07.02.2020
2999 Mist -1 1024 100 5000 1 360 23:39 07.02.2020
3000 Mist -1 1024 100 5000 0.5 0 23:19 07.02.2020
3001 Clear -1 1024 92 6000 1 0 22:41 07.02.2020
3002 Clear -1 1024 92 6000 0.5 0 22:20 07.02.2020
3003 Clear 0 1024 100 8000 1 0 21:58 07.02.2020
3004 Clear -1 1024 100 8000 1 0 21:40 07.02.2020
3005 Clear 0 1024 100 7000 1 150 21:19 07.02.2020
3006 Fog 0 1024 100 750 1 0 20:39 07.02.2020
3007 Fog 0 1024 100 350 0.5 230 20:19 07.02.2020
3008 Fog 0 1025 100 400 2.2 134 19:55 07.02.2020
3009 Fog 1 1025 100 350 1 340 19:37 07.02.2020
3010 Fog 1 1025 100 350 1 340 19:18 07.02.2020
3011 Fog 2 1025 100 300 1.5 340 18:44 07.02.2020
3012 Fog 2 1025 100 300 1.5 340 18:44 07.02.2020
3013 Fog 2 1025 100 300 1.5 340 18:44 07.02.2020
3014 Fog 1 1025 100 900 2.6 350 18:25 07.02.2020
3015 Mist 2 1025 86 5000 2.1 350 17:55 07.02.2020
3016 Clear 3 1025 93 7000 2.6 10 17:37 07.02.2020
3017 Clear 5 1025 93 7000 2.6 10 17:19 07.02.2020
3018 Clear 6 1025 86 10000 2.1 30 16:45 07.02.2020
3019 Clear 6 1025 80 10000 2.1 50 16:23 07.02.2020
3020 Clear 6 1025 80 10000 2.1 50 15:55 07.02.2020
3021 Clear 6 1025 80 10000 2.1 50 15:28 07.02.2020
3022 Clear 6 1025 60 10000 1.5 0 14:56 07.02.2020
3023 Clear 7 1026 60 10000 1.5 70 14:38 07.02.2020
3024 Clear 6 1026 42 10000 1.5 70 14:19 07.02.2020
3025 Clear 5 1026 42 10000 2.1 50 13:57 07.02.2020
3026 Clear 5 1026 42 10000 2.1 60 13:38 07.02.2020
3027 Clear 5 1026 42 10000 2.1 60 13:20 07.02.2020
3028 Clear 6 1027 43 10000 1.5 70 12:42 07.02.2020
3029 Clear 5 1027 43 10000 1.5 70 12:23 07.02.2020
3030 Clear 5 1027 43 10000 1.5 70 12:23 07.02.2020
3031 Clear 4 1028 43 10000 2.1 60 11:45 07.02.2020
3032 Clear 2 1028 74 10000 1 0 11:24 07.02.2020
3033 Clear 1 1028 80 10000 0.5 0 10:59 07.02.2020
3034 Clear 1 1028 80 10000 0.5 0 10:39 07.02.2020
3035 Clear 0 1028 44 10000 1 40 10:20 07.02.2020
3036 Clear 0 1028 92 10000 1.5 70 09:45 07.02.2020
3037 Clear -1 1028 80 10000 0.77 110 09:25 07.02.2020
3038 Clear -2 1028 86 10000 0.5 0 08:57 07.02.2020
3039 Clear -2 1028 86 10000 0.5 0 08:37 07.02.2020
3040 Clear -3 1028 86 10000 1 270 08:19 07.02.2020
3041 Clear -3 1028 92 10000 1 0 07:40 07.02.2020
3042 Clear -3 1028 86 10000 1.62 127 07:19 07.02.2020
3043 Clear -3 1028 92 10000 0.5 170 06:43 07.02.2020
3044 Clear -3 1029 92 10000 0.5 0 06:22 07.02.2020
3045 Clear -3 1029 92 10000 0.5 0 05:43 07.02.2020
3046 Clear -2 1029 92 10000 0.5 0 03:57 07.02.2020
3047 Clear -2 1029 80 10000 1.77 126 02:30 07.02.2020
3048 Clear -2 1029 80 10000 1.5 0 01:34 07.02.2020
3049 Clear -1 1029 69 10000 3.1 280 00:38 07.02.2020
3050 Clear -1 1029 64 10000 2.6 280 23:56 06.02.2020
3051 Clear -1 1029 64 10000 2.6 280 23:36 06.02.2020
3052 Clear 0 1030 59 10000 3.1 280 23:18 06.02.2020
3053 Clear 0 1030 64 10000 4.1 270 22:42 06.02.2020
3054 Clear 0 1030 64 10000 3.6 270 22:23 06.02.2020
3055 Clear 0 1030 64 10000 3.1 270 21:37 06.02.2020
3056 Clear 0 1030 64 10000 3.1 270 21:19 06.02.2020
3057 Clear 0 1030 64 10000 3.6 270 20:56 06.02.2020
3058 Clear 1 1030 64 10000 3.1 270 20:37 06.02.2020
3059 Clear 1 1030 64 10000 3.1 270 20:18 06.02.2020
3060 Clear 1 1030 64 10000 3.6 270 19:58 06.02.2020
3061 Clear 1 1030 64 10000 3.6 270 19:39 06.02.2020
3062 Clear 2 1030 69 10000 3.6 280 19:20 06.02.2020
3063 Clear 2 1031 69 10000 1.5 320 18:57 06.02.2020
3064 Clear 2 1031 69 10000 1.5 320 18:38 06.02.2020
3065 Clear 3 1030 69 10000 2.6 350 18:19 06.02.2020
3066 Clear 3 1030 65 10000 1.5 0 17:42 06.02.2020
3067 Clear 6 1030 52 10000 1.5 0 17:21 06.02.2020
3068 Clear 6 1030 48 10000 1.5 0 16:57 06.02.2020
3069 Clear 6 1030 48 10000 1.5 0 16:39 06.02.2020
3070 Clear 7 1029 42 10000 2.6 30 16:20 06.02.2020
3071 Clear 7 1030 42 10000 2.1 350 15:42 06.02.2020
3072 Clear 7 1030 45 10000 2.6 10 15:21 06.02.2020
3073 Clear 7 1030 52 10000 2.1 70 14:48 06.02.2020
3074 Clear 7 1030 56 10000 2.6 60 14:27 06.02.2020
3075 Clouds 6 1030 52 10000 3.1 40 13:55 06.02.2020
3076 Clouds 6 1030 52 10000 3.1 40 13:37 06.02.2020
3077 Clouds 5 1031 60 10000 2.1 40 13:19 06.02.2020
3078 Clouds 6 1031 35 10000 1.5 0 12:43 06.02.2020
3079 Clouds 5 1032 69 10000 1.5 0 12:19 06.02.2020
3080 Clouds 5 1032 35 10000 1.5 0 11:56 06.02.2020
3081 Clouds 4 1032 35 10000 1.5 0 11:38 06.02.2020
3082 Clouds 3 1032 69 10000 0.5 0 11:18 06.02.2020
3083 Clouds 2 1032 74 10000 1 0 10:56 06.02.2020
3084 Clouds 1 1032 80 10000 1.5 180 10:38 06.02.2020
3085 Clouds 2 1032 80 10000 1.5 180 10:18 06.02.2020
3086 Clouds 0 1032 86 10000 1.5 190 09:55 06.02.2020
3087 Clouds -1 1032 92 10000 1.5 200 09:36 06.02.2020
3088 Clouds -1 1032 92 10000 1.5 200 09:18 06.02.2020
3089 Clouds -1 1032 86 10000 1.5 180 08:40 06.02.2020
3090 Clouds -2 1032 92 10000 1 0 08:20 06.02.2020
3091 Clouds -2 1032 100 10000 1 360 07:46 06.02.2020
3092 Clouds -2 1032 100 10000 2.17 116 07:24 06.02.2020
3093 Clouds -3 1033 86 10000 2.17 116 06:21 06.02.2020
3094 Clouds -3 1033 86 10000 2.17 116 06:21 06.02.2020
3095 Clouds -3 1033 49 10000 0.5 0 05:48 06.02.2020
3096 Clouds -2 1034 92 10000 1.5 350 04:22 06.02.2020
3097 Clouds -2 1034 92 10000 2.24 112 03:19 06.02.2020
3098 Clouds -2 1034 62 10000 1.5 300 02:28 06.02.2020
3099 Clear -1 1035 80 10000 3.1 270 01:35 06.02.2020
3100 Clear -1 1035 80 10000 3.1 280 00:58 06.02.2020
3101 Clear -1 1035 80 10000 3.6 270 00:26 06.02.2020
3102 Clear -1 1035 80 10000 3.1 290 23:46 05.02.2020
3103 Clear 0 1036 86 10000 3.6 280 23:28 05.02.2020
3104 Clear 0 1036 80 10000 3.6 280 22:58 05.02.2020
3105 Clear 0 1036 80 10000 3.6 280 22:40 05.02.2020
3106 Clear 0 1036 86 10000 3.6 270 22:21 05.02.2020
3107 Clear 0 1036 86 10000 3.6 270 22:21 05.02.2020
3108 Clear 0 1036 80 10000 3.6 270 21:43 05.02.2020
3109 Clear 0 1036 80 10000 4.1 270 21:24 05.02.2020
3110 Clear 0 1036 80 10000 3.6 270 20:59 05.02.2020
3111 Clear 1 1036 81 10000 2.6 280 20:39 05.02.2020
3112 Clear 1 1036 80 10000 3.6 270 20:39 05.02.2020
3113 Clouds 1 1036 87 10000 2.6 280 20:19 05.02.2020
3114 Clouds 1 1036 85 10000 3.1 270 19:57 05.02.2020
3115 Clouds 1 1036 85 10000 3.1 270 19:38 05.02.2020
3116 Clouds 2 1036 85 10000 2.6 280 19:19 05.02.2020
3117 Clouds 2 1036 85 10000 2.6 280 19:19 05.02.2020
3118 Clouds 2 1036 85 10000 2.6 280 19:19 05.02.2020
3119 Clouds 2 1036 74 10000 2.1 290 18:45 05.02.2020
3120 Clouds 2 1036 85 10000 1 70 18:22 05.02.2020
3121 Clouds 3 1036 85 10000 1 0 17:59 05.02.2020
3122 Clouds 4 1035 56 10000 1 0 17:37 05.02.2020
3123 Clouds 5 1035 56 10000 1 0 17:18 05.02.2020
3124 Clouds 5 1035 56 10000 1.5 0 16:56 05.02.2020
3125 Clouds 5 1036 52 10000 2.1 100 16:37 05.02.2020
3126 Clouds 6 1036 52 10000 2.1 100 16:18 05.02.2020
3127 Clouds 7 1036 52 10000 1 0 15:42 05.02.2020
3128 Clouds 7 1036 52 10000 1 0 15:19 05.02.2020
3129 Clouds 7 1036 52 10000 0.5 0 14:56 05.02.2020
3130 Clouds 7 1036 56 10000 2.1 80 14:37 05.02.2020
3131 Clouds 7 1036 56 10000 2.1 80 14:19 05.02.2020
3132 Clouds 7 1036 52 10000 1.5 120 13:42 05.02.2020
3133 Clouds 7 1035 79 10000 1 0 13:22 05.02.2020
3134 Clouds 6 1035 56 10000 2.6 80 12:54 05.02.2020
3135 Clouds 6 1035 56 10000 3.1 40 12:36 05.02.2020
3136 Clouds 6 1035 56 10000 3.1 40 12:18 05.02.2020
3137 Clouds 5 1034 56 10000 4.1 360 11:41 05.02.2020
3138 Clouds 5 1034 60 10000 3.1 10 11:22 05.02.2020
3139 Clouds 4 1034 70 10000 1 0 10:44 05.02.2020
3140 Clouds 4 1034 80 10000 1 0 10:26 05.02.2020
3141 Clouds 4 1034 85 10000 1.5 260 09:59 05.02.2020
3142 Clouds 4 1033 86 10000 2.6 290 09:39 05.02.2020
3143 Clouds 3 1033 86 10000 2.6 290 09:39 05.02.2020
3144 Clouds 4 1033 86 10000 2.6 290 09:21 05.02.2020
3145 Clouds 3 1033 93 10000 1 0 08:48 05.02.2020
3146 Clouds 3 1032 93 10000 1.5 360 08:25 05.02.2020
3147 Clouds 3 1031 93 10000 1 350 07:57 05.02.2020
3148 Clouds 3 1031 93 10000 1 350 07:39 05.02.2020
3149 Clouds 2 1031 93 10000 1 250 07:18 05.02.2020
3150 Rain 3 1031 93 10000 3.03 331 06:39 05.02.2020
3151 Rain 3 1030 86 10000 1.5 20 06:20 05.02.2020
3152 Clouds 3 1030 98 10000 1.5 360 05:20 05.02.2020
3153 Snow 3 1029 98 10000 0.5 0 04:58 05.02.2020
3154 Rain 3 1029 93 10000 1.5 0 04:22 05.02.2020
3155 Rain 3 1028 86 10000 1.5 0 02:52 05.02.2020
3156 Rain 3 1027 86 10000 1.5 0 02:21 05.02.2020
3157 Rain 3 1026 86 10000 2.1 110 01:28 05.02.2020
3158 Rain 3 1025 86 10000 1.5 60 00:24 05.02.2020
3159 Rain 3 1025 80 10000 1.5 0 23:40 04.02.2020
3160 Rain 3 1025 80 10000 1.5 0 23:21 04.02.2020
3161 Rain 3 1024 70 10000 3.1 250 22:57 04.02.2020
3162 Rain 3 1024 70 10000 3.1 250 22:39 04.02.2020
3163 Rain 3 1024 70 10000 4.6 260 22:20 04.02.2020
3164 Rain 3 1024 70 10000 4.6 260 22:20 04.02.2020
3165 Rain 3 1023 75 10000 3.6 260 21:56 04.02.2020
3166 Rain 3 1023 75 10000 4.6 250 21:37 04.02.2020
3167 Rain 3 1023 75 10000 4.6 250 21:18 04.02.2020
3168 Rain 3 1023 75 10000 4.6 250 21:18 04.02.2020
3169 Rain 3 1023 98 10000 4.1 260 20:55 04.02.2020
3170 Clouds 3 1023 75 10000 1 0 20:37 04.02.2020
3171 Clouds 3 1023 75 10000 1 0 20:18 04.02.2020
3172 Clouds 3 1023 75 10000 2.1 200 19:43 04.02.2020
3173 Rain 3 1023 94 10000 4.1 290 19:24 04.02.2020
3174 Clouds 3 1022 60 10000 2.6 140 18:59 04.02.2020
3175 Rain 3 1022 60 10000 2.6 140 18:39 04.02.2020
3176 Rain 3 1021 94 10000 2.6 110 18:21 04.02.2020
3177 Rain 3 1021 60 10000 4.1 300 17:56 04.02.2020
3178 Rain 3 1020 94 10000 4.6 300 17:38 04.02.2020
3179 Rain 3 1020 83 10000 4.6 300 17:19 04.02.2020
3180 Rain 4 1020 83 10000 2.6 0 16:39 04.02.2020
3181 Rain 4 1019 60 10000 3.6 280 16:20 04.02.2020
3182 Rain 4 1019 60 10000 6.7 300 15:57 04.02.2020
3183 Rain 3 1018 83 10000 5.1 310 15:39 04.02.2020
3184 Rain 4 1018 83 10000 5.1 310 15:20 04.02.2020
3185 Clouds 4 1018 70 10000 5.1 300 14:55 04.02.2020
3186 Rain 4 1017 70 10000 3.6 280 14:37 04.02.2020
3187 Rain 4 1017 70 10000 3.6 280 14:18 04.02.2020
3188 Rain 4 1017 80 10000 2.6 350 13:41 04.02.2020
3189 Rain 5 1017 80 10000 2.6 350 13:23 04.02.2020
3190 Rain 5 1018 89 10000 4.1 270 12:57 04.02.2020
3191 Snow 4 1018 89 10000 4.1 270 12:38 04.02.2020
3192 Rain 4 1018 60 10000 3.6 270 12:19 04.02.2020
3193 Rain 4 1018 89 10000 4.6 0 11:55 04.02.2020
3194 Rain 4 1019 80 10000 8.2 260 11:37 04.02.2020
3195 Rain 4 1018 80 10000 3.6 190 11:18 04.02.2020
3196 Rain 4 1018 75 10000 5.7 280 10:44 04.02.2020
3197 Clouds 4 1017 60 10000 2.1 200 10:25 04.02.2020
3198 Rain 4 1017 86 10000 2.6 0 09:57 04.02.2020
3199 Rain 4 1018 60 10000 2.6 0 09:38 04.02.2020
3200 Rain 4 1018 60 10000 2.6 0 09:19 04.02.2020
3201 Rain 4 1018 86 10000 3.1 0 08:45 04.02.2020
3202 Rain 4 1017 75 10000 3.6 0 08:26 04.02.2020
3203 Snow 5 1016 60 10000 4.6 290 07:50 04.02.2020
3204 Rain 4 1015 97 10000 6.2 260 07:24 04.02.2020
3205 Rain 4 1015 97 10000 6.2 260 07:24 04.02.2020
3206 Rain 4 1015 70 10000 7.2 280 06:53 04.02.2020
3207 Rain 5 1015 81 10000 5.7 270 06:34 04.02.2020
3208 Rain 5 1014 70 10000 2.6 0 05:33 04.02.2020
3209 Rain 7 1010 75 9000 5.7 290 04:27 04.02.2020
3210 Rain 8 1009 75 8000 6.7 300 03:46 04.02.2020
3211 Rain 8 1007 81 9000 8.2 290 03:27 04.02.2020
3212 Rain 11 1004 62 10000 12.9 220 02:37 04.02.2020
3213 Rain 12 1005 62 10000 11.8 220 01:58 04.02.2020
3214 Rain 12 1007 67 10000 12.9 220 01:39 04.02.2020
3215 Rain 14 1007 71 8000 12.3 220 00:52 04.02.2020
3216 Rain 14 1007 51 10000 13.4 220 00:23 04.02.2020
3217 Clouds 14 1008 59 10000 12.3 230 23:48 03.02.2020
3218 Clouds 14 1009 55 10000 12.9 230 23:28 03.02.2020
3219 Rain 13 1010 55 10000 11.8 230 22:58 03.02.2020
3220 Rain 13 1010 55 10000 11.8 230 22:38 03.02.2020
3221 Rain 12 1011 76 10000 6.7 200 22:19 03.02.2020
3222 Rain 12 1012 82 10000 5.7 190 21:41 03.02.2020
3223 Rain 12 1013 87 10000 3.1 200 21:20 03.02.2020
3224 Rain 11 1014 87 10000 3.6 220 20:55 03.02.2020
3225 Rain 12 1015 93 10000 5.7 190 20:37 03.02.2020
3226 Rain 11 1015 93 10000 5.7 190 20:18 03.02.2020
3227 Rain 11 1015 100 8000 1 200 19:41 03.02.2020
3228 Rain 11 1016 93 10000 0.5 0 19:22 03.02.2020
3229 Clouds 10 1017 93 10000 1.5 0 18:57 03.02.2020
3230 Clouds 10 1017 93 10000 1.5 0 18:39 03.02.2020
3231 Clouds 11 1018 93 10000 1 0 18:21 03.02.2020
3232 Rain 10 1018 93 10000 1.5 0 17:57 03.02.2020
3233 Rain 11 1018 93 10000 1.5 0 17:57 03.02.2020
3234 Rain 10 1018 93 10000 1.5 0 17:38 03.02.2020
3235 Drizzle 10 1019 93 10000 2.6 140 17:19 03.02.2020
3236 Drizzle 10 1019 93 10000 4.1 160 16:40 03.02.2020
3237 Rain 10 1019 93 10000 3.1 120 16:21 03.02.2020
3238 Rain 10 1020 87 10000 2.6 160 15:57 03.02.2020
3239 Rain 10 1020 93 10000 2.1 150 15:39 03.02.2020
3240 Rain 10 1020 93 10000 2.1 150 15:20 03.02.2020
3241 Rain 10 1020 100 7000 2.6 140 14:57 03.02.2020
3242 Rain 10 1020 100 7000 2.6 140 14:38 03.02.2020
3243 Rain 10 1020 87 10000 3.6 220 14:19 03.02.2020
3244 Rain 10 1020 93 10000 2.1 160 13:42 03.02.2020
3245 Rain 10 1020 87 10000 2.1 100 13:21 03.02.2020
3246 Rain 10 1020 87 10000 2.6 130 12:58 03.02.2020
3247 Rain 10 1020 87 10000 2.6 130 12:39 03.02.2020
3248 Rain 10 1020 81 10000 1.5 0 12:21 03.02.2020
3249 Rain 10 1020 87 10000 1.5 0 11:56 03.02.2020
3250 Rain 10 1020 93 10000 0.5 0 11:37 03.02.2020
3251 Rain 10 1020 93 10000 0.5 0 11:18 03.02.2020
3252 Rain 10 1019 93 10000 1.5 70 10:41 03.02.2020
3253 Rain 11 1019 93 10000 1.5 70 10:22 03.02.2020
3254 Rain 11 1019 93 9000 1.5 0 09:48 03.02.2020
3255 Rain 11 1019 93 9000 1.5 0 09:48 03.02.2020
3256 Rain 11 1018 93 7000 2.6 30 09:24 03.02.2020
3257 Rain 11 1018 100 7000 4.1 30 08:57 03.02.2020
3258 Rain 11 1018 100 7000 4.1 30 08:39 03.02.2020
3259 Rain 11 1017 82 10000 1.5 120 08:21 03.02.2020
3260 Rain 12 1017 82 10000 2.6 170 07:41 03.02.2020
3261 Rain 12 1017 82 10000 3.1 190 07:21 03.02.2020
3262 Rain 11 1016 82 9000 5.1 190 06:51 03.02.2020
3263 Rain 11 1016 82 10000 5.7 190 06:30 03.02.2020
3264 Rain 12 1016 82 10000 6.2 180 05:48 03.02.2020
3265 Rain 12 1016 82 10000 5.7 170 05:30 03.02.2020
3266 Rain 12 1016 82 10000 5.7 170 04:35 03.02.2020
3267 Rain 12 1016 76 10000 8.7 200 02:38 03.02.2020
3268 Rain 12 1016 76 10000 8.7 200 02:38 03.02.2020
3269 Rain 12 1016 76 10000 7.2 200 02:18 03.02.2020
3270 Clouds 13 1015 87 10000 5.1 160 00:48 03.02.2020
3271 Rain 13 1015 87 9000 5.1 170 00:25 03.02.2020
3272 Rain 13 1015 87 10000 5.7 180 23:55 02.02.2020
3273 Rain 12 1015 87 10000 5.1 170 23:36 02.02.2020
3274 Rain 12 1015 87 10000 5.1 170 23:18 02.02.2020
3275 Rain 13 1015 87 10000 5.1 170 22:39 02.02.2020
3276 Rain 13 1016 87 10000 4.1 170 22:21 02.02.2020
3277 Drizzle 13 1015 87 10000 5.1 160 21:57 02.02.2020
3278 Drizzle 13 1015 87 10000 5.1 160 21:38 02.02.2020
3279 Rain 13 1016 82 10000 3.6 150 21:20 02.02.2020
3280 Rain 13 1016 82 9000 3.6 190 20:57 02.02.2020
3281 Rain 13 1016 82 9000 3.6 190 20:39 02.02.2020
3282 Rain 13 1016 77 10000 3.6 180 20:20 02.02.2020
3283 Rain 13 1016 77 10000 3.6 180 20:20 02.02.2020
3284 Rain 13 1015 77 10000 4.1 200 19:57 02.02.2020
3285 Rain 13 1015 77 10000 4.1 200 19:38 02.02.2020
3286 Rain 13 1015 77 10000 5.7 180 19:20 02.02.2020
3287 Clouds 13 1015 72 10000 5.7 180 18:55 02.02.2020
3288 Clouds 14 1015 72 10000 5.7 180 18:36 02.02.2020
3289 Clouds 14 1015 72 10000 5.7 180 18:36 02.02.2020
3290 Rain 14 1015 72 10000 5.1 180 18:18 02.02.2020
3291 Rain 13 1014 72 10000 5.7 190 17:56 02.02.2020
3292 Rain 13 1014 72 10000 5.7 190 17:37 02.02.2020
3293 Rain 14 1014 72 10000 5.7 180 17:18 02.02.2020
3294 Rain 14 1014 67 10000 6.2 170 16:56 02.02.2020
3295 Rain 14 1014 67 10000 6.2 170 16:37 02.02.2020
3296 Rain 14 1013 72 10000 5.7 160 16:18 02.02.2020
3297 Clouds 14 1013 72 10000 6.2 180 15:54 02.02.2020
3298 Clouds 14 1012 72 10000 5.1 180 15:36 02.02.2020
3299 Clouds 14 1012 72 10000 5.1 180 15:18 02.02.2020
3300 Clouds 13 1012 72 10000 5.7 170 14:41 02.02.2020
3301 Clouds 13 1012 72 10000 5.7 170 14:19 02.02.2020
3302 Clouds 13 1012 77 10000 5.1 170 13:58 02.02.2020
3303 Clouds 13 1012 77 10000 5.1 170 13:39 02.02.2020
3304 Clouds 12 1012 77 10000 7.7 160 13:20 02.02.2020
3305 Clouds 12 1012 82 10000 8.2 170 12:56 02.02.2020
3306 Clouds 12 1012 82 10000 8.2 170 12:37 02.02.2020
3307 Rain 11 1013 93 10000 7.7 180 12:18 02.02.2020
3308 Rain 11 1013 87 10000 7.2 180 11:41 02.02.2020
3309 Rain 11 1013 87 10000 6.2 180 11:19 02.02.2020
3310 Rain 11 1013 87 10000 7.7 180 10:57 02.02.2020
3311 Rain 10 1013 87 10000 7.2 180 10:38 02.02.2020
3312 Rain 10 1013 87 10000 7.2 180 10:20 02.02.2020
3313 Rain 10 1014 87 10000 6.2 190 09:57 02.02.2020
3314 Rain 10 1014 87 10000 6.2 190 09:39 02.02.2020
3315 Rain 10 1014 87 10000 6.2 190 09:39 02.02.2020
3316 Rain 10 1015 93 10000 5.7 180 09:20 02.02.2020
3317 Rain 10 1015 87 10000 6.2 180 08:44 02.02.2020
3318 Drizzle 9 1015 93 10000 6.2 180 08:25 02.02.2020
3319 Clouds 10 1015 93 10000 6.7 180 07:47 02.02.2020
3320 Drizzle 10 1016 93 10000 6.2 190 07:29 02.02.2020
3321 Rain 10 1016 93 10000 7.7 180 06:46 02.02.2020
3322 Rain 10 1016 93 10000 6.7 180 06:28 02.02.2020
3323 Clouds 9 1016 93 10000 6.7 180 05:52 02.02.2020
3324 Clouds 10 1017 93 10000 6.2 190 04:58 02.02.2020
3325 Clouds 10 1017 93 10000 6.2 190 04:58 02.02.2020
3326 Rain 10 1018 81 10000 7.2 190 03:40 02.02.2020
3327 Rain 10 1018 87 10000 5.1 200 02:42 02.02.2020
3328 Rain 10 1017 76 10000 5.7 200 01:57 02.02.2020
3329 Rain 10 1017 76 10000 6.7 180 01:36 02.02.2020
3330 Clouds 10 1017 76 10000 5.7 180 00:49 02.02.2020
3331 Rain 10 1016 71 10000 5.7 190 00:24 02.02.2020
3332 Clouds 11 1016 66 10000 5.1 220 23:55 01.02.2020
3333 Clouds 11 1016 71 10000 4.6 230 23:36 01.02.2020
3334 Clouds 11 1016 71 10000 4.6 230 23:18 01.02.2020
3335 Clouds 11 1016 62 10000 4.1 230 22:42 01.02.2020
3336 Rain 11 1016 62 10000 5.1 220 22:18 01.02.2020
3337 Clouds 11 1015 66 10000 4.1 210 21:40 01.02.2020
3338 Clouds 11 1015 71 10000 4.1 190 21:19 01.02.2020
3339 Rain 11 1015 76 10000 4.1 190 20:55 01.02.2020
3340 Rain 11 1014 76 10000 4.6 220 20:36 01.02.2020
3341 Rain 11 1014 76 10000 4.6 220 20:18 01.02.2020
3342 Rain 11 1014 71 10000 3.1 210 19:54 01.02.2020
3343 Rain 11 1013 62 10000 2.6 0 19:36 01.02.2020
3344 Rain 11 1013 62 10000 2.6 0 19:18 01.02.2020
3345 Rain 11 1013 62 10000 3.1 0 18:55 01.02.2020
3346 Clouds 11 1013 62 10000 6.7 260 18:36 01.02.2020
3347 Clouds 11 1013 62 10000 6.7 260 18:18 01.02.2020
3348 Clouds 11 1012 76 10000 5.1 220 17:45 01.02.2020
3349 Clouds 12 1011 87 10000 4.6 180 17:21 01.02.2020
3350 Clouds 12 1011 93 10000 5.7 180 16:59 01.02.2020
3351 Rain 12 1011 93 10000 5.7 180 16:39 01.02.2020
3352 Rain 12 1011 93 10000 5.1 180 16:20 01.02.2020
3353 Rain 12 1011 93 10000 4.6 190 15:46 01.02.2020
3354 Rain 12 1011 76 10000 4.6 200 15:27 01.02.2020
3355 Rain 12 1010 71 10000 3.6 200 14:58 01.02.2020
3356 Rain 12 1010 67 10000 4.1 230 14:39 01.02.2020
3357 Rain 13 1010 67 10000 4.1 230 14:20 01.02.2020
3358 Rain 14 1010 71 10000 5.1 220 13:45 01.02.2020
3359 Clouds 13 1011 71 10000 6.7 220 13:22 01.02.2020
3360 Clouds 13 1011 71 10000 6.7 220 13:22 01.02.2020
3361 Clouds 13 1011 71 10000 6.7 220 12:46 01.02.2020
3362 Clouds 13 1011 62 10000 6.7 220 12:28 01.02.2020
3363 Clouds 13 1011 67 10000 3.6 210 11:58 01.02.2020
3364 Clouds 13 1011 67 10000 3.6 210 11:38 01.02.2020
3365 Clouds 12 1010 71 10000 4.1 170 11:19 01.02.2020
3366 Clouds 12 1010 76 10000 4.6 180 10:57 01.02.2020
3367 Clouds 11 1010 76 10000 2.1 190 10:38 01.02.2020
3368 Clouds 11 1010 76 10000 2.1 190 10:20 01.02.2020
3369 Clouds 11 1010 81 10000 2.1 140 09:57 01.02.2020
3370 Clouds 11 1010 81 10000 2.1 140 09:38 01.02.2020
3371 Clouds 10 1011 81 10000 3.1 140 09:19 01.02.2020
3372 Clouds 10 1011 81 10000 3.1 130 08:41 01.02.2020
3373 Clouds 9 1011 87 10000 2.1 170 07:48 01.02.2020
3374 Clouds 9 1011 87 10000 2.6 180 07:26 01.02.2020
3375 Clouds 10 1011 87 10000 2.6 190 06:55 01.02.2020
3376 Clouds 10 1011 87 10000 2.6 190 06:55 01.02.2020
3377 Clouds 10 1012 93 10000 1.5 180 06:32 01.02.2020
3378 Clouds 10 1012 93 10000 3.6 190 05:52 01.02.2020
3379 Clouds 11 1013 87 10000 3.6 200 03:53 01.02.2020
3380 Clouds 11 1013 87 10000 3.6 170 03:21 01.02.2020
3381 Clouds 11 1014 81 10000 2.1 160 02:46 01.02.2020
3382 Clouds 11 1014 87 10000 3.1 160 02:26 01.02.2020
3383 Clouds 11 1014 93 10000 4.1 200 01:54 01.02.2020
3384 Clouds 11 1014 93 10000 4.6 190 01:31 01.02.2020
3385 Clouds 11 1015 93 10000 5.1 170 00:30 01.02.2020
3386 Clouds 11 1015 87 10000 3.6 170 23:43 31.01.2020
3387 Clouds 11 1015 93 10000 4.1 170 23:20 31.01.2020
3388 Clouds 11 1015 93 10000 4.6 180 22:59 31.01.2020
3389 Clouds 11 1015 93 10000 4.6 180 22:41 31.01.2020
3390 Clouds 11 1015 87 10000 4.1 190 22:22 31.01.2020
3391 Clouds 11 1016 87 10000 3.6 200 21:59 31.01.2020
3392 Clouds 11 1016 87 10000 3.6 200 21:39 31.01.2020
3393 Clouds 11 1016 81 10000 3.1 140 21:20 31.01.2020
3394 Clouds 11 1016 81 10000 3.1 170 20:57 31.01.2020
3395 Clouds 11 1016 81 10000 2.1 180 20:38 31.01.2020
3396 Clouds 11 1016 81 10000 2.1 180 20:20 31.01.2020
3397 Clouds 12 1016 76 10000 2.6 0 19:56 31.01.2020
3398 Clouds 12 1016 76 10000 2.6 0 19:38 31.01.2020
3399 Clouds 12 1016 67 10000 4.6 220 19:19 31.01.2020
3400 Clouds 12 1016 67 10000 4.6 220 18:45 31.01.2020
3401 Clouds 12 1016 67 10000 4.1 230 18:27 31.01.2020
3402 Clouds 12 1015 71 10000 4.1 250 17:56 31.01.2020
3403 Clouds 12 1015 71 10000 4.1 250 17:38 31.01.2020
3404 Clouds 13 1016 71 10000 6.2 230 17:19 31.01.2020
3405 Clouds 13 1016 67 10000 4.1 240 16:56 31.01.2020
3406 Clouds 13 1016 67 10000 4.1 240 16:37 31.01.2020
3407 Clouds 13 1016 67 10000 4.1 240 16:18 31.01.2020
3408 Clouds 13 1016 67 10000 5.1 220 15:55 31.01.2020
3409 Clouds 13 1015 67 10000 5.7 240 15:37 31.01.2020
3410 Clouds 13 1015 67 10000 5.7 240 15:19 31.01.2020
3411 Clouds 13 1015 63 10000 5.1 230 14:42 31.01.2020
3412 Clouds 13 1015 63 10000 5.1 220 14:20 31.01.2020
3413 Clouds 13 1017 77 10000 5.7 240 13:50 31.01.2020
3414 Clouds 13 1017 77 10000 7.7 250 13:32 31.01.2020
3415 Clouds 13 1016 63 10000 5.1 210 12:56 31.01.2020
3416 Clouds 13 1016 63 10000 5.1 210 12:56 31.01.2020
3417 Clouds 13 1016 67 10000 5.1 200 12:38 31.01.2020
3418 Clouds 13 1017 77 10000 8.2 250 12:38 31.01.2020
3419 Clouds 13 1016 67 10000 5.1 200 12:20 31.01.2020
3420 Clouds 13 1017 76 10000 4.1 250 11:42 31.01.2020
3421 Clouds 12 1016 72 10000 4.1 170 11:23 31.01.2020
3422 Clouds 12 1016 76 10000 4.1 190 10:58 31.01.2020
3423 Clouds 12 1016 76 10000 4.1 190 10:58 31.01.2020
3424 Clouds 12 1016 76 10000 4.1 190 10:39 31.01.2020
3425 Clouds 11 1016 82 10000 6.2 180 10:20 31.01.2020
3426 Clouds 11 1015 87 10000 6.7 180 09:56 31.01.2020
3427 Clouds 11 1015 87 10000 6.7 180 09:38 31.01.2020
3428 Clouds 11 1015 87 10000 6.7 180 09:38 31.01.2020
3429 Clouds 11 1015 87 10000 6.7 170 09:18 31.01.2020
3430 Clouds 11 1015 87 10000 6.7 180 08:50 31.01.2020
3431 Clouds 11 1014 87 10000 6.2 180 08:25 31.01.2020
3432 Clouds 11 1014 87 10000 6.2 180 08:25 31.01.2020
3433 Clouds 11 1014 87 10000 7.2 190 07:52 31.01.2020
3434 Clouds 11 1013 87 10000 7.2 190 07:24 31.01.2020
3435 Clouds 11 1013 87 10000 6.7 190 06:43 31.01.2020
3436 Clouds 11 1013 87 10000 6.7 190 06:18 31.01.2020
3437 Clouds 11 1013 81 10000 5.1 200 05:43 31.01.2020
3438 Clouds 11 1013 87 10000 4.6 190 04:55 31.01.2020
3439 Clouds 10 1013 87 10000 3.6 170 02:58 31.01.2020
3440 Clouds 10 1012 87 10000 5.7 180 01:38 31.01.2020
3441 Clouds 9 1012 93 10000 6.2 190 00:46 31.01.2020
3442 Clouds 9 1012 87 10000 5.1 180 00:26 31.01.2020
3443 Clouds 9 1012 87 10000 7.2 180 23:57 30.01.2020
3444 Clouds 9 1012 87 10000 5.7 170 23:25 30.01.2020
3445 Clouds 9 1012 81 10000 6.7 200 22:57 30.01.2020
3446 Clouds 9 1012 81 10000 6.7 200 22:57 30.01.2020
3447 Clouds 8 1012 81 10000 6.2 180 22:37 30.01.2020
3448 Clouds 8 1012 81 10000 6.2 180 22:36 30.01.2020
3449 Clouds 9 1012 81 10000 6.2 180 22:18 30.01.2020
3450 Clouds 8 1012 87 10000 5.7 170 21:55 30.01.2020
3451 Rain 9 1012 87 10000 5.7 170 21:37 30.01.2020
3452 Rain 9 1012 87 10000 4.6 150 21:18 30.01.2020
3453 Rain 9 1012 87 10000 4.6 150 21:18 30.01.2020
3454 Rain 8 1012 81 10000 6.2 160 20:40 30.01.2020
3455 Clouds 8 1012 81 10000 6.2 160 20:22 30.01.2020
3456 Clouds 8 1011 81 10000 6.2 170 19:57 30.01.2020
3457 Clouds 8 1011 81 10000 5.1 170 19:39 30.01.2020
3458 Clouds 8 1011 81 10000 5.1 170 19:19 30.01.2020
3459 Rain 8 1011 81 10000 2.1 160 18:42 30.01.2020
3460 Rain 8 1011 76 10000 3.1 160 18:23 30.01.2020
3461 Rain 8 1011 76 10000 4.1 170 17:58 30.01.2020
3462 Rain 9 1011 76 10000 4.1 170 17:39 30.01.2020
3463 Rain 9 1011 70 10000 5.1 190 17:19 30.01.2020
3464 Clouds 9 1012 57 10000 5.1 180 16:58 30.01.2020
3465 Clouds 9 1012 57 10000 5.1 180 16:38 30.01.2020
3466 Clouds 9 1012 57 10000 5.7 180 16:20 30.01.2020
3467 Clouds 9 1012 53 10000 4.1 170 15:44 30.01.2020
3468 Clouds 9 1012 57 10000 5.1 190 15:20 30.01.2020
3469 Clouds 10 1013 57 10000 3.6 170 14:50 30.01.2020
3470 Clouds 10 1013 66 10000 3.1 160 14:27 30.01.2020
3471 Clouds 10 1014 66 10000 2.6 170 13:59 30.01.2020
3472 Clouds 10 1014 66 10000 2.6 170 13:40 30.01.2020
3473 Clouds 9 1015 66 10000 3.1 170 13:22 30.01.2020
3474 Clouds 9 1015 70 10000 3.1 180 12:54 30.01.2020
3475 Clouds 9 1016 75 10000 2.6 190 12:36 30.01.2020
3476 Clouds 9 1016 75 10000 2.6 190 12:18 30.01.2020
3477 Clouds 8 1016 75 10000 3.6 200 11:40 30.01.2020
3478 Clouds 7 1016 75 10000 3.6 190 11:21 30.01.2020
3479 Clouds 7 1017 81 10000 1.5 240 10:58 30.01.2020
3480 Clouds 6 1017 81 10000 1.5 240 10:38 30.01.2020
3481 Clouds 5 1017 86 10000 1.5 280 10:19 30.01.2020
3482 Clouds 4 1017 93 10000 0.5 0 09:44 30.01.2020
3483 Clouds 3 1017 100 10000 1.89 185 09:24 30.01.2020
3484 Clouds 3 1017 100 10000 1 0 08:42 30.01.2020
3485 Clouds 2 1017 92 10000 1.5 340 08:22 30.01.2020
3486 Clouds 2 1017 93 10000 0.5 0 07:57 30.01.2020
3487 Clouds 2 1017 93 10000 0.5 0 07:39 30.01.2020
3488 Clouds 2 1017 93 10000 0.5 0 07:39 30.01.2020
3489 Clouds 3 1017 93 10000 2.6 190 06:57 30.01.2020
3490 Clouds 3 1017 93 10000 3.1 200 06:36 30.01.2020
3491 Clouds 3 1017 86 10000 3.6 170 05:59 30.01.2020
3492 Clouds 3 1017 93 10000 3.1 190 05:28 30.01.2020
3493 Clouds 4 1018 93 10000 4.6 190 04:50 30.01.2020
3494 Rain 4 1018 93 10000 2.6 210 03:47 30.01.2020
3495 Clouds 4 1019 93 10000 3.1 180 02:56 30.01.2020
3496 Clouds 4 1019 86 10000 2.6 170 01:23 30.01.2020
3497 Clouds 4 1019 86 10000 2.1 180 00:30 30.01.2020
3498 Clouds 4 1019 93 10000 1.5 0 23:58 29.01.2020
3499 Clouds 4 1019 93 10000 1.5 0 23:39 29.01.2020
3500 Clouds 4 1019 86 10000 3.1 200 23:20 29.01.2020
3501 Clouds 4 1019 86 10000 2.1 230 22:55 29.01.2020
3502 Clouds 4 1019 86 10000 2.1 230 22:37 29.01.2020
3503 Clouds 4 1018 86 10000 4.6 190 22:18 29.01.2020
3504 Clouds 4 1018 86 10000 3.1 210 21:54 29.01.2020
3505 Clouds 5 1018 81 10000 1.5 0 21:36 29.01.2020
3506 Clouds 5 1018 81 10000 1.5 0 21:18 29.01.2020
3507 Clouds 5 1018 70 10000 2.6 140 20:54 29.01.2020
3508 Clouds 5 1018 70 10000 2.1 230 20:36 29.01.2020
3509 Clouds 5 1018 70 10000 2.1 230 20:18 29.01.2020
3510 Clouds 5 1017 70 10000 2.6 110 19:54 29.01.2020
3511 Clouds 5 1017 65 10000 2.6 130 19:36 29.01.2020
3512 Clouds 5 1017 65 10000 2.6 130 19:18 29.01.2020
3513 Clouds 5 1017 70 10000 2.6 180 18:40 29.01.2020
3514 Clouds 5 1016 65 10000 1.5 0 18:19 29.01.2020
3515 Clouds 5 1016 61 10000 5.1 0 17:41 29.01.2020
3516 Clouds 5 1015 61 10000 2.1 260 17:23 29.01.2020
3517 Clouds 6 1015 57 10000 2.6 260 16:59 29.01.2020
3518 Clouds 6 1015 57 10000 2.6 260 16:40 29.01.2020
3519 Clouds 6 1014 95 10000 2.6 0 16:20 29.01.2020
3520 Rain 6 1014 57 10000 3.6 200 15:40 29.01.2020
3521 Rain 5 1015 81 10000 2.6 270 15:22 29.01.2020
3522 Rain 5 1013 70 10000 4.6 190 14:58 29.01.2020
3523 Rain 6 1013 70 10000 4.6 190 14:40 29.01.2020
3524 Clouds 6 1013 75 10000 1.5 0 14:18 29.01.2020
3525 Rain 5 1013 70 10000 4.1 0 13:41 29.01.2020
3526 Clouds 6 1013 61 10000 4.1 200 13:22 29.01.2020
3527 Clouds 5 1013 61 10000 4.1 230 12:57 29.01.2020
3528 Clouds 5 1013 61 10000 4.1 230 12:39 29.01.2020
3529 Rain 5 1014 86 7000 0.5 0 12:21 29.01.2020
3530 Rain 4 1014 93 7000 4.1 270 11:56 29.01.2020
3531 Clouds 4 1012 81 10000 5.1 160 11:38 29.01.2020
3532 Rain 4 1014 93 7000 4.1 270 11:38 29.01.2020
3533 Clouds 4 1012 81 10000 5.1 160 11:19 29.01.2020
3534 Rain 4 1013 80 10000 3.1 150 10:46 29.01.2020
3535 Rain 4 1013 80 10000 3.6 160 10:22 29.01.2020
3536 Rain 4 1012 80 10000 2.6 140 09:57 29.01.2020
3537 Rain 4 1012 80 10000 2.6 140 09:38 29.01.2020
3538 Rain 3 1012 80 10000 2.6 140 09:18 29.01.2020
3539 Clouds 3 1012 90 10000 3.1 130 08:41 29.01.2020
3540 Clouds 3 1012 80 10000 2.1 50 08:22 29.01.2020
3541 Rain 3 1011 92 10000 3.1 0 07:45 29.01.2020
3542 Rain 3 1011 92 10000 3.1 0 07:45 29.01.2020
3543 Rain 3 1011 92 10000 1.5 250 07:26 29.01.2020
3544 Rain 3 1011 80 10000 5.1 260 06:55 29.01.2020
3545 Clouds 3 1011 60 10000 3.6 260 06:37 29.01.2020
3546 Clouds 3 1011 60 10000 3.6 260 06:19 29.01.2020
3547 Clouds 3 1010 60 10000 4.6 260 05:49 29.01.2020
3548 Clouds 3 1009 60 10000 7.2 260 05:30 29.01.2020
3549 Clouds 4 1009 56 10000 8.2 260 04:38 29.01.2020
3550 Rain 4 1009 60 10000 6.7 280 03:58 29.01.2020
3551 Clouds 3 1006 93 10000 8.2 280 02:33 29.01.2020
3552 Rain 4 1005 86 9000 3.1 200 00:59 29.01.2020
3553 Rain 4 1005 86 10000 3.1 170 00:36 29.01.2020
3554 Rain 4 1005 86 10000 3.1 170 00:18 29.01.2020
3555 Rain 3 1006 86 10000 3.6 170 23:39 28.01.2020
3556 Rain 3 1006 86 8000 5.7 190 23:19 28.01.2020
3557 Rain 4 1006 86 10000 5.1 210 22:49 28.01.2020
3558 Rain 4 1007 80 8000 6.2 240 22:27 28.01.2020
3559 Clouds 4 1007 93 10000 4.6 230 21:57 28.01.2020
3560 Clouds 4 1007 93 10000 4.6 230 21:38 28.01.2020
3561 Snow 4 1007 60 10000 6.2 250 21:19 28.01.2020
3562 Snow 4 1007 60 10000 6.2 250 21:19 28.01.2020
3563 Snow 4 1007 60 10000 5.1 240 20:46 28.01.2020
3564 Clouds 3 1009 80 10000 4.1 250 20:26 28.01.2020
3565 Clouds 3 1009 80 10000 6.2 250 19:55 28.01.2020
3566 Clouds 3 1009 80 10000 5.7 250 19:37 28.01.2020
3567 Clouds 3 1009 80 10000 5.7 250 19:19 28.01.2020
3568 Rain 3 1009 86 10000 6.2 250 18:42 28.01.2020
3569 Rain 3 1008 86 10000 5.7 250 18:23 28.01.2020
3570 Rain 3 1006 84 10000 7.2 260 17:59 28.01.2020
3571 Rain 3 1006 84 10000 7.2 260 17:40 28.01.2020
3572 Rain 4 1006 75 10000 5.1 250 17:22 28.01.2020
3573 Clouds 4 1005 82 10000 6.2 250 16:59 28.01.2020
3574 Clouds 4 1005 82 10000 6.2 250 16:41 28.01.2020
3575 Snow 5 1005 80 10000 5.7 220 16:22 28.01.2020
3576 Rain 5 1006 86 9000 6.7 280 15:57 28.01.2020
3577 Rain 5 1006 86 9000 6.7 280 15:38 28.01.2020
3578 Clouds 6 1005 70 10000 5.1 270 15:18 28.01.2020
3579 Snow 6 1004 49 10000 7.2 250 14:44 28.01.2020
3580 Clouds 7 1004 49 10000 11.3 240 14:20 28.01.2020
3581 Snow 7 1004 45 10000 10.3 240 13:43 28.01.2020
3582 Snow 7 1004 42 10000 12.3 250 13:24 28.01.2020
3583 Snow 7 1004 45 10000 10.3 240 12:56 28.01.2020
3584 Snow 7 1004 45 10000 10.3 240 12:38 28.01.2020
3585 Snow 7 1003 49 10000 9.8 230 12:20 28.01.2020
3586 Snow 7 1003 80 10000 8.7 230 11:41 28.01.2020
3587 Snow 7 1003 80 10000 8.7 230 11:41 28.01.2020
3588 Clouds 6 1002 49 10000 10.3 240 11:22 28.01.2020
3589 Clouds 6 1002 96 10000 7.7 250 10:55 28.01.2020
3590 Clouds 6 1002 96 10000 7.7 250 10:37 28.01.2020
3591 Rain 6 1001 52 10000 11.3 250 10:18 28.01.2020
3592 Rain 5 1004 86 10000 7.2 250 09:42 28.01.2020
3593 Rain 6 1000 66 10000 8.7 220 09:20 28.01.2020
3594 Rain 7 1000 75 10000 7.7 210 08:46 28.01.2020
3595 Rain 7 1000 66 10000 6.7 240 08:26 28.01.2020
3596 Rain 7 1000 75 10000 5.1 230 07:57 28.01.2020
3597 Rain 7 1000 87 10000 4.6 190 07:36 28.01.2020
3598 Rain 7 1001 87 10000 4.6 200 06:49 28.01.2020
3599 Rain 7 1001 87 10000 4.6 200 06:25 28.01.2020
3600 Rain 7 1001 81 10000 5.1 210 05:42 28.01.2020
3601 Clouds 7 1002 75 10000 3.1 170 05:24 28.01.2020
3602 Rain 7 1003 81 10000 4.1 200 03:51 28.01.2020
3603 Rain 7 1004 81 10000 4.1 200 02:58 28.01.2020
3604 Rain 7 1004 87 10000 2.6 190 02:25 28.01.2020
3605 Rain 7 1004 93 10000 4.6 180 01:57 28.01.2020
3606 Rain 7 1004 87 10000 5.7 200 01:23 28.01.2020
3607 Rain 7 1004 81 10000 6.7 190 00:45 28.01.2020
3608 Rain 7 1004 81 10000 6.2 190 00:24 28.01.2020
3609 Clouds 7 1005 81 10000 4.1 200 23:48 27.01.2020
3610 Clouds 7 1005 81 10000 4.1 190 23:28 27.01.2020
3611 Clouds 6 1006 87 10000 1.5 0 22:54 27.01.2020
3612 Rain 6 1006 87 10000 1 0 22:36 27.01.2020
3613 Rain 6 1006 87 10000 1 0 22:18 27.01.2020
3614 Rain 6 1007 87 10000 1.5 160 21:54 27.01.2020
3615 Rain 7 1007 75 10000 3.6 170 21:36 27.01.2020
3616 Rain 6 1007 75 10000 3.6 170 21:18 27.01.2020
3617 Rain 6 1008 75 10000 3.6 170 20:42 27.01.2020
3618 Rain 7 1008 81 10000 2.1 180 20:21 27.01.2020
3619 Rain 7 1008 81 10000 4.1 180 19:59 27.01.2020
3620 Rain 7 1008 81 10000 4.1 180 19:40 27.01.2020
3621 Rain 7 1009 81 10000 4.6 170 19:22 27.01.2020
3622 Rain 7 1009 70 10000 3.6 170 18:56 27.01.2020
3623 Rain 7 1009 70 10000 3.6 170 18:37 27.01.2020
3624 Clouds 8 1009 66 10000 3.6 190 18:19 27.01.2020
3625 Clouds 8 1010 66 10000 4.1 210 17:39 27.01.2020
3626 Clouds 8 1010 66 10000 4.1 210 17:39 27.01.2020
3627 Clouds 8 1010 57 10000 6.7 200 17:20 27.01.2020
3628 Clouds 8 1010 57 10000 6.7 200 16:59 27.01.2020
3629 Clouds 8 1010 57 10000 6.7 200 16:40 27.01.2020
3630 Clouds 8 1010 61 10000 2.6 220 16:22 27.01.2020
3631 Clouds 8 1011 57 10000 1.5 220 15:55 27.01.2020
3632 Clouds 9 1011 57 10000 1.5 220 15:36 27.01.2020
3633 Clouds 9 1011 53 10000 3.1 260 15:18 27.01.2020
3634 Clouds 9 1011 57 10000 2.6 240 14:42 27.01.2020
3635 Clouds 9 1011 57 10000 2.1 240 14:22 27.01.2020
3636 Clouds 9 1012 57 10000 3.1 210 13:57 27.01.2020
3637 Clouds 10 1012 57 10000 3.1 210 13:37 27.01.2020
3638 Clouds 10 1012 66 10000 4.1 190 13:18 27.01.2020
3639 Clouds 10 1013 66 10000 2.6 120 12:44 27.01.2020
3640 Clouds 10 1013 66 10000 3.1 130 12:23 27.01.2020
3641 Clouds 10 1013 66 10000 3.1 130 12:23 27.01.2020
3642 Clouds 9 1014 70 10000 2.6 180 11:58 27.01.2020
3643 Clouds 9 1014 70 10000 2.6 180 11:40 27.01.2020
3644 Clouds 8 1014 75 10000 5.1 180 11:20 27.01.2020
3645 Clouds 7 1015 75 10000 5.1 190 10:43 27.01.2020
3646 Clouds 6 1015 81 10000 4.1 180 10:24 27.01.2020
3647 Clouds 6 1015 81 10000 2.6 180 09:56 27.01.2020
3648 Clouds 6 1015 81 10000 2.6 180 09:38 27.01.2020
3649 Clouds 5 1015 81 10000 3.6 160 09:18 27.01.2020
3650 Clouds 5 1016 81 10000 3.6 170 08:42 27.01.2020
3651 Clouds 4 1016 87 10000 4.6 170 08:20 27.01.2020
3652 Clouds 4 1016 93 10000 4.6 190 07:54 27.01.2020
3653 Clouds 4 1016 93 10000 4.6 190 07:54 27.01.2020
3654 Clouds 4 1016 87 10000 5.1 180 07:33 27.01.2020
3655 Clouds 5 1017 93 10000 4.1 170 06:52 27.01.2020
3656 Clouds 5 1017 93 10000 4.6 180 06:24 27.01.2020
3657 Clouds 5 1017 87 10000 5.1 170 05:23 27.01.2020
3658 Clouds 5 1017 87 10000 3.6 180 03:47 27.01.2020
3659 Clouds 5 1017 93 10000 5.1 180 02:38 27.01.2020
3660 Clouds 5 1018 93 10000 4.6 180 01:29 27.01.2020
3661 Clouds 5 1018 93 10000 2.6 210 00:57 27.01.2020
3662 Clouds 5 1018 100 9000 3.1 200 00:36 27.01.2020
3663 Clouds 5 1018 100 9000 3.1 200 00:18 27.01.2020
3664 Clouds 5 1018 100 9000 3.1 200 00:18 27.01.2020
3665 Clouds 4 1018 93 7000 1.5 210 23:41 26.01.2020
3666 Clouds 4 1018 93 7000 1 0 23:19 26.01.2020
3667 Clouds 4 1018 100 7000 1.24 189 22:55 26.01.2020
3668 Clouds 4 1018 93 8000 1.24 189 22:36 26.01.2020
3669 Clouds 4 1018 93 8000 1.24 189 22:18 26.01.2020
3670 Clouds 4 1018 93 8000 1.24 189 22:18 26.01.2020
3671 Clouds 4 1018 93 7000 0.5 0 21:55 26.01.2020
3672 Clouds 4 1018 93 10000 1 0 21:37 26.01.2020
3673 Clouds 4 1018 93 10000 1 0 21:19 26.01.2020
3674 Clouds 4 1018 93 9000 1.24 189 20:55 26.01.2020
3675 Rain 4 1018 93 10000 1.24 189 20:36 26.01.2020
3676 Rain 4 1018 93 10000 1.3 213 20:18 26.01.2020
3677 Clouds 4 1018 93 10000 1.3 213 19:56 26.01.2020
3678 Clouds 4 1018 93 10000 1 0 19:37 26.01.2020
3679 Clouds 4 1018 93 10000 1 0 19:37 26.01.2020
3680 Clouds 4 1018 93 10000 1 0 19:18 26.01.2020
3681 Rain 5 1018 86 10000 1.3 213 18:41 26.01.2020
3682 Rain 5 1018 86 10000 0.5 0 18:22 26.01.2020
3683 Rain 5 1018 86 10000 1 340 17:58 26.01.2020
3684 Clouds 5 1018 81 10000 1 340 17:39 26.01.2020
3685 Clouds 6 1018 81 10000 1 340 17:20 26.01.2020
3686 Rain 7 1018 75 10000 1 350 16:58 26.01.2020
3687 Rain 7 1018 75 10000 1 350 16:40 26.01.2020
3688 Rain 7 1018 75 10000 1 0 16:21 26.01.2020
3689 Rain 8 1018 70 10000 1 0 15:58 26.01.2020
3690 Rain 8 1018 70 10000 1 0 15:40 26.01.2020
3691 Rain 8 1016 74 0 0.45 292 15:19 26.01.2020
3692 Rain 8 1017 70 0 0.89 167 14:41 26.01.2020
3693 Clouds 8 1017 77 0 1.87 266 14:23 26.01.2020
3694 Clouds 8 1017 73 0 1.87 266 13:57 26.01.2020
3695 Clouds 8 1017 78 0 1.87 266 13:38 26.01.2020
3696 Clouds 7 1017 79 0 2.35 257 13:18 26.01.2020
3697 Clouds 7 1018 76 0 0.45 144 12:43 26.01.2020
3698 Clouds 6 1018 76 0 1.79 154 12:24 26.01.2020
3699 Clouds 6 1018 81 0 2.35 257 11:58 26.01.2020
3700 Clouds 5 1018 83 0 2.35 257 11:40 26.01.2020
3701 Clouds 3 1020 81 10000 3.6 170 11:19 26.01.2020
3702 Fog 2 1020 100 300 1 350 10:59 26.01.2020
3703 Fog 2 1020 100 300 1 350 10:39 26.01.2020
3704 Fog 1 1020 100 300 1 350 10:21 26.01.2020
3705 Fog 1 1020 100 400 1 0 09:59 26.01.2020
3706 Fog 1 1020 100 400 1 0 09:41 26.01.2020
3707 Clouds 0 1020 81 8000 4.1 170 09:22 26.01.2020
3708 Fog 0 1020 100 350 1.21 188 08:45 26.01.2020
3709 Fog 0 1020 100 300 1.61 169 08:24 26.01.2020
3710 Fog 0 1020 100 250 0.5 300 07:59 26.01.2020
3711 Fog 0 1020 100 250 0.5 300 07:41 26.01.2020
3712 Rain 0 1020 100 300 1.5 340 07:22 26.01.2020
3713 Fog 0 1019 100 400 1.61 169 06:32 26.01.2020
3714 Fog 0 1019 100 200 0.5 320 05:37 26.01.2020
3715 Mist 0 1020 100 2500 1 30 04:58 26.01.2020
3716 Mist 0 1020 92 5000 1 250 02:59 26.01.2020
3717 Mist 0 1020 100 5000 1 260 01:59 26.01.2020
3718 Mist 0 1020 100 5000 1 260 01:39 26.01.2020
3719 Mist 0 1020 100 2600 0.5 0 01:19 26.01.2020
3720 Mist 0 1021 87 4500 1.5 110 00:39 26.01.2020
3721 Mist 0 1021 87 5000 1 0 00:20 26.01.2020
3722 Clouds 0 1019 92 0 1.48 162 23:38 25.01.2020
3723 Clouds 1 1019 92 0 1.28 142 23:20 25.01.2020
3724 Clouds 1 1020 90 0 1.28 142 22:43 25.01.2020
3725 Clouds 1 1019 91 0 1.28 142 22:20 25.01.2020
3726 Clouds 1 1020 89 0 1.28 142 21:59 25.01.2020
3727 Clouds 1 1020 89 0 1.28 142 21:41 25.01.2020
3728 Clouds 1 1019 89 0 1.28 142 21:22 25.01.2020
3729 Clouds 2 1019 90 0 1.28 142 20:54 25.01.2020
3730 Clouds 2 1022 90 0 1.28 142 20:36 25.01.2020
3731 Clouds 2 1019 89 0 0.78 119 20:18 25.01.2020
3732 Clouds 2 1020 87 0 0.94 127 19:41 25.01.2020
3733 Clouds 3 1019 85 0 0.94 127 19:19 25.01.2020
3734 Clouds 3 1019 92 0 0.94 127 18:56 25.01.2020
3735 Clouds 4 1019 79 0 0.94 127 18:38 25.01.2020
3736 Clouds 4 1019 79 0 0.94 127 18:20 25.01.2020
3737 Clouds 4 1019 79 0 0.94 127 18:20 25.01.2020
3738 Clouds 4 1019 79 0 0.94 127 17:40 25.01.2020
3739 Clear 5 1019 77 0 0.77 310 17:19 25.01.2020
3740 Clear 6 1019 75 0 0.87 314 16:57 25.01.2020
3741 Clear 6 1019 73 0 0.77 310 16:38 25.01.2020
3742 Clear 7 1019 73 0 0.77 310 16:19 25.01.2020
3743 Clear 7 1019 72 0 0.77 310 15:46 25.01.2020
3744 Clear 8 1020 67 0 0.77 310 15:25 25.01.2020
3745 Clear 7 1019 71 0 0.77 310 14:57 25.01.2020
3746 Clear 8 1019 72 0 0.77 310 14:39 25.01.2020
3747 Clouds 8 1020 74 0 0.9 294 14:18 25.01.2020
3748 Clouds 7 1020 76 0 0.9 294 13:42 25.01.2020
3749 Clouds 7 1020 78 0 1.02 287 13:23 25.01.2020
3750 Clouds 6 1023 86 9000 1 0 12:45 25.01.2020
3751 Clouds 6 1023 86 9000 1 0 12:26 25.01.2020
3752 Clouds 5 1023 86 9000 1 0 11:45 25.01.2020
3753 Clouds 4 1023 86 8000 0.71 106 11:22 25.01.2020
3754 Clouds 3 1023 79 8000 1 0 10:59 25.01.2020
3755 Clouds 2 1023 79 8000 1 0 10:40 25.01.2020
3756 Clouds 2 1023 79 7000 0.5 0 10:20 25.01.2020
3757 Clouds 1 1023 79 6000 0.71 106 09:54 25.01.2020
3758 Mist 1 1023 79 5000 0.5 0 09:36 25.01.2020
3759 Mist 1 1023 79 5000 0.5 0 09:18 25.01.2020
3760 Mist 0 1023 100 5000 0.71 106 08:42 25.01.2020
3761 Mist 0 1022 100 5000 1.5 340 07:50 25.01.2020
3762 Mist 0 1022 100 4800 1.5 340 06:54 25.01.2020
3763 Mist 0 1022 100 5000 1.5 330 06:29 25.01.2020
3764 Mist 0 1022 92 5000 2.1 20 05:48 25.01.2020
3765 Clouds 0 1021 92 6000 0.77 123 05:23 25.01.2020
3766 Clouds 0 1022 86 8000 2.6 190 03:54 25.01.2020
3767 Clouds 0 1022 86 7000 2.6 190 03:23 25.01.2020
3768 Clouds 0 1022 100 6000 1.13 157 02:23 25.01.2020
3769 Clouds 0 1023 86 7000 1.5 200 01:53 25.01.2020
3770 Clouds 0 1023 92 6000 0.5 0 00:52 25.01.2020
3771 Clouds 0 1023 100 7000 0.5 170 00:26 25.01.2020
3772 Clouds 0 1023 100 7000 0.5 170 00:26 25.01.2020
3773 Clouds 0 1023 92 6000 1 0 23:59 24.01.2020
3774 Clouds 0 1023 92 6000 1 0 23:41 24.01.2020
3775 Clouds 0 1023 100 6000 0.92 152 23:23 24.01.2020
3776 Clouds 0 1023 100 6000 0.5 200 22:46 24.01.2020
3777 Clouds 0 1023 100 6000 0.5 200 22:46 24.01.2020
3778 Clouds 0 1023 92 6000 0.5 0 22:25 24.01.2020
3779 Clouds 0 1023 92 7000 1 260 21:57 24.01.2020
3780 Clouds 0 1023 92 7000 1 260 21:38 24.01.2020
3781 Clouds 1 1023 100 6000 1.5 220 21:18 24.01.2020
3782 Clouds 1 1023 92 7000 0.47 135 20:43 24.01.2020
3783 Clouds 1 1023 87 8000 1 280 20:21 24.01.2020
3784 Clouds 1 1023 92 8000 1 250 19:58 24.01.2020
3785 Clouds 1 1023 92 8000 1 250 19:39 24.01.2020
3786 Clouds 2 1023 86 9000 1 260 19:21 24.01.2020
3787 Clouds 2 1023 87 9000 1.5 330 18:44 24.01.2020
3788 Clouds 3 1023 80 10000 1.5 340 18:25 24.01.2020
3789 Clouds 3 1022 80 10000 1.5 350 17:59 24.01.2020
3790 Clouds 3 1022 80 10000 1.5 350 17:41 24.01.2020
3791 Clear 4 1022 74 10000 1.5 350 17:20 24.01.2020
3792 Clear 5 1022 85 10000 0.5 0 16:40 24.01.2020
3793 Clear 6 1022 85 10000 1 0 16:21 24.01.2020
3794 Clear 6 1022 85 10000 0.5 0 15:56 24.01.2020
3795 Clear 6 1022 85 10000 0.5 0 15:38 24.01.2020
3796 Clear 6 1022 65 10000 0.5 0 15:19 24.01.2020
3797 Clear 6 1023 65 10000 0.5 0 14:41 24.01.2020
3798 Clear 6 1023 65 10000 0.5 0 14:41 24.01.2020
3799 Clear 6 1023 69 10000 1 0 14:23 24.01.2020
3800 Clear 6 1023 69 10000 1 0 14:23 24.01.2020
3801 Clear 5 1024 69 10000 1 0 13:57 24.01.2020
3802 Clear 5 1024 69 10000 1.24 269 13:39 24.01.2020
3803 Clear 5 1024 69 10000 1.28 273 13:19 24.01.2020
3804 Clear 5 1025 74 10000 0.5 0 12:41 24.01.2020
3805 Clear 4 1025 80 9000 1 0 12:18 24.01.2020
3806 Clear 4 1025 69 9000 0.5 0 11:43 24.01.2020
3807 Clear 2 1025 78 9000 1.24 201 11:19 24.01.2020
3808 Clear 0 1025 86 7000 1 0 10:43 24.01.2020
3809 Clear 0 1025 86 8000 1.24 201 10:23 24.01.2020
3810 Clear -1 1025 92 7000 1.24 201 09:57 24.01.2020
3811 Clear -1 1025 92 7000 1.24 201 09:57 24.01.2020
3812 Clear -1 1025 92 8000 1.24 201 09:39 24.01.2020
3813 Clear -1 1025 92 8000 1.24 201 09:21 24.01.2020
3814 Clear -2 1026 92 8000 1.24 201 08:41 24.01.2020
3815 Clear -3 1025 92 6000 1.67 184 08:20 24.01.2020
3816 Clear -3 1025 92 8000 0.5 220 07:53 24.01.2020
3817 Clear -3 1025 92 8000 1 0 07:34 24.01.2020
3818 Clear -3 1025 85 8000 1.5 210 06:48 24.01.2020
3819 Clear -3 1025 85 8000 1 210 06:29 24.01.2020
3820 Clear -3 1025 92 8000 1 0 05:59 24.01.2020
3821 Clear -3 1025 92 9000 0.5 260 04:58 24.01.2020
3822 Clouds -3 1026 86 10000 1.79 190 02:53 24.01.2020
3823 Clouds -3 1026 86 8000 1.79 190 02:26 24.01.2020
3824 Clouds -3 1026 86 8000 1.79 190 02:26 24.01.2020
3825 Clouds -3 1027 92 10000 1.5 230 01:49 24.01.2020
3826 Clouds -3 1027 86 10000 1.5 300 01:31 24.01.2020
3827 Clouds -3 1027 86 9000 2.1 230 00:26 24.01.2020
3828 Clouds -3 1027 86 9000 2.6 200 23:51 23.01.2020
3829 Clouds -3 1028 86 9000 3.1 190 23:31 23.01.2020
3830 Clouds -3 1028 92 9000 2.6 200 22:59 23.01.2020
3831 Clouds -2 1028 92 9000 2.6 200 22:39 23.01.2020
3832 Clouds -2 1028 92 9000 3.1 210 22:19 23.01.2020
3833 Clouds -2 1028 86 8000 2.6 220 21:58 23.01.2020
3834 Clouds -2 1028 86 8000 2.6 220 21:39 23.01.2020
3835 Clouds -2 1028 86 7000 3.1 220 21:21 23.01.2020
3836 Clouds -2 1028 86 8000 3.1 210 20:59 23.01.2020
3837 Clouds -2 1028 86 8000 3.1 210 20:39 23.01.2020
3838 Clouds -2 1028 86 8000 3.1 220 20:20 23.01.2020
3839 Clouds -2 1028 86 8000 3.1 220 19:56 23.01.2020
3840 Clouds -2 1028 86 8000 3.1 220 19:38 23.01.2020
3841 Clouds -2 1028 86 8000 2.1 210 19:20 23.01.2020
3842 Clouds -2 1027 86 9000 1.5 240 18:56 23.01.2020
3843 Clouds -2 1027 86 9000 1 0 18:37 23.01.2020
3844 Clouds -1 1027 86 9000 1 0 18:19 23.01.2020
3845 Clouds -1 1027 86 9000 1.36 134 17:43 23.01.2020
3846 Clouds -1 1027 86 9000 1.5 0 17:20 23.01.2020
3847 Clouds -1 1027 80 9000 1.5 0 16:58 23.01.2020
3848 Clouds -1 1027 80 9000 1 0 16:38 23.01.2020
3849 Clouds -1 1027 80 9000 1 0 16:19 23.01.2020
3850 Clouds -1 1028 80 9000 2.6 50 15:57 23.01.2020
3851 Clouds 0 1028 80 9000 2.6 50 15:38 23.01.2020
3852 Clouds 0 1028 86 7000 2.6 20 15:18 23.01.2020
3853 Clouds 0 1028 86 7000 2.6 20 15:18 23.01.2020
3854 Clouds 0 1028 86 7000 2.6 20 14:56 23.01.2020
3855 Clouds 0 1028 86 7000 2.6 20 14:56 23.01.2020
3856 Clouds 0 1028 86 7000 2.6 20 14:38 23.01.2020
3857 Clouds 0 1029 86 7000 3.1 360 14:20 23.01.2020
3858 Clouds 0 1029 92 6000 3.1 10 13:45 23.01.2020
3859 Clouds 0 1030 86 6000 2.6 330 13:21 23.01.2020
3860 Clouds 0 1030 86 6000 3.1 20 12:56 23.01.2020
3861 Clouds 0 1030 86 6000 3.1 20 12:38 23.01.2020
3862 Mist 0 1031 92 5000 1.5 0 12:20 23.01.2020
3863 Mist 0 1031 86 5000 1.5 40 11:43 23.01.2020
3864 Mist -1 1032 92 4800 1.5 0 11:25 23.01.2020
3865 Mist -2 1032 86 4900 2.6 340 10:59 23.01.2020
3866 Mist -2 1032 86 4900 2.6 340 10:41 23.01.2020
3867 Clouds -2 1032 86 6000 1.5 30 10:19 23.01.2020
3868 Mist -2 1032 86 5000 2.1 10 09:41 23.01.2020
3869 Clouds -2 1032 86 6000 3.1 350 09:22 23.01.2020
3870 Mist -3 1032 86 5000 2.6 30 08:57 23.01.2020
3871 Clouds -3 1032 92 6000 2.1 10 08:38 23.01.2020
3872 Clouds -3 1032 92 6000 2.1 10 08:19 23.01.2020
3873 Clouds -3 1031 92 6000 2.6 350 07:42 23.01.2020
3874 Clouds -3 1032 86 7000 2.1 350 07:21 23.01.2020
3875 Clouds -3 1032 86 7000 2.1 350 07:21 23.01.2020
3876 Clouds -2 1032 92 6000 1.5 10 06:44 23.01.2020
3877 Clouds -2 1032 92 6000 1.5 340 06:19 23.01.2020
3878 Mist -3 1033 92 5000 2.6 340 04:25 23.01.2020
3879 Mist -3 1033 92 5000 2.6 350 03:47 23.01.2020
3880 Mist -2 1034 92 5000 2.1 10 01:56 23.01.2020
3881 Mist -2 1035 92 5000 2.1 10 00:47 23.01.2020
3882 Clouds -2 1035 92 6000 2.1 20 00:26 23.01.2020
3883 Clouds -2 1035 92 6000 2.1 10 23:47 22.01.2020
3884 Clouds -2 1035 92 6000 2.1 40 23:28 22.01.2020
3885 Mist -2 1035 92 5000 1.5 0 22:55 22.01.2020
3886 Mist -2 1035 92 5000 2.1 10 22:37 22.01.2020
3887 Mist -2 1035 92 5000 2.1 10 22:19 22.01.2020
3888 Mist -2 1035 100 5000 2.1 290 21:39 22.01.2020
3889 Mist -2 1035 100 4900 2.6 10 21:21 22.01.2020
3890 Mist -2 1035 100 4900 2.1 10 20:56 22.01.2020
3891 Mist -2 1035 100 3500 2.1 20 20:36 22.01.2020
3892 Mist -2 1035 100 3500 2.1 20 20:18 22.01.2020
3893 Mist -2 1035 100 2900 1.5 0 19:55 22.01.2020
3894 Mist -2 1034 100 2600 2.1 20 19:37 22.01.2020
3895 Mist -2 1034 100 2600 2.1 20 19:18 22.01.2020
3896 Mist -1 1034 100 2200 1.5 0 18:55 22.01.2020
3897 Mist -2 1034 100 2300 2.1 320 18:37 22.01.2020
3898 Mist -1 1034 100 2300 2.1 320 18:18 22.01.2020
3899 Mist -1 1034 100 1400 1.5 350 17:40 22.01.2020
3900 Mist -1 1034 100 2400 2.1 350 17:21 22.01.2020
3901 Mist -1 1034 100 2700 3.6 360 16:58 22.01.2020
3902 Mist -1 1034 100 1900 2.6 350 16:39 22.01.2020
3903 Mist 0 1034 100 1900 2.6 350 16:21 22.01.2020
3904 Mist -1 1034 100 2400 3.1 360 15:56 22.01.2020
3905 Mist -1 1034 100 2100 1.5 0 15:38 22.01.2020
3906 Mist -1 1034 100 2100 1.5 0 15:19 22.01.2020
3907 Mist 0 1034 100 2900 2.1 20 14:40 22.01.2020
3908 Mist 0 1034 100 2900 2.1 20 14:40 22.01.2020
3909 Mist -1 1034 100 2900 1.5 0 14:21 22.01.2020
3910 Mist 0 1034 100 2700 1 0 13:59 22.01.2020
3911 Mist -1 1035 100 2600 1 0 13:38 22.01.2020
3912 Mist 0 1035 100 2600 1 0 13:19 22.01.2020
3913 Mist 0 1035 100 2800 1.5 0 12:57 22.01.2020
3914 Mist 1 1035 100 2900 1 0 12:39 22.01.2020
3915 Mist 0 1035 100 2900 1 0 12:20 22.01.2020
3916 Mist 0 1036 100 3600 1.5 10 11:58 22.01.2020
3917 Mist -1 1036 100 3600 1.5 10 11:40 22.01.2020
3918 Mist -2 1035 100 3200 1 0 11:19 22.01.2020
3919 Mist -2 1036 100 3300 1.5 30 10:59 22.01.2020
3920 Mist -2 1036 100 3300 1.5 30 10:41 22.01.2020
3921 Mist -2 1035 100 2800 1.5 30 10:18 22.01.2020
3922 Mist -3 1035 100 1800 2.6 340 09:42 22.01.2020
3923 Mist -3 1036 100 1900 2.6 20 09:24 22.01.2020
3924 Mist -3 1036 92 1800 3.1 360 08:57 22.01.2020
3925 Mist -3 1035 92 2200 3.1 20 08:38 22.01.2020
3926 Mist -3 1035 92 2200 3.1 20 08:20 22.01.2020
3927 Fog -4 1035 100 650 2.6 40 07:46 22.01.2020
3928 Fog -4 1035 100 700 1 0 07:27 22.01.2020
3929 Fog -4 1034 100 550 1.5 0 06:38 22.01.2020
3930 Fog -4 1034 100 650 1.5 0 06:20 22.01.2020
3931 Clouds -4 1035 92 6000 1.07 163 05:21 22.01.2020
3932 Clear -3 1035 92 8000 1 260 03:30 22.01.2020
3933 Clear -3 1036 92 9000 1 250 02:50 22.01.2020
3934 Clear -3 1036 92 8000 0.52 135 01:42 22.01.2020
3935 Clear -3 1037 92 10000 0.5 0 00:44 22.01.2020
3936 Clear -3 1037 86 10000 0.5 116 00:26 22.01.2020
3937 Clear -2 1037 86 10000 2.6 270 23:38 21.01.2020
3938 Clear -2 1037 86 10000 2.6 270 23:20 21.01.2020
3939 Clear -2 1037 92 10000 1 0 22:55 21.01.2020
3940 Clear -2 1037 86 10000 2.1 280 22:36 21.01.2020
3941 Clear -2 1037 86 10000 2.1 280 22:18 21.01.2020
3942 Clear -2 1037 86 10000 1.5 0 21:55 21.01.2020
3943 Clear -2 1038 86 10000 2.1 290 21:37 21.01.2020
3944 Clear -2 1038 86 10000 2.1 290 21:18 21.01.2020
3945 Clear -2 1038 56 10000 3.1 270 20:54 21.01.2020
3946 Clear -1 1038 56 10000 3.1 270 20:36 21.01.2020
3947 Clear -1 1038 65 10000 2.6 280 20:18 21.01.2020
3948 Clear -1 1038 65 10000 1.5 290 19:55 21.01.2020
3949 Clear -1 1038 65 10000 2.1 300 19:36 21.01.2020
3950 Clear -1 1038 65 10000 2.1 300 19:18 21.01.2020
3951 Clear 0 1038 65 10000 2.1 310 18:54 21.01.2020
3952 Clear 0 1038 65 10000 1 310 18:36 21.01.2020
3953 Clear 0 1038 65 10000 1 310 18:18 21.01.2020
3954 Clear 1 1038 74 10000 1.5 10 17:42 21.01.2020
3955 Clear 2 1038 69 10000 2.1 30 17:19 21.01.2020
3956 Clear 2 1038 69 10000 2.1 30 17:19 21.01.2020
3957 Clear 3 1038 64 10000 1.5 50 16:56 21.01.2020
3958 Clear 3 1038 69 10000 2.1 60 16:36 21.01.2020
3959 Clear 3 1038 69 10000 2.1 60 16:18 21.01.2020
3960 Clear 4 1038 65 10000 2.1 20 15:40 21.01.2020
3961 Clear 4 1038 65 10000 2.1 330 15:20 21.01.2020
3962 Clear 4 1039 69 0 1.5 0 14:57 21.01.2020
3963 Clear 4 1039 69 0 2.1 10 14:37 21.01.2020
3964 Clear 4 1039 69 0 2.1 10 14:18 21.01.2020
3965 Clear 4 1039 74 10000 1.5 0 13:39 21.01.2020
3966 Clear 3 1040 74 0 1.5 20 13:18 21.01.2020
3967 Clear 3 1040 80 10000 1.5 0 12:43 21.01.2020
3968 Clear 3 1041 74 10000 1.5 50 12:25 21.01.2020
3969 Clear 2 1041 86 10000 1.5 0 11:57 21.01.2020
3970 Clear 2 1041 42 10000 2.6 20 11:38 21.01.2020
3971 Clear 1 1041 43 10000 2.6 20 11:20 21.01.2020
3972 Clear 0 1041 43 10000 2.1 10 10:44 21.01.2020
3973 Clear -1 1041 86 10000 1.5 360 10:23 21.01.2020
3974 Clear -1 1041 92 10000 1 10 09:59 21.01.2020
3975 Clear -2 1041 92 10000 1 10 09:40 21.01.2020
3976 Clear -2 1041 92 0 0.5 310 09:22 21.01.2020
3977 Clear -2 1041 92 0 0.5 310 09:22 21.01.2020
3978 Clear -3 1041 86 10000 0.5 220 08:48 21.01.2020
3979 Clear -3 1041 86 10000 1 0 08:28 21.01.2020
3980 Clear -3 1041 85 10000 1 0 07:57 21.01.2020
3981 Clear -3 1041 85 10000 1 0 07:38 21.01.2020
3982 Clear -3 1041 85 10000 1 0 07:20 21.01.2020
3983 Clear -3 1041 86 10000 1 0 06:45 21.01.2020
3984 Clear -3 1041 86 10000 1 200 06:25 21.01.2020
3985 Clear -3 1041 86 10000 1 0 05:41 21.01.2020
3986 Clear -3 1041 92 10000 1 0 04:39 21.01.2020
3987 Clear -2 1041 73 10000 2.1 330 02:56 21.01.2020
3988 Clouds -2 1041 87 10000 3.1 350 01:51 21.01.2020
3989 Clouds -1 1041 87 10000 3.6 360 00:57 21.01.2020
3990 Clouds -1 1041 87 10000 4.1 360 00:35 21.01.2020
3991 Clouds -1 1042 80 10000 4.1 360 23:58 20.01.2020
3992 Clouds -1 1042 80 10000 4.1 360 23:38 20.01.2020
3993 Clouds 1 1042 86 10000 4.1 10 23:19 20.01.2020
3994 Clouds 1 1041 86 10000 4.1 360 22:56 20.01.2020
3995 Clouds 1 1041 86 10000 4.1 360 22:37 20.01.2020
3996 Clouds 1 1041 80 10000 4.1 10 22:19 20.01.2020
3997 Clouds 1 1041 80 10000 4.1 10 21:57 20.01.2020
3998 Clouds 1 1042 80 10000 5.1 10 21:37 20.01.2020
3999 Clouds 1 1042 80 10000 5.1 10 21:19 20.01.2020
4000 Clouds 1 1042 80 10000 4.6 10 20:55 20.01.2020
4001 Clouds 1 1042 74 10000 4.6 360 20:37 20.01.2020
4002 Clear 2 1042 74 10000 4.6 360 20:18 20.01.2020
4003 Clear 2 1042 74 10000 5.1 10 19:56 20.01.2020
4004 Clear 2 1042 74 10000 4.6 10 19:37 20.01.2020
4005 Clear 2 1042 74 10000 4.6 10 19:18 20.01.2020
4006 Clear 2 1042 74 10000 5.1 360 18:43 20.01.2020
4007 Clear 2 1042 69 10000 3.6 20 18:22 20.01.2020
4008 Clear 3 1042 69 10000 4.6 10 17:41 20.01.2020
4009 Clouds 4 1042 70 10000 3.6 10 17:20 20.01.2020
4010 Clouds 4 1041 70 10000 5.1 360 16:59 20.01.2020
4011 Clouds 4 1041 70 10000 5.1 360 16:39 20.01.2020
4012 Clouds 5 1042 60 10000 6.7 10 16:19 20.01.2020
4013 Clouds 5 1042 60 10000 6.7 10 16:19 20.01.2020
4014 Clouds 5 1042 60 10000 6.7 10 16:19 20.01.2020
4015 Clouds 5 1042 60 10000 6.7 10 16:19 20.01.2020
4016 Clouds 5 1042 60 10000 6.7 20 15:57 20.01.2020
4017 Clouds 6 1042 60 10000 6.7 20 15:39 20.01.2020
4018 Clouds 6 1042 60 10000 6.2 10 15:20 20.01.2020
4019 Clouds 5 1042 60 10000 6.7 20 14:41 20.01.2020
4020 Clouds 6 1042 62 10000 6.2 10 14:23 20.01.2020
4021 Clouds 6 1043 60 10000 6.2 20 13:58 20.01.2020
4022 Clouds 5 1043 60 10000 6.2 20 13:40 20.01.2020
4023 Clouds 5 1043 60 10000 5.7 20 13:22 20.01.2020
4024 Clouds 5 1043 70 10000 5.7 360 12:47 20.01.2020
4025 Clouds 5 1043 75 10000 5.1 360 12:28 20.01.2020
4026 Rain 5 1044 75 10000 4.6 20 11:58 20.01.2020
4027 Rain 4 1044 75 10000 4.6 20 11:39 20.01.2020
4028 Clouds 3 1044 80 10000 4.6 10 11:21 20.01.2020
4029 Rain 2 1044 86 10000 4.1 10 10:55 20.01.2020
4030 Rain 2 1044 86 10000 4.1 10 10:37 20.01.2020
4031 Clouds 1 1044 86 10000 2.1 10 10:18 20.01.2020
4032 Clouds 0 1044 93 10000 1.5 360 09:40 20.01.2020
4033 Clouds 0 1044 77 10000 1.5 10 09:20 20.01.2020
4034 Clouds -1 1044 77 10000 1.5 0 08:46 20.01.2020
4035 Clouds 0 1044 77 10000 2.6 30 08:28 20.01.2020
4036 Clouds -1 1044 86 10000 3.1 10 07:45 20.01.2020
4037 Clouds -1 1044 86 10000 4.1 360 07:26 20.01.2020
4038 Clouds -1 1043 86 10000 3.6 10 06:59 20.01.2020
4039 Clouds -1 1043 86 10000 4.1 360 06:28 20.01.2020
4040 Clouds -1 1043 86 10000 3.6 10 05:43 20.01.2020
4041 Clouds -1 1043 86 10000 3.6 10 05:43 20.01.2020
4042 Clouds -1 1041 100 7000 1 0 05:23 20.01.2020
4043 Clouds -1 1043 93 10000 3.1 20 04:48 20.01.2020
4044 Clouds 0 1043 86 10000 4.1 20 02:59 20.01.2020
4045 Clouds 0 1043 86 10000 4.1 20 02:59 20.01.2020
4046 Clouds 0 1042 86 10000 4.6 20 01:57 20.01.2020
4047 Rain 0 1042 86 10000 4.1 10 01:37 20.01.2020
4048 Rain 0 1043 86 10000 3.1 20 00:45 20.01.2020
4049 Clouds 0 1042 86 10000 3.6 20 00:25 20.01.2020
4050 Clouds 0 1042 86 10000 5.1 20 23:54 19.01.2020
4051 Clouds 1 1042 86 10000 4.6 20 23:36 19.01.2020
4052 Clouds 1 1042 86 10000 4.6 20 23:18 19.01.2020
4053 Clouds 1 1042 80 10000 5.1 10 22:54 19.01.2020
4054 Clouds 1 1041 80 10000 4.6 20 22:36 19.01.2020
4055 Clouds 1 1041 80 10000 4.6 20 22:18 19.01.2020
4056 Clouds 1 1041 80 10000 4.6 20 21:54 19.01.2020
4057 Rain 1 1041 80 10000 3.6 30 21:36 19.01.2020
4058 Rain 1 1041 80 10000 3.6 30 21:18 19.01.2020
4059 Rain 1 1040 80 10000 3.6 20 20:54 19.01.2020
4060 Rain 1 1040 80 10000 4.1 10 20:36 19.01.2020
4061 Rain 1 1040 80 10000 4.1 10 20:18 19.01.2020
4062 Rain 2 1040 80 10000 3.6 10 19:54 19.01.2020
4063 Clouds 2 1040 80 10000 3.6 10 19:36 19.01.2020
4064 Clouds 2 1039 86 10000 3.1 10 19:18 19.01.2020
4065 Clouds 2 1039 86 10000 3.1 10 18:54 19.01.2020
4066 Clouds 2 1039 86 10000 3.1 360 18:36 19.01.2020
4067 Clouds 2 1039 86 10000 3.1 360 18:18 19.01.2020
4068 Drizzle 2 1038 80 10000 4.1 20 17:55 19.01.2020
4069 Drizzle 2 1038 80 10000 4.1 20 17:37 19.01.2020
4070 Snow 2 1038 80 10000 4.6 20 17:18 19.01.2020
4071 Snow 3 1037 80 10000 4.1 10 16:54 19.01.2020
4072 Snow 3 1037 80 10000 4.1 10 16:54 19.01.2020
4073 Snow 3 1037 85 10000 3.6 20 16:36 19.01.2020
4074 Snow 3 1037 85 10000 3.6 20 16:18 19.01.2020
4075 Snow 3 1037 85 10000 4.6 10 15:41 19.01.2020
4076 Clouds 3 1036 85 10000 4.1 20 15:22 19.01.2020
4077 Clouds 3 1036 85 10000 3.6 30 14:59 19.01.2020
4078 Clouds 4 1036 85 10000 3.6 30 14:40 19.01.2020
4079 Clouds 3 1036 84 10000 5.1 10 14:20 19.01.2020
4080 Clouds 4 1036 84 10000 5.1 20 13:59 19.01.2020
4081 Clouds 4 1036 84 10000 5.1 20 13:40 19.01.2020
4082 Clouds 3 1036 84 10000 4.1 30 13:21 19.01.2020
4083 Clouds 3 1036 80 10000 4.1 30 12:59 19.01.2020
4084 Clouds 3 1036 80 10000 4.1 30 12:59 19.01.2020
4085 Clouds 3 1036 80 10000 4.1 30 12:40 19.01.2020
4086 Clouds 2 1036 80 10000 3.1 30 12:21 19.01.2020
4087 Clouds 2 1036 80 10000 3.1 30 11:57 19.01.2020
4088 Clouds 2 1036 80 10000 1.5 0 11:38 19.01.2020
4089 Clouds 2 1036 87 10000 1.5 0 11:18 19.01.2020
4090 Clouds 1 1035 87 10000 1.5 330 10:41 19.01.2020
4091 Clouds 1 1035 87 10000 1 0 10:21 19.01.2020
4092 Clouds 0 1034 87 10000 0.5 0 09:57 19.01.2020
4093 Clouds 0 1034 87 10000 0.5 0 09:38 19.01.2020
4094 Rain 0 1034 86 10000 1 0 09:20 19.01.2020
4095 Rain -1 1034 86 10000 1.3 15 08:56 19.01.2020
4096 Clouds -1 1033 87 10000 1 0 08:38 19.01.2020
4097 Clouds -1 1033 91 10000 1 0 08:19 19.01.2020
4098 Clouds -1 1033 92 10000 0.5 0 07:30 19.01.2020
4099 Clouds -1 1032 86 10000 1 30 06:56 19.01.2020
4100 Clouds -1 1032 86 10000 0.5 0 06:23 19.01.2020
4101 Clouds -1 1032 86 10000 1.5 0 04:39 19.01.2020
4102 Clouds 0 1031 86 10000 1 0 02:36 19.01.2020
4103 Clouds 1 1030 95 10000 2.1 270 01:58 19.01.2020
4104 Clouds 1 1030 80 10000 3.6 280 01:24 19.01.2020
4105 Clouds 1 1030 80 10000 1 0 00:45 19.01.2020
4106 Clouds 1 1030 80 10000 0.98 14 00:26 19.01.2020
4107 Clouds 1 1029 80 10000 1.5 0 23:55 18.01.2020
4108 Clouds 1 1029 80 10000 1.5 0 23:36 18.01.2020
4109 Clouds 2 1029 80 10000 1.5 0 23:18 18.01.2020
4110 Clouds 2 1029 80 10000 1.5 280 22:54 18.01.2020
4111 Clouds 2 1029 80 10000 1.5 280 22:54 18.01.2020
4112 Clouds 2 1029 80 10000 1.5 330 22:36 18.01.2020
4113 Clouds 2 1029 80 10000 1.5 330 22:18 18.01.2020
4114 Clouds 2 1029 80 10000 0.31 67 21:56 18.01.2020
4115 Clouds 2 1029 80 10000 0.31 67 21:36 18.01.2020
4116 Clouds 2 1029 92 10000 1 0 21:18 18.01.2020
4117 Clouds 3 1029 92 10000 1.5 60 20:41 18.01.2020
4118 Clouds 3 1028 94 10000 3.1 250 20:20 18.01.2020
4119 Clouds 3 1029 94 10000 2.1 320 19:55 18.01.2020
4120 Clouds 3 1029 94 10000 2.1 320 19:36 18.01.2020
4121 Clouds 3 1029 94 10000 2.1 320 19:36 18.01.2020
4122 Snow 4 1029 60 10000 2.6 330 19:18 18.01.2020
4123 Clouds 4 1028 94 10000 1 0 18:41 18.01.2020
4124 Clouds 4 1028 75 10000 3.1 340 18:21 18.01.2020
4125 Clouds 4 1028 75 10000 4.1 350 17:54 18.01.2020
4126 Clouds 4 1027 94 10000 2.6 200 17:36 18.01.2020
4127 Clouds 5 1027 86 10000 2.6 200 17:18 18.01.2020
4128 Clouds 5 1027 86 10000 2.6 220 16:41 18.01.2020
4129 Clouds 5 1027 56 10000 2.6 280 16:23 18.01.2020
4130 Clouds 6 1027 49 10000 3.1 270 15:59 18.01.2020
4131 Clouds 6 1027 52 10000 4.1 270 15:40 18.01.2020
4132 Clouds 6 1027 52 10000 4.1 270 15:22 18.01.2020
4133 Clouds 6 1027 52 10000 3.6 250 14:54 18.01.2020
4134 Clouds 6 1027 52 10000 3.6 250 14:36 18.01.2020
4135 Clouds 6 1027 52 10000 3.6 250 14:18 18.01.2020
4136 Clouds 6 1027 61 10000 4.1 190 13:43 18.01.2020
4137 Clouds 6 1027 65 10000 5.1 210 13:24 18.01.2020
4138 Clouds 6 1027 70 10000 5.1 190 12:56 18.01.2020
4139 Clouds 7 1028 65 10000 5.7 190 12:38 18.01.2020
4140 Clouds 6 1028 65 10000 5.7 190 12:19 18.01.2020
4141 Clouds 6 1028 75 10000 5.1 200 11:44 18.01.2020
4142 Clouds 5 1028 75 10000 5.1 190 11:21 18.01.2020
4143 Clouds 5 1028 70 10000 5.1 190 10:56 18.01.2020
4144 Clouds 5 1028 70 10000 5.1 190 10:38 18.01.2020
4145 Clouds 4 1028 80 10000 4.1 190 10:18 18.01.2020
4146 Clouds 4 1028 86 10000 4.1 190 09:42 18.01.2020
4147 Clouds 4 1028 86 10000 2.25 230 09:24 18.01.2020
4148 Clouds 3 1027 86 10000 2.1 190 08:55 18.01.2020
4149 Clouds 3 1027 93 10000 2.1 170 08:37 18.01.2020
4150 Clouds 3 1027 93 10000 2.1 170 08:18 18.01.2020
4151 Clouds 4 1027 93 10000 1.5 190 07:43 18.01.2020
4152 Clouds 4 1027 86 10000 1.5 240 07:25 18.01.2020
4153 Clouds 4 1027 93 10000 2.6 230 06:46 18.01.2020
4154 Snow 4 1027 86 10000 1 0 05:58 18.01.2020
4155 Rain 5 1026 70 10000 1 0 04:35 18.01.2020
4156 Rain 5 1026 86 10000 2.1 200 02:53 18.01.2020
4157 Clouds 5 1025 70 10000 2.1 240 01:51 18.01.2020
4158 Clouds 5 1025 70 10000 1.5 240 01:29 18.01.2020
4159 Clouds 5 1025 87 10000 4.1 260 00:36 18.01.2020
4160 Clouds 6 1025 87 10000 4.1 260 00:18 18.01.2020
4161 Clouds 6 1024 70 10000 1 0 23:41 17.01.2020
4162 Rain 6 1024 75 10000 1 0 23:19 17.01.2020
4163 Rain 6 1023 70 10000 1.5 200 22:44 17.01.2020
4164 Rain 6 1023 75 10000 1.5 0 22:21 17.01.2020
4165 Rain 6 1023 75 10000 3.6 220 21:59 17.01.2020
4166 Rain 6 1023 75 10000 3.6 220 21:41 17.01.2020
4167 Rain 6 1022 75 10000 0.5 0 21:22 17.01.2020
4168 Rain 6 1022 81 10000 0.5 0 20:57 17.01.2020
4169 Rain 6 1022 81 10000 0.5 0 20:38 17.01.2020
4170 Rain 6 1022 93 10000 1.5 210 20:20 17.01.2020
4171 Rain 7 1021 87 10000 1.5 150 19:55 17.01.2020
4172 Rain 7 1021 87 10000 1.5 150 19:55 17.01.2020
4173 Rain 7 1021 87 10000 1.5 190 19:37 17.01.2020
4174 Rain 7 1021 87 10000 1.5 190 19:18 17.01.2020
4175 Clouds 7 1021 87 10000 1.5 190 18:47 17.01.2020
4176 Clouds 7 1021 87 10000 2.1 220 18:29 17.01.2020
4177 Rain 7 1020 87 10000 3.6 190 17:58 17.01.2020
4178 Rain 7 1020 87 10000 3.6 190 17:39 17.01.2020
4179 Rain 7 1020 87 10000 4.1 190 17:20 17.01.2020
4180 Rain 7 1019 87 10000 4.1 180 16:43 17.01.2020
4181 Rain 7 1019 76 10000 2.6 170 16:21 17.01.2020
4182 Rain 7 1019 66 10000 2.6 130 15:58 17.01.2020
4183 Rain 7 1019 66 10000 2.6 130 15:39 17.01.2020
4184 Rain 7 1019 66 10000 1 0 15:20 17.01.2020
4185 Rain 8 1019 70 10000 4.1 200 14:43 17.01.2020
4186 Rain 8 1019 66 10000 5.1 180 14:24 17.01.2020
4187 Clouds 8 1019 61 10000 5.1 180 13:43 17.01.2020
4188 Clouds 9 1019 66 10000 4.6 180 13:23 17.01.2020
4189 Clouds 9 1020 66 10000 3.1 180 12:47 17.01.2020
4190 Clouds 8 1020 66 10000 3.6 170 12:23 17.01.2020
4191 Clouds 8 1020 70 10000 3.1 180 11:43 17.01.2020
4192 Clouds 6 1020 70 10000 1.5 0 11:20 17.01.2020
4193 Clouds 6 1020 70 10000 1.5 0 11:20 17.01.2020
4194 Clouds 6 1020 75 10000 2.6 160 10:58 17.01.2020
4195 Clouds 5 1020 75 10000 2.6 160 10:40 17.01.2020
4196 Clouds 4 1020 75 10000 1.5 0 10:21 17.01.2020
4197 Clouds 4 1021 75 10000 1.5 200 09:56 17.01.2020
4198 Clouds 3 1021 75 10000 1.5 200 09:37 17.01.2020
4199 Clouds 3 1021 75 10000 4.1 180 09:18 17.01.2020
4200 Clouds 3 1021 75 10000 4.6 180 08:42 17.01.2020
4201 Clear 2 1021 80 10000 3.1 190 08:23 17.01.2020
4202 Clear 2 1020 80 10000 3.6 200 07:51 17.01.2020
4203 Clear 2 1021 86 10000 5.1 190 07:31 17.01.2020
4204 Clear 2 1021 80 10000 4.1 190 06:56 17.01.2020
4205 Clear 2 1021 92 10000 1.5 0 06:37 17.01.2020
4206 Clear 2 1022 92 10000 2.63 159 05:27 17.01.2020
4207 Clear 2 1023 83 10000 0.5 100 03:38 17.01.2020
4208 Clear 2 1021 86 0 1.69 177 02:44 17.01.2020
4209 Clear 2 1021 84 0 1.91 164 01:46 17.01.2020
4210 Clear 3 1023 86 0 0.45 248 01:27 17.01.2020
4211 Clear 3 1021 87 0 1.7 165 00:44 17.01.2020
4212 Clear 4 1023 80 10000 2.6 190 00:20 17.01.2020
4213 Clear 4 1023 80 10000 2.6 190 23:42 16.01.2020
4214 Clear 4 1023 80 10000 2.6 190 23:24 16.01.2020
4215 Clear 4 1024 93 10000 2.1 230 22:55 16.01.2020
4216 Clear 5 1024 86 10000 1.5 220 22:36 16.01.2020
4217 Clear 4 1024 86 10000 1.5 220 22:18 16.01.2020
4218 Clear 5 1024 86 10000 2.1 210 21:54 16.01.2020
4219 Clear 4 1025 86 10000 1.5 220 21:36 16.01.2020
4220 Clear 5 1025 86 10000 1.5 220 21:18 16.01.2020
4221 Clear 5 1025 87 10000 1 0 20:40 16.01.2020
4222 Clear 6 1025 87 10000 2.1 260 20:21 16.01.2020
4223 Clear 6 1025 81 10000 1 250 19:58 16.01.2020
4224 Clear 6 1025 81 10000 1 250 19:40 16.01.2020
4225 Clear 6 1025 87 10000 1.5 0 19:22 16.01.2020
4226 Clear 7 1025 81 10000 2.6 260 18:57 16.01.2020
4227 Clear 7 1025 81 10000 2.6 260 18:38 16.01.2020
4228 Clear 7 1025 81 10000 0.5 0 18:19 16.01.2020
4229 Clear 7 1025 76 10000 2.6 280 17:58 16.01.2020
4230 Clear 8 1025 76 10000 2.6 280 17:39 16.01.2020
4231 Clouds 10 1025 66 10000 0.63 100 17:20 16.01.2020
4232 Clouds 11 1025 58 10000 1 80 16:42 16.01.2020
4233 Clear 11 1025 54 10000 0.5 0 16:24 16.01.2020
4234 Clear 12 1025 54 10000 1 0 15:58 16.01.2020
4235 Clear 12 1025 54 10000 1 0 15:39 16.01.2020
4236 Clear 13 1025 54 10000 0.5 0 15:20 16.01.2020
4237 Clear 13 1026 54 10000 1 0 14:45 16.01.2020
4238 Clear 13 1026 54 10000 0.63 100 14:24 16.01.2020
4239 Clouds 13 1026 58 10000 1 0 13:56 16.01.2020
4240 Clouds 13 1027 54 10000 1 0 13:37 16.01.2020
4241 Clouds 12 1027 54 10000 1 0 13:19 16.01.2020
4242 Clouds 12 1027 58 10000 1 0 12:42 16.01.2020
4243 Clouds 12 1027 62 10000 0.5 0 12:22 16.01.2020
4244 Clouds 11 1028 66 10000 0.3 347 11:43 16.01.2020
4245 Clouds 9 1028 71 10000 1 0 11:25 16.01.2020
4246 Clouds 9 1028 76 10000 1 0 10:59 16.01.2020
4247 Clouds 8 1028 76 10000 1.28 130 10:38 16.01.2020
4248 Clouds 8 1028 76 10000 1.28 130 10:20 16.01.2020
4249 Clouds 7 1028 81 10000 1.5 230 09:56 16.01.2020
4250 Clouds 7 1028 81 10000 1 0 09:37 16.01.2020
4251 Clouds 7 1028 81 10000 1 0 09:19 16.01.2020
4252 Clouds 6 1028 75 10000 1 160 08:49 16.01.2020
4253 Clouds 6 1028 81 10000 0.5 0 08:29 16.01.2020
4254 Clouds 6 1028 81 10000 0.5 0 07:58 16.01.2020
4255 Clouds 6 1028 81 10000 1.39 151 07:38 16.01.2020
4256 Clouds 6 1028 81 10000 1.39 151 07:19 16.01.2020
4257 Clouds 6 1027 81 10000 1 0 06:42 16.01.2020
4258 Clouds 6 1027 81 10000 3.1 190 05:59 16.01.2020
4259 Clouds 6 1027 81 10000 3.1 190 05:40 16.01.2020
4260 Clouds 7 1027 66 10000 2.6 160 04:37 16.01.2020
4261 Clouds 7 1027 66 10000 2.6 160 04:37 16.01.2020
4262 Clouds 6 1027 66 10000 2.6 220 03:28 16.01.2020
4263 Clouds 7 1026 66 10000 3.1 180 02:43 16.01.2020
4264 Clouds 6 1027 80 10000 1.5 0 00:54 16.01.2020
4265 Clouds 6 1026 80 10000 2.6 160 00:24 16.01.2020
4266 Clouds 6 1026 75 10000 1.5 160 23:50 15.01.2020
4267 Clouds 6 1026 80 10000 2.1 180 23:23 15.01.2020
4268 Clouds 6 1026 86 10000 2.1 210 22:59 15.01.2020
4269 Clouds 6 1026 86 10000 2.1 210 22:41 15.01.2020
4270 Clouds 7 1023 58 10000 5.7 190 22:20 15.01.2020
4271 Clouds 7 1023 58 10000 5.7 190 22:20 15.01.2020
4272 Clouds 5 1025 86 10000 1 0 21:59 15.01.2020
4273 Clouds 6 1025 86 10000 1 0 21:40 15.01.2020
4274 Clouds 6 1023 62 10000 3.1 230 21:22 15.01.2020
4275 Clouds 7 1023 58 10000 4.6 210 20:58 15.01.2020
4276 Clouds 6 1023 58 10000 4.6 210 20:40 15.01.2020
4277 Clouds 6 1022 62 10000 4.1 200 20:22 15.01.2020
4278 Clouds 7 1022 58 10000 3.1 210 19:56 15.01.2020
4279 Clouds 7 1022 58 10000 3.1 210 19:38 15.01.2020
4280 Clouds 7 1022 54 10000 1.5 0 19:20 15.01.2020
4281 Clouds 7 1022 61 10000 1.5 0 18:57 15.01.2020
4282 Clouds 7 1022 61 10000 1.5 0 18:38 15.01.2020
4283 Clouds 8 1021 57 10000 1 0 18:20 15.01.2020
4284 Clouds 8 1021 57 10000 1 0 18:20 15.01.2020
4285 Clouds 9 1021 54 10000 3.6 210 17:58 15.01.2020
4286 Clouds 9 1021 54 10000 3.6 210 17:40 15.01.2020
4287 Clouds 10 1020 54 10000 3.6 220 17:21 15.01.2020
4288 Clouds 11 1020 54 10000 3.1 230 16:56 15.01.2020
4289 Clouds 11 1020 54 10000 3.1 230 16:38 15.01.2020
4290 Clouds 11 1019 50 10000 2.1 190 16:20 15.01.2020
4291 Clouds 12 1019 47 10000 4.1 150 15:43 15.01.2020
4292 Clouds 12 1019 47 10000 4.6 180 15:21 15.01.2020
4293 Clouds 12 1019 47 10000 4.6 240 14:56 15.01.2020
4294 Clouds 12 1018 47 10000 6.2 240 14:37 15.01.2020
4295 Clear 12 1018 47 10000 6.2 240 14:18 15.01.2020
4296 Clear 11 1018 50 10000 1 0 13:44 15.01.2020
4297 Clear 11 1019 47 10000 4.1 140 13:23 15.01.2020
4298 Clear 11 1019 47 10000 4.6 190 12:55 15.01.2020
4299 Clear 11 1019 47 10000 4.6 190 12:37 15.01.2020
4300 Clear 11 1019 54 10000 5.1 180 12:37 15.01.2020
4301 Clear 10 1019 54 10000 5.1 180 12:18 15.01.2020
4302 Clear 9 1019 57 10000 3.6 150 11:54 15.01.2020
4303 Clear 10 1019 57 10000 3.6 150 11:36 15.01.2020
4304 Clear 6 1019 57 10000 5.1 160 11:18 15.01.2020
4305 Clear 6 1019 61 10000 5.7 180 10:41 15.01.2020
4306 Clear 5 1019 65 10000 3.1 190 10:21 15.01.2020
4307 Clear 4 1019 75 10000 3.1 200 09:41 15.01.2020
4308 Clear 3 1019 75 10000 3.1 180 09:22 15.01.2020
4309 Clear 4 1018 68 10000 2.1 140 08:45 15.01.2020
4310 Clear 3 1018 68 10000 4.6 190 08:27 15.01.2020
4311 Clouds 2 1018 70 10000 3.1 170 07:59 15.01.2020
4312 Clouds 2 1018 70 10000 3.1 170 07:40 15.01.2020
4313 Clouds 2 1018 70 10000 2.6 230 07:21 15.01.2020
4314 Clouds 2 1018 70 10000 4.6 190 06:43 15.01.2020
4315 Clouds 3 1018 65 10000 5.7 190 05:52 15.01.2020
4316 Clouds 3 1018 70 10000 4.6 190 03:44 15.01.2020
4317 Clouds 3 1017 75 10000 2.6 180 02:28 15.01.2020
4318 Clouds 3 1017 70 10000 1 0 01:22 15.01.2020
4319 Clouds 4 1017 65 10000 3.1 190 00:44 15.01.2020
4320 Clouds 4 1017 70 10000 1.5 0 00:25 15.01.2020
4321 Clouds 4 1017 70 10000 1.5 0 23:47 14.01.2020
4322 Clouds 4 1017 65 10000 1 0 23:29 14.01.2020
4323 Clouds 4 1017 75 10000 1.5 190 22:59 14.01.2020
4324 Clouds 4 1017 75 10000 1.5 190 22:40 14.01.2020
4325 Clouds 5 1017 65 10000 2.1 160 22:19 14.01.2020
4326 Clouds 6 1017 57 10000 2.6 160 21:58 14.01.2020
4327 Clouds 6 1017 57 10000 2.1 160 21:39 14.01.2020
4328 Clouds 6 1017 57 10000 2.1 160 21:20 14.01.2020
4329 Clouds 5 1017 57 10000 3.6 160 20:56 14.01.2020
4330 Clouds 6 1017 61 10000 2.6 160 20:38 14.01.2020
4331 Clouds 6 1017 61 10000 2.6 160 20:19 14.01.2020
4332 Clouds 6 1017 61 10000 2.6 160 19:55 14.01.2020
4333 Clouds 6 1017 61 10000 2.6 160 19:37 14.01.2020
4334 Clouds 6 1017 70 10000 3.1 190 19:18 14.01.2020
4335 Clouds 7 1016 57 10000 2.6 200 18:41 14.01.2020
4336 Clouds 8 1016 57 10000 2.6 200 18:20 14.01.2020
4337 Clouds 8 1016 57 10000 2.6 200 17:59 14.01.2020
4338 Clouds 7 1016 57 10000 3.6 200 17:37 14.01.2020
4339 Clouds 8 1016 57 10000 3.6 200 17:18 14.01.2020
4340 Clouds 9 1016 54 10000 2.6 180 16:54 14.01.2020
4341 Clouds 9 1016 50 10000 3.6 150 16:36 14.01.2020
4342 Clouds 9 1016 50 10000 3.6 150 16:18 14.01.2020
4343 Clouds 10 1016 50 10000 4.1 150 15:42 14.01.2020
4344 Clouds 10 1016 50 10000 4.6 160 15:19 14.01.2020
4345 Clouds 10 1015 50 10000 4.6 170 14:47 14.01.2020
4346 Clouds 11 1015 53 10000 5.1 180 14:23 14.01.2020
4347 Clouds 11 1016 53 10000 6.2 180 13:59 14.01.2020
4348 Clouds 11 1016 53 10000 6.2 180 13:59 14.01.2020
4349 Clouds 10 1016 53 10000 6.2 180 13:40 14.01.2020
4350 Clouds 10 1016 53 10000 5.7 170 13:19 14.01.2020
4351 Clouds 10 1016 50 10000 4.6 160 12:42 14.01.2020
4352 Clouds 9 1016 53 10000 7.2 170 12:23 14.01.2020
4353 Clouds 9 1017 46 10000 6.2 170 11:57 14.01.2020
4354 Clouds 8 1017 46 10000 6.2 170 11:39 14.01.2020
4355 Clouds 7 1016 56 10000 6.7 180 11:20 14.01.2020
4356 Clouds 5 1016 56 10000 6.7 180 10:56 14.01.2020
4357 Clouds 5 1016 56 10000 6.7 180 10:37 14.01.2020
4358 Clouds 4 1016 56 10000 6.7 180 10:19 14.01.2020
4359 Clouds 3 1016 56 10000 5.7 190 09:42 14.01.2020
4360 Clouds 3 1016 56 10000 3.6 210 09:23 14.01.2020
4361 Clouds 3 1016 56 10000 4.1 180 08:58 14.01.2020
4362 Clouds 3 1016 56 10000 4.1 180 08:39 14.01.2020
4363 Clouds 1 1016 59 10000 3.1 200 08:20 14.01.2020
4364 Clouds 1 1016 58 10000 3.1 160 07:46 14.01.2020
4365 Clouds 1 1015 58 10000 5.7 170 07:18 14.01.2020
4366 Clouds 1 1015 58 10000 5.1 170 06:42 14.01.2020
4367 Clouds 1 1015 58 10000 3.6 180 05:57 14.01.2020
4368 Clouds 1 1015 59 10000 4.6 180 04:50 14.01.2020
4369 Clouds 2 1015 75 10000 7.2 170 03:46 14.01.2020
4370 Clouds 2 1016 86 10000 4.1 180 02:33 14.01.2020
4371 Clouds 1 1016 93 10000 5.7 160 01:19 14.01.2020
4372 Clouds 1 1017 93 10000 3.6 170 00:47 14.01.2020
4373 Clouds 2 1017 93 10000 3.6 170 00:21 14.01.2020
4374 Clouds 2 1017 93 10000 3.6 190 23:44 13.01.2020
4375 Clouds 2 1017 93 10000 2.6 210 23:19 13.01.2020
4376 Clouds 2 1017 93 10000 1 0 22:57 13.01.2020
4377 Clouds 3 1017 93 10000 1 0 22:39 13.01.2020
4378 Clouds 3 1017 86 10000 3.1 210 22:19 13.01.2020
4379 Clouds 3 1017 87 10000 4.1 210 21:55 13.01.2020
4380 Clouds 3 1017 86 10000 3.6 240 21:37 13.01.2020
4381 Clouds 3 1017 86 10000 3.6 240 21:18 13.01.2020
4382 Clouds 3 1018 86 10000 2.6 260 20:56 13.01.2020
4383 Clouds 3 1018 93 10000 2.1 230 20:38 13.01.2020
4384 Clouds 3 1018 93 10000 2.1 230 20:19 13.01.2020
4385 Clouds 4 1018 93 10000 2.6 190 19:41 13.01.2020
4386 Clouds 4 1019 93 10000 2.1 220 19:21 13.01.2020
4387 Clouds 4 1019 86 10000 1 200 18:59 13.01.2020
4388 Clouds 4 1019 86 10000 1 200 18:40 13.01.2020
4389 Clouds 5 1019 86 10000 1 0 18:20 13.01.2020
4390 Clouds 5 1019 86 10000 1 0 18:20 13.01.2020
4391 Clouds 5 1019 87 10000 0.5 0 17:59 13.01.2020
4392 Clouds 5 1019 87 10000 0.5 0 17:40 13.01.2020
4393 Clouds 6 1019 81 10000 1 330 17:21 13.01.2020
4394 Clouds 6 1019 75 10000 1 0 16:56 13.01.2020
4395 Clouds 7 1018 93 0 1.13 215 16:37 13.01.2020
4396 Clouds 7 1018 78 0 1.13 215 16:18 13.01.2020
4397 Clouds 7 1018 94 0 1.13 215 15:42 13.01.2020
4398 Clouds 8 1021 72 0 0.89 202 15:22 13.01.2020
4399 Clouds 8 1022 71 0 0.89 202 14:57 13.01.2020
4400 Clouds 7 1019 72 0 0.89 104 14:37 13.01.2020
4401 Clouds 7 1019 76 0 1.63 220 14:18 13.01.2020
4402 Clouds 7 1020 74 0 1.63 220 13:41 13.01.2020
4403 Clouds 7 1019 78 0 0.45 247 13:22 13.01.2020
4404 Clouds 7 1022 87 10000 3.6 200 12:58 13.01.2020
4405 Clouds 7 1022 87 10000 3.6 200 12:40 13.01.2020
4406 Clouds 7 1022 87 10000 3.6 200 12:40 13.01.2020
4407 Clouds 6 1022 87 10000 3.6 200 12:21 13.01.2020
4408 Clouds 6 1022 87 10000 3.6 200 11:56 13.01.2020
4409 Clouds 6 1023 93 10000 3.1 210 11:37 13.01.2020
4410 Clouds 5 1023 93 10000 3.1 210 11:18 13.01.2020
4411 Clouds 5 1023 86 10000 3.1 200 10:55 13.01.2020
4412 Clouds 5 1023 86 10000 3.1 200 10:36 13.01.2020
4413 Clouds 4 1023 100 10000 2.6 180 10:18 13.01.2020
4414 Rain 4 1023 100 10000 1 0 09:42 13.01.2020
4415 Rain 3 1023 100 10000 2.6 180 09:23 13.01.2020
4416 Clouds 3 1024 93 10000 2.6 180 08:44 13.01.2020
4417 Clouds 3 1024 93 10000 2.1 170 08:22 13.01.2020
4418 Clouds 3 1024 93 10000 2.1 180 07:59 13.01.2020
4419 Clouds 3 1024 93 10000 2.1 180 07:41 13.01.2020
4420 Clouds 3 1024 93 10000 1.5 180 07:19 13.01.2020
4421 Clouds 3 1024 93 10000 2.1 160 06:37 13.01.2020
4422 Clouds 3 1024 93 10000 2.1 160 06:37 13.01.2020
4423 Clouds 3 1025 93 10000 1.5 200 05:37 13.01.2020
4424 Clouds 3 1025 93 10000 1.5 180 04:56 13.01.2020
4425 Clouds 2 1026 93 10000 1.5 230 03:38 13.01.2020
4426 Clouds 2 1027 93 10000 1 0 02:49 13.01.2020
4427 Clouds 2 1027 86 10000 0.5 160 02:30 13.01.2020
4428 Clouds 2 1027 86 10000 0.5 160 02:30 13.01.2020
4429 Clouds 2 1027 86 10000 1.08 193 01:33 13.01.2020
4430 Clouds 3 1027 93 10000 1 10 00:46 13.01.2020
4431 Clouds 3 1028 86 10000 0.5 0 00:26 13.01.2020
4432 Clouds 3 1028 93 10000 0.92 204 23:58 12.01.2020
4433 Clouds 3 1028 93 10000 0.92 204 23:40 12.01.2020
4434 Clouds 3 1028 86 10000 0.5 0 23:21 12.01.2020
4435 Clouds 3 1028 86 10000 0.5 0 23:21 12.01.2020
4436 Clouds 3 1028 86 10000 1.5 0 22:56 12.01.2020
4437 Clouds 3 1028 80 10000 1.5 180 22:37 12.01.2020
4438 Clouds 3 1028 80 10000 1.5 180 22:19 12.01.2020
4439 Clouds 3 1028 80 10000 1.75 177 21:54 12.01.2020
4440 Clouds 3 1028 80 10000 1.5 170 21:36 12.01.2020
4441 Clouds 2 1028 80 10000 1.5 170 21:18 12.01.2020
4442 Clouds 2 1028 80 10000 1.5 170 20:54 12.01.2020
4443 Clouds 3 1028 80 10000 1.5 180 20:36 12.01.2020
4444 Clouds 2 1028 80 10000 1.5 180 20:18 12.01.2020
4445 Clouds 2 1028 80 10000 1.5 200 19:54 12.01.2020
4446 Clouds 2 1028 86 10000 2.1 180 19:36 12.01.2020
4447 Clouds 3 1028 86 10000 2.1 180 19:18 12.01.2020
4448 Clouds 3 1028 76 10000 1 250 18:54 12.01.2020
4449 Clouds 3 1028 76 10000 1 0 18:36 12.01.2020
4450 Clouds 3 1028 76 10000 1 0 18:18 12.01.2020
4451 Clouds 3 1028 76 10000 1 290 17:42 12.01.2020
4452 Clouds 3 1028 80 10000 1.5 350 17:20 12.01.2020
4453 Clouds 4 1028 80 10000 1.5 330 16:57 12.01.2020
4454 Clouds 4 1028 75 10000 1.5 10 16:38 12.01.2020
4455 Clouds 4 1028 75 10000 1.5 10 16:20 12.01.2020
4456 Clouds 5 1028 75 10000 1.5 0 15:55 12.01.2020
4457 Clouds 5 1028 75 10000 1.5 0 15:55 12.01.2020
4458 Clouds 5 1028 75 10000 1 0 15:36 12.01.2020
4459 Clouds 4 1028 75 10000 1 0 15:18 12.01.2020
4460 Clouds 5 1028 70 10000 1 0 14:42 12.01.2020
4461 Clouds 5 1028 75 10000 1 0 14:22 12.01.2020
4462 Clouds 4 1028 75 10000 1 0 13:56 12.01.2020
4463 Clouds 4 1028 80 10000 1 0 13:38 12.01.2020
4464 Clouds 4 1028 80 10000 1 0 13:20 12.01.2020
4465 Clouds 4 1029 66 10000 1 0 12:55 12.01.2020
4466 Clouds 4 1029 86 10000 1.5 0 12:37 12.01.2020
4467 Clouds 4 1029 86 10000 1.5 0 12:18 12.01.2020
4468 Clouds 3 1029 66 10000 2.21 237 11:41 12.01.2020
4469 Clouds 2 1029 66 10000 2.21 237 11:22 12.01.2020
4470 Clouds 2 1029 78 10000 1 0 10:56 12.01.2020
4471 Clouds 1 1029 78 10000 1 0 10:37 12.01.2020
4472 Clouds 1 1029 100 10000 0.5 0 10:19 12.01.2020
4473 Clouds 1 1029 100 10000 1.5 340 09:42 12.01.2020
4474 Clouds 1 1029 92 10000 1 0 09:23 12.01.2020
4475 Clouds 0 1029 92 10000 0.5 0 08:48 12.01.2020
4476 Clouds 0 1028 92 10000 1 350 08:24 12.01.2020
4477 Clouds 0 1028 100 10000 1 0 07:49 12.01.2020
4478 Clouds 0 1028 92 10000 1 0 07:30 12.01.2020
4479 Clouds 0 1028 92 10000 1.5 220 06:59 12.01.2020
4480 Clouds 0 1028 92 10000 1.5 220 06:59 12.01.2020
4481 Clouds -1 1028 100 10000 1.5 190 06:38 12.01.2020
4482 Clouds -1 1028 92 10000 2.1 190 05:55 12.01.2020
4483 Clouds -1 1029 92 10000 1.5 190 04:56 12.01.2020
4484 Clouds -1 1029 92 10000 2.1 200 03:43 12.01.2020
4485 Clouds -1 1030 92 10000 2.6 200 02:52 12.01.2020
4486 Clouds -1 1030 86 10000 2.1 220 02:27 12.01.2020
4487 Clouds -1 1030 92 10000 2.6 220 01:35 12.01.2020
4488 Clear 0 1030 83 10000 1.5 240 00:57 12.01.2020
4489 Clear 0 1030 83 10000 1.5 240 00:37 12.01.2020
4490 Clear 0 1030 83 10000 1.5 250 00:18 12.01.2020
4491 Clear 0 1031 86 10000 1 0 23:41 11.01.2020
4492 Clouds 0 1031 86 10000 1.5 230 23:19 11.01.2020
4493 Clouds 1 1031 86 10000 1.5 260 22:56 11.01.2020
4494 Clouds 1 1031 86 10000 2.1 270 22:38 11.01.2020
4495 Clouds 1 1031 86 10000 2.1 270 22:20 11.01.2020
4496 Clouds 1 1031 86 10000 2.6 260 21:54 11.01.2020
4497 Clouds 1 1031 86 10000 2.6 260 21:36 11.01.2020
4498 Clouds 1 1031 86 10000 2.6 260 21:18 11.01.2020
4499 Clouds 1 1031 86 10000 2.6 260 20:39 11.01.2020
4500 Clouds 2 1032 92 10000 3.6 270 20:20 11.01.2020
4501 Clouds 2 1031 92 10000 3.1 280 19:58 11.01.2020
4502 Clouds 2 1031 92 10000 3.1 280 19:38 11.01.2020
4503 Clouds 3 1032 92 10000 2.1 270 19:20 11.01.2020
4504 Clouds 3 1032 92 10000 0.5 0 18:57 11.01.2020
4505 Clouds 3 1032 92 10000 0.5 0 18:37 11.01.2020
4506 Clouds 3 1032 92 10000 1.5 330 18:19 11.01.2020
4507 Clouds 3 1032 92 10000 1.5 330 18:19 11.01.2020
4508 Clouds 4 1032 92 10000 1 0 17:57 11.01.2020
4509 Clouds 4 1032 92 10000 1 280 17:39 11.01.2020
4510 Clouds 6 1032 89 10000 1 280 17:19 11.01.2020
4511 Clouds 6 1032 89 10000 1.5 230 16:44 11.01.2020
4512 Clouds 7 1032 65 10000 1 0 16:26 11.01.2020
4513 Clouds 7 1032 61 10000 1 0 15:58 11.01.2020
4514 Clouds 7 1032 61 10000 1 0 15:40 11.01.2020
4515 Clouds 7 1032 61 10000 2.1 350 15:20 11.01.2020
4516 Clouds 8 1032 61 10000 1 0 14:56 11.01.2020
4517 Clouds 8 1033 61 10000 0.5 0 14:38 11.01.2020
4518 Clouds 8 1033 61 10000 0.5 0 14:19 11.01.2020
4519 Clouds 7 1033 61 10000 1.5 0 13:39 11.01.2020
4520 Clouds 8 1033 70 10000 2.1 10 13:20 11.01.2020
4521 Clouds 7 1033 81 10000 2.6 360 12:58 11.01.2020
4522 Clouds 7 1033 81 10000 2.6 360 12:39 11.01.2020
4523 Clouds 7 1034 81 10000 2.6 340 12:21 11.01.2020
4524 Clouds 7 1034 81 10000 2.1 340 11:47 11.01.2020
4525 Clouds 6 1034 81 10000 2.1 340 11:26 11.01.2020
4526 Clouds 6 1034 87 10000 1 340 10:50 11.01.2020
4527 Clouds 5 1034 87 10000 1 0 10:30 11.01.2020
4528 Clouds 4 1034 93 10000 1.17 119 09:57 11.01.2020
4529 Clouds 4 1034 93 10000 1.17 119 09:37 11.01.2020
4530 Clouds 4 1034 93 10000 1.17 119 09:37 11.01.2020
4531 Clouds 4 1034 93 10000 1 0 09:19 11.01.2020
4532 Clouds 4 1034 93 10000 1.17 119 08:42 11.01.2020
4533 Clouds 4 1034 86 10000 0.95 106 08:21 11.01.2020
4534 Rain 4 1034 86 10000 0.5 0 07:44 11.01.2020
4535 Rain 4 1033 86 10000 1 180 07:25 11.01.2020
4536 Clouds 4 1033 86 10000 1.5 220 06:50 11.01.2020
4537 Clouds 4 1033 81 10000 0.5 0 05:48 11.01.2020
4538 Clouds 4 1033 86 10000 2.6 230 04:47 11.01.2020
4539 Clouds 4 1032 86 10000 2.1 210 04:28 11.01.2020
4540 Clouds 5 1032 81 10000 2.6 240 02:49 11.01.2020
4541 Clouds 5 1032 81 10000 2.1 270 02:27 11.01.2020
4542 Clouds 5 1032 81 10000 2.1 290 01:43 11.01.2020
4543 Clouds 6 1032 75 10000 2.6 300 01:19 11.01.2020
4544 Clouds 6 1032 75 10000 2.6 300 00:40 11.01.2020
4545 Clouds 6 1031 75 10000 2.1 300 00:18 11.01.2020
4546 Clouds 6 1031 75 10000 2.1 310 23:40 10.01.2020
4547 Clouds 6 1031 75 10000 2.1 310 23:40 10.01.2020
4548 Clouds 6 1031 75 10000 2.1 310 23:22 10.01.2020
4549 Clouds 6 1031 75 10000 1.5 340 22:59 10.01.2020
4550 Clouds 6 1031 75 10000 1.5 340 22:40 10.01.2020
4551 Clouds 7 1030 75 10000 1 0 22:20 10.01.2020
4552 Clouds 7 1030 70 10000 1.5 0 21:57 10.01.2020
4553 Clouds 6 1030 70 10000 2.1 310 21:37 10.01.2020
4554 Clouds 7 1030 70 10000 2.1 310 21:19 10.01.2020
4555 Rain 7 1029 70 10000 3.1 300 20:43 10.01.2020
4556 Rain 7 1029 75 10000 2.1 350 20:24 10.01.2020
4557 Rain 7 1028 75 10000 1.5 0 19:59 10.01.2020
4558 Rain 7 1027 75 10000 2.1 300 19:38 10.01.2020
4559 Rain 7 1027 75 10000 2.1 300 19:19 10.01.2020
4560 Clouds 8 1027 70 10000 4.6 270 18:43 10.01.2020
4561 Clouds 8 1026 81 10000 2.6 280 18:19 10.01.2020
4562 Clouds 8 1025 71 10000 1 0 17:58 10.01.2020
4563 Rain 8 1025 76 10000 2.6 250 17:39 10.01.2020
4564 Rain 8 1025 76 10000 2.6 250 17:20 10.01.2020
4565 Rain 9 1024 76 10000 4.1 190 16:59 10.01.2020
4566 Rain 9 1024 76 10000 4.1 190 16:39 10.01.2020
4567 Rain 10 1024 71 10000 4.6 200 16:20 10.01.2020
4568 Clouds 9 1023 62 10000 4.6 190 15:56 10.01.2020
4569 Clouds 9 1022 62 10000 4.6 210 15:37 10.01.2020
4570 Clouds 10 1022 62 10000 4.6 210 15:18 10.01.2020
4571 Clouds 9 1022 62 10000 5.7 210 14:56 10.01.2020
4572 Clouds 10 1021 62 10000 6.7 210 14:38 10.01.2020
4573 Clouds 11 1021 62 10000 6.7 210 14:19 10.01.2020
4574 Clouds 10 1021 66 10000 6.7 210 13:45 10.01.2020
4575 Clouds 11 1021 62 10000 5.7 230 13:26 10.01.2020
4576 Clouds 10 1021 62 10000 7.2 220 12:59 10.01.2020
4577 Clouds 11 1021 62 10000 7.2 220 12:40 10.01.2020
4578 Clouds 10 1021 62 10000 6.7 220 12:21 10.01.2020
4579 Clouds 10 1021 62 10000 5.1 240 11:57 10.01.2020
4580 Clouds 10 1021 58 10000 5.7 220 11:39 10.01.2020
4581 Clouds 9 1021 58 10000 5.7 220 11:19 10.01.2020
4582 Clouds 9 1020 62 10000 3.6 210 10:58 10.01.2020
4583 Clouds 9 1020 62 10000 3.6 210 10:38 10.01.2020
4584 Clouds 8 1020 66 10000 3.1 160 10:18 10.01.2020
4585 Clouds 7 1019 71 10000 3.6 170 09:45 10.01.2020
4586 Clouds 7 1019 71 10000 3.6 180 09:26 10.01.2020
4587 Clouds 7 1019 76 10000 4.1 180 08:57 10.01.2020
4588 Clouds 7 1019 76 10000 4.1 180 08:37 10.01.2020
4589 Clouds 7 1018 76 10000 3.6 190 08:18 10.01.2020
4590 Clouds 7 1018 76 10000 3.6 190 07:41 10.01.2020
4591 Clouds 7 1018 76 10000 5.1 190 07:21 10.01.2020
4592 Clouds 7 1018 76 10000 5.7 180 06:42 10.01.2020
4593 Clouds 7 1018 76 10000 6.2 170 06:24 10.01.2020
4594 Clouds 7 1018 76 10000 6.7 180 05:25 10.01.2020
4595 Rain 7 1018 66 10000 3.1 220 03:32 10.01.2020
4596 Rain 7 1019 87 10000 1.5 100 02:54 10.01.2020
4597 Rain 7 1019 87 10000 1.5 110 02:33 10.01.2020
4598 Rain 7 1017 61 10000 7.2 230 01:34 10.01.2020
4599 Rain 7 1017 61 10000 7.7 260 00:56 10.01.2020
4600 Rain 7 1017 53 10000 6.2 250 00:38 10.01.2020
4601 Rain 8 1017 46 10000 4.1 250 23:57 09.01.2020
4602 Rain 7 1017 70 10000 3.1 200 23:38 09.01.2020
4603 Rain 7 1017 70 10000 3.1 200 23:38 09.01.2020
4604 Rain 7 1017 70 10000 3.1 200 23:19 09.01.2020
4605 Clouds 7 1016 57 10000 4.6 210 22:57 09.01.2020
4606 Clouds 7 1016 57 10000 4.6 210 22:37 09.01.2020
4607 Clouds 7 1016 61 10000 3.6 220 22:18 09.01.2020
4608 Clouds 8 1016 57 10000 2.1 240 21:56 09.01.2020
4609 Clouds 8 1016 66 10000 1.5 0 21:37 09.01.2020
4610 Clouds 8 1016 66 10000 1.5 0 21:37 09.01.2020
4611 Clouds 8 1016 66 10000 1.5 0 21:37 09.01.2020
4612 Clouds 8 1016 66 10000 1.5 0 21:37 09.01.2020
4613 Clouds 8 1016 66 10000 1.5 0 21:18 09.01.2020
4614 Clouds 7 1016 62 10000 3.6 170 20:56 09.01.2020
4615 Clouds 7 1016 62 10000 1.5 0 20:38 09.01.2020
4616 Clouds 8 1016 62 10000 1.5 0 20:19 09.01.2020
4617 Clouds 8 1016 54 10000 3.1 220 19:55 09.01.2020
4618 Clouds 8 1016 54 10000 2.6 190 19:36 09.01.2020
4619 Clouds 8 1017 58 10000 2.1 160 19:18 09.01.2020
4620 Clouds 8 1017 58 10000 3.6 170 18:54 09.01.2020
4621 Clouds 8 1016 50 10000 3.6 180 18:36 09.01.2020
4622 Clouds 8 1017 50 10000 4.6 180 18:18 09.01.2020
4623 Clouds 8 1017 58 10000 2.1 160 18:18 09.01.2020
4624 Clouds 8 1017 50 10000 4.1 180 17:40 09.01.2020
4625 Clouds 9 1017 50 10000 1.5 190 17:18 09.01.2020
4626 Clouds 10 1018 50 10000 2.1 200 16:47 09.01.2020
4627 Clouds 10 1018 50 10000 2.1 200 16:23 09.01.2020
4628 Clouds 11 1018 50 10000 4.1 190 15:56 09.01.2020
4629 Clouds 11 1018 47 10000 5.1 190 15:38 09.01.2020
4630 Clouds 11 1018 44 10000 3.1 130 15:18 09.01.2020
4631 Clouds 12 1018 47 10000 5.7 200 14:41 09.01.2020
4632 Clouds 12 1019 47 10000 6.2 200 14:21 09.01.2020
4633 Clouds 13 1019 47 10000 6.2 200 13:57 09.01.2020
4634 Clouds 12 1019 51 10000 5.1 200 13:39 09.01.2020
4635 Clouds 12 1020 58 10000 3.6 200 13:20 09.01.2020
4636 Clouds 12 1020 58 10000 3.6 200 12:58 09.01.2020
4637 Clouds 12 1020 62 10000 5.1 200 12:38 09.01.2020
4638 Clouds 11 1021 62 10000 6.7 190 12:19 09.01.2020
4639 Clouds 11 1021 71 10000 4.6 180 11:55 09.01.2020
4640 Clouds 11 1021 66 10000 4.6 190 11:37 09.01.2020
4641 Clouds 9 1021 76 10000 2.6 170 11:19 09.01.2020
4642 Clouds 8 1022 76 10000 4.1 200 10:42 09.01.2020
4643 Clouds 8 1022 87 10000 2.6 220 10:22 09.01.2020
4644 Clouds 7 1022 87 10000 2.6 220 09:55 09.01.2020
4645 Clouds 7 1022 87 10000 3.1 220 09:37 09.01.2020
4646 Clouds 7 1022 81 10000 4.1 230 09:18 09.01.2020
4647 Clouds 7 1022 93 10000 1 340 08:54 09.01.2020
4648 Clouds 7 1022 87 10000 5.1 200 08:36 09.01.2020
4649 Clouds 6 1022 87 10000 4.1 210 08:18 09.01.2020
4650 Clouds 6 1023 100 10000 1.5 0 07:41 09.01.2020
4651 Clouds 6 1023 100 10000 1.5 0 07:23 09.01.2020
4652 Clouds 7 1024 100 10000 1.81 198 06:38 09.01.2020
4653 Clouds 7 1024 100 10000 1.81 198 06:18 09.01.2020
4654 Clouds 6 1024 100 10000 1.5 160 05:43 09.01.2020
4655 Clouds 6 1025 100 10000 1 0 04:42 09.01.2020
4656 Clouds 6 1026 100 10000 1.63 196 03:28 09.01.2020
4657 Clouds 6 1027 81 10000 2.6 210 02:48 09.01.2020
4658 Clouds 6 1027 81 10000 2.6 210 02:23 09.01.2020
4659 Clouds 6 1027 81 10000 2.6 170 01:35 09.01.2020
4660 Clouds 6 1027 93 10000 1 130 00:40 09.01.2020
4661 Clouds 6 1027 93 10000 1 130 00:20 09.01.2020
4662 Clouds 6 1027 93 10000 1.73 188 23:42 08.01.2020
4663 Clouds 6 1027 93 10000 1.5 193 23:24 08.01.2020
4664 Clouds 6 1027 93 10000 1.5 193 22:58 08.01.2020
4665 Clouds 6 1027 93 10000 1 220 22:38 08.01.2020
4666 Clouds 6 1027 93 10000 1 220 22:20 08.01.2020
4667 Clouds 7 1028 93 10000 1 250 21:56 08.01.2020
4668 Clouds 7 1028 93 10000 1.5 193 21:38 08.01.2020
4669 Clouds 7 1028 93 10000 0.5 320 21:19 08.01.2020
4670 Clouds 7 1028 93 10000 0.5 320 20:57 08.01.2020
4671 Clouds 7 1028 93 10000 1.5 193 20:38 08.01.2020
4672 Clouds 7 1028 81 10000 2.6 210 20:20 08.01.2020
4673 Clouds 6 1028 81 10000 2.6 210 19:56 08.01.2020
4674 Clouds 6 1028 76 10000 2.1 230 19:36 08.01.2020
4675 Clouds 6 1028 76 10000 2.1 210 19:18 08.01.2020
4676 Clouds 6 1028 87 10000 1.75 192 18:55 08.01.2020
4677 Clouds 6 1028 76 10000 2.1 180 18:36 08.01.2020
4678 Clouds 6 1028 87 10000 1.75 192 18:18 08.01.2020
4679 Clouds 7 1028 76 10000 2.1 180 17:45 08.01.2020
4680 Clouds 7 1028 76 10000 2.1 180 17:24 08.01.2020
4681 Clouds 8 1028 81 10000 2.1 230 16:57 08.01.2020
4682 Clouds 8 1028 76 10000 3.1 230 16:39 08.01.2020
4683 Clouds 8 1028 71 10000 3.6 210 16:19 08.01.2020
4684 Clouds 8 1028 71 10000 3.6 210 16:19 08.01.2020
4685 Clouds 8 1028 71 10000 3.6 210 15:58 08.01.2020
4686 Clouds 8 1028 76 10000 3.1 230 15:39 08.01.2020
4687 Clouds 8 1028 87 10000 0.5 0 15:19 08.01.2020
4688 Clouds 8 1028 76 10000 2.6 190 14:55 08.01.2020
4689 Clouds 7 1028 76 10000 2.6 210 14:37 08.01.2020
4690 Clouds 7 1028 76 10000 3.1 210 14:19 08.01.2020
4691 Clouds 7 1029 75 10000 3.1 230 13:39 08.01.2020
4692 Clouds 6 1029 87 10000 1 0 13:18 08.01.2020
4693 Clouds 7 1029 70 10000 4.1 210 12:41 08.01.2020
4694 Clouds 6 1029 86 10000 1.5 0 12:19 08.01.2020
4695 Clouds 6 1029 86 10000 1.5 0 12:19 08.01.2020
4696 Clouds 6 1030 86 10000 2.1 210 11:55 08.01.2020
4697 Clouds 6 1030 81 10000 3.6 230 11:37 08.01.2020
4698 Clouds 4 1030 86 10000 4.1 240 11:18 08.01.2020
4699 Clouds 3 1030 93 10000 3.1 190 10:54 08.01.2020
4700 Clouds 3 1030 80 10000 3.6 200 10:36 08.01.2020
4701 Clouds 3 1030 86 10000 3.6 200 10:18 08.01.2020
4702 Clouds 2 1030 86 10000 3.1 210 09:41 08.01.2020
4703 Clouds 1 1030 93 10000 3.1 210 09:19 08.01.2020
4704 Clouds 1 1030 93 10000 3.1 210 08:56 08.01.2020
4705 Clouds 0 1030 72 10000 2.6 160 08:37 08.01.2020
4706 Clouds 1 1030 100 10000 1.5 210 08:18 08.01.2020
4707 Mist 0 1029 52 2300 3.1 200 07:48 08.01.2020
4708 Mist 0 1029 52 2300 3.1 200 07:29 08.01.2020
4709 Mist 0 1029 52 2100 2.6 200 06:45 08.01.2020
4710 Mist 0 1029 52 2500 2.6 190 06:19 08.01.2020
4711 Mist -1 1029 100 5000 3.1 180 05:41 08.01.2020
4712 Mist -1 1029 100 5000 3.1 180 05:41 08.01.2020
4713 Clear -1 1029 100 10000 3.1 180 04:56 08.01.2020
4714 Clear 0 1030 92 10000 1 0 04:24 08.01.2020
4715 Clear 0 1029 59 10000 2.6 170 02:45 08.01.2020
4716 Clouds 1 1029 71 10000 2.6 170 02:22 08.01.2020
4717 Mist 1 1030 71 5000 2.1 210 01:46 08.01.2020
4718 Clouds 1 1029 71 10000 3.1 250 01:19 08.01.2020
4719 Clouds 1 1029 68 10000 2.1 220 00:28 08.01.2020
4720 Clouds 1 1030 68 10000 2.6 240 23:57 07.01.2020
4721 Clouds 1 1030 68 10000 2.6 240 23:39 07.01.2020
4722 Clouds 1 1030 100 10000 1.5 200 23:20 07.01.2020
4723 Clouds 1 1030 85 10000 2.6 240 23:20 07.01.2020
4724 Clouds 1 1030 85 10000 2.6 190 22:40 07.01.2020
4725 Clouds 2 1030 86 10000 2.1 230 22:20 07.01.2020
4726 Clouds 2 1030 86 10000 2.1 230 21:57 07.01.2020
4727 Clouds 2 1031 80 10000 2.6 210 21:38 07.01.2020
4728 Clouds 2 1031 85 10000 2.1 260 21:20 07.01.2020
4729 Clouds 3 1031 85 10000 2.1 260 20:55 07.01.2020
4730 Clouds 3 1031 86 10000 2.1 260 20:37 07.01.2020
4731 Clouds 3 1031 86 10000 2.1 260 20:19 07.01.2020
4732 Clouds 3 1031 80 10000 2.6 130 19:38 07.01.2020
4733 Clouds 4 1031 80 10000 3.1 280 19:20 07.01.2020
4734 Clouds 4 1031 75 10000 1.5 0 18:58 07.01.2020
4735 Clouds 4 1031 86 10000 2.1 110 18:40 07.01.2020
4736 Clouds 4 1031 86 10000 2.1 100 18:19 07.01.2020
4737 Clouds 4 1031 86 10000 2.1 100 17:59 07.01.2020
4738 Clouds 4 1031 80 10000 1.5 110 17:39 07.01.2020
4739 Clouds 5 1031 75 10000 1.02 287 17:21 07.01.2020
4740 Clouds 6 1031 75 10000 0.5 0 16:57 07.01.2020
4741 Clouds 6 1031 70 10000 1.02 287 16:38 07.01.2020
4742 Clouds 7 1031 70 10000 1 270 16:19 07.01.2020
4743 Clouds 7 1031 70 10000 1 270 15:58 07.01.2020
4744 Clouds 7 1030 70 10000 1.5 270 15:40 07.01.2020
4745 Clear 7 1030 70 10000 1 0 15:22 07.01.2020
4746 Clouds 7 1031 70 10000 2.1 260 14:55 07.01.2020
4747 Clouds 7 1031 66 10000 3.1 270 14:37 07.01.2020
4748 Clouds 7 1030 61 10000 3.1 230 14:18 07.01.2020
4749 Clouds 7 1031 70 10000 3.6 210 13:39 07.01.2020
4750 Clouds 7 1031 75 10000 4.1 210 13:19 07.01.2020
4751 Clouds 6 1031 70 10000 4.1 210 12:41 07.01.2020
4752 Clouds 6 1031 81 10000 1.5 230 12:20 07.01.2020
4753 Clouds 6 1031 81 10000 4.1 210 11:57 07.01.2020
4754 Clouds 5 1031 81 10000 3.6 200 11:38 07.01.2020
4755 Clouds 5 1032 86 10000 2.1 210 11:20 07.01.2020
4756 Clouds 4 1032 81 10000 4.6 190 10:42 07.01.2020
4757 Clouds 4 1032 81 10000 4.6 190 10:24 07.01.2020
4758 Clouds 4 1031 86 10000 3.6 210 09:59 07.01.2020
4759 Clouds 3 1031 86 10000 3.1 190 09:38 07.01.2020
4760 Clouds 3 1030 80 10000 1.5 210 09:20 07.01.2020
4761 Clouds 3 1030 80 10000 2.6 210 08:46 07.01.2020
4762 Clouds 3 1029 86 10000 1.5 0 08:26 07.01.2020
4763 Clouds 3 1029 86 10000 1.5 0 08:26 07.01.2020
4764 Clouds 3 1029 91 10000 1 0 07:54 07.01.2020
4765 Clouds 3 1028 91 10000 1 0 07:29 07.01.2020
4766 Clouds 3 1028 86 10000 1.5 150 06:54 07.01.2020
4767 Clouds 3 1028 86 10000 1.5 150 06:54 07.01.2020
4768 Clouds 2 1028 91 10000 1.5 0 06:35 07.01.2020
4769 Clouds 2 1028 91 10000 1 0 05:57 07.01.2020
4770 Clouds 2 1028 91 10000 1 0 05:35 07.01.2020
4771 Clear 1 1027 94 10000 1.5 80 03:29 07.01.2020
4772 Clear 1 1026 92 10000 1.5 0 02:25 07.01.2020
4773 Clear 0 1026 100 10000 1 0 01:57 07.01.2020
4774 Clear 0 1026 100 10000 1 0 01:34 07.01.2020
4775 Clear 0 1026 100 10000 0.5 0 00:51 07.01.2020
4776 Clear 0 1026 92 10000 1.5 0 00:20 07.01.2020
4777 Clear 0 1026 92 10000 1.5 270 23:56 06.01.2020
4778 Clear 0 1026 100 10000 1 0 23:36 06.01.2020
4779 Clear 0 1026 92 7000 0.5 0 23:18 06.01.2020
4780 Clear 0 1026 100 10000 2.66 206 22:43 06.01.2020
4781 Clear 0 1026 100 10000 2.66 206 22:24 06.01.2020
4782 Clear 0 1026 92 10000 1.5 0 21:58 06.01.2020
4783 Clear 0 1026 100 9000 0.5 0 21:39 06.01.2020
4784 Clear 1 1026 100 9000 0.5 0 21:20 06.01.2020
4785 Clear 1 1026 100 9000 0.5 0 21:20 06.01.2020
4786 Clear 1 1026 100 9000 0.5 0 21:20 06.01.2020
4787 Clear 1 1026 76 10000 0.5 0 20:57 06.01.2020
4788 Clear 1 1026 92 10000 1.5 210 20:38 06.01.2020
4789 Clear 1 1026 92 10000 1.5 210 20:38 06.01.2020
4790 Clear 1 1026 100 9000 0.5 0 20:20 06.01.2020
4791 Clear 1 1026 100 9000 0.5 0 19:56 06.01.2020
4792 Clear 1 1026 59 10000 1 260 19:38 06.01.2020
4793 Clear 1 1026 59 10000 1 0 19:20 06.01.2020
4794 Clear 1 1026 59 10000 1 0 18:48 06.01.2020
4795 Clear 2 1026 86 10000 0.5 0 18:23 06.01.2020
4796 Clear 2 1026 86 10000 1 310 17:59 06.01.2020
4797 Clear 2 1026 59 10000 2.1 300 17:38 06.01.2020
4798 Clear 3 1026 70 10000 1 260 17:18 06.01.2020
4799 Clear 4 1026 70 10000 1.5 220 16:44 06.01.2020
4800 Clear 4 1026 70 10000 1.5 220 16:25 06.01.2020
4801 Clear 4 1026 65 10000 1 0 15:59 06.01.2020
4802 Clear 4 1026 65 10000 1 0 15:39 06.01.2020
4803 Clear 4 1026 65 10000 1 0 15:20 06.01.2020
4804 Clear 5 1026 65 10000 1 0 14:58 06.01.2020
4805 Clear 5 1027 70 10000 1.5 200 14:40 06.01.2020
4806 Clouds 5 1027 70 10000 2.1 190 14:20 06.01.2020
4807 Clouds 5 1027 70 10000 2.1 190 13:57 06.01.2020
4808 Clouds 5 1027 75 10000 3.1 180 13:37 06.01.2020
4809 Clouds 4 1027 75 10000 3.1 180 13:19 06.01.2020
4810 Clouds 5 1029 80 10000 3.6 180 12:43 06.01.2020
4811 Clouds 4 1029 80 10000 3.6 180 12:20 06.01.2020
4812 Clouds 4 1029 51 10000 1 0 11:58 06.01.2020
4813 Clouds 3 1030 86 10000 1 0 11:39 06.01.2020
4814 Clouds 2 1030 86 10000 1 0 11:20 06.01.2020
4815 Rain 1 1030 55 10000 0.73 192 10:54 06.01.2020
4816 Rain 0 1030 100 150 0.73 192 10:36 06.01.2020
4817 Rain 0 1030 92 100 1 0 10:18 06.01.2020
4818 Fog -1 1031 100 200 0.5 0 09:37 06.01.2020
4819 Fog -2 1031 100 250 1.5 100 09:19 06.01.2020
4820 Clouds -2 1030 92 10000 1 140 08:43 06.01.2020
4821 Clouds -2 1030 92 10000 1 140 08:25 06.01.2020
4822 Clouds -2 1030 92 10000 1.5 200 07:53 06.01.2020
4823 Clouds -2 1030 100 10000 1.5 200 07:28 06.01.2020
4824 Clouds -2 1031 100 10000 1 210 06:45 06.01.2020
4825 Clouds -2 1031 100 10000 1 210 06:20 06.01.2020
4826 Clouds -2 1031 100 10000 0.5 200 05:45 06.01.2020
4827 Clouds -2 1031 92 10000 1.1 134 04:38 06.01.2020
4828 Clouds -2 1031 92 10000 1.1 134 04:19 06.01.2020
4829 Clouds -1 1032 70 10000 1.5 0 02:46 06.01.2020
4830 Clouds -1 1032 70 10000 1.5 0 02:24 06.01.2020
4831 Clear -1 1032 86 10000 2.6 280 01:44 06.01.2020
4832 Mist -1 1032 100 4900 1 0 01:26 06.01.2020
4833 Clear -1 1033 82 10000 3.6 270 00:42 06.01.2020
4834 Clear -1 1033 82 10000 3.6 270 00:23 06.01.2020
4835 Clear 0 1033 82 10000 3.6 270 23:42 05.01.2020
4836 Clear 0 1033 82 10000 3.6 270 23:42 05.01.2020
4837 Mist 0 1033 92 4800 1 230 23:22 05.01.2020
4838 Mist 0 1033 92 4800 1 230 22:57 05.01.2020
4839 Clear 0 1034 89 10000 1 0 22:38 05.01.2020
4840 Clear 0 1034 89 10000 1 0 22:20 05.01.2020
4841 Clear 0 1034 89 10000 3.1 280 21:55 05.01.2020
4842 Clear 0 1034 89 10000 1 0 21:37 05.01.2020
4843 Clear 0 1034 100 8000 1 200 21:19 05.01.2020
4844 Clear 0 1034 100 8000 1 200 21:19 05.01.2020
4845 Clear 1 1034 89 10000 2.6 270 20:55 05.01.2020
4846 Clear 1 1034 89 10000 3.1 270 20:37 05.01.2020
4847 Clear 1 1034 92 10000 1 0 20:19 05.01.2020
4848 Clear 1 1034 92 10000 3.6 270 19:56 05.01.2020
4849 Clear 1 1034 86 10000 3.6 280 19:37 05.01.2020
4850 Clear 1 1034 93 10000 0.5 0 19:19 05.01.2020
4851 Clear 2 1035 80 10000 3.1 280 18:54 05.01.2020
4852 Clear 2 1035 80 10000 2.6 290 18:36 05.01.2020
4853 Clear 2 1035 80 10000 1.5 310 18:18 05.01.2020
4854 Clear 3 1035 80 10000 1.5 310 17:55 05.01.2020
4855 Clear 3 1035 80 10000 1.5 310 17:55 05.01.2020
4856 Clear 3 1035 75 10000 2.1 360 17:37 05.01.2020
4857 Clear 4 1035 75 10000 2.1 360 17:18 05.01.2020
4858 Clear 5 1035 70 10000 2.1 20 16:55 05.01.2020
4859 Clear 5 1035 75 10000 2.6 360 16:36 05.01.2020
4860 Clear 5 1035 75 10000 2.6 360 16:18 05.01.2020
4861 Clouds 5 1035 65 10000 2.1 30 15:36 05.01.2020
4862 Clouds 5 1035 65 10000 2.1 30 15:36 05.01.2020
4863 Clear 6 1035 70 10000 1.5 0 15:18 05.01.2020
4864 Clear 6 1035 70 10000 1.5 0 14:54 05.01.2020
4865 Clear 6 1035 70 10000 1.5 0 14:36 05.01.2020
4866 Clear 6 1035 70 10000 1 0 14:18 05.01.2020
4867 Clear 6 1036 65 10000 1 0 13:40 05.01.2020
4868 Clear 6 1036 65 10000 1 0 13:40 05.01.2020
4869 Clear 5 1036 70 10000 0.5 0 13:21 05.01.2020
4870 Clear 5 1036 70 10000 0.5 0 12:58 05.01.2020
4871 Clear 5 1036 70 10000 0.5 0 12:39 05.01.2020
4872 Clear 4 1036 70 10000 0.5 0 12:21 05.01.2020
4873 Clear 4 1036 65 10000 0.87 29 11:58 05.01.2020
4874 Clear 4 1036 75 10000 1.5 340 11:39 05.01.2020
4875 Clear 4 1036 75 10000 1.5 340 11:39 05.01.2020
4876 Clear 3 1036 75 10000 1.5 340 11:19 05.01.2020
4877 Clouds 3 1036 75 10000 0.5 0 10:56 05.01.2020
4878 Clouds 2 1036 82 10000 3.1 240 10:36 05.01.2020
4879 Clouds 2 1037 82 10000 1.5 190 10:18 05.01.2020
4880 Clouds 1 1036 82 10000 2.1 250 09:41 05.01.2020
4881 Clouds 0 1036 82 10000 2.1 250 09:21 05.01.2020
4882 Clouds 0 1036 82 10000 2.1 250 09:21 05.01.2020
4883 Clouds 0 1036 86 10000 2.6 220 08:48 05.01.2020
4884 Clouds 0 1036 82 10000 1.5 220 08:29 05.01.2020
4885 Clouds 0 1036 100 10000 1 0 07:56 05.01.2020
4886 Clouds 0 1036 100 10000 0.5 0 07:37 05.01.2020
4887 Clear 0 1036 100 10000 0.5 0 07:18 05.01.2020
4888 Clear 0 1036 100 10000 0.5 0 05:59 05.01.2020
4889 Clear 1 1036 90 10000 1.53 102 05:32 05.01.2020
4890 Clouds 1 1035 89 10000 2.1 180 04:43 05.01.2020
4891 Clouds 1 1036 93 10000 1.5 150 04:18 05.01.2020
4892 Clouds 1 1036 93 10000 1.5 150 04:18 05.01.2020
4893 Clouds 2 1035 93 10000 1.5 150 02:46 05.01.2020
4894 Clouds 2 1035 93 10000 1.5 150 02:24 05.01.2020
4895 Clouds 2 1036 93 10000 0.59 253 01:48 05.01.2020
4896 Clouds 2 1036 93 10000 1.5 150 01:19 05.01.2020
4897 Clouds 3 1036 93 10000 1 0 00:54 05.01.2020
4898 Clouds 2 1036 93 10000 1.5 340 00:36 05.01.2020
4899 Clouds 3 1036 86 10000 1 0 00:18 05.01.2020
4900 Rain 3 1036 86 10000 1.5 0 23:40 04.01.2020
4901 Clouds 3 1036 90 10000 0.5 0 23:20 04.01.2020
4902 Clouds 4 1035 90 10000 2.1 230 22:40 04.01.2020
4903 Clouds 4 1035 90 10000 2.1 230 22:22 04.01.2020
4904 Clouds 4 1035 90 10000 2.1 230 22:22 04.01.2020
4905 Clouds 4 1035 90 10000 3.1 190 21:58 04.01.2020
4906 Clouds 4 1035 90 10000 2.1 190 21:40 04.01.2020
4907 Clouds 4 1035 90 10000 2.1 190 21:21 04.01.2020
4908 Clouds 4 1035 90 10000 3.1 190 20:59 04.01.2020
4909 Clouds 4 1035 90 10000 3.1 210 20:40 04.01.2020
4910 Clouds 4 1035 92 10000 3.1 210 20:22 04.01.2020
4911 Clouds 4 1035 92 10000 3.1 210 20:22 04.01.2020
4912 Clouds 4 1035 92 10000 2.1 240 19:57 04.01.2020
4913 Clouds 4 1035 92 10000 1 0 19:39 04.01.2020
4914 Clouds 4 1035 92 10000 1 0 19:20 04.01.2020
4915 Clouds 4 1035 92 10000 2.6 240 18:56 04.01.2020
4916 Clouds 4 1034 92 10000 2.6 250 18:38 04.01.2020
4917 Clouds 4 1034 60 10000 1.5 270 18:19 04.01.2020
4918 Clouds 4 1034 56 10000 3.1 270 17:42 04.01.2020
4919 Clouds 4 1034 56 10000 3.1 270 17:42 04.01.2020
4920 Clouds 5 1034 56 10000 3.1 270 17:24 04.01.2020
4921 Clouds 5 1034 56 10000 3.1 270 17:24 04.01.2020
4922 Clouds 5 1033 86 10000 4.1 310 16:59 04.01.2020
4923 Clouds 5 1033 86 10000 3.6 300 16:40 04.01.2020
4924 Clouds 6 1033 86 10000 3.6 300 16:22 04.01.2020
4925 Clouds 6 1033 86 10000 3.6 300 16:22 04.01.2020
4926 Clouds 6 1033 61 10000 1 0 15:56 04.01.2020
4927 Clouds 6 1033 65 10000 2.1 210 15:38 04.01.2020
4928 Clouds 6 1033 65 10000 4.1 200 15:19 04.01.2020
4929 Clouds 6 1033 65 10000 4.1 200 14:56 04.01.2020
4930 Clouds 6 1033 65 10000 4.1 190 14:37 04.01.2020
4931 Clouds 6 1033 65 10000 4.1 190 14:19 04.01.2020
4932 Clouds 6 1033 65 10000 4.6 190 13:54 04.01.2020
4933 Clouds 6 1033 61 10000 3.6 170 13:36 04.01.2020
4934 Clouds 6 1033 61 10000 3.6 170 13:36 04.01.2020
4935 Clouds 6 1033 72 10000 1 0 13:18 04.01.2020
4936 Clouds 6 1033 72 10000 4.1 300 12:41 04.01.2020
4937 Clouds 6 1033 72 10000 4.1 300 12:19 04.01.2020
4938 Clouds 6 1033 61 10000 1 0 11:58 04.01.2020
4939 Clouds 6 1034 65 10000 1.5 0 11:38 04.01.2020
4940 Clouds 5 1033 65 10000 1 0 11:19 04.01.2020
4941 Rain 5 1033 75 10000 1 0 10:42 04.01.2020
4942 Rain 5 1033 75 10000 1 0 10:42 04.01.2020
4943 Rain 5 1033 75 10000 1 0 10:23 04.01.2020
4944 Rain 5 1033 75 10000 1 0 10:23 04.01.2020
4945 Rain 5 1033 75 10000 2.6 360 09:59 04.01.2020
4946 Rain 5 1033 75 10000 3.1 330 09:41 04.01.2020
4947 Rain 5 1033 75 10000 3.1 330 09:21 04.01.2020
4948 Rain 5 1032 81 10000 4.6 350 08:41 04.01.2020
4949 Rain 5 1032 81 10000 4.6 350 08:21 04.01.2020
4950 Rain 5 1031 93 10000 2.1 350 07:44 04.01.2020
4951 Rain 6 1030 93 10000 1.5 20 07:20 04.01.2020
4952 Rain 6 1030 93 10000 1 0 06:33 04.01.2020
4953 Rain 6 1030 100 10000 1 0 05:22 04.01.2020
4954 Rain 7 1029 93 10000 2.1 200 04:44 04.01.2020
4955 Rain 7 1029 93 10000 2.1 200 04:25 04.01.2020
4956 Rain 7 1029 100 10000 2.1 170 03:19 04.01.2020
4957 Clouds 6 1028 100 10000 1 0 02:23 04.01.2020
4958 Clouds 6 1028 93 10000 1 0 01:56 04.01.2020
4959 Clouds 7 1028 87 10000 2.6 160 01:32 04.01.2020
4960 Clouds 7 1028 93 10000 3.1 200 00:50 04.01.2020
4961 Clouds 7 1028 87 10000 1.5 180 00:28 04.01.2020
4962 Clouds 7 1028 93 10000 2.1 200 23:52 03.01.2020
4963 Clouds 7 1028 87 10000 4.6 200 23:27 03.01.2020
4964 Clouds 7 1028 87 10000 3.1 180 22:55 03.01.2020
4965 Clouds 7 1028 93 10000 3.1 180 22:37 03.01.2020
4966 Rain 7 1028 93 10000 2.1 190 22:18 03.01.2020
4967 Rain 7 1028 93 10000 2.1 190 21:56 03.01.2020
4968 Rain 7 1028 93 10000 1.5 170 21:37 03.01.2020
4969 Rain 7 1028 93 10000 1.5 170 21:18 03.01.2020
4970 Clouds 7 1028 93 10000 3.1 180 20:54 03.01.2020
4971 Clouds 7 1028 93 10000 2.6 190 20:36 03.01.2020
4972 Clouds 7 1027 93 10000 4.1 180 20:18 03.01.2020
4973 Clouds 7 1027 87 10000 4.1 200 19:42 03.01.2020
4974 Clouds 7 1027 87 10000 4.1 200 19:23 03.01.2020
4975 Clouds 7 1027 93 10000 5.1 200 18:57 03.01.2020
4976 Clouds 7 1027 87 10000 5.7 180 18:38 03.01.2020
4977 Clouds 7 1027 87 10000 5.7 180 18:20 03.01.2020
4978 Clouds 7 1026 76 10000 3.6 170 17:42 03.01.2020
4979 Clouds 8 1026 76 10000 3.6 170 17:22 03.01.2020
4980 Clouds 8 1026 81 10000 3.6 210 16:59 03.01.2020
4981 Clouds 8 1026 71 10000 4.6 230 16:40 03.01.2020
4982 Clouds 8 1025 66 10000 5.7 220 16:21 03.01.2020
4983 Clouds 8 1025 66 10000 6.7 220 15:42 03.01.2020
4984 Clouds 8 1025 66 10000 6.7 220 15:19 03.01.2020
4985 Rain 8 1024 66 10000 7.7 230 14:56 03.01.2020
4986 Clouds 8 1026 70 10000 1.5 0 14:37 03.01.2020
4987 Clouds 8 1025 71 10000 4.1 220 14:19 03.01.2020
4988 Clouds 8 1025 76 10000 3.1 150 13:41 03.01.2020
4989 Clouds 8 1025 76 10000 3.1 150 13:23 03.01.2020
4990 Clouds 7 1025 87 10000 1.5 0 12:56 03.01.2020
4991 Clouds 7 1026 86 10000 1.5 320 12:38 03.01.2020
4992 Clouds 7 1026 86 10000 1.5 320 12:19 03.01.2020
4993 Rain 7 1026 87 10000 3.1 150 11:42 03.01.2020
4994 Clouds 5 1025 81 10000 3.6 190 11:19 03.01.2020
4995 Clouds 4 1026 100 10000 1 280 10:44 03.01.2020
4996 Clouds 4 1026 100 10000 1 280 10:25 03.01.2020
4997 Clouds 3 1025 100 10000 1 0 09:57 03.01.2020
4998 Clouds 3 1025 77 7000 1 0 09:39 03.01.2020
4999 Clouds 3 1025 77 7000 1 0 09:21 03.01.2020
5000 Clouds 2 1025 77 6000 1 0 08:56 03.01.2020
5001 Clouds 2 1025 77 8000 1 0 08:37 03.01.2020
5002 Clouds 2 1025 82 8000 1 0 08:19 03.01.2020
5003 Clouds 2 1025 80 6000 1 0 07:39 03.01.2020
5004 Clouds 2 1025 80 7000 1 0 07:18 03.01.2020
5005 Clouds 2 1025 80 8000 1 0 06:47 03.01.2020
5006 Clouds 2 1025 80 8000 1 0 06:29 03.01.2020
5007 Clouds 2 1026 80 9000 1.5 210 05:39 03.01.2020
5008 Mist 1 1026 85 4900 2.1 191 04:21 03.01.2020
5009 Clouds 2 1026 85 6000 0.5 0 02:56 03.01.2020
5010 Clouds 2 1026 85 10000 2.1 191 02:33 03.01.2020
5011 Clouds 2 1027 86 10000 2.1 230 01:42 03.01.2020
5012 Clouds 2 1027 86 10000 2.6 190 00:50 03.01.2020
5013 Clouds 2 1027 93 10000 3.1 190 00:30 03.01.2020
5014 Clouds 2 1028 86 10000 2.1 210 23:56 02.01.2020
5015 Clouds 1 1028 100 10000 2.1 190 23:38 02.01.2020
5016 Clouds 1 1028 100 10000 2.1 190 23:19 02.01.2020
5017 Clouds 1 1028 81 6000 1.5 0 22:57 02.01.2020
5018 Mist 1 1028 81 3300 2.03 188 22:38 02.01.2020
5019 Mist 1 1028 81 3300 2.03 188 22:18 02.01.2020
5020 Fog 1 1028 81 250 1 360 21:41 02.01.2020
5021 Fog 1 1028 81 250 1 360 21:23 02.01.2020
5022 Mist 1 1028 81 2500 1.5 0 20:59 02.01.2020
5023 Fog 0 1028 81 600 2.03 188 20:39 02.01.2020
5024 Fog 0 1028 70 600 2.14 183 20:21 02.01.2020
5025 Fog 0 1028 75 600 2.24 184 20:21 02.01.2020
5026 Fog 0 1028 75 400 2.24 184 19:56 02.01.2020
5027 Fog 0 1028 75 300 2.24 184 19:38 02.01.2020
5028 Fog 0 1028 75 300 2.24 184 19:19 02.01.2020
5029 Fog 0 1028 75 300 2.24 184 18:58 02.01.2020
5030 Fog 0 1028 75 500 0.5 0 18:40 02.01.2020
5031 Fog 0 1028 75 500 0.5 0 18:22 02.01.2020
5032 Mist 1 1028 75 5000 1 120 17:57 02.01.2020
5033 Fog 1 1028 100 600 1 0 17:37 02.01.2020
5034 Clouds 1 1028 77 6000 1 0 17:19 02.01.2020
5035 Clouds 2 1028 77 6000 1 0 16:57 02.01.2020
5036 Clouds 2 1028 93 7000 1 0 16:38 02.01.2020
5037 Clouds 3 1028 93 7000 1 0 16:20 02.01.2020
5038 Clouds 3 1028 93 8000 1.5 0 15:56 02.01.2020
5039 Clouds 3 1028 77 8000 1.5 0 15:37 02.01.2020
5040 Clouds 3 1028 77 10000 1 0 15:19 02.01.2020
5041 Clouds 3 1029 77 10000 1.5 0 14:54 02.01.2020
5042 Clouds 3 1028 77 10000 1 0 14:54 02.01.2020
5043 Clouds 3 1029 77 10000 1.5 0 14:36 02.01.2020
5044 Clouds 3 1029 65 10000 1.5 220 14:18 02.01.2020
5045 Clouds 3 1029 65 10000 2.1 190 13:45 02.01.2020
5046 Clouds 3 1029 68 10000 2.1 190 13:26 02.01.2020
5047 Fog 3 1031 100 700 3.6 210 12:43 02.01.2020
5048 Clouds 3 1030 68 8000 2.1 210 12:24 02.01.2020
5049 Clouds 3 1030 68 8000 2.1 210 12:24 02.01.2020
5050 Fog 2 1031 92 900 3.6 200 11:43 02.01.2020
5051 Clouds 0 1031 100 7000 2.6 200 11:25 02.01.2020
5052 Clouds -1 1031 100 6000 2.1 210 10:57 02.01.2020
5053 Fog -2 1031 92 600 3.1 180 10:38 02.01.2020
5054 Clouds -2 1031 100 6000 3.1 200 10:19 02.01.2020
5055 Clouds -2 1031 100 6000 3.6 200 09:41 02.01.2020
5056 Clouds -2 1031 100 6000 3.6 200 09:22 02.01.2020
5057 Clouds -3 1031 100 8000 1.5 240 08:44 02.01.2020
5058 Clouds -3 1031 100 8000 1.5 240 08:25 02.01.2020
5059 Clouds -2 1031 100 9000 1.5 220 07:49 02.01.2020
5060 Mist -2 1031 100 4000 1 0 07:30 02.01.2020
5061 Mist -2 1031 100 5000 1.5 280 06:44 02.01.2020
5062 Mist -2 1031 100 5000 1.5 280 06:26 02.01.2020
5063 Clouds -2 1031 92 6000 1 0 04:53 02.01.2020
5064 Clouds -2 1031 92 6000 1 300 04:30 02.01.2020
5065 Mist -2 1031 100 5000 2.6 210 02:32 02.01.2020
5066 Clouds -2 1031 100 6000 3.6 180 01:58 02.01.2020
5067 Mist -2 1031 100 4900 1.5 220 01:33 02.01.2020
5068 Mist -2 1031 100 5000 1.5 250 00:57 02.01.2020
5069 Mist -2 1031 100 5000 1.5 0 00:33 02.01.2020
5070 Fog -2 1032 100 650 0.5 0 23:49 01.01.2020
5071 Fog -2 1032 100 650 0.5 0 23:27 01.01.2020
5072 Fog -2 1032 100 600 1 0 22:56 01.01.2020
5073 Fog -2 1032 100 650 1 0 22:38 01.01.2020
5074 Fog -2 1032 100 650 1 0 22:19 01.01.2020
5075 Fog -2 1032 100 700 1 330 21:56 01.01.2020
5076 Fog -2 1032 100 700 1 300 21:37 01.01.2020
5077 Fog -2 1032 100 700 1 300 21:18 01.01.2020
5078 Fog -2 1032 100 800 1 0 20:54 01.01.2020
5079 Fog -2 1032 100 550 1 0 20:36 01.01.2020
5080 Fog -1 1032 100 600 1 280 20:18 01.01.2020
5081 Fog -1 1032 100 600 1 280 19:54 01.01.2020
5082 Fog -1 1032 100 600 1.5 270 19:36 01.01.2020
5083 Fog -1 1032 92 800 1.5 280 19:18 01.01.2020
5084 Fog -1 1032 92 800 1.5 280 18:54 01.01.2020
5085 Fog -1 1032 92 550 1 0 18:36 01.01.2020
5086 Mist -1 1032 100 1100 1.5 250 18:18 01.01.2020
5087 Mist -1 1032 100 1100 1.5 250 17:55 01.01.2020
5088 Fog -1 1031 92 6000 3.1 330 17:36 01.01.2020
5089 Mist 0 1032 100 2700 0.5 0 17:18 01.01.2020
5090 Mist 0 1032 100 2700 1 0 16:39 01.01.2020
5091 Mist 0 1032 100 2700 1 0 16:20 01.01.2020
5092 Mist 0 1032 92 3200 0.17 111 15:57 01.01.2020
5093 Mist 1 1032 100 3400 1 0 15:39 01.01.2020
5094 Mist 1 1032 92 2900 1 0 15:20 01.01.2020
5095 Mist 1 1032 92 2900 1 0 14:58 01.01.2020
5096 Mist 1 1032 92 2900 1 0 14:58 01.01.2020
5097 Mist 1 1032 100 2800 1.5 0 14:39 01.01.2020
5098 Mist 1 1032 100 2800 1.5 0 14:21 01.01.2020
5099 Mist 1 1032 92 2900 1 0 13:56 01.01.2020
5100 Mist 1 1033 100 3100 0.5 0 13:37 01.01.2020
5101 Mist 1 1033 100 1700 1 0 13:18 01.01.2020
5102 Mist 2 1033 100 1700 1 0 12:55 01.01.2020
5103 Mist 2 1033 100 1300 1 0 12:37 01.01.2020
5104 Mist 2 1033 100 1300 1 0 12:18 01.01.2020
5105 Mist 0 1034 92 1400 1 0 11:43 01.01.2020
5106 Mist -1 1034 92 1400 1 0 11:22 01.01.2020
5107 Fog -1 1033 92 750 1 0 10:59 01.01.2020
5108 Fog -2 1033 92 700 1 0 10:40 01.01.2020
5109 Fog -2 1033 92 700 1 0 10:20 01.01.2020
5110 Fog -2 1033 92 700 1 0 10:20 01.01.2020
5111 Fog -2 1033 100 350 1 230 09:56 01.01.2020
5112 Fog -2 1033 92 400 1.5 230 09:37 01.01.2020
5113 Fog -2 1033 92 650 1.5 230 09:18 01.01.2020
5114 Fog -3 1033 92 650 1.5 230 08:55 01.01.2020
5115 Fog -3 1033 100 1200 1.5 250 08:36 01.01.2020
5116 Fog -3 1033 100 1200 1.5 250 08:18 01.01.2020
5117 Fog -3 1033 100 350 1 0 07:51 01.01.2020
5118 Fog -3 1033 100 350 1 0 07:32 01.01.2020
5119 Fog -3 1033 100 250 0.5 0 06:44 01.01.2020
5120 Fog -3 1033 100 300 1.68 126 06:20 01.01.2020
5121 Fog -3 1033 100 300 0.5 0 05:21 01.01.2020
5122 Fog -2 1033 92 2500 1 120 03:43 01.01.2020
5123 Fog -2 1033 92 2500 1 120 03:23 01.01.2020
5124 Mist -2 1033 100 4900 1.69 105 02:57 01.01.2020
5125 Mist -2 1033 92 3400 0.5 0 02:34 01.01.2020
5126 Mist -2 1033 100 4300 2.19 132 01:56 01.01.2020
5127 Mist -2 1034 92 2600 2.1 260 01:38 01.01.2020
5128 Mist -2 1034 92 2600 2.1 260 01:19 01.01.2020
5129 Clear -1 1033 49 10000 1 0 00:44 01.01.2020
5130 Clear -1 1033 49 10000 1 0 00:25 01.01.2020
5131 Clear -1 1034 92 10000 0.5 0 23:41 31.12.2019
5132 Clouds -1 1034 92 10000 0.5 0 23:21 31.12.2019
5133 Clouds -1 1034 100 10000 2.1 280 22:57 31.12.2019
5134 Clouds -1 1034 100 9000 0.5 0 22:39 31.12.2019
5135 Clouds -1 1034 92 6000 1 280 22:20 31.12.2019
5136 Clouds -1 1034 92 6000 1 280 21:57 31.12.2019
5137 Mist -1 1034 100 5000 0.5 0 21:38 31.12.2019
5138 Mist -1 1034 100 5000 0.5 0 21:20 31.12.2019
5139 Clouds -1 1034 92 7000 1.5 320 20:55 31.12.2019
5140 Clouds -1 1034 100 7000 1.5 310 20:37 31.12.2019
5141 Clouds 0 1034 100 7000 1.5 310 20:18 31.12.2019
5142 Clouds 0 1034 92 10000 1.5 330 19:54 31.12.2019
5143 Clouds 0 1034 60 9000 1.5 20 19:36 31.12.2019
5144 Clouds 0 1034 60 9000 1.5 20 19:18 31.12.2019
5145 Clouds 0 1033 60 10000 1 320 18:54 31.12.2019
5146 Clouds 0 1033 60 10000 1.5 360 18:36 31.12.2019
5147 Clouds 1 1033 60 10000 0.5 0 18:18 31.12.2019
5148 Clouds 1 1033 60 10000 0.5 0 17:54 31.12.2019
5149 Clouds 1 1033 86 10000 0.5 80 17:36 31.12.2019
5150 Clouds 2 1033 80 10000 0.98 112 17:18 31.12.2019
5151 Clouds 3 1033 80 10000 0.98 112 16:54 31.12.2019
5152 Clouds 3 1033 80 10000 1 260 16:36 31.12.2019
5153 Clouds 3 1033 66 10000 0.98 112 16:18 31.12.2019
5154 Clouds 4 1033 66 10000 0.98 112 15:54 31.12.2019
5155 Clouds 4 1033 80 10000 1 0 15:36 31.12.2019
5156 Clouds 4 1033 80 10000 1 0 15:18 31.12.2019
5157 Clouds 4 1033 86 10000 1.5 0 14:54 31.12.2019
5158 Clouds 4 1033 86 10000 2.6 360 14:36 31.12.2019
5159 Clouds 5 1033 86 10000 2.6 360 14:18 31.12.2019
5160 Clouds 5 1033 93 10000 2.1 360 13:54 31.12.2019
5161 Clouds 5 1033 86 10000 2.1 40 13:36 31.12.2019
5162 Clouds 5 1033 86 10000 2.1 50 13:18 31.12.2019
5163 Clouds 5 1033 80 10000 1 0 12:40 31.12.2019
5164 Clouds 5 1033 80 10000 1 0 12:20 31.12.2019
5165 Clouds 4 1033 86 10000 0.5 0 11:57 31.12.2019
5166 Clouds 5 1034 93 10000 1 0 11:39 31.12.2019
5167 Clouds 3 1033 54 10000 0.67 177 11:20 31.12.2019
5168 Clouds 2 1033 54 10000 0.67 177 10:58 31.12.2019
5169 Clouds 1 1033 54 10000 0.67 177 10:38 31.12.2019
5170 Clouds 0 1033 100 9000 1.5 190 10:20 31.12.2019
5171 Clouds 0 1033 100 9000 1.5 190 09:59 31.12.2019
5172 Clouds -1 1033 100 7000 1.5 180 09:40 31.12.2019
5173 Clouds -1 1033 100 7000 1.5 180 09:21 31.12.2019
5174 Clouds -1 1032 100 10000 2.1 210 08:58 31.12.2019
5175 Clouds -2 1032 92 7000 1.5 220 08:39 31.12.2019
5176 Clouds -2 1032 92 7000 1.5 220 08:20 31.12.2019
5177 Clouds -2 1032 92 8000 1 210 07:44 31.12.2019
5178 Clouds -2 1032 92 8000 1 210 07:22 31.12.2019
5179 Clouds -2 1032 100 8000 1.5 220 06:51 31.12.2019
5180 Clouds -2 1032 92 9000 1.5 210 06:23 31.12.2019
5181 Clouds -2 1032 92 9000 1.5 210 06:23 31.12.2019
5182 Mist -1 1032 92 5000 1.5 190 04:54 31.12.2019
5183 Clouds -1 1033 57 7000 3.6 180 04:21 31.12.2019
5184 Mist -1 1033 100 4100 0.5 0 02:57 31.12.2019
5185 Mist -1 1032 100 4200 2.1 360 02:20 31.12.2019
5186 Mist 0 1032 100 4800 1 220 01:49 31.12.2019
5187 Mist 0 1032 100 4800 1 220 01:31 31.12.2019
5188 Mist 0 1032 100 2300 1 200 00:48 31.12.2019
5189 Mist -1 1032 100 2300 1 200 00:25 31.12.2019
5190 Mist -1 1033 92 2400 1.41 166 23:58 30.12.2019
5191 Mist -1 1033 100 2100 1 130 23:40 30.12.2019
5192 Mist -1 1033 100 2100 1 130 23:22 30.12.2019
5193 Mist -1 1033 92 2100 0.5 0 22:59 30.12.2019
5194 Fog -1 1033 100 550 0.5 200 22:41 30.12.2019
5195 Fog -1 1033 100 550 0.5 200 22:41 30.12.2019
5196 Fog -1 1033 100 400 0.5 230 22:21 30.12.2019
5197 Fog -1 1033 100 400 0.5 230 21:57 30.12.2019
5198 Fog -1 1033 92 350 1.5 0 21:39 30.12.2019
5199 Fog -1 1033 92 350 1.5 0 21:20 30.12.2019
5200 Fog 0 1033 100 350 0.5 0 20:59 30.12.2019
5201 Fog 0 1033 100 350 1 0 20:41 30.12.2019
5202 Fog 0 1033 100 350 1 0 20:20 30.12.2019
5203 Fog 0 1033 100 350 1 340 19:59 30.12.2019
5204 Fog 0 1033 100 350 1 360 19:39 30.12.2019
5205 Fog 1 1033 100 350 1.5 340 19:20 30.12.2019
5206 Fog 1 1033 100 350 1.5 340 18:59 30.12.2019
5207 Fog 1 1033 100 350 1.5 360 18:41 30.12.2019
5208 Fog 1 1033 100 350 1.5 360 18:21 30.12.2019
5209 Mist 1 1033 92 4300 1 20 17:58 30.12.2019
5210 Mist 1 1033 100 4500 0.5 360 17:40 30.12.2019
5211 Mist 2 1033 62 4900 0.5 340 17:19 30.12.2019
5212 Mist 2 1033 62 4900 0.5 340 16:59 30.12.2019
5213 Mist 3 1033 62 5000 1 340 16:39 30.12.2019
5214 Mist 3 1033 62 5000 1.5 350 16:20 30.12.2019
5215 Mist 3 1033 62 5000 1.5 350 15:56 30.12.2019
5216 Mist 3 1033 62 5000 1 0 15:38 30.12.2019
5217 Mist 4 1033 62 5000 0.5 0 15:19 30.12.2019
5218 Mist 4 1033 62 5000 0.5 0 14:54 30.12.2019
5219 Mist 4 1033 62 5000 1 0 14:36 30.12.2019
5220 Mist 3 1034 49 5000 1.5 0 14:18 30.12.2019
5221 Mist 3 1034 49 5000 0.47 39 13:41 30.12.2019
5222 Mist 3 1034 49 5000 0.36 43 13:23 30.12.2019
5223 Mist 3 1034 100 5000 0.36 43 12:58 30.12.2019
5224 Mist 4 1035 100 2100 0.36 43 12:40 30.12.2019
5225 Mist 4 1035 100 4000 0.5 0 12:19 30.12.2019
5226 Mist 4 1035 100 2100 1 0 11:56 30.12.2019
5227 Mist 3 1035 100 2100 1 0 11:38 30.12.2019
5228 Mist 1 1035 100 2200 1 0 11:18 30.12.2019
5229 Mist -1 1036 100 2200 0.5 0 10:43 30.12.2019
5230 Mist -2 1035 100 1800 1 0 10:20 30.12.2019
5231 Mist -1 1035 100 2500 1 0 09:55 30.12.2019
5232 Mist -1 1035 100 2500 1 0 09:55 30.12.2019
5233 Mist -2 1035 100 2100 1 0 09:37 30.12.2019
5234 Mist -2 1035 100 2000 1.5 220 09:18 30.12.2019
5235 Mist -2 1035 100 2400 2.1 220 08:46 30.12.2019
5236 Mist -3 1035 100 2400 2.1 220 08:23 30.12.2019
5237 Mist -3 1035 100 2200 1.5 200 07:53 30.12.2019
5238 Mist -2 1035 100 2900 2.6 220 07:33 30.12.2019
5239 Mist -2 1035 100 4100 1.5 230 06:50 30.12.2019
5240 Mist -2 1036 100 4400 1 0 04:50 30.12.2019
5241 Mist -2 1036 100 2500 1.5 0 03:52 30.12.2019
5242 Mist -2 1036 100 2300 1.5 0 02:47 30.12.2019
5243 Mist -2 1036 100 1700 1 0 02:29 30.12.2019
5244 Mist -2 1037 100 1200 0.5 0 01:50 30.12.2019
5245 Mist -2 1037 100 1300 0.5 0 01:20 30.12.2019
5246 Mist -2 1037 100 1800 1 0 00:43 30.12.2019
5247 Mist -2 1037 100 2400 0.5 0 23:59 29.12.2019
5248 Mist -2 1037 100 3100 1 0 23:39 29.12.2019
5249 Mist -2 1037 100 3100 1 0 23:21 29.12.2019
5250 Mist -2 1037 100 4000 1.5 0 22:42 29.12.2019
5251 Mist -2 1037 100 4000 1.5 0 22:24 29.12.2019
5252 Mist -2 1037 100 4400 2.4 112 21:59 29.12.2019
5253 Mist -2 1037 100 4600 1 320 21:41 29.12.2019
5254 Mist -2 1037 100 4600 1 320 21:21 29.12.2019
5255 Mist -2 1037 100 4900 1 310 20:57 29.12.2019
5256 Mist -2 1037 100 5000 1 0 20:39 29.12.2019
5257 Mist -2 1037 100 5000 1 0 20:20 29.12.2019
5258 Mist -2 1037 100 5000 1 0 20:20 29.12.2019
5259 Mist -2 1037 100 5000 1 0 20:20 29.12.2019
5260 Mist -1 1037 100 5000 1 0 19:59 29.12.2019
5261 Mist -1 1037 100 5000 1 270 19:40 29.12.2019
5262 Mist -1 1037 100 5000 1 270 19:21 29.12.2019
5263 Mist -1 1037 100 5000 1.5 0 18:57 29.12.2019
5264 Mist -1 1037 100 5000 1.5 0 18:38 29.12.2019
5265 Mist -1 1037 100 5000 1.5 0 18:20 29.12.2019
5266 Mist -1 1037 100 5000 0.5 0 17:58 29.12.2019
5267 Clouds -1 1037 100 6000 2.23 111 17:39 29.12.2019
5268 Mist 0 1037 92 5000 1 0 17:20 29.12.2019
5269 Mist 0 1037 92 5000 1 0 16:57 29.12.2019
5270 Clouds 0 1037 92 6000 1.5 0 16:38 29.12.2019
5271 Clouds 0 1037 92 6000 1.5 0 16:38 29.12.2019
5272 Clouds 0 1037 92 6000 1.5 0 16:38 29.12.2019
5273 Clouds 0 1037 92 6000 1.5 0 16:20 29.12.2019
5274 Clouds 1 1037 92 6000 1.5 0 15:58 29.12.2019
5275 Clouds 1 1037 92 6000 1 0 15:39 29.12.2019
5276 Clouds 1 1037 92 6000 1 0 15:20 29.12.2019
5277 Clouds 1 1037 92 6000 1 0 14:58 29.12.2019
5278 Clouds 1 1037 92 6000 1 0 14:39 29.12.2019
5279 Fog 1 1037 100 800 1 0 14:18 29.12.2019
5280 Fog 1 1037 100 800 1 0 14:18 29.12.2019
5281 Fog 1 1037 100 800 1 0 13:58 29.12.2019
5282 Mist 1 1037 100 2000 1.5 0 13:39 29.12.2019
5283 Mist 1 1037 100 5000 1 0 13:21 29.12.2019
5284 Mist 1 1038 100 2000 1.5 0 12:56 29.12.2019
5285 Mist 1 1038 100 2000 0.85 42 12:38 29.12.2019
5286 Mist 1 1038 100 4100 1.5 0 12:19 29.12.2019
5287 Mist 0 1039 100 1800 1.5 0 11:40 29.12.2019
5288 Mist -1 1039 100 1200 1 0 11:21 29.12.2019
5289 Mist -1 1039 100 5000 0.5 0 10:56 29.12.2019
5290 Fog -1 1039 100 700 1.5 0 10:37 29.12.2019
5291 Fog -2 1039 100 600 1 0 10:18 29.12.2019
5292 Fog -2 1039 100 600 1 0 10:18 29.12.2019
5293 Fog -2 1039 100 500 2.1 210 09:44 29.12.2019
5294 Mist -2 1038 100 5000 1.5 120 09:26 29.12.2019
5295 Fog -2 1038 100 700 1.5 220 08:55 29.12.2019
5296 Clouds -2 1038 92 6000 1.58 103 08:37 29.12.2019
5297 Clouds -2 1038 92 6000 1.83 106 08:18 29.12.2019
5298 Clouds -2 1038 100 6000 1.5 330 07:43 29.12.2019
5299 Clouds -2 1038 100 6000 1.5 330 07:25 29.12.2019
5300 Clouds -2 1038 92 6000 1 0 06:28 29.12.2019
5301 Mist -2 1038 100 4700 1 340 05:55 29.12.2019
5302 Mist -2 1038 100 4500 1 360 04:59 29.12.2019
5303 Clouds -2 1038 100 6000 2.35 114 04:30 29.12.2019
5304 Clouds -1 1038 92 9000 1.5 310 03:35 29.12.2019
5305 Clouds -1 1038 100 7000 1 40 02:27 29.12.2019
5306 Clouds -1 1038 92 8000 1 340 01:52 29.12.2019
5307 Clouds -1 1038 92 10000 1.5 320 01:29 29.12.2019
5308 Clouds -1 1038 92 10000 1.5 320 01:29 29.12.2019
5309 Clouds -1 1039 92 10000 2.6 350 00:45 29.12.2019
5310 Clouds -1 1039 92 10000 2.6 350 00:45 29.12.2019
5311 Clouds -1 1039 92 10000 2.6 350 00:25 29.12.2019
5312 Clouds -1 1039 92 10000 2.6 350 00:25 29.12.2019
5313 Clouds 0 1039 100 10000 1.5 320 23:55 28.12.2019
5314 Clouds 0 1039 92 10000 1.5 330 23:37 28.12.2019
5315 Clouds 0 1039 100 9000 0.5 0 23:18 28.12.2019
5316 Clouds 0 1038 100 10000 0.5 0 22:37 28.12.2019
5317 Clouds 0 1038 92 10000 1.5 320 22:18 28.12.2019
5318 Clouds 0 1038 92 10000 1.5 320 21:56 28.12.2019
5319 Clouds 0 1038 73 10000 1 330 21:37 28.12.2019
5320 Clouds 0 1038 73 10000 1 330 21:19 28.12.2019
5321 Clouds 0 1038 73 10000 2.1 290 20:54 28.12.2019
5322 Clouds 0 1038 73 10000 2.1 290 20:54 28.12.2019
5323 Clouds 0 1038 86 10000 2.6 290 20:36 28.12.2019
5324 Clouds 1 1038 86 10000 2.6 290 20:18 28.12.2019
5325 Clouds 1 1039 82 10000 2.6 270 19:43 28.12.2019
5326 Clouds 1 1039 82 10000 2.6 270 19:24 28.12.2019
5327 Clouds 1 1038 82 10000 1.5 270 18:59 28.12.2019
5328 Clouds 1 1039 82 10000 1.5 310 18:41 28.12.2019
5329 Clouds 2 1039 93 10000 1.5 320 18:20 28.12.2019
5330 Clouds 2 1039 93 10000 1.5 320 17:59 28.12.2019
5331 Clouds 2 1038 82 10000 2.1 360 17:40 28.12.2019
5332 Clear 3 1038 83 10000 2.1 360 17:21 28.12.2019
5333 Clear 3 1038 80 10000 3.1 10 16:51 28.12.2019
5334 Clear 3 1038 80 10000 3.1 10 16:27 28.12.2019
5335 Clear 3 1038 80 10000 3.6 10 15:59 28.12.2019
5336 Clouds 3 1038 80 10000 4.1 10 15:41 28.12.2019
5337 Clouds 4 1038 80 10000 4.1 10 15:21 28.12.2019
5338 Clouds 4 1038 80 10000 4.1 10 15:21 28.12.2019
5339 Clouds 4 1038 80 10000 4.1 10 15:21 28.12.2019
5340 Clouds 4 1038 80 10000 4.1 20 14:48 28.12.2019
5341 Clouds 4 1038 80 10000 3.6 10 14:26 28.12.2019
5342 Clouds 4 1038 80 10000 2.6 20 13:58 28.12.2019
5343 Clouds 4 1038 86 10000 3.1 30 13:39 28.12.2019
5344 Clouds 4 1038 86 10000 3.6 30 13:20 28.12.2019
5345 Clouds 4 1038 86 10000 3.6 30 12:57 28.12.2019
5346 Clouds 4 1038 86 10000 3.6 20 12:39 28.12.2019
5347 Clouds 4 1038 86 10000 3.6 20 12:20 28.12.2019
5348 Clear 4 1038 93 10000 1.5 50 11:40 28.12.2019
5349 Clouds 3 1038 93 10000 1.5 50 11:21 28.12.2019
5350 Clouds 3 1038 93 10000 2.1 50 10:56 28.12.2019
5351 Fog 3 1038 93 300 2.6 360 10:37 28.12.2019
5352 Fog 3 1038 100 350 2.6 360 10:18 28.12.2019
5353 Fog 3 1038 93 600 2.6 360 09:45 28.12.2019
5354 Clouds 3 1038 86 10000 2.1 40 09:24 28.12.2019
5355 Clouds 3 1037 86 10000 2.6 40 08:58 28.12.2019
5356 Clouds 3 1037 86 10000 2.1 40 08:40 28.12.2019
5357 Clouds 3 1037 86 10000 2.1 40 08:22 28.12.2019
5358 Clouds 3 1036 80 10000 3.1 20 07:43 28.12.2019
5359 Clouds 3 1036 80 10000 3.1 20 07:22 28.12.2019
5360 Clouds 4 1035 75 10000 3.6 30 05:46 28.12.2019
5361 Clouds 5 1035 81 10000 2.6 20 03:48 28.12.2019
5362 Clouds 5 1035 81 10000 3.6 10 02:51 28.12.2019
5363 Clouds 5 1035 81 10000 4.6 10 02:20 28.12.2019
5364 Clouds 5 1035 81 10000 4.6 10 01:56 28.12.2019
5365 Clouds 5 1034 87 10000 5.7 20 01:23 28.12.2019
5366 Clouds 5 1034 87 10000 4.6 20 00:50 28.12.2019
5367 Drizzle 5 1034 87 10000 4.6 30 00:30 28.12.2019
5368 Clouds 6 1034 87 10000 4.1 20 23:58 27.12.2019
5369 Clouds 6 1034 87 10000 4.1 20 23:58 27.12.2019
5370 Clouds 6 1034 87 10000 5.1 20 23:39 27.12.2019
5371 Clouds 6 1034 87 10000 5.1 20 23:19 27.12.2019
5372 Clouds 6 1033 93 10000 4.1 20 22:57 27.12.2019
5373 Clouds 6 1033 93 10000 4.1 30 22:38 27.12.2019
5374 Clouds 6 1033 93 10000 3.6 30 22:19 27.12.2019
5375 Rain 6 1033 93 10000 3.6 30 21:43 27.12.2019
5376 Rain 6 1033 93 10000 3.6 30 21:25 27.12.2019
5377 Rain 6 1032 87 10000 3.6 30 20:58 27.12.2019
5378 Rain 6 1032 93 10000 5.1 30 20:40 27.12.2019
5379 Rain 6 1032 93 10000 5.1 30 20:21 27.12.2019
5380 Rain 6 1031 93 10000 4.1 20 19:41 27.12.2019
5381 Rain 6 1030 100 10000 3.6 10 19:20 27.12.2019
5382 Rain 7 1030 100 10000 3.6 10 18:58 27.12.2019
5383 Rain 7 1030 93 10000 3.1 20 18:37 27.12.2019
5384 Rain 7 1030 93 10000 3.1 20 18:19 27.12.2019
5385 Rain 7 1029 93 10000 3.1 20 17:56 27.12.2019
5386 Rain 7 1029 100 10000 2.1 340 17:38 27.12.2019
5387 Clouds 7 1029 100 10000 2.1 340 17:18 27.12.2019
5388 Clouds 7 1028 100 10000 1.5 340 16:56 27.12.2019
5389 Clouds 7 1028 100 10000 1 0 16:37 27.12.2019
5390 Clouds 7 1027 93 10000 1.5 280 16:19 27.12.2019
5391 Clouds 8 1026 93 10000 1 250 15:43 27.12.2019
5392 Clouds 8 1026 93 10000 1 250 15:20 27.12.2019
5393 Drizzle 8 1026 100 6000 1 0 14:57 27.12.2019
5394 Drizzle 8 1026 100 6000 1 0 14:39 27.12.2019
5395 Drizzle 7 1026 100 6000 1 0 14:20 27.12.2019
5396 Rain 8 1025 87 10000 1 0 13:48 27.12.2019
5397 Rain 7 1025 87 10000 1 0 13:25 27.12.2019
5398 Rain 7 1025 87 10000 1 0 13:25 27.12.2019
5399 Clouds 7 1025 87 10000 1 0 12:58 27.12.2019
5400 Clouds 7 1024 87 10000 0.5 0 12:40 27.12.2019
5401 Clouds 7 1024 87 10000 0.5 0 12:21 27.12.2019
5402 Clouds 7 1023 93 10000 0.5 0 11:45 27.12.2019
5403 Clouds 7 1023 93 10000 0.5 0 11:26 27.12.2019
5404 Rain 7 1023 100 10000 1.5 240 10:58 27.12.2019
5405 Rain 7 1022 100 10000 1 190 10:39 27.12.2019
5406 Rain 6 1022 100 9000 1 350 10:21 27.12.2019
5407 Rain 6 1022 100 10000 1 360 09:44 27.12.2019
5408 Rain 6 1022 100 10000 1 360 09:22 27.12.2019
5409 Rain 6 1021 100 8000 0.5 0 08:59 27.12.2019
5410 Rain 6 1021 100 10000 1 0 08:36 27.12.2019
5411 Rain 6 1020 100 10000 1.5 0 07:53 27.12.2019
5412 Rain 6 1020 100 10000 1.5 160 07:34 27.12.2019
5413 Rain 6 1020 87 10000 2.6 170 06:39 27.12.2019
5414 Rain 6 1021 87 10000 2.6 160 05:52 27.12.2019
5415 Rain 6 1022 93 10000 3.6 180 03:47 27.12.2019
5416 Rain 6 1022 93 10000 2.6 210 03:47 27.12.2019
5417 Clouds 6 1022 93 10000 5.1 180 02:25 27.12.2019
5418 Rain 5 1023 93 10000 2.1 180 01:42 27.12.2019
5419 Rain 5 1023 93 10000 2.1 180 01:20 27.12.2019
5420 Rain 5 1024 100 10000 1.5 0 00:46 27.12.2019
5421 Rain 5 1024 100 10000 1.5 0 00:25 27.12.2019
5422 Rain 5 1024 93 10000 3.1 180 23:44 26.12.2019
5423 Rain 5 1024 93 10000 3.1 180 23:24 26.12.2019
5424 Rain 5 1024 93 10000 1 0 22:58 26.12.2019
5425 Rain 4 1024 93 10000 1.5 0 22:38 26.12.2019
5426 Rain 5 1024 86 10000 2.1 180 22:18 26.12.2019
5427 Clouds 4 1025 93 10000 2.6 200 21:39 26.12.2019
5428 Clouds 5 1025 93 10000 2.6 200 21:21 26.12.2019
5429 Clouds 5 1025 100 10000 1.5 190 20:57 26.12.2019
5430 Clouds 4 1025 93 10000 1 200 20:38 26.12.2019
5431 Clouds 4 1025 93 10000 1 200 20:19 26.12.2019
5432 Clouds 4 1025 100 10000 2.07 200 19:55 26.12.2019
5433 Clouds 4 1025 93 10000 1.5 0 19:37 26.12.2019
5434 Clouds 4 1025 93 10000 1.5 0 19:19 26.12.2019
5435 Clouds 4 1024 86 10000 1 0 18:55 26.12.2019
5436 Clouds 4 1024 86 10000 2.6 190 18:36 26.12.2019
5437 Clouds 4 1024 86 10000 2.6 190 18:18 26.12.2019
5438 Clouds 4 1024 86 10000 2.1 190 17:41 26.12.2019
5439 Snow 4 1024 86 10000 2.1 190 17:21 26.12.2019
5440 Snow 4 1024 86 10000 3.1 190 16:50 26.12.2019
5441 Snow 4 1024 80 10000 4.1 170 16:27 26.12.2019
5442 Snow 4 1023 80 10000 4.1 190 15:57 26.12.2019
5443 Snow 4 1023 80 10000 3.6 170 15:39 26.12.2019
5444 Snow 4 1023 80 10000 3.6 170 15:19 26.12.2019
5445 Snow 4 1023 80 10000 3.1 160 14:41 26.12.2019
5446 Snow 4 1023 80 10000 3.1 160 14:23 26.12.2019
5447 Clouds 4 1024 86 10000 2.1 190 13:57 26.12.2019
5448 Clouds 4 1024 86 10000 2.1 170 13:39 26.12.2019
5449 Clouds 4 1024 86 10000 1.5 0 13:18 26.12.2019
5450 Clouds 4 1025 93 10000 1.5 120 12:45 26.12.2019
5451 Clouds 4 1025 93 10000 1.5 120 12:26 26.12.2019
5452 Clouds 3 1025 86 10000 1 130 11:59 26.12.2019
5453 Clouds 3 1025 86 10000 1 0 11:40 26.12.2019
5454 Rain 3 1025 86 10000 1 0 11:22 26.12.2019
5455 Rain 3 1025 86 10000 1 0 10:54 26.12.2019
5456 Rain 2 1025 93 10000 1 0 10:36 26.12.2019
5457 Clouds 2 1025 93 10000 1 0 10:18 26.12.2019
5458 Clouds 1 1025 100 10000 1 210 09:42 26.12.2019
5459 Clouds 1 1025 100 10000 1 210 09:24 26.12.2019
5460 Clouds 0 1025 88 10000 2.6 210 08:40 26.12.2019
5461 Clouds 0 1025 93 10000 2.6 210 08:22 26.12.2019
5462 Clouds 0 1025 93 10000 1.5 0 07:46 26.12.2019
5463 Clouds 0 1025 93 10000 1.5 0 07:26 26.12.2019
5464 Clouds 1 1025 93 10000 1 100 06:44 26.12.2019
5465 Clouds 0 1025 93 10000 1 100 06:25 26.12.2019
5466 Clouds 1 1025 93 10000 0.5 0 05:43 26.12.2019
5467 Clouds 1 1025 86 10000 2.6 220 04:38 26.12.2019
5468 Clouds 1 1026 93 10000 0.5 0 03:47 26.12.2019
5469 Rain 1 1025 86 10000 1.92 121 02:50 26.12.2019
5470 Rain 1 1026 86 10000 1.5 250 02:32 26.12.2019
5471 Fog 1 1025 91 3200 0.5 0 01:46 26.12.2019
5472 Fog 1 1025 91 3200 0.5 0 01:27 26.12.2019
5473 Fog 1 1026 91 8000 0.5 220 00:48 26.12.2019
5474 Clouds 2 1026 80 10000 2.1 240 00:25 26.12.2019
5475 Clouds 2 1026 80 10000 1.5 230 23:58 25.12.2019
5476 Clouds 2 1026 80 10000 3.6 230 23:39 25.12.2019
5477 Clouds 3 1026 80 10000 3.6 230 23:21 25.12.2019
5478 Clouds 3 1026 80 10000 2.1 230 22:58 25.12.2019
5479 Clouds 3 1026 75 10000 2.1 270 22:39 25.12.2019
5480 Clouds 3 1026 75 10000 2.1 270 22:20 25.12.2019
5481 Clouds 3 1026 80 10000 2.1 270 21:58 25.12.2019
5482 Clouds 4 1026 80 10000 2.1 280 21:39 25.12.2019
5483 Clouds 4 1026 80 10000 2.1 280 21:20 25.12.2019
5484 Clouds 4 1026 80 10000 2.6 290 20:56 25.12.2019
5485 Clouds 5 1026 86 10000 1 0 20:38 25.12.2019
5486 Clouds 5 1026 80 10000 0.3 243 20:18 25.12.2019
5487 Clouds 5 1026 80 10000 0.3 243 20:18 25.12.2019
5488 Clouds 5 1026 80 10000 0.3 243 19:43 25.12.2019
5489 Clouds 5 1026 80 10000 0.3 243 19:24 25.12.2019
5490 Clouds 5 1026 80 10000 2.1 340 18:58 25.12.2019
5491 Clouds 5 1026 75 10000 1.5 310 18:37 25.12.2019
5492 Clouds 6 1026 75 10000 1.5 310 18:18 25.12.2019
5493 Clouds 6 1025 70 10000 2.6 330 17:42 25.12.2019
5494 Clouds 7 1025 70 10000 2.6 330 17:19 25.12.2019
5495 Clouds 7 1025 70 10000 3.1 300 16:58 25.12.2019
5496 Clouds 7 1025 66 10000 2.1 340 16:37 25.12.2019
5497 Clouds 7 1025 66 10000 2.1 340 16:19 25.12.2019
5498 Clouds 7 1024 66 10000 3.6 300 15:57 25.12.2019
5499 Clouds 7 1023 70 10000 2.6 270 15:39 25.12.2019
5500 Rain 7 1023 70 10000 1.5 0 15:20 25.12.2019
5501 Rain 8 1023 70 10000 1.5 0 14:58 25.12.2019
5502 Rain 7 1022 66 10000 5.7 280 14:39 25.12.2019
5503 Rain 7 1022 66 10000 5.7 280 14:39 25.12.2019
5504 Rain 8 1022 66 10000 5.7 280 14:20 25.12.2019
5505 Rain 8 1022 76 10000 4.6 320 13:45 25.12.2019
5506 Rain 8 1022 76 10000 4.6 320 13:22 25.12.2019
5507 Rain 8 1021 62 10000 6.2 280 12:58 25.12.2019
5508 Rain 8 1021 62 10000 6.2 280 12:38 25.12.2019
5509 Rain 8 1021 62 10000 6.2 280 12:20 25.12.2019
5510 Rain 8 1021 66 10000 4.6 280 11:54 25.12.2019
5511 Rain 8 1021 71 10000 4.6 260 11:36 25.12.2019
5512 Rain 8 1021 66 10000 2.1 320 11:18 25.12.2019
5513 Rain 8 1020 81 10000 1 0 10:38 25.12.2019
5514 Rain 8 1019 76 10000 2.6 140 10:19 25.12.2019
5515 Rain 8 1019 76 10000 2.6 140 09:49 25.12.2019
5516 Rain 8 1019 76 10000 1.5 130 09:30 25.12.2019
5517 Rain 8 1019 76 10000 4.6 190 08:51 25.12.2019
5518 Rain 8 1018 76 10000 3.1 170 08:30 25.12.2019
5519 Clouds 7 1018 81 10000 3.6 190 07:50 25.12.2019
5520 Rain 7 1018 76 10000 5.1 180 07:31 25.12.2019
5521 Rain 8 1018 81 10000 5.7 180 06:51 25.12.2019
5522 Rain 8 1018 76 10000 4.6 180 06:22 25.12.2019
5523 Clouds 8 1018 76 10000 3.1 170 05:18 25.12.2019
5524 Clouds 7 1018 81 10000 4.6 180 04:39 25.12.2019
5525 Clouds 7 1018 81 10000 4.6 180 04:20 25.12.2019
5526 Rain 7 1018 76 10000 5.1 170 03:41 25.12.2019
5527 Rain 7 1017 76 10000 6.2 180 02:54 25.12.2019
5528 Rain 7 1017 70 10000 6.2 180 02:27 25.12.2019
5529 Clouds 8 1017 66 10000 4.1 190 01:25 25.12.2019
5530 Rain 8 1017 66 10000 3.6 200 00:54 25.12.2019
5531 Clouds 8 1017 66 10000 4.6 200 00:33 25.12.2019
5532 Clouds 8 1017 66 10000 4.1 180 23:58 24.12.2019
5533 Rain 8 1017 61 10000 1.5 190 23:39 24.12.2019
5534 Clouds 8 1017 61 10000 3.6 140 23:20 24.12.2019
5535 Clouds 8 1017 57 10000 3.1 200 22:41 24.12.2019
5536 Clouds 8 1017 57 10000 3.1 200 22:23 24.12.2019
5537 Rain 8 1017 53 10000 5.1 250 21:55 24.12.2019
5538 Rain 8 1017 53 10000 7.7 260 21:36 24.12.2019
5539 Clouds 8 1017 57 10000 7.2 270 21:18 24.12.2019
5540 Rain 8 1017 53 10000 5.7 250 20:41 24.12.2019
5541 Rain 9 1017 57 10000 5.7 260 20:19 24.12.2019
5542 Clouds 8 1018 81 10000 6.2 260 19:46 24.12.2019
5543 Clouds 8 1017 81 10000 4.6 260 19:22 24.12.2019
5544 Clouds 8 1018 81 10000 6.2 260 19:22 24.12.2019
5545 Rain 8 1016 62 10000 2.6 250 18:59 24.12.2019
5546 Rain 9 1016 71 10000 3.1 230 18:40 24.12.2019
5547 Rain 9 1016 71 10000 3.1 230 18:18 24.12.2019
5548 Rain 9 1016 71 10000 3.1 230 17:43 24.12.2019
5549 Rain 9 1016 71 10000 3.1 230 17:22 24.12.2019
5550 Clouds 9 1016 71 10000 5.1 230 16:58 24.12.2019
5551 Clouds 9 1015 62 10000 3.6 230 16:39 24.12.2019
5552 Clouds 9 1015 62 10000 3.6 230 16:20 24.12.2019
5553 Rain 10 1015 58 10000 6.2 260 15:57 24.12.2019
5554 Rain 9 1014 58 10000 6.7 260 15:37 24.12.2019
5555 Clouds 9 1016 100 10000 1 0 15:19 24.12.2019
5556 Clouds 9 1016 100 10000 1 0 15:19 24.12.2019
5557 Clouds 9 1016 100 10000 1 0 14:58 24.12.2019
5558 Rain 8 1016 100 7000 4.24 251 14:39 24.12.2019
5559 Rain 7 1015 100 6000 2.1 60 14:21 24.12.2019
5560 Rain 7 1015 100 6000 2.1 60 14:21 24.12.2019
5561 Rain 7 1015 100 6000 2.1 60 13:56 24.12.2019
5562 Rain 7 1015 93 5000 2.1 170 13:37 24.12.2019
5563 Rain 7 1015 93 5000 2.1 170 13:19 24.12.2019
5564 Rain 8 1013 81 10000 6.2 170 12:56 24.12.2019
5565 Rain 8 1013 81 10000 6.2 170 12:56 24.12.2019
5566 Rain 8 1013 81 10000 6.2 170 12:56 24.12.2019
5567 Clouds 7 1013 87 10000 6.7 170 12:37 24.12.2019
5568 Clouds 7 1013 87 10000 6.7 170 12:19 24.12.2019
5569 Clouds 7 1013 87 10000 5.1 170 11:56 24.12.2019
5570 Rain 6 1013 93 10000 6.2 170 11:37 24.12.2019
5571 Rain 6 1013 93 10000 6.2 170 11:37 24.12.2019
5572 Rain 6 1013 93 10000 6.2 170 11:37 24.12.2019
5573 Rain 6 1014 87 10000 5.1 170 11:19 24.12.2019
5574 Rain 6 1014 87 10000 5.1 170 10:56 24.12.2019
5575 Rain 6 1014 87 10000 5.1 170 10:56 24.12.2019
5576 Rain 5 1015 81 10000 5.7 170 10:38 24.12.2019
5577 Rain 6 1015 81 10000 5.7 170 10:19 24.12.2019
5578 Rain 5 1015 81 10000 7.2 180 09:55 24.12.2019
5579 Rain 5 1016 75 10000 6.7 180 09:37 24.12.2019
5580 Rain 5 1016 75 10000 6.2 180 09:19 24.12.2019
5581 Clouds 6 1017 75 10000 3.1 170 08:46 24.12.2019
5582 Clouds 5 1017 75 10000 3.1 170 08:24 24.12.2019
5583 Rain 5 1017 75 10000 4.1 170 07:46 24.12.2019
5584 Rain 5 1017 75 10000 4.1 170 07:27 24.12.2019
5585 Rain 5 1017 75 10000 5.1 170 06:59 24.12.2019
5586 Rain 4 1018 87 10000 2.6 200 06:39 24.12.2019
5587 Rain 4 1018 81 10000 4.6 180 06:19 24.12.2019
5588 Rain 5 1018 81 10000 4.6 180 05:49 24.12.2019
5589 Clouds 5 1019 87 10000 4.1 170 05:18 24.12.2019
5590 Clouds 5 1020 87 10000 3.6 170 04:21 24.12.2019
5591 Clouds 5 1020 93 10000 2.6 190 03:45 24.12.2019
5592 Clouds 5 1020 87 10000 3.1 160 02:28 24.12.2019
5593 Clouds 6 1020 81 10000 4.6 170 01:54 24.12.2019
5594 Clouds 6 1020 81 10000 4.6 170 01:25 24.12.2019
5595 Clouds 6 1020 81 10000 2.6 140 00:56 24.12.2019
5596 Clouds 6 1020 86 10000 1 0 00:37 24.12.2019
5597 Clouds 5 1020 86 10000 1 0 00:19 24.12.2019
5598 Clouds 6 1020 81 10000 4.1 180 23:42 23.12.2019
5599 Clouds 6 1020 81 10000 4.1 210 23:24 23.12.2019
5600 Clouds 6 1020 81 10000 4.1 210 22:57 23.12.2019
5601 Clouds 6 1019 86 10000 4.6 190 22:38 23.12.2019
5602 Clouds 6 1019 86 10000 4.6 190 22:38 23.12.2019
5603 Clouds 6 1019 65 10000 4.6 220 22:20 23.12.2019
5604 Clouds 6 1019 65 10000 4.6 220 21:56 23.12.2019
5605 Clouds 6 1019 70 10000 5.1 220 21:37 23.12.2019
5606 Clouds 6 1019 70 10000 5.1 220 21:19 23.12.2019
5607 Clouds 6 1019 70 10000 5.1 220 21:19 23.12.2019
5608 Clouds 6 1019 81 10000 4.1 220 20:58 23.12.2019
5609 Clouds 6 1018 81 10000 3.6 210 20:40 23.12.2019
5610 Clouds 6 1018 81 10000 3.6 210 20:19 23.12.2019
5611 Clouds 6 1018 81 10000 3.6 210 20:19 23.12.2019
5612 Clouds 6 1018 81 10000 3.6 210 20:19 23.12.2019
5613 Clouds 6 1018 93 10000 3.6 200 19:58 23.12.2019
5614 Clouds 6 1018 87 10000 4.1 210 19:39 23.12.2019
5615 Clouds 6 1018 87 10000 4.1 210 19:20 23.12.2019
5616 Clouds 6 1017 87 10000 3.6 200 18:58 23.12.2019
5617 Clouds 6 1017 81 10000 3.1 200 18:39 23.12.2019
5618 Clouds 6 1017 81 10000 3.1 200 18:20 23.12.2019
5619 Clouds 6 1017 87 10000 1.5 0 17:59 23.12.2019
5620 Clouds 7 1016 75 10000 4.1 250 17:40 23.12.2019
5621 Rain 7 1016 75 10000 4.1 250 17:19 23.12.2019
5622 Rain 7 1016 75 10000 1.5 200 16:57 23.12.2019
5623 Rain 7 1015 87 10000 2.6 350 16:39 23.12.2019
5624 Rain 7 1015 87 10000 2.6 350 16:19 23.12.2019
5625 Rain 7 1015 87 10000 2.6 350 16:19 23.12.2019
5626 Clouds 8 1015 81 10000 5.1 230 15:57 23.12.2019
5627 Clouds 8 1014 76 10000 6.7 240 15:37 23.12.2019
5628 Rain 8 1014 71 10000 2.6 230 15:19 23.12.2019
5629 Rain 8 1013 76 10000 6.2 250 14:56 23.12.2019
5630 Rain 7 1013 81 10000 5.7 210 14:38 23.12.2019
5631 Rain 7 1013 70 10000 5.1 280 14:18 23.12.2019
5632 Rain 7 1013 87 10000 5.7 220 13:56 23.12.2019
5633 Rain 7 1012 87 10000 5.7 200 13:38 23.12.2019
5634 Rain 7 1012 76 10000 2.1 0 13:20 23.12.2019
5635 Rain 7 1012 87 10000 5.7 190 12:55 23.12.2019
5636 Rain 7 1012 87 10000 5.1 200 12:36 23.12.2019
5637 Rain 7 1012 76 10000 2.6 190 12:18 23.12.2019
5638 Rain 7 1011 93 10000 4.6 200 11:42 23.12.2019
5639 Rain 7 1011 81 10000 5.1 180 11:24 23.12.2019
5640 Clouds 6 1011 93 10000 4.6 190 10:56 23.12.2019
5641 Rain 6 1011 93 10000 4.1 200 10:38 23.12.2019
5642 Rain 6 1010 87 10000 3.1 170 10:20 23.12.2019
5643 Rain 6 1010 93 10000 4.1 190 09:58 23.12.2019
5644 Rain 6 1009 87 10000 4.6 190 09:39 23.12.2019
5645 Rain 6 1009 87 10000 5.7 180 09:19 23.12.2019
5646 Rain 6 1009 87 10000 5.7 180 08:55 23.12.2019
5647 Rain 6 1008 87 10000 4.1 200 08:37 23.12.2019
5648 Clouds 6 1008 93 10000 5.1 180 08:18 23.12.2019
5649 Clouds 6 1008 93 10000 4.6 180 07:42 23.12.2019
5650 Clouds 6 1007 93 10000 3.6 190 07:19 23.12.2019
5651 Rain 6 1006 93 10000 3.1 200 06:45 23.12.2019
5652 Rain 6 1006 93 10000 3.1 200 06:23 23.12.2019
5653 Rain 6 1006 87 10000 3.6 210 05:47 23.12.2019
5654 Rain 6 1005 87 10000 4.1 170 05:18 23.12.2019
5655 Clouds 6 1005 75 10000 4.1 200 04:19 23.12.2019
5656 Clouds 6 1003 81 10000 2.6 210 02:48 23.12.2019
5657 Clouds 6 1003 81 10000 2.6 210 02:23 23.12.2019
5658 Rain 6 1003 75 10000 3.1 210 01:53 23.12.2019
5659 Rain 6 1002 81 10000 3.6 180 01:32 23.12.2019
5660 Clouds 6 1002 75 10000 4.1 210 00:55 23.12.2019
5661 Clouds 6 1001 75 10000 3.6 200 00:35 23.12.2019
5662 Clouds 6 1000 75 10000 3.1 210 23:57 22.12.2019
5663 Rain 6 1000 75 10000 3.6 190 23:39 22.12.2019
5664 Rain 6 1000 75 10000 4.6 210 23:20 22.12.2019
5665 Rain 6 1000 75 10000 4.6 210 22:57 22.12.2019
5666 Rain 6 999 81 10000 5.1 210 22:38 22.12.2019
5667 Rain 6 999 75 10000 5.1 210 22:19 22.12.2019
5668 Rain 6 999 75 10000 5.1 210 21:57 22.12.2019
5669 Clouds 6 998 75 10000 3.6 180 21:39 22.12.2019
5670 Clouds 7 997 81 10000 5.1 200 21:20 22.12.2019
5671 Clouds 6 997 81 10000 5.1 200 20:56 22.12.2019
5672 Clouds 7 997 81 10000 4.1 200 20:38 22.12.2019
5673 Clouds 6 997 81 10000 3.6 210 20:18 22.12.2019
5674 Clouds 6 997 81 10000 3.6 210 19:54 22.12.2019
5675 Rain 6 997 81 10000 2.6 280 19:36 22.12.2019
5676 Rain 7 996 70 10000 6.2 260 19:18 22.12.2019
5677 Rain 7 996 81 10000 5.1 230 18:39 22.12.2019
5678 Rain 7 996 81 10000 5.1 230 18:39 22.12.2019
5679 Rain 7 996 81 10000 5.1 230 18:21 22.12.2019
5680 Rain 7 996 81 10000 4.6 230 17:55 22.12.2019
5681 Rain 7 995 81 10000 5.7 200 17:37 22.12.2019
5682 Rain 7 994 76 10000 4.1 180 17:18 22.12.2019
5683 Rain 7 994 76 10000 4.1 180 17:18 22.12.2019
5684 Rain 7 994 76 10000 4.1 180 16:56 22.12.2019
5685 Clouds 7 994 76 10000 5.1 200 16:37 22.12.2019
5686 Clouds 8 994 76 10000 5.1 200 16:19 22.12.2019
5687 Rain 8 994 76 10000 5.1 210 15:56 22.12.2019
5688 Rain 8 993 76 10000 6.7 230 15:36 22.12.2019
5689 Rain 8 993 76 10000 6.7 230 15:36 22.12.2019
5690 Rain 8 992 87 10000 7.7 240 15:18 22.12.2019
5691 Rain 8 992 87 10000 7.7 240 14:54 22.12.2019
5692 Rain 8 992 87 10000 7.7 230 14:36 22.12.2019
5693 Rain 8 992 87 10000 7.7 230 14:36 22.12.2019
5694 Rain 8 991 66 10000 4.6 200 14:18 22.12.2019
5695 Rain 8 991 81 10000 6.2 200 13:54 22.12.2019
5696 Rain 8 990 87 10000 6.7 210 13:36 22.12.2019
5697 Rain 8 990 81 10000 3.6 180 13:18 22.12.2019
5698 Rain 8 990 87 10000 6.7 200 13:18 22.12.2019
5699 Clouds 8 990 87 10000 6.7 200 12:54 22.12.2019
5700 Clouds 8 990 87 10000 6.7 200 12:54 22.12.2019
5701 Clouds 8 989 87 10000 6.2 200 12:36 22.12.2019
5702 Rain 8 989 81 10000 7.2 210 12:18 22.12.2019
5703 Rain 8 988 76 10000 6.2 200 11:39 22.12.2019
5704 Rain 8 988 76 10000 7.2 190 11:21 22.12.2019
5705 Rain 8 988 76 10000 7.2 190 10:59 22.12.2019
5706 Rain 8 988 71 10000 7.7 200 10:40 22.12.2019
5707 Rain 8 987 93 10000 5.1 170 10:21 22.12.2019
5708 Rain 8 987 71 10000 7.7 190 09:59 22.12.2019
5709 Rain 8 987 71 10000 6.2 190 09:40 22.12.2019
5710 Rain 7 987 87 10000 5.1 170 09:22 22.12.2019
5711 Rain 7 987 71 10000 6.7 200 08:59 22.12.2019
5712 Rain 7 986 87 10000 5.7 190 08:38 22.12.2019
5713 Rain 6 986 87 10000 5.1 190 08:18 22.12.2019
5714 Clouds 6 986 87 10000 6.2 190 07:38 22.12.2019
5715 Clouds 5 986 87 10000 6.2 190 07:20 22.12.2019
5716 Clouds 5 986 87 10000 1.5 140 06:40 22.12.2019
5717 Clouds 6 986 87 10000 5.1 180 05:54 22.12.2019
5718 Clouds 6 986 87 10000 3.1 180 05:23 22.12.2019
5719 Clouds 6 986 93 10000 2.1 230 04:29 22.12.2019
5720 Clouds 6 987 93 10000 3.1 180 03:56 22.12.2019
5721 Drizzle 6 987 100 10000 5.1 190 02:42 22.12.2019
5722 Drizzle 6 987 100 10000 5.1 190 02:42 22.12.2019
5723 Rain 6 987 100 10000 4.6 200 01:51 22.12.2019
5724 Rain 6 988 100 10000 5.7 200 01:30 22.12.2019
5725 Rain 6 988 100 10000 5.7 200 01:30 22.12.2019
5726 Rain 6 988 87 10000 3.1 150 00:47 22.12.2019
5727 Rain 6 988 87 10000 3.1 150 00:24 22.12.2019
5728 Rain 6 988 93 10000 4.1 180 23:57 21.12.2019
5729 Rain 6 989 87 10000 3.6 150 23:38 21.12.2019
5730 Rain 5 988 87 10000 4.6 190 23:19 21.12.2019
5731 Rain 5 988 86 10000 3.1 210 22:45 21.12.2019
5732 Rain 5 988 93 10000 1 220 22:20 21.12.2019
5733 Clouds 5 988 80 10000 2.1 140 21:58 21.12.2019
5734 Clouds 5 988 75 10000 3.6 150 21:39 21.12.2019
5735 Clouds 5 988 93 10000 0.5 0 21:20 21.12.2019
5736 Clouds 5 989 75 10000 2.6 160 20:59 21.12.2019
5737 Clouds 5 989 81 10000 3.1 120 20:41 21.12.2019
5738 Clouds 5 989 86 10000 1 0 20:22 21.12.2019
5739 Clouds 5 989 86 10000 1 0 20:22 21.12.2019
5740 Clouds 5 990 75 10000 3.1 130 19:58 21.12.2019
5741 Clouds 5 990 81 10000 2.1 150 19:40 21.12.2019
5742 Clouds 5 991 93 10000 2.1 190 19:20 21.12.2019
5743 Clouds 5 991 93 10000 2.1 190 18:56 21.12.2019
5744 Clouds 5 992 87 10000 2.1 150 18:38 21.12.2019
5745 Clouds 5 992 87 10000 3.1 160 18:20 21.12.2019
5746 Clouds 6 992 87 10000 3.1 160 17:55 21.12.2019
5747 Clouds 6 993 87 10000 5.1 180 17:37 21.12.2019
5748 Clouds 6 993 81 10000 5.1 180 17:18 21.12.2019
5749 Clouds 7 993 81 10000 5.1 180 16:54 21.12.2019
5750 Clouds 7 993 87 10000 4.6 190 16:36 21.12.2019
5751 Clouds 7 993 87 10000 4.6 180 16:18 21.12.2019
5752 Clouds 8 993 87 10000 4.6 180 15:54 21.12.2019
5753 Clouds 8 994 93 10000 5.7 190 15:36 21.12.2019
5754 Rain 8 994 93 10000 5.7 180 15:18 21.12.2019
5755 Clouds 8 994 87 10000 6.2 180 14:40 21.12.2019
5756 Clouds 8 994 87 10000 6.2 180 14:40 21.12.2019
5757 Clouds 8 994 87 10000 6.2 180 14:22 21.12.2019
5758 Clouds 8 995 81 10000 6.7 180 13:58 21.12.2019
5759 Clouds 8 995 81 10000 4.1 190 13:39 21.12.2019
5760 Clouds 8 995 81 10000 4.1 190 13:19 21.12.2019
5761 Clouds 8 995 81 10000 3.1 170 12:56 21.12.2019
5762 Rain 8 995 81 10000 2.6 180 12:38 21.12.2019
5763 Rain 7 996 87 10000 4.1 190 12:19 21.12.2019
5764 Rain 7 996 87 10000 1.5 200 11:46 21.12.2019
5765 Rain 6 996 87 10000 1.5 200 11:27 21.12.2019
5766 Clouds 6 996 87 10000 3.1 190 10:59 21.12.2019
5767 Rain 5 996 93 10000 1.5 190 10:40 21.12.2019
5768 Rain 5 996 93 10000 1.5 190 10:21 21.12.2019
5769 Rain 4 996 93 10000 1.5 0 09:57 21.12.2019
5770 Rain 4 995 93 10000 3.1 200 09:39 21.12.2019
5771 Clouds 3 995 93 10000 1 0 09:19 21.12.2019
5772 Clouds 3 995 93 10000 3.1 200 08:47 21.12.2019
5773 Clouds 4 995 93 10000 3.1 200 08:27 21.12.2019
5774 Clouds 4 995 91 10000 2.1 190 07:58 21.12.2019
5775 Clouds 4 995 93 10000 1 0 07:39 21.12.2019
5776 Clouds 4 995 93 10000 1 0 07:20 21.12.2019
5777 Clouds 4 995 100 10000 2.1 210 06:40 21.12.2019
5778 Clouds 4 995 100 10000 2.1 210 06:22 21.12.2019
5779 Clouds 4 995 100 10000 1 0 05:25 21.12.2019
5780 Clouds 4 996 100 10000 2.1 170 04:55 21.12.2019
5781 Clear 4 996 93 10000 1.5 170 03:56 21.12.2019
5782 Clouds 4 996 100 7000 1.5 0 02:25 21.12.2019
5783 Clouds 5 996 100 10000 0.5 0 01:50 21.12.2019
5784 Clouds 5 996 93 10000 1 0 01:25 21.12.2019
5785 Clouds 5 996 93 10000 3.1 210 00:49 21.12.2019
5786 Clouds 5 996 93 10000 2.1 190 00:28 21.12.2019
5787 Clouds 6 996 93 10000 1.5 250 23:39 20.12.2019
5788 Clouds 6 996 93 10000 1.5 250 23:39 20.12.2019
5789 Rain 6 996 93 10000 1.5 250 23:21 20.12.2019
5790 Clouds 6 996 87 10000 4.6 190 22:59 20.12.2019
5791 Clouds 6 996 87 10000 3.6 170 22:39 20.12.2019
5792 Clouds 6 996 87 10000 3.6 170 22:19 20.12.2019
5793 Clouds 7 995 87 10000 5.1 170 21:56 20.12.2019
5794 Rain 7 995 87 10000 6.2 170 21:38 20.12.2019
5795 Rain 7 995 87 10000 6.2 170 21:18 20.12.2019
5796 Rain 7 995 87 10000 6.7 180 20:39 20.12.2019
5797 Rain 7 995 87 10000 6.7 180 20:39 20.12.2019
5798 Rain 7 995 87 10000 6.7 180 20:19 20.12.2019
5799 Rain 7 995 87 10000 6.7 180 19:57 20.12.2019
5800 Rain 7 995 87 10000 5.1 170 19:39 20.12.2019
5801 Rain 7 995 93 10000 6.7 190 19:19 20.12.2019
5802 Rain 8 994 93 10000 6.2 180 18:42 20.12.2019
5803 Rain 8 994 81 10000 4.1 170 18:24 20.12.2019
5804 Rain 8 994 93 10000 4.6 170 17:58 20.12.2019
5805 Rain 8 993 87 10000 4.6 210 17:40 20.12.2019
5806 Rain 8 993 87 10000 4.6 210 17:21 20.12.2019
5807 Rain 8 993 100 10000 2.6 240 16:59 20.12.2019
5808 Rain 8 993 100 10000 2.6 240 16:39 20.12.2019
5809 Rain 8 992 100 10000 2.6 290 16:20 20.12.2019
5810 Rain 8 992 100 10000 1.5 330 15:56 20.12.2019
5811 Rain 7 991 100 10000 3.1 140 15:38 20.12.2019
5812 Rain 8 991 100 10000 3.1 140 15:19 20.12.2019
5813 Rain 7 991 100 10000 2.6 180 14:55 20.12.2019
5814 Rain 7 991 100 10000 2.6 160 14:37 20.12.2019
5815 Rain 6 991 100 10000 2.6 160 14:18 20.12.2019
5816 Rain 6 991 100 10000 2.6 180 13:41 20.12.2019
5817 Rain 6 991 100 10000 2.1 200 13:21 20.12.2019
5818 Rain 7 992 100 10000 1.5 200 12:59 20.12.2019
5819 Rain 6 992 100 10000 1.5 200 12:40 20.12.2019
5820 Rain 7 992 100 10000 2.6 270 12:19 20.12.2019
5821 Rain 7 993 100 10000 2.6 280 11:59 20.12.2019
5822 Rain 6 993 100 10000 2.6 280 11:39 20.12.2019
5823 Rain 6 993 93 10000 1.5 0 11:20 20.12.2019
5824 Rain 6 994 100 10000 3.1 180 10:58 20.12.2019
5825 Rain 5 994 100 10000 3.1 180 10:40 20.12.2019
5826 Rain 5 994 100 10000 2.1 180 10:20 20.12.2019
5827 Rain 5 994 100 9000 1 0 09:56 20.12.2019
5828 Rain 5 994 100 9000 1 0 09:38 20.12.2019
5829 Rain 4 994 100 10000 1.5 0 09:19 20.12.2019
5830 Mist 4 994 100 3700 2.1 0 08:43 20.12.2019
5831 Fog 3 994 100 800 1 0 08:24 20.12.2019
5832 Fog 3 994 100 550 3.37 128 07:59 20.12.2019
5833 Fog 3 994 100 550 3.37 128 07:40 20.12.2019
5834 Fog 3 994 100 600 1 0 07:19 20.12.2019
5835 Fog 3 995 100 600 1 0 06:52 20.12.2019
5836 Fog 3 996 100 500 0.5 0 06:32 20.12.2019
5837 Fog 2 996 100 550 1.5 30 05:55 20.12.2019
5838 Fog 2 997 100 550 1.5 10 05:36 20.12.2019
5839 Fog 3 998 100 500 1.5 50 04:33 20.12.2019
5840 Fog 4 1000 100 450 0.5 0 03:30 20.12.2019
5841 Mist 4 1001 100 1300 1 0 02:44 20.12.2019
5842 Fog 5 1003 100 500 1 0 01:52 20.12.2019
5843 Rain 5 1004 100 450 1 0 01:33 20.12.2019
5844 Rain 4 1005 100 400 0.5 0 00:48 20.12.2019
5845 Fog 4 1005 100 400 1 0 00:29 20.12.2019
5846 Fog 4 1006 100 450 1 0 23:56 19.12.2019
5847 Fog 5 1006 100 450 1 0 23:38 19.12.2019
5848 Fog 5 1006 100 350 1 0 23:18 19.12.2019
5849 Fog 5 1005 100 400 1 0 22:38 19.12.2019
5850 Fog 6 1005 100 400 1.5 30 22:20 19.12.2019
5851 Fog 6 1006 100 450 1.5 330 21:56 19.12.2019
5852 Fog 6 1006 100 450 0.5 0 21:38 19.12.2019
5853 Fog 6 1006 100 450 0.5 0 21:19 19.12.2019
5854 Fog 6 1007 100 700 1 350 20:56 19.12.2019
5855 Fog 6 1007 100 700 1 350 20:56 19.12.2019
5856 Clouds 6 1007 87 10000 3.6 140 20:37 19.12.2019
5857 Clouds 6 1007 87 10000 3.6 140 20:37 19.12.2019
5858 Clouds 6 1007 87 10000 3.6 140 20:19 19.12.2019
5859 Clouds 6 1008 87 10000 2.6 190 19:57 19.12.2019
5860 Clouds 6 1008 87 10000 2.6 190 19:57 19.12.2019
5861 Clouds 7 1009 87 10000 2.6 180 19:39 19.12.2019
5862 Fog 7 1009 100 350 1.5 330 19:19 19.12.2019
5863 Fog 7 1009 100 350 1.5 330 19:19 19.12.2019
5864 Fog 7 1009 100 350 1.5 330 19:19 19.12.2019
5865 Fog 7 1009 100 250 1 20 18:56 19.12.2019
5866 Fog 7 1009 100 250 1 20 18:38 19.12.2019
5867 Mist 7 1010 100 5000 1.5 20 18:18 19.12.2019
5868 Clouds 7 1010 93 7000 2.1 350 17:55 19.12.2019
5869 Clouds 7 1010 100 10000 2.1 20 17:37 19.12.2019
5870 Clouds 8 1010 100 10000 2.1 20 17:37 19.12.2019
5871 Clouds 8 1010 100 10000 2.1 20 17:18 19.12.2019
5872 Clouds 9 1010 87 10000 1 0 16:55 19.12.2019
5873 Clouds 9 1010 93 10000 1.5 0 16:37 19.12.2019
5874 Clouds 9 1010 93 10000 1.5 0 16:19 19.12.2019
5875 Clouds 9 1010 87 10000 1 0 15:55 19.12.2019
5876 Clouds 9 1010 87 10000 1 0 15:37 19.12.2019
5877 Clouds 10 1010 87 10000 1 0 15:18 19.12.2019
5878 Clouds 10 1011 87 10000 1.5 0 14:42 19.12.2019
5879 Clouds 10 1011 87 10000 1 0 14:20 19.12.2019
5880 Clouds 10 1011 81 10000 1.5 10 13:59 19.12.2019
5881 Clouds 10 1012 81 10000 1 0 13:38 19.12.2019
5882 Clouds 10 1012 81 10000 1 0 13:38 19.12.2019
5883 Clouds 10 1012 81 10000 1 0 13:19 19.12.2019
5884 Clouds 10 1013 87 10000 1.5 150 12:57 19.12.2019
5885 Clouds 10 1013 100 10000 1.5 270 12:39 19.12.2019
5886 Clouds 9 1013 100 10000 1.5 270 12:19 19.12.2019
5887 Clouds 8 1014 100 10000 1.5 0 11:58 19.12.2019
5888 Clouds 8 1014 100 10000 1.5 0 11:40 19.12.2019
5889 Clouds 7 1014 100 10000 1.5 0 11:18 19.12.2019
5890 Clouds 6 1014 100 8000 1 30 10:58 19.12.2019
5891 Clouds 5 1014 100 10000 1 0 10:38 19.12.2019
5892 Clouds 5 1014 100 10000 1 0 10:20 19.12.2019
5893 Clouds 5 1015 100 10000 1 0 09:55 19.12.2019
5894 Clouds 5 1015 100 10000 2.1 190 09:37 19.12.2019
5895 Clouds 4 1015 100 9000 1 0 09:18 19.12.2019
5896 Fog 4 1015 100 1300 1 0 08:42 19.12.2019
5897 Rain 4 1016 100 300 0.5 0 08:20 19.12.2019
5898 Rain 4 1016 100 300 0.5 0 08:20 19.12.2019
5899 Rain 4 1016 100 300 0.5 0 08:20 19.12.2019
5900 Rain 4 1016 100 500 1 340 07:59 19.12.2019
5901 Fog 3 1016 100 500 1 340 07:40 19.12.2019
5902 Fog 3 1016 100 400 1 0 07:22 19.12.2019
5903 Fog 3 1016 100 450 1 0 06:52 19.12.2019
5904 Fog 3 1016 100 450 1 0 06:52 19.12.2019
5905 Fog 3 1016 100 450 1 0 06:52 19.12.2019
5906 Fog 3 1016 100 350 1.87 147 06:33 19.12.2019
5907 Fog 3 1016 100 400 1 0 05:59 19.12.2019
5908 Fog 3 1016 100 400 1 0 05:41 19.12.2019
5909 Fog 3 1016 100 350 1.93 147 05:18 19.12.2019
5910 Fog 4 1016 100 400 0.5 0 03:51 19.12.2019
5911 Mist 4 1017 100 1300 2.1 180 02:25 19.12.2019
5912 Fog 5 1017 100 750 1.5 230 01:24 19.12.2019
5913 Fog 5 1017 100 600 2.1 190 00:57 19.12.2019
5914 Fog 5 1017 100 600 2.1 190 00:38 19.12.2019
5915 Mist 5 1018 100 5000 1 0 00:19 19.12.2019
5916 Mist 6 1018 100 1600 1 0 23:44 18.12.2019
5917 Mist 6 1018 100 1600 1 0 23:19 18.12.2019
5918 Fog 6 1018 100 1900 2.94 123 22:56 18.12.2019
5919 Fog 6 1018 100 1900 2.94 123 22:38 18.12.2019
5920 Fog 6 1018 93 2500 0.5 0 22:20 18.12.2019
5921 Clouds 7 1018 100 10000 1.5 200 21:58 18.12.2019
5922 Clouds 7 1018 100 10000 1.5 200 21:39 18.12.2019
5923 Clouds 7 1018 100 10000 1.5 200 21:39 18.12.2019
5924 Clouds 7 1018 100 10000 1.5 240 21:20 18.12.2019
5925 Clouds 7 1018 93 10000 1.5 0 20:56 18.12.2019
5926 Clouds 7 1018 93 10000 1.5 0 20:38 18.12.2019
5927 Clouds 7 1017 93 10000 2.1 270 20:19 18.12.2019
5928 Clouds 8 1018 100 10000 2.1 290 19:56 18.12.2019
5929 Clouds 8 1018 100 10000 2.1 290 19:38 18.12.2019
5930 Clouds 8 1018 100 10000 1 290 19:19 18.12.2019
5931 Clouds 8 1018 100 10000 1.5 310 18:55 18.12.2019
5932 Clouds 8 1018 93 10000 1.5 340 18:37 18.12.2019
5933 Clouds 9 1018 93 10000 1.5 340 18:18 18.12.2019
5934 Clouds 9 1018 93 10000 2.1 340 17:55 18.12.2019
5935 Clouds 9 1018 87 10000 1.5 20 17:37 18.12.2019
5936 Clouds 10 1018 87 10000 1.5 10 17:18 18.12.2019
5937 Clouds 10 1018 87 10000 1.5 10 16:42 18.12.2019
5938 Clouds 11 1017 81 10000 1 0 16:23 18.12.2019
5939 Clouds 11 1017 76 10000 1.69 133 15:57 18.12.2019
5940 Clouds 12 1017 71 10000 1 0 15:39 18.12.2019
5941 Clouds 12 1017 71 10000 1 0 15:21 18.12.2019
5942 Clouds 12 1017 76 10000 2.6 180 14:56 18.12.2019
5943 Clouds 12 1017 76 10000 2.6 180 14:56 18.12.2019
5944 Clouds 12 1017 87 10000 1 0 14:38 18.12.2019
5945 Clouds 12 1017 71 10000 2.6 180 14:19 18.12.2019
5946 Clouds 12 1018 87 10000 2.6 330 13:55 18.12.2019
5947 Clouds 12 1018 76 10000 1 0 13:36 18.12.2019
5948 Clouds 12 1018 76 10000 3.6 190 13:18 18.12.2019
5949 Clouds 12 1018 76 10000 3.6 190 13:18 18.12.2019
5950 Clouds 11 1018 87 10000 1.5 190 12:40 18.12.2019
5951 Clouds 11 1018 87 10000 0.5 0 12:21 18.12.2019
5952 Clouds 10 1018 87 10000 0.5 0 11:57 18.12.2019
5953 Drizzle 10 1018 87 10000 0.5 0 11:39 18.12.2019
5954 Drizzle 10 1018 87 10000 2.6 230 11:20 18.12.2019
5955 Drizzle 10 1018 87 10000 2.6 230 10:58 18.12.2019
5956 Clouds 9 1018 81 10000 2.6 210 10:39 18.12.2019
5957 Rain 9 1017 93 10000 1.5 130 10:21 18.12.2019
5958 Drizzle 9 1017 81 10000 2.6 160 09:59 18.12.2019
5959 Drizzle 9 1017 81 10000 2.6 160 09:59 18.12.2019
5960 Rain 9 1017 93 10000 2.6 170 09:20 18.12.2019
5961 Rain 9 1017 93 10000 2.1 180 08:55 18.12.2019
5962 Drizzle 9 1017 93 10000 4.1 160 08:37 18.12.2019
5963 Rain 9 1016 87 10000 3.6 160 08:19 18.12.2019
5964 Rain 9 1016 87 10000 1.82 199 07:42 18.12.2019
5965 Rain 9 1016 87 10000 1.82 199 07:21 18.12.2019
5966 Rain 9 1016 87 10000 1.5 0 06:52 18.12.2019
5967 Clouds 8 1015 87 10000 1 0 06:26 18.12.2019
5968 Rain 8 1015 87 10000 1.5 0 05:37 18.12.2019
5969 Clouds 8 1014 81 10000 1.5 70 04:35 18.12.2019
5970 Clouds 7 1012 81 10000 3.6 210 02:50 18.12.2019
5971 Clouds 8 1012 81 10000 3.6 210 02:30 18.12.2019
5972 Clouds 7 1012 81 10000 2.6 150 01:47 18.12.2019
5973 Clouds 7 1012 81 10000 2.6 150 01:28 18.12.2019
5974 Clouds 8 1011 87 10000 1 0 00:59 18.12.2019
5975 Clouds 8 1011 87 10000 1.5 140 00:40 18.12.2019
5976 Clouds 7 1011 93 10000 0.5 0 00:21 18.12.2019
5977 Clouds 7 1011 93 10000 0.5 0 23:54 17.12.2019
5978 Clouds 7 1010 86 10000 1.5 0 23:36 17.12.2019
5979 Clouds 6 1010 93 10000 2.1 220 23:18 17.12.2019
5980 Clouds 6 1010 93 10000 2.1 220 22:54 17.12.2019
5981 Clouds 6 1010 93 10000 1.5 0 22:36 17.12.2019
5982 Clouds 6 1009 93 10000 1.5 0 22:18 17.12.2019
5983 Clouds 7 1009 93 10000 1.5 0 21:55 17.12.2019
5984 Clouds 7 1009 93 10000 1 0 21:36 17.12.2019
5985 Clouds 7 1009 93 10000 1.5 180 21:18 17.12.2019
5986 Clouds 7 1009 93 10000 1.5 180 20:55 17.12.2019
5987 Clouds 8 1008 81 10000 2.1 150 20:36 17.12.2019
5988 Clouds 8 1008 81 10000 3.6 170 20:18 17.12.2019
5989 Clouds 8 1008 76 10000 3.6 170 19:41 17.12.2019
5990 Clouds 8 1008 76 10000 3.6 260 19:20 17.12.2019
5991 Clouds 8 1008 81 10000 3.6 200 18:58 17.12.2019
5992 Clouds 8 1007 81 10000 2.1 280 18:40 17.12.2019
5993 Clouds 9 1006 76 10000 1.5 360 18:21 17.12.2019
5994 Clouds 9 1007 93 10000 0.5 0 17:58 17.12.2019
5995 Clouds 9 1007 76 10000 1.5 0 17:39 17.12.2019
5996 Clouds 10 1007 76 10000 3.6 200 17:19 17.12.2019
5997 Clouds 10 1007 81 10000 1.51 145 16:56 17.12.2019
5998 Clouds 10 1007 76 10000 2.6 200 16:37 17.12.2019
5999 Clouds 10 1007 76 10000 2.6 200 16:37 17.12.2019
6000 Clouds 10 1007 81 10000 2.1 240 16:19 17.12.2019
6001 Clouds 11 1007 76 10000 0.5 0 15:55 17.12.2019
6002 Clouds 10 1007 71 10000 4.1 230 15:37 17.12.2019
6003 Clouds 10 1007 67 10000 3.6 240 15:18 17.12.2019
6004 Clouds 10 1007 76 10000 2.1 220 14:55 17.12.2019
6005 Clouds 10 1007 71 10000 2.6 250 14:36 17.12.2019
6006 Clouds 11 1007 71 10000 1 0 14:18 17.12.2019
6007 Clouds 11 1007 71 10000 1 0 13:55 17.12.2019
6008 Clouds 10 1007 76 10000 1 0 13:37 17.12.2019
6009 Clouds 10 1007 71 10000 0.48 182 13:18 17.12.2019
6010 Clouds 10 1007 71 10000 2.1 240 12:41 17.12.2019
6011 Clouds 10 1008 71 10000 2.1 260 12:19 17.12.2019
6012 Clouds 10 1008 71 10000 2.1 260 12:19 17.12.2019
6013 Clouds 10 1008 71 10000 2.1 260 12:19 17.12.2019
6014 Clouds 10 1008 71 10000 2.1 260 11:59 17.12.2019
6015 Clouds 9 1007 76 10000 1.5 300 11:37 17.12.2019
6016 Clouds 8 1008 71 10000 1 0 11:19 17.12.2019
6017 Clouds 8 1008 76 10000 2.1 170 10:59 17.12.2019
6018 Clouds 7 1008 76 10000 2.1 160 10:41 17.12.2019
6019 Clouds 7 1007 87 10000 1.5 160 10:22 17.12.2019
6020 Clouds 6 1007 81 10000 2.1 170 09:59 17.12.2019
6021 Clouds 6 1007 81 10000 1 0 09:41 17.12.2019
6022 Clouds 5 1007 93 10000 3.1 210 09:20 17.12.2019
6023 Clouds 5 1007 93 10000 1.5 230 08:56 17.12.2019
6024 Clouds 5 1007 93 10000 1.5 230 08:56 17.12.2019
6025 Clouds 5 1007 87 10000 1 0 08:38 17.12.2019
6026 Clouds 6 1006 93 10000 2.6 290 08:20 17.12.2019
6027 Clouds 5 1006 93 10000 1.9 144 07:55 17.12.2019
6028 Clouds 5 1006 100 10000 0.5 0 07:36 17.12.2019
6029 Clouds 6 1006 87 10000 1.5 0 07:18 17.12.2019
6030 Clouds 6 1006 87 10000 1 0 06:35 17.12.2019
6031 Clouds 6 1005 93 10000 1.5 220 05:57 17.12.2019
6032 Clouds 6 1005 93 10000 1 0 05:38 17.12.2019
6033 Clouds 5 1005 93 10000 1 0 04:45 17.12.2019
6034 Clouds 6 1004 81 10000 3.1 190 02:47 17.12.2019
6035 Clouds 6 1004 86 10000 1.5 200 01:56 17.12.2019
6036 Clouds 6 1004 93 10000 1 0 01:20 17.12.2019
6037 Clouds 6 1005 93 10000 1 0 00:38 17.12.2019
6038 Clouds 6 1005 93 10000 1 0 00:20 17.12.2019
6039 Clouds 7 1005 93 10000 0.5 0 23:42 16.12.2019
6040 Clouds 7 1005 87 10000 1.5 0 23:19 16.12.2019
6041 Clouds 7 1005 87 10000 1.5 0 22:58 16.12.2019
6042 Clouds 7 1005 87 10000 3.1 170 22:38 16.12.2019
6043 Clouds 7 1005 87 10000 3.1 170 22:20 16.12.2019
6044 Clouds 7 1005 93 10000 2.6 350 21:57 16.12.2019
6045 Clouds 7 1005 87 10000 1 0 21:38 16.12.2019
6046 Clouds 7 1005 87 10000 1 0 21:20 16.12.2019
6047 Clouds 7 1005 87 10000 1 0 20:58 16.12.2019
6048 Clouds 7 1006 81 10000 1.5 210 20:39 16.12.2019
6049 Clouds 7 1006 81 10000 1.5 210 20:39 16.12.2019
6050 Clouds 7 1006 81 10000 1.5 210 20:19 16.12.2019
6051 Clouds 7 1006 87 10000 2.1 180 19:56 16.12.2019
6052 Clouds 7 1006 93 10000 1.5 120 19:37 16.12.2019
6053 Clouds 7 1006 81 10000 3.6 220 19:19 16.12.2019
6054 Clouds 8 1006 81 10000 3.6 220 18:59 16.12.2019
6055 Clouds 7 1006 93 10000 2.1 250 18:40 16.12.2019
6056 Clouds 7 1006 93 10000 3.11 139 18:20 16.12.2019
6057 Clouds 8 1006 87 10000 2.6 190 17:59 16.12.2019
6058 Clouds 8 1007 81 10000 1.5 0 17:40 16.12.2019
6059 Clouds 9 1007 81 10000 1.5 240 17:21 16.12.2019
6060 Clouds 9 1007 81 10000 1.5 240 16:57 16.12.2019
6061 Clouds 9 1007 71 10000 1.5 0 16:39 16.12.2019
6062 Clouds 10 1007 71 10000 1.5 0 16:20 16.12.2019
6063 Clouds 10 1007 81 10000 1.5 250 15:59 16.12.2019
6064 Clouds 10 1007 76 10000 1 0 15:39 16.12.2019
6065 Clouds 10 1007 76 10000 1 260 15:21 16.12.2019
6066 Clouds 11 1007 71 10000 3.1 170 14:57 16.12.2019
6067 Clouds 10 1007 71 10000 2.1 240 14:37 16.12.2019
6068 Clouds 10 1008 71 10000 2.1 210 14:19 16.12.2019
6069 Clouds 10 1008 76 10000 2.1 220 13:57 16.12.2019
6070 Clouds 10 1008 71 10000 2.1 240 13:38 16.12.2019
6071 Clouds 10 1008 71 10000 2.1 240 13:20 16.12.2019
6072 Clouds 10 1008 71 10000 2.1 240 12:58 16.12.2019
6073 Clouds 10 1008 71 10000 2.6 220 12:39 16.12.2019
6074 Clouds 10 1009 76 10000 2.6 210 12:20 16.12.2019
6075 Clouds 10 1009 76 10000 2.6 210 11:59 16.12.2019
6076 Clouds 10 1009 76 10000 2.6 250 11:41 16.12.2019
6077 Clouds 8 1009 87 10000 2.1 270 11:21 16.12.2019
6078 Clouds 8 1009 76 10000 1.5 0 10:58 16.12.2019
6079 Clouds 8 1009 71 10000 1.5 0 10:40 16.12.2019
6080 Clouds 7 1009 66 10000 3.6 170 10:20 16.12.2019
6081 Clouds 7 1009 71 10000 2.6 190 09:46 16.12.2019
6082 Clouds 7 1009 71 10000 2.6 190 09:28 16.12.2019
6083 Clouds 6 1009 71 10000 3.1 200 08:58 16.12.2019
6084 Clouds 6 1009 71 10000 3.1 200 08:58 16.12.2019
6085 Clouds 6 1009 71 10000 5.7 190 08:38 16.12.2019
6086 Clouds 6 1009 93 10000 1.5 250 08:18 16.12.2019
6087 Clouds 5 1009 93 10000 1.5 250 07:49 16.12.2019
6088 Clouds 6 1009 93 10000 1.5 250 07:30 16.12.2019
6089 Clouds 6 1009 93 10000 2.6 210 06:46 16.12.2019
6090 Clouds 6 1009 93 10000 2.6 210 06:26 16.12.2019
6091 Clouds 6 1009 93 10000 3.1 200 05:58 16.12.2019
6092 Clouds 6 1009 93 10000 2.6 180 05:39 16.12.2019
6093 Clouds 6 1010 93 10000 2.1 230 05:21 16.12.2019
6094 Clouds 7 1010 93 10000 1.5 180 02:50 16.12.2019
6095 Clouds 7 1010 100 10000 2.6 200 01:45 16.12.2019
6096 Clouds 7 1010 93 10000 2.1 190 00:56 16.12.2019
6097 Clouds 8 1010 93 10000 2.6 260 00:37 16.12.2019
6098 Clouds 8 1010 93 10000 1.5 0 00:18 16.12.2019
6099 Clouds 8 1010 100 10000 2.1 210 23:40 15.12.2019
6100 Clouds 8 1010 100 10000 2.1 210 23:40 15.12.2019
6101 Rain 8 1010 100 10000 2.1 210 23:22 15.12.2019
6102 Rain 8 1010 100 10000 1.5 210 22:57 15.12.2019
6103 Rain 8 1011 93 10000 1.5 260 22:38 15.12.2019
6104 Clouds 8 1011 93 10000 1.5 0 22:19 15.12.2019
6105 Clouds 8 1011 93 10000 1.5 0 21:57 15.12.2019
6106 Clouds 8 1011 93 10000 1 240 21:38 15.12.2019
6107 Clouds 9 1011 87 10000 2.69 160 21:20 15.12.2019
6108 Clouds 9 1011 87 10000 2.69 160 20:58 15.12.2019
6109 Clouds 9 1011 87 10000 2.6 210 20:39 15.12.2019
6110 Clouds 9 1011 87 10000 2.6 210 20:39 15.12.2019
6111 Clouds 9 1011 87 10000 2.6 210 20:21 15.12.2019
6112 Rain 9 1010 87 10000 3.1 190 19:58 15.12.2019
6113 Rain 9 1010 81 10000 2.6 210 19:40 15.12.2019
6114 Rain 9 1010 71 10000 2.6 170 19:20 15.12.2019
6115 Rain 9 1010 71 10000 2.6 170 18:58 15.12.2019
6116 Rain 10 1010 76 10000 1 160 18:39 15.12.2019
6117 Rain 10 1010 76 10000 2.1 210 18:19 15.12.2019
6118 Rain 10 1010 76 10000 2.1 210 17:56 15.12.2019
6119 Rain 10 1010 81 10000 3.1 210 17:38 15.12.2019
6120 Rain 10 1010 76 10000 3.6 220 17:19 15.12.2019
6121 Rain 10 1010 76 10000 3.6 220 16:57 15.12.2019
6122 Rain 11 1009 87 10000 1.5 100 16:39 15.12.2019
6123 Rain 11 1009 81 10000 1 0 16:21 15.12.2019
6124 Rain 11 1009 81 10000 1 0 15:56 15.12.2019
6125 Rain 11 1008 81 10000 3.1 260 15:38 15.12.2019
6126 Rain 11 1008 81 10000 5.1 260 15:19 15.12.2019
6127 Rain 11 1008 81 10000 5.1 260 14:56 15.12.2019
6128 Rain 11 1007 76 10000 1.5 220 14:37 15.12.2019
6129 Rain 12 1007 71 10000 3.6 230 14:18 15.12.2019
6130 Rain 12 1007 71 10000 3.6 230 13:58 15.12.2019
6131 Rain 12 1007 62 10000 5.1 220 13:37 15.12.2019
6132 Rain 12 1007 62 10000 5.1 220 13:19 15.12.2019
6133 Rain 13 1007 71 10000 6.2 200 12:56 15.12.2019
6134 Clouds 13 1006 67 10000 5.1 220 12:38 15.12.2019
6135 Clouds 14 1006 67 10000 5.1 220 12:20 15.12.2019
6136 Clouds 14 1006 67 10000 7.7 210 11:56 15.12.2019
6137 Rain 13 1006 67 10000 7.2 200 11:36 15.12.2019
6138 Clouds 12 1006 71 10000 4.1 200 11:18 15.12.2019
6139 Clouds 12 1006 71 10000 4.1 200 10:55 15.12.2019
6140 Clouds 12 1005 62 10000 3.6 190 10:36 15.12.2019
6141 Rain 12 1005 71 10000 3.1 170 10:18 15.12.2019
6142 Clouds 11 1005 66 10000 2.6 220 09:41 15.12.2019
6143 Clouds 12 1005 66 10000 2.6 220 09:20 15.12.2019
6144 Clouds 12 1004 66 10000 4.1 180 08:58 15.12.2019
6145 Clouds 12 1004 71 10000 5.1 170 08:39 15.12.2019
6146 Clouds 11 1004 71 10000 5.7 160 08:21 15.12.2019
6147 Clouds 11 1004 71 10000 5.7 160 07:56 15.12.2019
6148 Rain 11 1003 71 10000 5.1 170 07:34 15.12.2019
6149 Rain 11 1003 71 10000 5.7 180 06:52 15.12.2019
6150 Clouds 11 1002 71 10000 4.6 160 06:20 15.12.2019
6151 Clouds 11 1002 71 10000 3.6 160 05:28 15.12.2019
6152 Clouds 11 1002 76 10000 5.7 180 04:47 15.12.2019
6153 Rain 10 1003 93 10000 5.1 160 03:31 15.12.2019
6154 Rain 9 1003 100 8000 1.5 210 02:34 15.12.2019
6155 Rain 9 1004 100 7000 0.5 0 01:47 15.12.2019
6156 Rain 9 1004 100 7000 0.5 0 01:28 15.12.2019
6157 Rain 8 1005 87 10000 5.1 190 00:59 15.12.2019
6158 Rain 9 1005 81 10000 6.7 200 00:41 15.12.2019
6159 Rain 9 1005 93 7000 3.6 180 00:23 15.12.2019
6160 Clouds 9 1005 87 10000 3.1 190 23:40 14.12.2019
6161 Clouds 8 1005 87 10000 3.1 190 23:21 14.12.2019
6162 Clouds 8 1006 76 10000 6.2 190 22:58 14.12.2019
6163 Clouds 8 1006 81 10000 4.6 200 22:40 14.12.2019
6164 Clouds 8 1006 81 10000 3.1 210 22:21 14.12.2019
6165 Clouds 8 1006 76 10000 7.2 180 21:56 14.12.2019
6166 Clouds 9 1006 71 10000 4.6 220 21:38 14.12.2019
6167 Clouds 9 1006 76 10000 6.7 210 21:19 14.12.2019
6168 Clouds 9 1006 66 10000 5.7 200 20:57 14.12.2019
6169 Rain 9 1006 66 10000 7.2 200 20:39 14.12.2019
6170 Rain 9 1005 66 10000 7.7 190 20:19 14.12.2019
6171 Rain 9 1005 66 10000 7.7 190 19:57 14.12.2019
6172 Clouds 9 1004 66 10000 6.7 190 19:37 14.12.2019
6173 Clouds 9 1004 66 10000 6.7 190 19:19 14.12.2019
6174 Clouds 10 1004 61 10000 5.7 190 18:56 14.12.2019
6175 Rain 10 1004 61 10000 6.2 200 18:37 14.12.2019
6176 Rain 9 1004 57 10000 6.7 200 18:19 14.12.2019
6177 Rain 9 1004 57 10000 7.7 190 17:43 14.12.2019
6178 Clear 8 1004 57 10000 7.7 190 17:24 14.12.2019
6179 Clear 8 1004 53 10000 7.7 200 16:58 14.12.2019
6180 Clear 8 1003 53 10000 7.7 190 16:39 14.12.2019
6181 Clear 8 1003 53 10000 7.7 190 16:18 14.12.2019
6182 Clear 8 1003 50 10000 7.7 190 15:43 14.12.2019
6183 Clear 8 1003 50 10000 7.7 190 15:22 14.12.2019
6184 Clear 8 1003 50 10000 7.7 190 14:59 14.12.2019
6185 Clear 8 1003 82 10000 7.7 180 14:39 14.12.2019
6186 Rain 9 1003 83 10000 7.7 180 14:20 14.12.2019
6187 Rain 9 1003 83 10000 5.7 180 13:57 14.12.2019
6188 Rain 9 1003 43 10000 7.7 230 13:38 14.12.2019
6189 Rain 9 1002 86 10000 7.7 250 13:18 14.12.2019
6190 Rain 9 1002 86 10000 7.7 250 12:55 14.12.2019
6191 Rain 8 1001 86 10000 10.3 260 12:37 14.12.2019
6192 Rain 9 1000 61 10000 12.3 270 12:18 14.12.2019
6193 Rain 8 1000 61 10000 12.3 270 11:55 14.12.2019
6194 Rain 9 1000 66 10000 7.2 230 11:36 14.12.2019
6195 Rain 8 999 70 10000 8.7 210 11:18 14.12.2019
6196 Rain 8 999 70 10000 8.7 210 10:55 14.12.2019
6197 Clouds 8 998 57 10000 9.8 250 10:37 14.12.2019
6198 Clouds 8 998 61 10000 8.2 250 10:18 14.12.2019
6199 Clouds 8 996 57 10000 8.7 260 09:40 14.12.2019
6200 Clouds 8 996 57 10000 8.7 260 09:20 14.12.2019
6201 Clouds 8 995 57 10000 12.3 260 09:20 14.12.2019
6202 Clouds 8 994 57 10000 13.4 260 08:44 14.12.2019
6203 Clouds 8 994 57 10000 13.4 260 08:44 14.12.2019
6204 Clouds 8 994 57 10000 13.4 260 08:20 14.12.2019
6205 Rain 8 992 57 10000 14.4 260 07:57 14.12.2019
6206 Rain 8 991 53 10000 13.4 260 07:38 14.12.2019
6207 Rain 8 991 62 10000 12.9 250 07:19 14.12.2019
6208 Rain 8 991 93 10000 6.7 190 06:41 14.12.2019
6209 Rain 8 990 87 10000 7.7 200 06:22 14.12.2019
6210 Clouds 5 990 86 10000 7.2 170 05:22 14.12.2019
6211 Rain 5 992 86 10000 6.2 180 02:51 14.12.2019
6212 Rain 4 993 80 10000 5.1 180 02:23 14.12.2019
6213 Clouds 4 994 80 10000 5.7 200 01:43 14.12.2019
6214 Clouds 4 993 80 10000 6.7 180 00:58 14.12.2019
6215 Clouds 4 995 80 10000 5.7 170 00:40 14.12.2019
6216 Clouds 4 995 75 10000 5.1 180 00:19 14.12.2019
6217 Clouds 4 995 70 10000 6.2 190 23:41 13.12.2019
6218 Clouds 5 995 70 10000 6.2 190 23:41 13.12.2019
6219 Clouds 5 995 96 10000 4.1 180 23:19 13.12.2019
6220 Clouds 5 995 96 10000 4.1 180 22:56 13.12.2019
6221 Clouds 5 995 75 10000 4.6 180 22:37 13.12.2019
6222 Clouds 5 995 70 10000 5.1 220 22:18 13.12.2019
6223 Clouds 4 994 70 10000 4.6 200 21:44 13.12.2019
6224 Clouds 5 994 65 10000 5.1 210 21:22 13.12.2019
6225 Clouds 5 994 65 10000 5.1 210 20:59 13.12.2019
6226 Clouds 5 993 65 10000 5.7 220 20:40 13.12.2019
6227 Clouds 5 993 65 10000 5.7 220 20:20 13.12.2019
6228 Clouds 5 992 65 10000 5.7 230 19:57 13.12.2019
6229 Clouds 5 992 65 10000 6.2 230 19:39 13.12.2019
6230 Clouds 5 992 65 10000 6.2 230 19:20 13.12.2019
6231 Clouds 5 991 70 10000 7.2 210 18:56 13.12.2019
6232 Rain 5 990 70 10000 6.7 190 18:38 13.12.2019
6233 Rain 5 990 70 10000 6.7 190 18:18 13.12.2019
6234 Rain 5 989 81 10000 5.1 210 17:41 13.12.2019
6235 Rain 5 989 81 10000 5.1 210 17:19 13.12.2019
6236 Rain 5 989 81 10000 5.1 210 17:19 13.12.2019
6237 Rain 5 988 75 10000 6.2 210 16:58 13.12.2019
6238 Clouds 5 988 81 10000 5.1 190 16:39 13.12.2019
6239 Clouds 5 988 81 10000 5.1 190 16:20 13.12.2019
6240 Clouds 5 987 81 10000 5.7 200 15:43 13.12.2019
6241 -273 0 0 0 0 0 15:23 13.12.2019
6242 Clouds 5 986 75 10000 5.1 200 14:58 13.12.2019
6243 Clouds 5 986 75 10000 5.1 200 14:39 13.12.2019
6244 Clouds 6 985 75 10000 6.2 200 14:20 13.12.2019
6245 Clouds 6 985 75 10000 6.2 200 14:20 13.12.2019
6246 Clouds 6 985 75 10000 6.2 200 14:20 13.12.2019
6247 Rain 6 985 87 10000 5.7 200 13:56 13.12.2019
6248 Rain 6 985 87 10000 5.1 210 13:37 13.12.2019
6249 Rain 6 985 87 10000 5.1 210 13:37 13.12.2019
6250 Rain 6 985 87 10000 5.1 210 13:18 13.12.2019
6251 Rain 6 984 81 10000 2.6 170 12:42 13.12.2019
6252 Rain 6 984 87 10000 2.6 170 12:20 13.12.2019
6253 Rain 5 984 86 7000 6.2 250 11:57 13.12.2019
6254 Rain 5 984 86 7000 6.2 250 11:39 13.12.2019
6255 Rain 5 983 75 10000 5.1 220 11:19 13.12.2019
6256 Rain 6 982 87 10000 5.1 210 10:42 13.12.2019
6257 Rain 6 981 87 10000 3.6 200 10:22 13.12.2019
6258 Rain 5 980 93 10000 5.1 170 09:54 13.12.2019
6259 Rain 5 979 93 10000 6.2 180 09:36 13.12.2019
6260 Rain 5 979 93 10000 6.2 180 09:18 13.12.2019
6261 Rain 5 978 93 10000 5.7 200 08:41 13.12.2019
6262 Rain 5 977 93 7000 8.7 180 08:23 13.12.2019
6263 Rain 4 978 100 10000 5.7 210 07:44 13.12.2019
6264 Rain 4 978 93 10000 5.1 190 07:21 13.12.2019
6265 Rain 4 979 93 10000 5.7 190 06:51 13.12.2019
6266 Rain 4 980 93 10000 4.6 190 06:28 13.12.2019
6267 Rain 4 981 93 10000 5.7 200 05:45 13.12.2019
6268 Clouds 4 982 100 10000 2.1 200 05:24 13.12.2019
6269 Clouds 3 984 93 10000 3.6 200 04:35 13.12.2019
6270 Clouds 3 986 93 10000 5.1 190 03:31 13.12.2019
6271 Rain 3 987 93 10000 5.7 200 02:33 13.12.2019
6272 Rain 2 988 100 9000 7.7 190 01:43 13.12.2019
6273 Rain 2 990 93 10000 7.2 180 00:55 13.12.2019
6274 Rain 2 991 74 10000 5.7 200 00:36 13.12.2019
6275 Clouds 2 991 74 10000 4.6 210 23:57 12.12.2019
6276 Clouds 2 991 74 10000 4.6 210 23:39 12.12.2019
6277 Clouds 2 992 80 10000 2.1 220 23:20 12.12.2019
6278 Clouds 1 993 82 10000 3.1 220 22:55 12.12.2019
6279 Clouds 1 994 82 10000 2.1 260 22:37 12.12.2019
6280 Clouds 1 994 82 10000 2.1 260 22:18 12.12.2019
6281 Clouds 1 995 92 10000 1 0 21:54 12.12.2019
6282 Clouds 0 995 92 10000 1 0 21:36 12.12.2019
6283 Clouds 1 995 92 10000 1 0 21:18 12.12.2019
6284 Clouds 1 996 92 10000 2.1 240 20:55 12.12.2019
6285 Clouds 1 997 82 10000 1 0 20:37 12.12.2019
6286 Clouds 1 997 86 10000 1 0 20:19 12.12.2019
6287 Clouds 1 998 86 10000 2.1 230 19:42 12.12.2019
6288 Clouds 1 998 86 10000 3.1 180 19:22 12.12.2019
6289 Clouds 1 999 86 10000 3.1 190 18:58 12.12.2019
6290 Clouds 1 999 86 10000 3.1 190 18:40 12.12.2019
6291 Clouds 1 1000 86 10000 3.6 170 18:20 12.12.2019
6292 Clouds 2 1000 86 10000 4.1 180 17:58 12.12.2019
6293 Clouds 2 1000 86 10000 4.1 180 17:40 12.12.2019
6294 Clouds 2 1001 92 10000 3.6 170 17:21 12.12.2019
6295 Clouds 3 1002 92 10000 5.1 180 16:58 12.12.2019
6296 Clouds 3 1002 92 10000 5.1 180 16:40 12.12.2019
6297 Clouds 4 1002 92 10000 5.1 180 16:21 12.12.2019
6298 Clouds 4 1003 92 10000 5.1 180 15:57 12.12.2019
6299 Clouds 4 1003 92 10000 5.1 180 15:39 12.12.2019
6300 Clouds 5 1003 92 10000 5.1 200 15:18 12.12.2019
6301 Clouds 5 1004 92 10000 7.2 190 14:56 12.12.2019
6302 Clouds 5 1004 75 10000 6.2 190 14:36 12.12.2019
6303 Clouds 5 1004 75 10000 6.2 190 14:18 12.12.2019
6304 Clouds 5 1005 75 10000 5.7 190 13:54 12.12.2019
6305 Clouds 5 1005 70 10000 3.6 230 13:36 12.12.2019
6306 Clouds 5 1005 70 10000 3.6 230 13:18 12.12.2019
6307 Clouds 5 1006 75 10000 4.6 210 12:40 12.12.2019
6308 Clouds 5 1006 75 10000 4.6 210 12:40 12.12.2019
6309 Clouds 5 1006 75 10000 4.6 210 12:22 12.12.2019
6310 Clouds 4 1007 80 10000 4.6 190 11:59 12.12.2019
6311 Clouds 4 1007 80 10000 4.6 190 11:39 12.12.2019
6312 Clouds 4 1007 80 10000 4.6 190 11:39 12.12.2019
6313 Clouds 4 1007 86 10000 3.1 190 11:21 12.12.2019
6314 Clouds 4 1007 86 10000 4.1 180 10:58 12.12.2019
6315 Clouds 3 1007 86 10000 4.1 180 10:40 12.12.2019
6316 Clouds 3 1007 86 10000 3.1 190 10:21 12.12.2019
6317 Clouds 3 1007 86 10000 1 0 09:56 12.12.2019
6318 Clouds 3 1007 86 10000 3.09 234 09:38 12.12.2019
6319 Clouds 3 1007 86 10000 3.09 234 09:19 12.12.2019
6320 Rain 3 1007 93 10000 2.6 180 08:46 12.12.2019
6321 Rain 3 1006 98 10000 2.6 200 08:28 12.12.2019
6322 Rain 3 1006 86 10000 4.1 190 07:54 12.12.2019
6323 Rain 3 1006 86 10000 2.1 190 07:36 12.12.2019
6324 Rain 3 1006 86 10000 2.1 190 07:18 12.12.2019
6325 Rain 3 1006 86 10000 4.6 170 06:41 12.12.2019
6326 Rain 3 1006 86 10000 5.1 180 06:21 12.12.2019
6327 Rain 3 1006 93 10000 2.6 200 05:26 12.12.2019
6328 Rain 3 1006 93 10000 2.1 220 04:46 12.12.2019
6329 Clouds 3 1007 93 10000 1 0 02:42 12.12.2019
6330 Clouds 3 1007 93 10000 0.5 0 02:24 12.12.2019
6331 Clouds 3 1007 93 10000 1 0 01:59 12.12.2019
6332 Clouds 3 1008 100 10000 1.5 0 01:36 12.12.2019
6333 Clouds 3 1008 93 10000 2.1 200 00:49 12.12.2019
6334 Clouds 3 1008 93 10000 3.6 170 00:22 12.12.2019
6335 Clouds 3 1008 93 10000 3.1 170 23:58 11.12.2019
6336 Clouds 3 1009 86 10000 2.1 170 23:38 11.12.2019
6337 Clouds 3 1009 86 10000 2.1 170 23:18 11.12.2019
6338 Clouds 3 1009 86 10000 3.6 180 22:56 11.12.2019
6339 Clouds 3 1009 86 10000 3.6 180 22:56 11.12.2019
6340 Clouds 3 1009 93 10000 5.7 180 22:38 11.12.2019
6341 Clouds 3 1009 93 10000 5.7 180 22:19 11.12.2019
6342 Rain 3 1009 86 10000 5.7 180 21:55 11.12.2019
6343 Rain 3 1009 86 10000 4.6 190 21:36 11.12.2019
6344 Rain 3 1009 86 10000 4.6 190 21:18 11.12.2019
6345 Rain 3 1009 86 10000 4.6 190 21:18 11.12.2019
6346 Rain 3 1010 86 10000 5.1 180 20:55 11.12.2019
6347 Rain 3 1010 86 10000 3.6 180 20:36 11.12.2019
6348 Rain 3 1010 86 10000 3.6 180 20:18 11.12.2019
6349 Rain 3 1010 86 10000 4.6 180 19:42 11.12.2019
6350 Rain 3 1010 86 10000 4.1 180 19:23 11.12.2019
6351 Rain 3 1010 80 10000 4.6 180 18:59 11.12.2019
6352 Rain 3 1010 80 10000 4.6 180 18:40 11.12.2019
6353 Rain 3 1009 80 10000 5.7 180 18:40 11.12.2019
6354 Rain 2 1009 80 10000 5.7 180 18:21 11.12.2019
6355 Rain 2 1011 93 7000 2.1 130 17:57 11.12.2019
6356 Rain 3 1011 93 4000 1 0 17:38 11.12.2019
6357 Rain 2 1011 93 4000 1 0 17:18 11.12.2019
6358 Rain 3 1009 94 10000 4.1 170 16:56 11.12.2019
6359 Rain 3 1009 94 10000 4.1 170 16:56 11.12.2019
6360 Rain 3 1009 94 10000 4.1 170 16:38 11.12.2019
6361 Clouds 3 1008 94 10000 2.6 170 16:19 11.12.2019
6362 Clouds 3 1009 94 10000 2.1 220 15:57 11.12.2019
6363 Rain 3 1009 69 10000 2.6 200 15:38 11.12.2019
6364 Rain 3 1009 69 10000 2.6 200 15:20 11.12.2019
6365 Rain 3 1009 69 10000 3.1 200 14:55 11.12.2019
6366 Rain 3 1009 69 10000 2.6 200 14:37 11.12.2019
6367 Rain 3 1009 69 10000 2.6 200 14:19 11.12.2019
6368 Rain 3 1010 69 10000 2.1 200 13:54 11.12.2019
6369 Rain 3 1010 69 10000 3.1 190 13:36 11.12.2019
6370 Rain 3 1010 69 10000 3.1 190 13:18 11.12.2019
6371 Rain 3 1011 69 10000 3.1 190 12:54 11.12.2019
6372 Clouds 3 1011 74 10000 1.5 0 12:36 11.12.2019
6373 Clouds 3 1011 74 10000 1.5 0 12:36 11.12.2019
6374 Clouds 3 1011 74 10000 1.5 0 12:18 11.12.2019
6375 Rain 3 1012 67 10000 2.1 220 11:54 11.12.2019
6376 Rain 2 1013 80 10000 2.1 180 11:36 11.12.2019
6377 Clouds 2 1013 80 10000 2.1 180 11:18 11.12.2019
6378 Clouds 1 1014 86 10000 1.5 210 10:41 11.12.2019
6379 Clouds 1 1014 86 10000 1.5 210 10:23 11.12.2019
6380 Rain 1 1014 86 10000 2.6 180 09:58 11.12.2019
6381 Clouds 1 1014 86 10000 3.1 190 09:38 11.12.2019
6382 Clouds 1 1014 86 10000 3.1 190 09:20 11.12.2019
6383 Clouds 1 1015 80 10000 4.1 180 08:57 11.12.2019
6384 Clouds 1 1015 80 10000 3.6 190 08:37 11.12.2019
6385 Clouds 0 1015 80 10000 3.6 190 08:18 11.12.2019
6386 Clouds 0 1015 74 10000 3.6 190 07:45 11.12.2019
6387 Clouds 0 1015 80 10000 3.6 190 07:25 11.12.2019
6388 Clouds 0 1016 80 10000 4.6 190 06:57 11.12.2019
6389 Clouds 0 1016 80 10000 4.1 190 06:37 11.12.2019
6390 Clouds 0 1016 80 10000 4.1 190 06:18 11.12.2019
6391 Clouds -1 1016 74 10000 5.1 190 05:37 11.12.2019
6392 Clouds -1 1017 74 10000 4.1 200 04:57 11.12.2019
6393 Clouds -1 1018 74 10000 1.5 190 03:49 11.12.2019
6394 Clouds -1 1019 86 10000 2.1 230 02:49 11.12.2019
6395 Clouds -1 1020 86 10000 2.1 220 01:23 11.12.2019
6396 Clouds -1 1021 86 10000 2.6 220 00:46 11.12.2019
6397 Clouds -1 1021 92 10000 2.6 200 00:21 11.12.2019
6398 Clouds -1 1022 64 10000 1.5 180 23:47 10.12.2019
6399 Clouds -1 1022 64 10000 1.5 0 23:28 10.12.2019
6400 Clouds -1 1022 74 10000 2.1 190 22:58 10.12.2019
6401 Clouds -1 1022 74 10000 2.1 190 22:40 10.12.2019
6402 Clouds -1 1023 74 10000 2.1 210 22:22 10.12.2019
6403 Clouds -1 1023 74 10000 2.1 210 21:56 10.12.2019
6404 Clouds -1 1023 74 10000 2.1 210 21:38 10.12.2019
6405 Clouds -1 1023 74 10000 2.6 200 21:19 10.12.2019
6406 Clouds 0 1024 80 10000 1.5 0 20:57 10.12.2019
6407 Clouds 0 1024 80 10000 3.6 260 20:37 10.12.2019
6408 Clouds 0 1024 80 10000 3.6 260 20:19 10.12.2019
6409 Clear 0 1024 80 10000 2.6 260 19:55 10.12.2019
6410 Clear 0 1024 80 10000 3.6 270 19:37 10.12.2019
6411 Clear 0 1024 80 10000 3.6 270 19:18 10.12.2019
6412 Clear 1 1025 82 10000 3.1 270 18:40 10.12.2019
6413 Clear 1 1025 80 10000 2.6 270 18:20 10.12.2019
6414 Clear 2 1025 74 10000 1.5 250 17:58 10.12.2019
6415 Clear 2 1025 74 10000 1.5 250 17:39 10.12.2019
6416 Clear 3 1025 69 10000 3.1 180 17:20 10.12.2019
6417 Clear 4 1025 60 10000 4.1 170 16:54 10.12.2019
6418 Clear 4 1026 86 10000 3.1 170 16:36 10.12.2019
6419 Clear 5 1026 86 10000 3.1 170 16:18 10.12.2019
6420 Clear 5 1026 86 10000 3.1 170 16:18 10.12.2019
6421 Clear 5 1026 86 10000 3.1 170 16:18 10.12.2019
6422 Clear 5 1026 86 10000 3.1 160 15:38 10.12.2019
6423 Clear 6 1026 86 10000 3.6 150 15:18 10.12.2019
6424 Clear 6 1027 56 10000 2.1 160 14:56 10.12.2019
6425 Clear 6 1028 56 10000 1.5 170 14:37 10.12.2019
6426 Clouds 6 1028 56 10000 1.5 170 14:19 10.12.2019
6427 Clouds 6 1028 56 10000 2.6 150 13:57 10.12.2019
6428 Clouds 6 1028 56 10000 2.6 150 13:38 10.12.2019
6429 Clouds 6 1028 52 10000 2.6 160 13:19 10.12.2019
6430 Clouds 6 1028 56 10000 3.1 160 12:47 10.12.2019
6431 Clouds 6 1029 65 10000 2.6 170 12:27 10.12.2019
6432 Clouds 5 1029 78 10000 3.1 170 11:55 10.12.2019
6433 Clouds 5 1029 75 10000 2.6 200 11:37 10.12.2019
6434 Snow 4 1029 75 10000 2.6 200 11:18 10.12.2019
6435 Snow 3 1029 80 10000 2.6 200 10:42 10.12.2019
6436 Snow 3 1029 90 10000 2.6 220 10:24 10.12.2019
6437 Snow 3 1029 90 10000 3.1 190 09:57 10.12.2019
6438 Snow 2 1028 90 10000 2.6 160 09:38 10.12.2019
6439 Snow 2 1028 90 10000 2.6 160 09:38 10.12.2019
6440 Snow 2 1028 90 10000 2.6 160 09:20 10.12.2019
6441 Snow 2 1028 90 10000 2.1 230 08:58 10.12.2019
6442 Snow 2 1028 90 10000 3.1 240 08:39 10.12.2019
6443 Snow 2 1028 90 10000 2.1 230 08:39 10.12.2019
6444 Snow 2 1028 98 10000 3.1 240 08:19 10.12.2019
6445 Snow 2 1028 98 10000 2.1 270 07:44 10.12.2019
6446 Clouds 2 1028 98 10000 3.6 230 07:26 10.12.2019
6447 Snow 2 1027 98 10000 1.5 250 06:50 10.12.2019
6448 Snow 2 1027 98 10000 4.1 300 06:25 10.12.2019
6449 Clouds 2 1026 69 10000 1.5 0 05:57 10.12.2019
6450 Clouds 2 1026 69 10000 1.5 320 05:38 10.12.2019
6451 Snow 3 1025 69 10000 1.5 0 04:23 10.12.2019
6452 Snow 3 1024 65 10000 3.6 320 03:24 10.12.2019
6453 Snow 4 1022 60 10000 7.2 340 01:56 10.12.2019
6454 Rain 4 1022 97 10000 6.2 330 01:38 10.12.2019
6455 Rain 4 1022 97 10000 6.2 330 01:18 10.12.2019
6456 Rain 4 1020 75 10000 3.1 320 00:29 10.12.2019
6457 Rain 5 1019 70 10000 5.7 320 23:58 09.12.2019
6458 Rain 5 1019 70 10000 5.7 320 23:39 09.12.2019
6459 Rain 5 1019 70 10000 5.7 320 23:39 09.12.2019
6460 Rain 5 1018 70 10000 5.1 320 23:20 09.12.2019
6461 Rain 5 1018 70 10000 5.1 320 23:20 09.12.2019
6462 Rain 5 1017 75 10000 5.1 320 22:56 09.12.2019
6463 Rain 5 1016 81 10000 1.5 0 22:38 09.12.2019
6464 Rain 5 1016 81 10000 1.5 0 22:18 09.12.2019
6465 Rain 5 1015 81 10000 3.6 270 21:55 09.12.2019
6466 Rain 5 1015 81 10000 3.6 270 21:37 09.12.2019
6467 Rain 5 1014 75 10000 2.6 0 21:18 09.12.2019
6468 Rain 5 1013 81 10000 1.5 0 20:55 09.12.2019
6469 Rain 5 1012 75 10000 4.1 270 20:37 09.12.2019
6470 Rain 6 1012 75 10000 4.1 270 20:19 09.12.2019
6471 Rain 6 1012 75 10000 5.1 280 19:55 09.12.2019
6472 Rain 6 1012 75 10000 5.1 280 19:55 09.12.2019
6473 Rain 6 1011 75 10000 4.1 280 19:37 09.12.2019
6474 Rain 6 1011 75 10000 4.1 280 19:19 09.12.2019
6475 Rain 6 1011 87 7000 3.6 300 18:55 09.12.2019
6476 Rain 6 1010 81 10000 4.1 280 18:37 09.12.2019
6477 Rain 6 1010 81 10000 4.1 280 18:19 09.12.2019
6478 -273 0 0 0 0 0 17:57 09.12.2019
6479 Rain 6 1009 75 10000 4.6 280 17:38 09.12.2019
6480 Rain 6 1008 70 10000 6.7 310 17:19 09.12.2019
6481 Rain 6 1007 87 10000 2.1 200 16:56 09.12.2019
6482 Rain 7 1006 75 10000 1.5 0 16:37 09.12.2019
6483 Rain 7 1006 75 10000 1.5 0 16:18 09.12.2019
6484 Rain 7 1005 81 10000 2.1 210 15:55 09.12.2019
6485 Rain 7 1005 87 10000 2.6 210 15:37 09.12.2019
6486 Rain 7 1005 87 10000 2.6 210 15:18 09.12.2019
6487 Rain 7 1005 87 10000 5.1 200 14:42 09.12.2019
6488 Rain 7 1004 87 10000 4.1 190 14:19 09.12.2019
6489 Clouds 7 1004 76 10000 5.7 180 13:58 09.12.2019
6490 Clouds 7 1004 76 10000 5.7 180 13:38 09.12.2019
6491 Rain 7 1005 81 10000 4.1 180 13:19 09.12.2019
6492 Clouds 7 1004 81 10000 6.2 180 12:57 09.12.2019
6493 Rain 7 1005 75 10000 4.6 230 12:38 09.12.2019
6494 Rain 7 1005 75 10000 4.6 230 12:20 09.12.2019
6495 Rain 7 1005 81 10000 4.1 200 11:58 09.12.2019
6496 Rain 7 1005 81 10000 4.1 200 11:39 09.12.2019
6497 Rain 7 1005 87 10000 3.6 180 11:21 09.12.2019
6498 Rain 7 1005 81 10000 3.6 200 10:55 09.12.2019
6499 Rain 7 1005 87 10000 3.6 170 10:37 09.12.2019
6500 Rain 7 1005 87 10000 3.6 170 10:18 09.12.2019
6501 Rain 7 1005 81 10000 4.1 190 09:41 09.12.2019
6502 Rain 7 1005 75 10000 4.1 170 09:22 09.12.2019
6503 Clouds 7 1005 81 10000 3.6 150 08:55 09.12.2019
6504 Clouds 7 1006 81 10000 3.1 190 08:37 09.12.2019
6505 Rain 6 1006 81 10000 3.1 190 08:19 09.12.2019
6506 Rain 7 1006 81 10000 2.6 220 07:42 09.12.2019
6507 Rain 7 1005 81 10000 7.2 210 07:24 09.12.2019
6508 Rain 7 1006 87 10000 6.2 210 06:54 09.12.2019
6509 Rain 7 1006 66 10000 7.2 210 06:27 09.12.2019
6510 Clouds 7 1006 66 10000 6.7 210 05:30 09.12.2019
6511 Clouds 7 1007 70 10000 4.6 200 04:51 09.12.2019
6512 Clouds 7 1007 70 10000 5.7 190 04:20 09.12.2019
6513 Rain 8 1008 66 10000 7.2 230 02:27 09.12.2019
6514 Rain 8 1008 61 10000 5.7 220 01:44 09.12.2019
6515 Rain 9 1009 61 10000 6.7 250 00:55 09.12.2019
6516 Rain 8 1008 87 10000 2.6 230 00:32 09.12.2019
6517 Rain 9 1008 76 7000 2.6 290 23:54 08.12.2019
6518 Rain 9 1008 71 8000 3.6 220 23:36 08.12.2019
6519 Rain 9 1008 71 8000 3.6 220 23:18 08.12.2019
6520 Rain 9 1007 66 10000 4.6 200 22:56 08.12.2019
6521 Rain 10 1007 76 10000 3.6 220 22:37 08.12.2019
6522 Rain 10 1007 76 10000 3.6 220 22:18 08.12.2019
6523 Clouds 10 1007 81 10000 3.6 170 21:55 08.12.2019
6524 Clouds 10 1007 87 10000 3.1 170 21:36 08.12.2019
6525 Clouds 10 1007 87 10000 3.1 170 21:18 08.12.2019
6526 Clouds 10 1007 81 10000 4.6 170 20:54 08.12.2019
6527 Clouds 10 1008 87 10000 5.7 180 20:36 08.12.2019
6528 Clouds 9 1008 87 10000 5.7 180 20:18 08.12.2019
6529 Rain 10 1008 81 10000 4.6 180 19:54 08.12.2019
6530 Rain 10 1008 76 10000 5.1 180 19:36 08.12.2019
6531 Rain 10 1008 76 10000 5.1 180 19:18 08.12.2019
6532 Clouds 10 1008 71 10000 4.6 170 18:54 08.12.2019
6533 Rain 10 1008 76 10000 4.1 170 18:36 08.12.2019
6534 Rain 10 1008 76 10000 4.1 170 18:18 08.12.2019
6535 Clouds 10 1008 71 10000 5.7 170 17:54 08.12.2019
6536 Rain 10 1009 71 10000 5.7 230 17:36 08.12.2019
6537 Clouds 11 1009 71 10000 5.7 230 17:18 08.12.2019
6538 Clouds 11 1009 66 10000 4.1 190 16:42 08.12.2019
6539 Clouds 11 1009 62 10000 3.6 200 16:24 08.12.2019
6540 Clouds 11 1009 62 10000 5.7 200 15:59 08.12.2019
6541 Clouds 11 1010 62 10000 7.7 230 15:37 08.12.2019
6542 Clouds 12 1010 62 10000 7.7 230 15:18 08.12.2019
6543 Clouds 12 1010 62 10000 7.7 230 15:18 08.12.2019
6544 Clouds 11 1010 62 10000 8.2 220 14:57 08.12.2019
6545 Clouds 11 1011 62 10000 6.7 220 14:37 08.12.2019
6546 Clouds 12 1011 62 10000 6.7 220 14:19 08.12.2019
6547 Clouds 12 1011 62 10000 8.7 210 13:41 08.12.2019
6548 Clouds 12 1012 62 10000 8.7 220 13:22 08.12.2019
6549 Clouds 11 1012 66 10000 4.6 200 12:59 08.12.2019
6550 Clouds 12 1012 66 10000 4.6 200 12:40 08.12.2019
6551 Clouds 12 1013 62 10000 5.1 220 12:20 08.12.2019
6552 Clouds 11 1014 62 10000 6.2 210 11:59 08.12.2019
6553 Clouds 11 1014 62 10000 4.1 230 11:38 08.12.2019
6554 Clouds 10 1014 62 10000 4.1 230 11:19 08.12.2019
6555 Clouds 9 1014 66 10000 4.1 160 10:57 08.12.2019
6556 Clouds 9 1014 71 10000 4.6 170 10:38 08.12.2019
6557 Clouds 9 1014 71 10000 4.6 170 10:19 08.12.2019
6558 Clouds 8 1014 76 10000 3.6 170 09:55 08.12.2019
6559 Clouds 7 1014 81 10000 4.6 180 09:37 08.12.2019
6560 Clouds 7 1014 81 10000 4.6 180 09:19 08.12.2019
6561 Clouds 7 1014 81 10000 4.6 180 09:19 08.12.2019
6562 Clouds 6 1014 87 10000 4.6 170 08:57 08.12.2019
6563 Clouds 6 1015 87 10000 4.6 180 08:36 08.12.2019
6564 Clouds 5 1015 87 10000 4.6 180 08:18 08.12.2019
6565 Clouds 5 1015 93 10000 2.1 180 07:41 08.12.2019
6566 Clouds 5 1015 93 10000 0.5 0 07:19 08.12.2019
6567 Clouds 4 1016 93 10000 2.1 160 06:43 08.12.2019
6568 Clouds 4 1016 93 10000 4.1 170 06:21 08.12.2019
6569 Clouds 4 1016 93 10000 1 0 05:30 08.12.2019
6570 Clouds 4 1016 87 10000 2.6 180 04:58 08.12.2019
6571 Clouds 5 1018 87 10000 3.1 180 03:47 08.12.2019
6572 Clouds 5 1018 81 10000 4.6 170 03:20 08.12.2019
6573 Clouds 5 1018 93 10000 3.1 170 02:34 08.12.2019
6574 Clouds 6 1019 87 10000 4.1 190 01:48 08.12.2019
6575 Clouds 6 1019 87 10000 4.6 190 00:59 08.12.2019
6576 Clouds 6 1020 87 10000 2.6 200 00:39 08.12.2019
6577 Clouds 6 1020 87 10000 2.6 200 00:19 08.12.2019
6578 Clouds 6 1020 87 10000 2.1 190 23:40 07.12.2019
6579 Clouds 6 1020 93 10000 3.6 180 23:21 07.12.2019
6580 Clouds 6 1020 87 10000 4.1 180 22:56 07.12.2019
6581 Clouds 6 1019 87 10000 5.7 180 22:38 07.12.2019
6582 Clouds 6 1019 87 10000 5.7 180 22:20 07.12.2019
6583 Clouds 6 1020 87 10000 5.7 180 21:56 07.12.2019
6584 Clouds 6 1020 81 10000 5.1 180 21:38 07.12.2019
6585 Clouds 6 1020 81 10000 5.1 180 21:38 07.12.2019
6586 Clouds 6 1020 81 10000 5.1 180 21:38 07.12.2019
6587 Clouds 6 1020 81 10000 5.1 180 21:19 07.12.2019
6588 Clouds 6 1020 87 10000 4.6 180 20:59 07.12.2019
6589 Clouds 7 1020 87 10000 3.1 190 20:36 07.12.2019
6590 Clouds 7 1020 87 10000 3.1 190 20:18 07.12.2019
6591 Clouds 7 1020 87 10000 0.5 0 19:56 07.12.2019
6592 Clouds 7 1020 87 10000 0.5 0 19:38 07.12.2019
6593 Clouds 7 1020 87 10000 0.5 0 19:20 07.12.2019
6594 Clouds 7 1020 81 10000 1.5 270 18:44 07.12.2019
6595 Clouds 7 1019 87 10000 1.5 250 18:20 07.12.2019
6596 Clouds 7 1019 87 10000 2.6 160 17:58 07.12.2019
6597 Clouds 7 1019 87 10000 2.6 160 17:40 07.12.2019
6598 Clouds 8 1019 81 10000 3.1 170 17:22 07.12.2019
6599 Clouds 8 1019 81 10000 3.1 170 16:57 07.12.2019
6600 Clouds 8 1019 81 10000 2.6 200 16:38 07.12.2019
6601 Clouds 8 1019 81 10000 2.6 200 16:20 07.12.2019
6602 Clouds 9 1019 76 10000 3.6 200 15:57 07.12.2019
6603 Clouds 8 1018 66 10000 4.1 180 15:38 07.12.2019
6604 Clouds 9 1018 66 10000 4.1 180 15:20 07.12.2019
6605 Rain 9 1018 71 10000 3.1 230 14:42 07.12.2019
6606 Clouds 9 1019 76 10000 3.6 220 14:19 07.12.2019
6607 Clouds 9 1019 71 10000 3.6 240 13:58 07.12.2019
6608 Clouds 9 1019 71 10000 3.6 240 13:39 07.12.2019
6609 Clouds 9 1019 71 10000 3.1 260 13:19 07.12.2019
6610 Clouds 9 1019 66 10000 4.6 220 12:41 07.12.2019
6611 Clouds 9 1019 76 10000 4.1 210 12:23 07.12.2019
6612 Rain 9 1019 81 10000 4.1 200 11:59 07.12.2019
6613 Rain 9 1019 81 10000 4.1 200 11:41 07.12.2019
6614 Rain 8 1019 81 10000 4.1 190 11:22 07.12.2019
6615 Clouds 8 1018 81 10000 4.6 180 10:54 07.12.2019
6616 Clouds 8 1018 87 10000 5.1 180 10:36 07.12.2019
6617 Clouds 8 1018 87 10000 5.1 180 10:18 07.12.2019
6618 Clouds 7 1018 87 10000 3.6 170 09:39 07.12.2019
6619 Clouds 7 1018 87 10000 3.1 170 09:20 07.12.2019
6620 Rain 7 1018 93 10000 4.1 180 08:45 07.12.2019
6621 Drizzle 7 1018 93 10000 4.6 190 08:24 07.12.2019
6622 Rain 7 1018 93 10000 4.1 190 07:49 07.12.2019
6623 Clouds 7 1017 93 10000 5.7 180 07:28 07.12.2019
6624 Rain 7 1017 93 10000 5.1 180 06:52 07.12.2019
6625 Rain 7 1017 87 10000 4.6 180 06:26 07.12.2019
6626 Rain 7 1016 87 10000 4.6 200 05:47 07.12.2019
6627 Rain 7 1016 87 10000 5.7 180 04:44 07.12.2019
6628 Clouds 7 1016 76 10000 5.7 200 03:50 07.12.2019
6629 Clouds 7 1015 70 10000 4.6 180 02:23 07.12.2019
6630 Clouds 7 1015 70 10000 4.6 180 02:23 07.12.2019
6631 Clouds 6 1015 66 10000 3.6 170 01:42 07.12.2019
6632 Rain 6 1015 70 10000 4.1 190 01:24 07.12.2019
6633 Clouds 6 1015 76 10000 3.6 180 00:36 07.12.2019
6634 Clouds 6 1015 76 10000 3.6 180 00:18 07.12.2019
6635 Clouds 6 1015 76 10000 3.6 180 00:18 07.12.2019
6636 Rain 6 1015 70 10000 2.6 170 23:42 06.12.2019
6637 Rain 5 1017 86 10000 0.5 0 23:20 06.12.2019
6638 Rain 6 1016 70 10000 3.1 170 22:57 06.12.2019
6639 Rain 5 1016 70 10000 4.6 180 22:36 06.12.2019
6640 Rain 5 1016 70 10000 4.6 180 22:18 06.12.2019
6641 Rain 5 1016 65 10000 5.1 170 21:41 06.12.2019
6642 Rain 5 1016 70 10000 3.6 180 21:21 06.12.2019
6643 Rain 5 1016 70 10000 3.6 180 21:21 06.12.2019
6644 Rain 5 1016 75 10000 2.6 180 20:59 06.12.2019
6645 Rain 5 1016 75 10000 2.6 180 20:41 06.12.2019
6646 Clouds 5 1016 61 10000 1.5 0 20:20 06.12.2019
6647 Clouds 4 1016 61 10000 2.6 160 19:43 06.12.2019
6648 Clouds 4 1016 65 10000 3.1 180 19:25 06.12.2019
6649 Clouds 4 1016 65 10000 3.1 170 18:59 06.12.2019
6650 Clouds 4 1016 65 10000 3.1 170 18:40 06.12.2019
6651 Clouds 4 1016 65 10000 1.5 160 18:22 06.12.2019
6652 Clouds 5 1016 70 10000 2.6 60 17:58 06.12.2019
6653 Clouds 5 1016 70 10000 2.6 60 17:40 06.12.2019
6654 Clouds 5 1016 67 10000 1 0 17:22 06.12.2019
6655 Clouds 6 1018 80 10000 2.6 180 16:58 06.12.2019
6656 Clouds 6 1018 80 10000 2.6 180 16:39 06.12.2019
6657 Clouds 7 1017 66 10000 3.6 190 16:21 06.12.2019
6658 Clouds 7 1019 65 10000 2.1 200 15:42 06.12.2019
6659 Clouds 7 1017 61 10000 4.1 180 15:23 06.12.2019
6660 Clouds 7 1017 70 10000 1 120 14:59 06.12.2019
6661 Clouds 7 1017 70 10000 1 120 14:41 06.12.2019
6662 Clouds 7 1017 70 10000 1 0 14:20 06.12.2019
6663 Clouds 7 1018 70 10000 1.5 0 13:58 06.12.2019
6664 Clouds 7 1018 70 10000 1.5 0 13:40 06.12.2019
6665 Clouds 6 1018 80 10000 1 340 13:21 06.12.2019
6666 Clouds 5 1019 80 10000 1 0 12:39 06.12.2019
6667 Clouds 5 1019 86 10000 1 0 12:21 06.12.2019
6668 Clouds 4 1020 93 10000 1.5 230 11:43 06.12.2019
6669 Clouds 3 1020 93 10000 1.5 230 11:23 06.12.2019
6670 Clouds 3 1020 51 9000 2.6 200 10:58 06.12.2019
6671 Rain 3 1020 51 9000 2.6 200 10:40 06.12.2019
6672 Rain 2 1021 100 9000 1.5 200 10:20 06.12.2019
6673 Rain 1 1021 100 10000 1.5 0 09:56 06.12.2019
6674 Clouds 0 1021 92 10000 1 200 09:37 06.12.2019
6675 Clouds 0 1021 92 10000 1 200 09:19 06.12.2019
6676 Clouds 0 1021 100 10000 0.5 0 08:43 06.12.2019
6677 Clouds -1 1021 92 10000 1 0 08:25 06.12.2019
6678 Clouds -1 1021 100 10000 1 0 07:43 06.12.2019
6679 Mist -1 1021 100 3400 1.5 0 07:23 06.12.2019
6680 Mist -1 1021 100 3400 1.5 0 07:23 06.12.2019
6681 Clouds -1 1021 92 10000 1 0 06:55 06.12.2019
6682 Clear -1 1021 92 10000 0.5 0 06:26 06.12.2019
6683 Clear -2 1021 92 10000 1 190 05:52 06.12.2019
6684 Clear -1 1022 92 10000 0.5 200 04:34 06.12.2019
6685 Mist -1 1022 92 5000 1.81 182 01:48 06.12.2019
6686 Mist -1 1022 100 4700 1.71 180 01:22 06.12.2019
6687 Mist -1 1023 45 5000 2.6 160 00:39 06.12.2019
6688 Mist -1 1023 45 5000 2.6 160 00:19 06.12.2019
6689 Mist 0 1023 100 4500 2.1 200 23:38 05.12.2019
6690 Mist -1 1023 100 4500 2.1 200 23:18 05.12.2019
6691 Mist -1 1023 47 4500 3.1 180 22:55 05.12.2019
6692 Mist -1 1023 47 4500 2.6 180 22:37 05.12.2019
6693 Mist -1 1023 47 4500 2.6 180 22:18 05.12.2019
6694 Mist 0 1023 47 5000 2.6 180 21:42 05.12.2019
6695 Mist -1 1023 47 5000 2.6 170 21:24 05.12.2019
6696 Mist -1 1023 100 5000 3.1 160 20:59 05.12.2019
6697 Fog -1 1023 92 250 0.5 0 20:40 05.12.2019
6698 Fog -1 1023 100 250 2.6 190 20:20 05.12.2019
6699 Fog 0 1023 92 350 1.54 165 19:56 05.12.2019
6700 Fog 0 1023 100 100 1 220 19:38 05.12.2019
6701 Fog 0 1023 100 300 0.5 350 19:19 05.12.2019
6702 Fog 0 1023 100 100 1 0 18:54 05.12.2019
6703 Fog 0 1023 100 100 1.5 220 18:36 05.12.2019
6704 Fog 1 1023 100 50 1 230 18:18 05.12.2019
6705 Fog 0 1023 100 100 1 0 17:39 05.12.2019
6706 Fog 0 1023 100 100 1 0 17:39 05.12.2019
6707 Fog 2 1023 100 250 1 0 17:19 05.12.2019
6708 Fog 2 1023 100 50 0.5 0 16:57 05.12.2019
6709 Fog 2 1023 100 100 1 0 16:38 05.12.2019
6710 Clear 2 1023 68 10000 1.5 40 16:20 05.12.2019
6711 Fog 2 1023 100 200 1.5 0 15:56 05.12.2019
6712 Fog 1 1023 68 450 1 0 15:37 05.12.2019
6713 Fog 1 1023 68 200 2.6 360 15:19 05.12.2019
6714 Fog 2 1023 68 200 2.6 360 14:55 05.12.2019
6715 Mist 1 1023 68 1500 2.6 320 14:36 05.12.2019
6716 Mist 5 1023 46 4000 1 0 14:18 05.12.2019
6717 Clear 5 1022 46 10000 2.1 190 13:56 05.12.2019
6718 Mist 5 1023 46 4000 1 0 13:37 05.12.2019
6719 Clear 5 1023 48 10000 0.5 0 13:18 05.12.2019
6720 Mist 4 1023 48 4500 1 0 12:43 05.12.2019
6721 Clear 3 1023 48 10000 1.5 150 12:24 05.12.2019
6722 Mist 3 1023 48 4000 0.5 0 11:59 05.12.2019
6723 Mist 1 1023 100 4000 0.5 0 11:38 05.12.2019
6724 Mist 1 1024 100 3500 0.5 0 11:20 05.12.2019
6725 Clear 1 1023 92 9000 0.72 234 11:20 05.12.2019
6726 Mist 1 1024 100 3500 0.5 0 10:56 05.12.2019
6727 Mist 0 1024 92 2700 1 0 10:38 05.12.2019
6728 Clear 0 1023 92 7000 1 350 10:18 05.12.2019
6729 Fog -1 1023 92 400 1 0 09:46 05.12.2019
6730 Clear -2 1023 92 10000 1 20 09:24 05.12.2019
6731 Mist -3 1023 92 2500 0.5 0 08:59 05.12.2019
6732 Mist -3 1023 100 4000 0.5 50 08:39 05.12.2019
6733 Clouds -2 1022 92 6000 3.1 180 08:20 05.12.2019
6734 Clear -3 1023 100 6000 1.01 167